<?xml version="1.0" encoding="UTF-8" standalone="no" ?>
<gpx xmlns="http://www.topografix.com/GPX/1/1" xmlns:xsi="http://www.w3.org/2001/XMLSchema-instance" xsi:schemaLocation="http://www.topografix.com/GPX/1/1 http://www.topografix.com/GPX/1/1/gpx.xsd" version="1.1" creator="VisuGPX - https://www.visugpx.com">
  <metadata>
    <name>Tricotage autour de la Cime de la Jasse</name>
    <desc><![CDATA[Dents de Bedina, Cime de la Jasse, Pas du Pin ou presque, Col de l\'Aigleton.
12/01/2014]]></desc>
  </metadata>
  <trk>
    <name><![CDATA[JAN-12-14 17:03:19_2]]></name>
    <trkseg>
      <trkpt lat="45.23512" lon="5.98606">
        <ele>1207</ele>
        <time>2014-01-12T07:54:06.000Z</time>
      </trkpt>
      <trkpt lat="45.23512" lon="5.98606">
        <ele>1207</ele>
        <time>2014-01-12T07:54:07.000Z</time>
      </trkpt>
      <trkpt lat="45.23511" lon="5.98607">
        <ele>1207</ele>
        <time>2014-01-12T07:54:10.000Z</time>
      </trkpt>
      <trkpt lat="45.2352" lon="5.98616">
        <ele>1210</ele>
        <time>2014-01-12T07:54:56.000Z</time>
      </trkpt>
      <trkpt lat="45.23521" lon="5.98623">
        <ele>1211</ele>
        <time>2014-01-12T07:57:04.000Z</time>
      </trkpt>
      <trkpt lat="45.23521" lon="5.98622">
        <ele>1211</ele>
        <time>2014-01-12T07:57:25.000Z</time>
      </trkpt>
      <trkpt lat="45.23521" lon="5.98622">
        <ele>1211</ele>
        <time>2014-01-12T07:58:12.000Z</time>
      </trkpt>
      <trkpt lat="45.23521" lon="5.98622">
        <ele>1211</ele>
        <time>2014-01-12T07:58:26.000Z</time>
      </trkpt>
      <trkpt lat="45.23523" lon="5.98621">
        <ele>1211</ele>
        <time>2014-01-12T07:58:29.000Z</time>
      </trkpt>
      <trkpt lat="45.23524" lon="5.98621">
        <ele>1211</ele>
        <time>2014-01-12T07:58:35.000Z</time>
      </trkpt>
      <trkpt lat="45.23524" lon="5.98621">
        <ele>1211</ele>
        <time>2014-01-12T07:59:03.000Z</time>
      </trkpt>
      <trkpt lat="45.23526" lon="5.98623">
        <ele>1211</ele>
        <time>2014-01-12T07:59:10.000Z</time>
      </trkpt>
      <trkpt lat="45.23526" lon="5.98621">
        <ele>1211</ele>
        <time>2014-01-12T07:59:31.000Z</time>
      </trkpt>
      <trkpt lat="45.23526" lon="5.98621">
        <ele>1211</ele>
        <time>2014-01-12T08:00:05.000Z</time>
      </trkpt>
      <trkpt lat="45.23529" lon="5.9862">
        <ele>1211</ele>
        <time>2014-01-12T08:00:50.000Z</time>
      </trkpt>
      <trkpt lat="45.23529" lon="5.98621">
        <ele>1211</ele>
        <time>2014-01-12T08:01:04.000Z</time>
      </trkpt>
      <trkpt lat="45.23529" lon="5.98621">
        <ele>1211</ele>
        <time>2014-01-12T08:01:17.000Z</time>
      </trkpt>
      <trkpt lat="45.23529" lon="5.98621">
        <ele>1211</ele>
        <time>2014-01-12T08:01:22.000Z</time>
      </trkpt>
      <trkpt lat="45.23527" lon="5.9862">
        <ele>1211</ele>
        <time>2014-01-12T08:01:25.000Z</time>
      </trkpt>
      <trkpt lat="45.23526" lon="5.98623">
        <ele>1211</ele>
        <time>2014-01-12T08:01:27.000Z</time>
      </trkpt>
      <trkpt lat="45.23524" lon="5.98624">
        <ele>1211</ele>
        <time>2014-01-12T08:01:30.000Z</time>
      </trkpt>
      <trkpt lat="45.23521" lon="5.9863">
        <ele>1212</ele>
        <time>2014-01-12T08:01:36.000Z</time>
      </trkpt>
      <trkpt lat="45.23516" lon="5.98637">
        <ele>1212</ele>
        <time>2014-01-12T08:01:42.000Z</time>
      </trkpt>
      <trkpt lat="45.23513" lon="5.98646">
        <ele>1213</ele>
        <time>2014-01-12T08:01:48.000Z</time>
      </trkpt>
      <trkpt lat="45.23508" lon="5.98653">
        <ele>1214</ele>
        <time>2014-01-12T08:01:53.000Z</time>
      </trkpt>
      <trkpt lat="45.23507" lon="5.98655">
        <ele>1214</ele>
        <time>2014-01-12T08:01:55.000Z</time>
      </trkpt>
      <trkpt lat="45.23505" lon="5.98657">
        <ele>1214</ele>
        <time>2014-01-12T08:01:57.000Z</time>
      </trkpt>
      <trkpt lat="45.23503" lon="5.98659">
        <ele>1214</ele>
        <time>2014-01-12T08:01:59.000Z</time>
      </trkpt>
      <trkpt lat="45.235" lon="5.98663">
        <ele>1211</ele>
        <time>2014-01-12T08:02:03.000Z</time>
      </trkpt>
      <trkpt lat="45.23496" lon="5.98667">
        <ele>1214</ele>
        <time>2014-01-12T08:02:07.000Z</time>
      </trkpt>
      <trkpt lat="45.23494" lon="5.98668">
        <ele>1214</ele>
        <time>2014-01-12T08:02:09.000Z</time>
      </trkpt>
      <trkpt lat="45.23491" lon="5.98679">
        <ele>1214</ele>
        <time>2014-01-12T08:02:16.000Z</time>
      </trkpt>
      <trkpt lat="45.23487" lon="5.98686">
        <ele>1214</ele>
        <time>2014-01-12T08:02:21.000Z</time>
      </trkpt>
      <trkpt lat="45.23486" lon="5.98687">
        <ele>1214</ele>
        <time>2014-01-12T08:02:22.000Z</time>
      </trkpt>
      <trkpt lat="45.23484" lon="5.98692">
        <ele>1214</ele>
        <time>2014-01-12T08:02:26.000Z</time>
      </trkpt>
      <trkpt lat="45.23478" lon="5.98698">
        <ele>1215</ele>
        <time>2014-01-12T08:02:32.000Z</time>
      </trkpt>
      <trkpt lat="45.23471" lon="5.987">
        <ele>1214</ele>
        <time>2014-01-12T08:02:37.000Z</time>
      </trkpt>
      <trkpt lat="45.23466" lon="5.98705">
        <ele>1214</ele>
        <time>2014-01-12T08:02:43.000Z</time>
      </trkpt>
      <trkpt lat="45.23465" lon="5.98705">
        <ele>1214</ele>
        <time>2014-01-12T08:02:44.000Z</time>
      </trkpt>
      <trkpt lat="45.23458" lon="5.98711">
        <ele>1214</ele>
        <time>2014-01-12T08:02:52.000Z</time>
      </trkpt>
      <trkpt lat="45.2345" lon="5.98717">
        <ele>1214</ele>
        <time>2014-01-12T08:03:00.000Z</time>
      </trkpt>
      <trkpt lat="45.23447" lon="5.9872">
        <ele>1214</ele>
        <time>2014-01-12T08:03:03.000Z</time>
      </trkpt>
      <trkpt lat="45.23444" lon="5.98726">
        <ele>1214</ele>
        <time>2014-01-12T08:03:08.000Z</time>
      </trkpt>
      <trkpt lat="45.23437" lon="5.98736">
        <ele>1214</ele>
        <time>2014-01-12T08:03:16.000Z</time>
      </trkpt>
      <trkpt lat="45.23431" lon="5.98744">
        <ele>1214</ele>
        <time>2014-01-12T08:03:23.000Z</time>
      </trkpt>
      <trkpt lat="45.23426" lon="5.98749">
        <ele>1213</ele>
        <time>2014-01-12T08:03:28.000Z</time>
      </trkpt>
      <trkpt lat="45.2342" lon="5.98756">
        <ele>1217</ele>
        <time>2014-01-12T08:03:35.000Z</time>
      </trkpt>
      <trkpt lat="45.23415" lon="5.9876">
        <ele>1215</ele>
        <time>2014-01-12T08:03:41.000Z</time>
      </trkpt>
      <trkpt lat="45.23407" lon="5.98768">
        <ele>1216</ele>
        <time>2014-01-12T08:03:50.000Z</time>
      </trkpt>
      <trkpt lat="45.234" lon="5.98775">
        <ele>1217</ele>
        <time>2014-01-12T08:03:58.000Z</time>
      </trkpt>
      <trkpt lat="45.23392" lon="5.98781">
        <ele>1217</ele>
        <time>2014-01-12T08:04:06.000Z</time>
      </trkpt>
      <trkpt lat="45.23383" lon="5.98788">
        <ele>1218</ele>
        <time>2014-01-12T08:04:15.000Z</time>
      </trkpt>
      <trkpt lat="45.23377" lon="5.98794">
        <ele>1218</ele>
        <time>2014-01-12T08:04:23.000Z</time>
      </trkpt>
      <trkpt lat="45.23374" lon="5.98796">
        <ele>1218</ele>
        <time>2014-01-12T08:04:26.000Z</time>
      </trkpt>
      <trkpt lat="45.23366" lon="5.98803">
        <ele>1219</ele>
        <time>2014-01-12T08:04:35.000Z</time>
      </trkpt>
      <trkpt lat="45.2336" lon="5.98808">
        <ele>1220</ele>
        <time>2014-01-12T08:04:42.000Z</time>
      </trkpt>
      <trkpt lat="45.23358" lon="5.9881">
        <ele>1220</ele>
        <time>2014-01-12T08:04:45.000Z</time>
      </trkpt>
      <trkpt lat="45.23355" lon="5.98811">
        <ele>1220</ele>
        <time>2014-01-12T08:04:48.000Z</time>
      </trkpt>
      <trkpt lat="45.23346" lon="5.98818">
        <ele>1221</ele>
        <time>2014-01-12T08:04:58.000Z</time>
      </trkpt>
      <trkpt lat="45.23343" lon="5.98821">
        <ele>1222</ele>
        <time>2014-01-12T08:05:02.000Z</time>
      </trkpt>
      <trkpt lat="45.23336" lon="5.98828">
        <ele>1224</ele>
        <time>2014-01-12T08:05:08.000Z</time>
      </trkpt>
      <trkpt lat="45.23335" lon="5.98829">
        <ele>1225</ele>
        <time>2014-01-12T08:05:10.000Z</time>
      </trkpt>
      <trkpt lat="45.23332" lon="5.98832">
        <ele>1225</ele>
        <time>2014-01-12T08:05:14.000Z</time>
      </trkpt>
      <trkpt lat="45.23325" lon="5.98837">
        <ele>1229</ele>
        <time>2014-01-12T08:05:21.000Z</time>
      </trkpt>
      <trkpt lat="45.23317" lon="5.98843">
        <ele>1232</ele>
        <time>2014-01-12T08:05:30.000Z</time>
      </trkpt>
      <trkpt lat="45.23311" lon="5.98849">
        <ele>1233</ele>
        <time>2014-01-12T08:05:36.000Z</time>
      </trkpt>
      <trkpt lat="45.23307" lon="5.98852">
        <ele>1234</ele>
        <time>2014-01-12T08:05:41.000Z</time>
      </trkpt>
      <trkpt lat="45.23303" lon="5.98856">
        <ele>1235</ele>
        <time>2014-01-12T08:05:48.000Z</time>
      </trkpt>
      <trkpt lat="45.23297" lon="5.98862">
        <ele>1236</ele>
        <time>2014-01-12T08:05:54.000Z</time>
      </trkpt>
      <trkpt lat="45.23295" lon="5.98863">
        <ele>1236</ele>
        <time>2014-01-12T08:05:56.000Z</time>
      </trkpt>
      <trkpt lat="45.23285" lon="5.9887">
        <ele>1237</ele>
        <time>2014-01-12T08:06:06.000Z</time>
      </trkpt>
      <trkpt lat="45.2328" lon="5.98875">
        <ele>1237</ele>
        <time>2014-01-12T08:06:11.000Z</time>
      </trkpt>
      <trkpt lat="45.23277" lon="5.98876">
        <ele>1237</ele>
        <time>2014-01-12T08:06:14.000Z</time>
      </trkpt>
      <trkpt lat="45.2327" lon="5.98879">
        <ele>1238</ele>
        <time>2014-01-12T08:06:20.000Z</time>
      </trkpt>
      <trkpt lat="45.23259" lon="5.98879">
        <ele>1238</ele>
        <time>2014-01-12T08:06:29.000Z</time>
      </trkpt>
      <trkpt lat="45.23249" lon="5.98881">
        <ele>1237</ele>
        <time>2014-01-12T08:06:36.000Z</time>
      </trkpt>
      <trkpt lat="45.23241" lon="5.98882">
        <ele>1237</ele>
        <time>2014-01-12T08:06:42.000Z</time>
      </trkpt>
      <trkpt lat="45.23233" lon="5.98884">
        <ele>1237</ele>
        <time>2014-01-12T08:06:50.000Z</time>
      </trkpt>
      <trkpt lat="45.23223" lon="5.98888">
        <ele>1237</ele>
        <time>2014-01-12T08:07:01.000Z</time>
      </trkpt>
      <trkpt lat="45.23214" lon="5.98895">
        <ele>1238</ele>
        <time>2014-01-12T08:07:10.000Z</time>
      </trkpt>
      <trkpt lat="45.23212" lon="5.98897">
        <ele>1238</ele>
        <time>2014-01-12T08:07:12.000Z</time>
      </trkpt>
      <trkpt lat="45.23204" lon="5.98906">
        <ele>1238</ele>
        <time>2014-01-12T08:07:20.000Z</time>
      </trkpt>
      <trkpt lat="45.23199" lon="5.98911">
        <ele>1238</ele>
        <time>2014-01-12T08:07:26.000Z</time>
      </trkpt>
      <trkpt lat="45.23194" lon="5.9892">
        <ele>1249</ele>
        <time>2014-01-12T08:07:34.000Z</time>
      </trkpt>
      <trkpt lat="45.23189" lon="5.9893">
        <ele>1249</ele>
        <time>2014-01-12T08:07:41.000Z</time>
      </trkpt>
      <trkpt lat="45.23185" lon="5.98939">
        <ele>1250</ele>
        <time>2014-01-12T08:07:48.000Z</time>
      </trkpt>
      <trkpt lat="45.23179" lon="5.9895">
        <ele>1251</ele>
        <time>2014-01-12T08:07:56.000Z</time>
      </trkpt>
      <trkpt lat="45.23179" lon="5.98951">
        <ele>1251</ele>
        <time>2014-01-12T08:07:57.000Z</time>
      </trkpt>
      <trkpt lat="45.23178" lon="5.98954">
        <ele>1251</ele>
        <time>2014-01-12T08:07:59.000Z</time>
      </trkpt>
      <trkpt lat="45.23174" lon="5.98966">
        <ele>1253</ele>
        <time>2014-01-12T08:08:07.000Z</time>
      </trkpt>
      <trkpt lat="45.23166" lon="5.98977">
        <ele>1247</ele>
        <time>2014-01-12T08:08:15.000Z</time>
      </trkpt>
      <trkpt lat="45.23162" lon="5.98983">
        <ele>1248</ele>
        <time>2014-01-12T08:08:20.000Z</time>
      </trkpt>
      <trkpt lat="45.23161" lon="5.98985">
        <ele>1249</ele>
        <time>2014-01-12T08:08:22.000Z</time>
      </trkpt>
      <trkpt lat="45.23155" lon="5.98996">
        <ele>1250</ele>
        <time>2014-01-12T08:08:30.000Z</time>
      </trkpt>
      <trkpt lat="45.23154" lon="5.98997">
        <ele>1250</ele>
        <time>2014-01-12T08:08:31.000Z</time>
      </trkpt>
      <trkpt lat="45.23149" lon="5.9901">
        <ele>1256</ele>
        <time>2014-01-12T08:08:41.000Z</time>
      </trkpt>
      <trkpt lat="45.23147" lon="5.99018">
        <ele>1256</ele>
        <time>2014-01-12T08:08:46.000Z</time>
      </trkpt>
      <trkpt lat="45.23143" lon="5.99032">
        <ele>1257</ele>
        <time>2014-01-12T08:08:55.000Z</time>
      </trkpt>
      <trkpt lat="45.23143" lon="5.99037">
        <ele>1257</ele>
        <time>2014-01-12T08:08:58.000Z</time>
      </trkpt>
      <trkpt lat="45.2314" lon="5.99048">
        <ele>1258</ele>
        <time>2014-01-12T08:09:05.000Z</time>
      </trkpt>
      <trkpt lat="45.23138" lon="5.9905">
        <ele>1259</ele>
        <time>2014-01-12T08:09:07.000Z</time>
      </trkpt>
      <trkpt lat="45.23136" lon="5.99058">
        <ele>1259</ele>
        <time>2014-01-12T08:09:12.000Z</time>
      </trkpt>
      <trkpt lat="45.23131" lon="5.99072">
        <ele>1260</ele>
        <time>2014-01-12T08:09:21.000Z</time>
      </trkpt>
      <trkpt lat="45.23126" lon="5.9908">
        <ele>1260</ele>
        <time>2014-01-12T08:09:28.000Z</time>
      </trkpt>
      <trkpt lat="45.2312" lon="5.9909">
        <ele>1276</ele>
        <time>2014-01-12T08:09:35.000Z</time>
      </trkpt>
      <trkpt lat="45.23114" lon="5.99098">
        <ele>1275</ele>
        <time>2014-01-12T08:09:43.000Z</time>
      </trkpt>
      <trkpt lat="45.23107" lon="5.99104">
        <ele>1275</ele>
        <time>2014-01-12T08:09:50.000Z</time>
      </trkpt>
      <trkpt lat="45.23099" lon="5.9911">
        <ele>1276</ele>
        <time>2014-01-12T08:09:57.000Z</time>
      </trkpt>
      <trkpt lat="45.23096" lon="5.99113">
        <ele>1276</ele>
        <time>2014-01-12T08:10:00.000Z</time>
      </trkpt>
      <trkpt lat="45.23086" lon="5.99118">
        <ele>1277</ele>
        <time>2014-01-12T08:10:09.000Z</time>
      </trkpt>
      <trkpt lat="45.2308" lon="5.99122">
        <ele>1270</ele>
        <time>2014-01-12T08:10:15.000Z</time>
      </trkpt>
      <trkpt lat="45.23071" lon="5.99128">
        <ele>1272</ele>
        <time>2014-01-12T08:10:24.000Z</time>
      </trkpt>
      <trkpt lat="45.23068" lon="5.99129">
        <ele>1272</ele>
        <time>2014-01-12T08:10:27.000Z</time>
      </trkpt>
      <trkpt lat="45.23066" lon="5.9913">
        <ele>1272</ele>
        <time>2014-01-12T08:10:29.000Z</time>
      </trkpt>
      <trkpt lat="45.23057" lon="5.99134">
        <ele>1273</ele>
        <time>2014-01-12T08:10:36.000Z</time>
      </trkpt>
      <trkpt lat="45.23051" lon="5.99137">
        <ele>1273</ele>
        <time>2014-01-12T08:10:42.000Z</time>
      </trkpt>
      <trkpt lat="45.23041" lon="5.9914">
        <ele>1272</ele>
        <time>2014-01-12T08:10:50.000Z</time>
      </trkpt>
      <trkpt lat="45.23034" lon="5.99142">
        <ele>1272</ele>
        <time>2014-01-12T08:10:56.000Z</time>
      </trkpt>
      <trkpt lat="45.23026" lon="5.99145">
        <ele>1273</ele>
        <time>2014-01-12T08:11:04.000Z</time>
      </trkpt>
      <trkpt lat="45.23024" lon="5.99146">
        <ele>1273</ele>
        <time>2014-01-12T08:11:06.000Z</time>
      </trkpt>
      <trkpt lat="45.23018" lon="5.99148">
        <ele>1274</ele>
        <time>2014-01-12T08:11:11.000Z</time>
      </trkpt>
      <trkpt lat="45.23014" lon="5.99149">
        <ele>1274</ele>
        <time>2014-01-12T08:11:14.000Z</time>
      </trkpt>
      <trkpt lat="45.23006" lon="5.99151">
        <ele>1275</ele>
        <time>2014-01-12T08:11:21.000Z</time>
      </trkpt>
      <trkpt lat="45.23" lon="5.99155">
        <ele>1274</ele>
        <time>2014-01-12T08:11:27.000Z</time>
      </trkpt>
      <trkpt lat="45.22998" lon="5.99156">
        <ele>1275</ele>
        <time>2014-01-12T08:11:29.000Z</time>
      </trkpt>
      <trkpt lat="45.22991" lon="5.9916">
        <ele>1274</ele>
        <time>2014-01-12T08:11:36.000Z</time>
      </trkpt>
      <trkpt lat="45.22984" lon="5.99165">
        <ele>1272</ele>
        <time>2014-01-12T08:11:43.000Z</time>
      </trkpt>
      <trkpt lat="45.2298" lon="5.99167">
        <ele>1289</ele>
        <time>2014-01-12T08:11:47.000Z</time>
      </trkpt>
      <trkpt lat="45.22978" lon="5.99169">
        <ele>1290</ele>
        <time>2014-01-12T08:11:49.000Z</time>
      </trkpt>
      <trkpt lat="45.22974" lon="5.99171">
        <ele>1290</ele>
        <time>2014-01-12T08:11:53.000Z</time>
      </trkpt>
      <trkpt lat="45.22968" lon="5.99174">
        <ele>1291</ele>
        <time>2014-01-12T08:12:00.000Z</time>
      </trkpt>
      <trkpt lat="45.22966" lon="5.99174">
        <ele>1291</ele>
        <time>2014-01-12T08:12:01.000Z</time>
      </trkpt>
      <trkpt lat="45.22957" lon="5.99175">
        <ele>1291</ele>
        <time>2014-01-12T08:12:08.000Z</time>
      </trkpt>
      <trkpt lat="45.22948" lon="5.99173">
        <ele>1289</ele>
        <time>2014-01-12T08:12:15.000Z</time>
      </trkpt>
      <trkpt lat="45.22943" lon="5.99172">
        <ele>1288</ele>
        <time>2014-01-12T08:12:20.000Z</time>
      </trkpt>
      <trkpt lat="45.22932" lon="5.9917">
        <ele>1284</ele>
        <time>2014-01-12T08:12:29.000Z</time>
      </trkpt>
      <trkpt lat="45.22926" lon="5.99169">
        <ele>1281</ele>
        <time>2014-01-12T08:12:34.000Z</time>
      </trkpt>
      <trkpt lat="45.2292" lon="5.9917">
        <ele>1278</ele>
        <time>2014-01-12T08:12:39.000Z</time>
      </trkpt>
      <trkpt lat="45.22916" lon="5.99175">
        <ele>1274</ele>
        <time>2014-01-12T08:12:45.000Z</time>
      </trkpt>
      <trkpt lat="45.22916" lon="5.99176">
        <ele>1274</ele>
        <time>2014-01-12T08:12:46.000Z</time>
      </trkpt>
      <trkpt lat="45.22909" lon="5.99182">
        <ele>1276</ele>
        <time>2014-01-12T08:12:53.000Z</time>
      </trkpt>
      <trkpt lat="45.22905" lon="5.9919">
        <ele>1277</ele>
        <time>2014-01-12T08:12:59.000Z</time>
      </trkpt>
      <trkpt lat="45.22898" lon="5.99196">
        <ele>1278</ele>
        <time>2014-01-12T08:13:06.000Z</time>
      </trkpt>
      <trkpt lat="45.22894" lon="5.99201">
        <ele>1278</ele>
        <time>2014-01-12T08:13:11.000Z</time>
      </trkpt>
      <trkpt lat="45.2289" lon="5.99207">
        <ele>1279</ele>
        <time>2014-01-12T08:13:16.000Z</time>
      </trkpt>
      <trkpt lat="45.22887" lon="5.99212">
        <ele>1280</ele>
        <time>2014-01-12T08:13:20.000Z</time>
      </trkpt>
      <trkpt lat="45.22883" lon="5.99218">
        <ele>1280</ele>
        <time>2014-01-12T08:13:25.000Z</time>
      </trkpt>
      <trkpt lat="45.22882" lon="5.99221">
        <ele>1281</ele>
        <time>2014-01-12T08:13:27.000Z</time>
      </trkpt>
      <trkpt lat="45.22874" lon="5.99233">
        <ele>1281</ele>
        <time>2014-01-12T08:13:37.000Z</time>
      </trkpt>
      <trkpt lat="45.22868" lon="5.99242">
        <ele>1281</ele>
        <time>2014-01-12T08:13:45.000Z</time>
      </trkpt>
      <trkpt lat="45.22865" lon="5.99246">
        <ele>1280</ele>
        <time>2014-01-12T08:13:49.000Z</time>
      </trkpt>
      <trkpt lat="45.2286" lon="5.99257">
        <ele>1304</ele>
        <time>2014-01-12T08:13:57.000Z</time>
      </trkpt>
      <trkpt lat="45.22856" lon="5.99263">
        <ele>1304</ele>
        <time>2014-01-12T08:14:02.000Z</time>
      </trkpt>
      <trkpt lat="45.2285" lon="5.99268">
        <ele>1304</ele>
        <time>2014-01-12T08:14:08.000Z</time>
      </trkpt>
      <trkpt lat="45.22844" lon="5.9927">
        <ele>1303</ele>
        <time>2014-01-12T08:14:13.000Z</time>
      </trkpt>
      <trkpt lat="45.22843" lon="5.99273">
        <ele>1304</ele>
        <time>2014-01-12T08:14:15.000Z</time>
      </trkpt>
      <trkpt lat="45.22836" lon="5.99278">
        <ele>1306</ele>
        <time>2014-01-12T08:14:22.000Z</time>
      </trkpt>
      <trkpt lat="45.22833" lon="5.9928">
        <ele>1290</ele>
        <time>2014-01-12T08:14:25.000Z</time>
      </trkpt>
      <trkpt lat="45.22829" lon="5.99286">
        <ele>1292</ele>
        <time>2014-01-12T08:14:30.000Z</time>
      </trkpt>
      <trkpt lat="45.22827" lon="5.9929">
        <ele>1294</ele>
        <time>2014-01-12T08:14:33.000Z</time>
      </trkpt>
      <trkpt lat="45.22815" lon="5.99293">
        <ele>1294</ele>
        <time>2014-01-12T08:14:42.000Z</time>
      </trkpt>
      <trkpt lat="45.2281" lon="5.99295">
        <ele>1294</ele>
        <time>2014-01-12T08:14:46.000Z</time>
      </trkpt>
      <trkpt lat="45.22807" lon="5.99297">
        <ele>1294</ele>
        <time>2014-01-12T08:14:49.000Z</time>
      </trkpt>
      <trkpt lat="45.22803" lon="5.99299">
        <ele>1294</ele>
        <time>2014-01-12T08:14:54.000Z</time>
      </trkpt>
      <trkpt lat="45.22801" lon="5.99303">
        <ele>1295</ele>
        <time>2014-01-12T08:14:57.000Z</time>
      </trkpt>
      <trkpt lat="45.22793" lon="5.99314">
        <ele>1296</ele>
        <time>2014-01-12T08:15:06.000Z</time>
      </trkpt>
      <trkpt lat="45.22792" lon="5.99315">
        <ele>1296</ele>
        <time>2014-01-12T08:15:07.000Z</time>
      </trkpt>
      <trkpt lat="45.22785" lon="5.99319">
        <ele>1295</ele>
        <time>2014-01-12T08:15:14.000Z</time>
      </trkpt>
      <trkpt lat="45.22781" lon="5.99323">
        <ele>1295</ele>
        <time>2014-01-12T08:15:18.000Z</time>
      </trkpt>
      <trkpt lat="45.22777" lon="5.99327">
        <ele>1295</ele>
        <time>2014-01-12T08:15:22.000Z</time>
      </trkpt>
      <trkpt lat="45.22772" lon="5.99333">
        <ele>1296</ele>
        <time>2014-01-12T08:15:28.000Z</time>
      </trkpt>
      <trkpt lat="45.22765" lon="5.99347">
        <ele>1320</ele>
        <time>2014-01-12T08:15:38.000Z</time>
      </trkpt>
      <trkpt lat="45.22759" lon="5.99352">
        <ele>1321</ele>
        <time>2014-01-12T08:15:44.000Z</time>
      </trkpt>
      <trkpt lat="45.22752" lon="5.99361">
        <ele>1325</ele>
        <time>2014-01-12T08:15:52.000Z</time>
      </trkpt>
      <trkpt lat="45.2275" lon="5.99363">
        <ele>1326</ele>
        <time>2014-01-12T08:15:54.000Z</time>
      </trkpt>
      <trkpt lat="45.22744" lon="5.9937">
        <ele>1312</ele>
        <time>2014-01-12T08:16:01.000Z</time>
      </trkpt>
      <trkpt lat="45.22744" lon="5.99371">
        <ele>1313</ele>
        <time>2014-01-12T08:16:02.000Z</time>
      </trkpt>
      <trkpt lat="45.22741" lon="5.99374">
        <ele>1313</ele>
        <time>2014-01-12T08:16:05.000Z</time>
      </trkpt>
      <trkpt lat="45.22733" lon="5.99381">
        <ele>1315</ele>
        <time>2014-01-12T08:16:13.000Z</time>
      </trkpt>
      <trkpt lat="45.22725" lon="5.99385">
        <ele>1315</ele>
        <time>2014-01-12T08:16:20.000Z</time>
      </trkpt>
      <trkpt lat="45.22719" lon="5.99391">
        <ele>1316</ele>
        <time>2014-01-12T08:16:27.000Z</time>
      </trkpt>
      <trkpt lat="45.22717" lon="5.99392">
        <ele>1316</ele>
        <time>2014-01-12T08:16:29.000Z</time>
      </trkpt>
      <trkpt lat="45.22715" lon="5.99393">
        <ele>1315</ele>
        <time>2014-01-12T08:16:31.000Z</time>
      </trkpt>
      <trkpt lat="45.22713" lon="5.99397">
        <ele>1316</ele>
        <time>2014-01-12T08:16:34.000Z</time>
      </trkpt>
      <trkpt lat="45.22706" lon="5.994">
        <ele>1315</ele>
        <time>2014-01-12T08:16:40.000Z</time>
      </trkpt>
      <trkpt lat="45.22704" lon="5.99402">
        <ele>1315</ele>
        <time>2014-01-12T08:16:43.000Z</time>
      </trkpt>
      <trkpt lat="45.22699" lon="5.9941">
        <ele>1315</ele>
        <time>2014-01-12T08:16:50.000Z</time>
      </trkpt>
      <trkpt lat="45.22697" lon="5.99414">
        <ele>1315</ele>
        <time>2014-01-12T08:16:53.000Z</time>
      </trkpt>
      <trkpt lat="45.22691" lon="5.99418">
        <ele>1334</ele>
        <time>2014-01-12T08:17:00.000Z</time>
      </trkpt>
      <trkpt lat="45.22689" lon="5.99419">
        <ele>1334</ele>
        <time>2014-01-12T08:17:01.000Z</time>
      </trkpt>
      <trkpt lat="45.22686" lon="5.9942">
        <ele>1332</ele>
        <time>2014-01-12T08:17:04.000Z</time>
      </trkpt>
      <trkpt lat="45.22676" lon="5.99424">
        <ele>1327</ele>
        <time>2014-01-12T08:17:12.000Z</time>
      </trkpt>
      <trkpt lat="45.22674" lon="5.99425">
        <ele>1326</ele>
        <time>2014-01-12T08:17:14.000Z</time>
      </trkpt>
      <trkpt lat="45.22664" lon="5.99427">
        <ele>1318</ele>
        <time>2014-01-12T08:17:22.000Z</time>
      </trkpt>
      <trkpt lat="45.22659" lon="5.99429">
        <ele>1319</ele>
        <time>2014-01-12T08:17:26.000Z</time>
      </trkpt>
      <trkpt lat="45.22652" lon="5.99428">
        <ele>1319</ele>
        <time>2014-01-12T08:17:31.000Z</time>
      </trkpt>
      <trkpt lat="45.22649" lon="5.99427">
        <ele>1320</ele>
        <time>2014-01-12T08:17:33.000Z</time>
      </trkpt>
      <trkpt lat="45.22641" lon="5.9943">
        <ele>1320</ele>
        <time>2014-01-12T08:17:39.000Z</time>
      </trkpt>
      <trkpt lat="45.22634" lon="5.99432">
        <ele>1321</ele>
        <time>2014-01-12T08:17:45.000Z</time>
      </trkpt>
      <trkpt lat="45.22629" lon="5.99433">
        <ele>1321</ele>
        <time>2014-01-12T08:17:49.000Z</time>
      </trkpt>
      <trkpt lat="45.22623" lon="5.99439">
        <ele>1321</ele>
        <time>2014-01-12T08:17:56.000Z</time>
      </trkpt>
      <trkpt lat="45.22622" lon="5.99442">
        <ele>1322</ele>
        <time>2014-01-12T08:17:59.000Z</time>
      </trkpt>
      <trkpt lat="45.2262" lon="5.99454">
        <ele>1323</ele>
        <time>2014-01-12T08:18:09.000Z</time>
      </trkpt>
      <trkpt lat="45.22616" lon="5.99468">
        <ele>1325</ele>
        <time>2014-01-12T08:18:18.000Z</time>
      </trkpt>
      <trkpt lat="45.22614" lon="5.9947">
        <ele>1325</ele>
        <time>2014-01-12T08:18:20.000Z</time>
      </trkpt>
      <trkpt lat="45.22613" lon="5.99476">
        <ele>1325</ele>
        <time>2014-01-12T08:18:23.000Z</time>
      </trkpt>
      <trkpt lat="45.22609" lon="5.99482">
        <ele>1326</ele>
        <time>2014-01-12T08:18:28.000Z</time>
      </trkpt>
      <trkpt lat="45.22606" lon="5.99496">
        <ele>1326</ele>
        <time>2014-01-12T08:18:36.000Z</time>
      </trkpt>
      <trkpt lat="45.22604" lon="5.99503">
        <ele>1340</ele>
        <time>2014-01-12T08:18:40.000Z</time>
      </trkpt>
      <trkpt lat="45.22599" lon="5.99515">
        <ele>1340</ele>
        <time>2014-01-12T08:18:47.000Z</time>
      </trkpt>
      <trkpt lat="45.22597" lon="5.99524">
        <ele>1343</ele>
        <time>2014-01-12T08:18:52.000Z</time>
      </trkpt>
      <trkpt lat="45.22592" lon="5.99536">
        <ele>1345</ele>
        <time>2014-01-12T08:19:00.000Z</time>
      </trkpt>
      <trkpt lat="45.22586" lon="5.99541">
        <ele>1346</ele>
        <time>2014-01-12T08:19:06.000Z</time>
      </trkpt>
      <trkpt lat="45.22581" lon="5.99544">
        <ele>1332</ele>
        <time>2014-01-12T08:19:11.000Z</time>
      </trkpt>
      <trkpt lat="45.22577" lon="5.9955">
        <ele>1333</ele>
        <time>2014-01-12T08:19:16.000Z</time>
      </trkpt>
      <trkpt lat="45.22576" lon="5.99553">
        <ele>1333</ele>
        <time>2014-01-12T08:19:18.000Z</time>
      </trkpt>
      <trkpt lat="45.22569" lon="5.99556">
        <ele>1333</ele>
        <time>2014-01-12T08:19:24.000Z</time>
      </trkpt>
      <trkpt lat="45.22563" lon="5.9956">
        <ele>1333</ele>
        <time>2014-01-12T08:19:30.000Z</time>
      </trkpt>
      <trkpt lat="45.22556" lon="5.99565">
        <ele>1332</ele>
        <time>2014-01-12T08:19:37.000Z</time>
      </trkpt>
      <trkpt lat="45.22554" lon="5.99567">
        <ele>1332</ele>
        <time>2014-01-12T08:19:39.000Z</time>
      </trkpt>
      <trkpt lat="45.22549" lon="5.99573">
        <ele>1331</ele>
        <time>2014-01-12T08:19:45.000Z</time>
      </trkpt>
      <trkpt lat="45.22546" lon="5.99578">
        <ele>1331</ele>
        <time>2014-01-12T08:19:49.000Z</time>
      </trkpt>
      <trkpt lat="45.22543" lon="5.99584">
        <ele>1340</ele>
        <time>2014-01-12T08:19:53.000Z</time>
      </trkpt>
      <trkpt lat="45.22541" lon="5.99587">
        <ele>1340</ele>
        <time>2014-01-12T08:19:56.000Z</time>
      </trkpt>
      <trkpt lat="45.22529" lon="5.9959">
        <ele>1336</ele>
        <time>2014-01-12T08:20:05.000Z</time>
      </trkpt>
      <trkpt lat="45.22526" lon="5.99595">
        <ele>1336</ele>
        <time>2014-01-12T08:20:10.000Z</time>
      </trkpt>
      <trkpt lat="45.22525" lon="5.99597">
        <ele>1336</ele>
        <time>2014-01-12T08:20:11.000Z</time>
      </trkpt>
      <trkpt lat="45.22523" lon="5.99607">
        <ele>1337</ele>
        <time>2014-01-12T08:20:18.000Z</time>
      </trkpt>
      <trkpt lat="45.22521" lon="5.99609">
        <ele>1337</ele>
        <time>2014-01-12T08:20:20.000Z</time>
      </trkpt>
      <trkpt lat="45.22519" lon="5.99618">
        <ele>1338</ele>
        <time>2014-01-12T08:20:27.000Z</time>
      </trkpt>
      <trkpt lat="45.22518" lon="5.99621">
        <ele>1338</ele>
        <time>2014-01-12T08:20:30.000Z</time>
      </trkpt>
      <trkpt lat="45.22517" lon="5.99625">
        <ele>1339</ele>
        <time>2014-01-12T08:20:33.000Z</time>
      </trkpt>
      <trkpt lat="45.22517" lon="5.99628">
        <ele>1339</ele>
        <time>2014-01-12T08:20:35.000Z</time>
      </trkpt>
      <trkpt lat="45.22515" lon="5.9964">
        <ele>1339</ele>
        <time>2014-01-12T08:20:45.000Z</time>
      </trkpt>
      <trkpt lat="45.22516" lon="5.99648">
        <ele>1339</ele>
        <time>2014-01-12T08:20:51.000Z</time>
      </trkpt>
      <trkpt lat="45.22518" lon="5.99659">
        <ele>1339</ele>
        <time>2014-01-12T08:20:58.000Z</time>
      </trkpt>
      <trkpt lat="45.22521" lon="5.99674">
        <ele>1350</ele>
        <time>2014-01-12T08:21:05.000Z</time>
      </trkpt>
      <trkpt lat="45.2252" lon="5.99685">
        <ele>1352</ele>
        <time>2014-01-12T08:21:13.000Z</time>
      </trkpt>
      <trkpt lat="45.22518" lon="5.99693">
        <ele>1353</ele>
        <time>2014-01-12T08:21:19.000Z</time>
      </trkpt>
      <trkpt lat="45.22514" lon="5.99703">
        <ele>1354</ele>
        <time>2014-01-12T08:21:27.000Z</time>
      </trkpt>
      <trkpt lat="45.22511" lon="5.99713">
        <ele>1355</ele>
        <time>2014-01-12T08:21:35.000Z</time>
      </trkpt>
      <trkpt lat="45.22511" lon="5.99722">
        <ele>1355</ele>
        <time>2014-01-12T08:21:40.000Z</time>
      </trkpt>
      <trkpt lat="45.22514" lon="5.99738">
        <ele>1354</ele>
        <time>2014-01-12T08:21:47.000Z</time>
      </trkpt>
      <trkpt lat="45.22512" lon="5.99753">
        <ele>1358</ele>
        <time>2014-01-12T08:21:55.000Z</time>
      </trkpt>
      <trkpt lat="45.22511" lon="5.99767">
        <ele>1363</ele>
        <time>2014-01-12T08:22:03.000Z</time>
      </trkpt>
      <trkpt lat="45.22506" lon="5.99778">
        <ele>1365</ele>
        <time>2014-01-12T08:22:10.000Z</time>
      </trkpt>
      <trkpt lat="45.22504" lon="5.99784">
        <ele>1367</ele>
        <time>2014-01-12T08:22:17.000Z</time>
      </trkpt>
      <trkpt lat="45.22504" lon="5.99786">
        <ele>1367</ele>
        <time>2014-01-12T08:22:18.000Z</time>
      </trkpt>
      <trkpt lat="45.22501" lon="5.99793">
        <ele>1368</ele>
        <time>2014-01-12T08:22:24.000Z</time>
      </trkpt>
      <trkpt lat="45.22496" lon="5.99801">
        <ele>1351</ele>
        <time>2014-01-12T08:22:32.000Z</time>
      </trkpt>
      <trkpt lat="45.2249" lon="5.99809">
        <ele>1352</ele>
        <time>2014-01-12T08:22:39.000Z</time>
      </trkpt>
      <trkpt lat="45.22487" lon="5.99815">
        <ele>1353</ele>
        <time>2014-01-12T08:22:43.000Z</time>
      </trkpt>
      <trkpt lat="45.22485" lon="5.99818">
        <ele>1353</ele>
        <time>2014-01-12T08:22:45.000Z</time>
      </trkpt>
      <trkpt lat="45.22474" lon="5.99824">
        <ele>1352</ele>
        <time>2014-01-12T08:22:52.000Z</time>
      </trkpt>
      <trkpt lat="45.22467" lon="5.99826">
        <ele>1352</ele>
        <time>2014-01-12T08:22:57.000Z</time>
      </trkpt>
      <trkpt lat="45.22462" lon="5.99831">
        <ele>1351</ele>
        <time>2014-01-12T08:23:01.000Z</time>
      </trkpt>
      <trkpt lat="45.22455" lon="5.99845">
        <ele>1362</ele>
        <time>2014-01-12T08:23:09.000Z</time>
      </trkpt>
      <trkpt lat="45.2245" lon="5.99854">
        <ele>1362</ele>
        <time>2014-01-12T08:23:14.000Z</time>
      </trkpt>
      <trkpt lat="45.22448" lon="5.99864">
        <ele>1363</ele>
        <time>2014-01-12T08:23:22.000Z</time>
      </trkpt>
      <trkpt lat="45.22447" lon="5.9987">
        <ele>1364</ele>
        <time>2014-01-12T08:23:29.000Z</time>
      </trkpt>
      <trkpt lat="45.22449" lon="5.99877">
        <ele>1365</ele>
        <time>2014-01-12T08:23:35.000Z</time>
      </trkpt>
      <trkpt lat="45.22453" lon="5.99881">
        <ele>1366</ele>
        <time>2014-01-12T08:23:43.000Z</time>
      </trkpt>
      <trkpt lat="45.22451" lon="5.99886">
        <ele>1366</ele>
        <time>2014-01-12T08:23:50.000Z</time>
      </trkpt>
      <trkpt lat="45.2245" lon="5.99892">
        <ele>1367</ele>
        <time>2014-01-12T08:23:56.000Z</time>
      </trkpt>
      <trkpt lat="45.22451" lon="5.99894">
        <ele>1367</ele>
        <time>2014-01-12T08:24:03.000Z</time>
      </trkpt>
      <trkpt lat="45.22451" lon="5.99899">
        <ele>1367</ele>
        <time>2014-01-12T08:24:09.000Z</time>
      </trkpt>
      <trkpt lat="45.22451" lon="5.99906">
        <ele>1368</ele>
        <time>2014-01-12T08:24:17.000Z</time>
      </trkpt>
      <trkpt lat="45.22454" lon="5.99911">
        <ele>1368</ele>
        <time>2014-01-12T08:24:25.000Z</time>
      </trkpt>
      <trkpt lat="45.22454" lon="5.99911">
        <ele>1368</ele>
        <time>2014-01-12T08:24:49.000Z</time>
      </trkpt>
      <trkpt lat="45.22455" lon="5.99915">
        <ele>1368</ele>
        <time>2014-01-12T08:24:57.000Z</time>
      </trkpt>
      <trkpt lat="45.22455" lon="5.99918">
        <ele>1378</ele>
        <time>2014-01-12T08:25:11.000Z</time>
      </trkpt>
      <trkpt lat="45.22455" lon="5.99919">
        <ele>1378</ele>
        <time>2014-01-12T08:25:21.000Z</time>
      </trkpt>
      <trkpt lat="45.22455" lon="5.99919">
        <ele>1378</ele>
        <time>2014-01-12T08:25:34.000Z</time>
      </trkpt>
      <trkpt lat="45.22455" lon="5.9992">
        <ele>1378</ele>
        <time>2014-01-12T08:26:04.000Z</time>
      </trkpt>
      <trkpt lat="45.22455" lon="5.9992">
        <ele>1378</ele>
        <time>2014-01-12T08:26:13.000Z</time>
      </trkpt>
      <trkpt lat="45.22455" lon="5.9992">
        <ele>1378</ele>
        <time>2014-01-12T08:26:14.000Z</time>
      </trkpt>
      <trkpt lat="45.22455" lon="5.9992">
        <ele>1378</ele>
        <time>2014-01-12T08:26:23.000Z</time>
      </trkpt>
      <trkpt lat="45.22455" lon="5.9992">
        <ele>1378</ele>
        <time>2014-01-12T08:26:24.000Z</time>
      </trkpt>
      <trkpt lat="45.22455" lon="5.9992">
        <ele>1378</ele>
        <time>2014-01-12T08:26:25.000Z</time>
      </trkpt>
      <trkpt lat="45.22454" lon="5.99922">
        <ele>1378</ele>
        <time>2014-01-12T08:26:44.000Z</time>
      </trkpt>
      <trkpt lat="45.22454" lon="5.99924">
        <ele>1378</ele>
        <time>2014-01-12T08:26:49.000Z</time>
      </trkpt>
      <trkpt lat="45.22453" lon="5.99922">
        <ele>1378</ele>
        <time>2014-01-12T08:27:12.000Z</time>
      </trkpt>
      <trkpt lat="45.22453" lon="5.99921">
        <ele>1378</ele>
        <time>2014-01-12T08:27:57.000Z</time>
      </trkpt>
      <trkpt lat="45.22455" lon="5.99924">
        <ele>1378</ele>
        <time>2014-01-12T08:28:03.000Z</time>
      </trkpt>
      <trkpt lat="45.22456" lon="5.9993">
        <ele>1378</ele>
        <time>2014-01-12T08:28:10.000Z</time>
      </trkpt>
      <trkpt lat="45.22456" lon="5.99934">
        <ele>1379</ele>
        <time>2014-01-12T08:28:18.000Z</time>
      </trkpt>
      <trkpt lat="45.22457" lon="5.99939">
        <ele>1379</ele>
        <time>2014-01-12T08:28:25.000Z</time>
      </trkpt>
      <trkpt lat="45.22458" lon="5.99943">
        <ele>1379</ele>
        <time>2014-01-12T08:28:28.000Z</time>
      </trkpt>
      <trkpt lat="45.22456" lon="5.9995">
        <ele>1380</ele>
        <time>2014-01-12T08:28:34.000Z</time>
      </trkpt>
      <trkpt lat="45.22457" lon="5.99957">
        <ele>1380</ele>
        <time>2014-01-12T08:28:39.000Z</time>
      </trkpt>
      <trkpt lat="45.22454" lon="5.99964">
        <ele>1380</ele>
        <time>2014-01-12T08:28:45.000Z</time>
      </trkpt>
      <trkpt lat="45.22448" lon="5.99978">
        <ele>1381</ele>
        <time>2014-01-12T08:28:53.000Z</time>
      </trkpt>
      <trkpt lat="45.22446" lon="5.99982">
        <ele>1381</ele>
        <time>2014-01-12T08:28:56.000Z</time>
      </trkpt>
      <trkpt lat="45.22442" lon="5.99984">
        <ele>1381</ele>
        <time>2014-01-12T08:29:00.000Z</time>
      </trkpt>
      <trkpt lat="45.2244" lon="5.99993">
        <ele>1381</ele>
        <time>2014-01-12T08:29:08.000Z</time>
      </trkpt>
      <trkpt lat="45.22442" lon="6">
        <ele>1381</ele>
        <time>2014-01-12T08:29:14.000Z</time>
      </trkpt>
      <trkpt lat="45.22441" lon="6.00007">
        <ele>1389</ele>
        <time>2014-01-12T08:29:21.000Z</time>
      </trkpt>
      <trkpt lat="45.2244" lon="6.0001">
        <ele>1389</ele>
        <time>2014-01-12T08:29:26.000Z</time>
      </trkpt>
      <trkpt lat="45.2244" lon="6.00013">
        <ele>1390</ele>
        <time>2014-01-12T08:29:33.000Z</time>
      </trkpt>
      <trkpt lat="45.22437" lon="6.00016">
        <ele>1390</ele>
        <time>2014-01-12T08:29:40.000Z</time>
      </trkpt>
      <trkpt lat="45.22437" lon="6.00022">
        <ele>1390</ele>
        <time>2014-01-12T08:29:45.000Z</time>
      </trkpt>
      <trkpt lat="45.22438" lon="6.00025">
        <ele>1391</ele>
        <time>2014-01-12T08:29:53.000Z</time>
      </trkpt>
      <trkpt lat="45.22435" lon="6.00024">
        <ele>1391</ele>
        <time>2014-01-12T08:30:03.000Z</time>
      </trkpt>
      <trkpt lat="45.22435" lon="6.0003">
        <ele>1391</ele>
        <time>2014-01-12T08:30:11.000Z</time>
      </trkpt>
      <trkpt lat="45.22435" lon="6.00033">
        <ele>1392</ele>
        <time>2014-01-12T08:30:18.000Z</time>
      </trkpt>
      <trkpt lat="45.22433" lon="6.00041">
        <ele>1393</ele>
        <time>2014-01-12T08:30:26.000Z</time>
      </trkpt>
      <trkpt lat="45.22432" lon="6.00047">
        <ele>1393</ele>
        <time>2014-01-12T08:30:32.000Z</time>
      </trkpt>
      <trkpt lat="45.22432" lon="6.00055">
        <ele>1394</ele>
        <time>2014-01-12T08:30:38.000Z</time>
      </trkpt>
      <trkpt lat="45.2243" lon="6.00059">
        <ele>1394</ele>
        <time>2014-01-12T08:30:45.000Z</time>
      </trkpt>
      <trkpt lat="45.22427" lon="6.00064">
        <ele>1394</ele>
        <time>2014-01-12T08:30:52.000Z</time>
      </trkpt>
      <trkpt lat="45.22427" lon="6.00067">
        <ele>1394</ele>
        <time>2014-01-12T08:31:00.000Z</time>
      </trkpt>
      <trkpt lat="45.22425" lon="6.00072">
        <ele>1394</ele>
        <time>2014-01-12T08:31:05.000Z</time>
      </trkpt>
      <trkpt lat="45.22422" lon="6.00079">
        <ele>1393</ele>
        <time>2014-01-12T08:31:11.000Z</time>
      </trkpt>
      <trkpt lat="45.22421" lon="6.00082">
        <ele>1393</ele>
        <time>2014-01-12T08:31:15.000Z</time>
      </trkpt>
      <trkpt lat="45.22418" lon="6.00084">
        <ele>1394</ele>
        <time>2014-01-12T08:31:22.000Z</time>
      </trkpt>
      <trkpt lat="45.22418" lon="6.0009">
        <ele>1398</ele>
        <time>2014-01-12T08:31:29.000Z</time>
      </trkpt>
      <trkpt lat="45.22418" lon="6.00095">
        <ele>1401</ele>
        <time>2014-01-12T08:31:36.000Z</time>
      </trkpt>
      <trkpt lat="45.22414" lon="6.00098">
        <ele>1399</ele>
        <time>2014-01-12T08:31:43.000Z</time>
      </trkpt>
      <trkpt lat="45.2241" lon="6.00103">
        <ele>1401</ele>
        <time>2014-01-12T08:31:50.000Z</time>
      </trkpt>
      <trkpt lat="45.22405" lon="6.00107">
        <ele>1402</ele>
        <time>2014-01-12T08:31:57.000Z</time>
      </trkpt>
      <trkpt lat="45.22404" lon="6.00109">
        <ele>1403</ele>
        <time>2014-01-12T08:32:01.000Z</time>
      </trkpt>
      <trkpt lat="45.22402" lon="6.00114">
        <ele>1404</ele>
        <time>2014-01-12T08:32:08.000Z</time>
      </trkpt>
      <trkpt lat="45.224" lon="6.00116">
        <ele>1404</ele>
        <time>2014-01-12T08:32:11.000Z</time>
      </trkpt>
      <trkpt lat="45.22398" lon="6.00123">
        <ele>1405</ele>
        <time>2014-01-12T08:32:17.000Z</time>
      </trkpt>
      <trkpt lat="45.22397" lon="6.00128">
        <ele>1406</ele>
        <time>2014-01-12T08:32:23.000Z</time>
      </trkpt>
      <trkpt lat="45.22396" lon="6.00129">
        <ele>1406</ele>
        <time>2014-01-12T08:32:24.000Z</time>
      </trkpt>
      <trkpt lat="45.22389" lon="6.00138">
        <ele>1408</ele>
        <time>2014-01-12T08:32:32.000Z</time>
      </trkpt>
      <trkpt lat="45.22387" lon="6.00139">
        <ele>1408</ele>
        <time>2014-01-12T08:32:33.000Z</time>
      </trkpt>
      <trkpt lat="45.2238" lon="6.00147">
        <ele>1408</ele>
        <time>2014-01-12T08:32:41.000Z</time>
      </trkpt>
      <trkpt lat="45.22377" lon="6.00148">
        <ele>1408</ele>
        <time>2014-01-12T08:32:45.000Z</time>
      </trkpt>
      <trkpt lat="45.22366" lon="6.00145">
        <ele>1408</ele>
        <time>2014-01-12T08:32:52.000Z</time>
      </trkpt>
      <trkpt lat="45.22362" lon="6.00147">
        <ele>1408</ele>
        <time>2014-01-12T08:32:59.000Z</time>
      </trkpt>
      <trkpt lat="45.22365" lon="6.00148">
        <ele>1408</ele>
        <time>2014-01-12T08:33:06.000Z</time>
      </trkpt>
      <trkpt lat="45.22364" lon="6.00152">
        <ele>1408</ele>
        <time>2014-01-12T08:33:12.000Z</time>
      </trkpt>
      <trkpt lat="45.22363" lon="6.00159">
        <ele>1408</ele>
        <time>2014-01-12T08:33:19.000Z</time>
      </trkpt>
      <trkpt lat="45.22356" lon="6.00171">
        <ele>1416</ele>
        <time>2014-01-12T08:33:27.000Z</time>
      </trkpt>
      <trkpt lat="45.22354" lon="6.00174">
        <ele>1416</ele>
        <time>2014-01-12T08:33:30.000Z</time>
      </trkpt>
      <trkpt lat="45.22351" lon="6.00175">
        <ele>1416</ele>
        <time>2014-01-12T08:33:32.000Z</time>
      </trkpt>
      <trkpt lat="45.22346" lon="6.00183">
        <ele>1416</ele>
        <time>2014-01-12T08:33:39.000Z</time>
      </trkpt>
      <trkpt lat="45.22344" lon="6.00192">
        <ele>1418</ele>
        <time>2014-01-12T08:33:46.000Z</time>
      </trkpt>
      <trkpt lat="45.22344" lon="6.00193">
        <ele>1418</ele>
        <time>2014-01-12T08:33:50.000Z</time>
      </trkpt>
      <trkpt lat="45.2234" lon="6.00202">
        <ele>1419</ele>
        <time>2014-01-12T08:33:57.000Z</time>
      </trkpt>
      <trkpt lat="45.22336" lon="6.00203">
        <ele>1419</ele>
        <time>2014-01-12T08:34:01.000Z</time>
      </trkpt>
      <trkpt lat="45.22334" lon="6.00204">
        <ele>1419</ele>
        <time>2014-01-12T08:34:03.000Z</time>
      </trkpt>
      <trkpt lat="45.22327" lon="6.00205">
        <ele>1425</ele>
        <time>2014-01-12T08:34:09.000Z</time>
      </trkpt>
      <trkpt lat="45.22323" lon="6.00208">
        <ele>1426</ele>
        <time>2014-01-12T08:34:13.000Z</time>
      </trkpt>
      <trkpt lat="45.22319" lon="6.00211">
        <ele>1426</ele>
        <time>2014-01-12T08:34:17.000Z</time>
      </trkpt>
      <trkpt lat="45.22318" lon="6.00212">
        <ele>1427</ele>
        <time>2014-01-12T08:34:19.000Z</time>
      </trkpt>
      <trkpt lat="45.22315" lon="6.00213">
        <ele>1427</ele>
        <time>2014-01-12T08:34:21.000Z</time>
      </trkpt>
      <trkpt lat="45.22311" lon="6.00216">
        <ele>1427</ele>
        <time>2014-01-12T08:34:25.000Z</time>
      </trkpt>
      <trkpt lat="45.22308" lon="6.00221">
        <ele>1428</ele>
        <time>2014-01-12T08:34:32.000Z</time>
      </trkpt>
      <trkpt lat="45.22307" lon="6.00221">
        <ele>1428</ele>
        <time>2014-01-12T08:34:39.000Z</time>
      </trkpt>
      <trkpt lat="45.22307" lon="6.00223">
        <ele>1428</ele>
        <time>2014-01-12T08:34:46.000Z</time>
      </trkpt>
      <trkpt lat="45.22307" lon="6.00228">
        <ele>1428</ele>
        <time>2014-01-12T08:34:52.000Z</time>
      </trkpt>
      <trkpt lat="45.22308" lon="6.00233">
        <ele>1428</ele>
        <time>2014-01-12T08:35:00.000Z</time>
      </trkpt>
      <trkpt lat="45.22309" lon="6.00239">
        <ele>1428</ele>
        <time>2014-01-12T08:35:08.000Z</time>
      </trkpt>
      <trkpt lat="45.22308" lon="6.00243">
        <ele>1428</ele>
        <time>2014-01-12T08:35:16.000Z</time>
      </trkpt>
      <trkpt lat="45.22308" lon="6.00247">
        <ele>1428</ele>
        <time>2014-01-12T08:35:23.000Z</time>
      </trkpt>
      <trkpt lat="45.22312" lon="6.00255">
        <ele>1432</ele>
        <time>2014-01-12T08:35:31.000Z</time>
      </trkpt>
      <trkpt lat="45.22314" lon="6.0026">
        <ele>1432</ele>
        <time>2014-01-12T08:35:38.000Z</time>
      </trkpt>
      <trkpt lat="45.22317" lon="6.00269">
        <ele>1433</ele>
        <time>2014-01-12T08:35:45.000Z</time>
      </trkpt>
      <trkpt lat="45.22318" lon="6.00279">
        <ele>1434</ele>
        <time>2014-01-12T08:35:53.000Z</time>
      </trkpt>
      <trkpt lat="45.22319" lon="6.00285">
        <ele>1435</ele>
        <time>2014-01-12T08:35:59.000Z</time>
      </trkpt>
      <trkpt lat="45.22321" lon="6.00295">
        <ele>1435</ele>
        <time>2014-01-12T08:36:07.000Z</time>
      </trkpt>
      <trkpt lat="45.22321" lon="6.00303">
        <ele>1436</ele>
        <time>2014-01-12T08:36:13.000Z</time>
      </trkpt>
      <trkpt lat="45.22323" lon="6.0031">
        <ele>1436</ele>
        <time>2014-01-12T08:36:20.000Z</time>
      </trkpt>
      <trkpt lat="45.22324" lon="6.00312">
        <ele>1436</ele>
        <time>2014-01-12T08:36:22.000Z</time>
      </trkpt>
      <trkpt lat="45.22326" lon="6.00317">
        <ele>1436</ele>
        <time>2014-01-12T08:36:29.000Z</time>
      </trkpt>
      <trkpt lat="45.22328" lon="6.0032">
        <ele>1436</ele>
        <time>2014-01-12T08:36:36.000Z</time>
      </trkpt>
      <trkpt lat="45.22331" lon="6.00326">
        <ele>1436</ele>
        <time>2014-01-12T08:36:43.000Z</time>
      </trkpt>
      <trkpt lat="45.22332" lon="6.0033">
        <ele>1435</ele>
        <time>2014-01-12T08:36:46.000Z</time>
      </trkpt>
      <trkpt lat="45.22335" lon="6.00343">
        <ele>1441</ele>
        <time>2014-01-12T08:36:56.000Z</time>
      </trkpt>
      <trkpt lat="45.22335" lon="6.00351">
        <ele>1444</ele>
        <time>2014-01-12T08:37:03.000Z</time>
      </trkpt>
      <trkpt lat="45.22336" lon="6.00355">
        <ele>1446</ele>
        <time>2014-01-12T08:37:09.000Z</time>
      </trkpt>
      <trkpt lat="45.22336" lon="6.00361">
        <ele>1448</ele>
        <time>2014-01-12T08:37:15.000Z</time>
      </trkpt>
      <trkpt lat="45.22337" lon="6.00367">
        <ele>1449</ele>
        <time>2014-01-12T08:37:22.000Z</time>
      </trkpt>
      <trkpt lat="45.22336" lon="6.0037">
        <ele>1450</ele>
        <time>2014-01-12T08:37:31.000Z</time>
      </trkpt>
      <trkpt lat="45.22336" lon="6.0037">
        <ele>1450</ele>
        <time>2014-01-12T08:37:46.000Z</time>
      </trkpt>
      <trkpt lat="45.22336" lon="6.0037">
        <ele>1450</ele>
        <time>2014-01-12T08:37:51.000Z</time>
      </trkpt>
      <trkpt lat="45.22336" lon="6.0037">
        <ele>1450</ele>
        <time>2014-01-12T08:37:54.000Z</time>
      </trkpt>
      <trkpt lat="45.22336" lon="6.0037">
        <ele>1450</ele>
        <time>2014-01-12T08:37:55.000Z</time>
      </trkpt>
      <trkpt lat="45.22335" lon="6.0037">
        <ele>1450</ele>
        <time>2014-01-12T08:37:59.000Z</time>
      </trkpt>
      <trkpt lat="45.22335" lon="6.00373">
        <ele>1450</ele>
        <time>2014-01-12T08:38:07.000Z</time>
      </trkpt>
      <trkpt lat="45.22335" lon="6.00374">
        <ele>1450</ele>
        <time>2014-01-12T08:38:22.000Z</time>
      </trkpt>
      <trkpt lat="45.22335" lon="6.00374">
        <ele>1450</ele>
        <time>2014-01-12T08:38:33.000Z</time>
      </trkpt>
      <trkpt lat="45.22335" lon="6.00376">
        <ele>1451</ele>
        <time>2014-01-12T08:38:38.000Z</time>
      </trkpt>
      <trkpt lat="45.22336" lon="6.00383">
        <ele>1451</ele>
        <time>2014-01-12T08:38:45.000Z</time>
      </trkpt>
      <trkpt lat="45.22335" lon="6.00386">
        <ele>1452</ele>
        <time>2014-01-12T08:38:49.000Z</time>
      </trkpt>
      <trkpt lat="45.22337" lon="6.00393">
        <ele>1452</ele>
        <time>2014-01-12T08:38:57.000Z</time>
      </trkpt>
      <trkpt lat="45.22338" lon="6.00396">
        <ele>1453</ele>
        <time>2014-01-12T08:39:03.000Z</time>
      </trkpt>
      <trkpt lat="45.22337" lon="6.00405">
        <ele>1453</ele>
        <time>2014-01-12T08:39:09.000Z</time>
      </trkpt>
      <trkpt lat="45.22335" lon="6.00409">
        <ele>1453</ele>
        <time>2014-01-12T08:39:14.000Z</time>
      </trkpt>
      <trkpt lat="45.22334" lon="6.0041">
        <ele>1453</ele>
        <time>2014-01-12T08:39:15.000Z</time>
      </trkpt>
      <trkpt lat="45.22329" lon="6.00417">
        <ele>1455</ele>
        <time>2014-01-12T08:39:23.000Z</time>
      </trkpt>
      <trkpt lat="45.22323" lon="6.00422">
        <ele>1459</ele>
        <time>2014-01-12T08:39:30.000Z</time>
      </trkpt>
      <trkpt lat="45.22318" lon="6.00428">
        <ele>1462</ele>
        <time>2014-01-12T08:39:37.000Z</time>
      </trkpt>
      <trkpt lat="45.22313" lon="6.00434">
        <ele>1464</ele>
        <time>2014-01-12T08:39:43.000Z</time>
      </trkpt>
      <trkpt lat="45.22306" lon="6.00443">
        <ele>1467</ele>
        <time>2014-01-12T08:39:53.000Z</time>
      </trkpt>
      <trkpt lat="45.22301" lon="6.00444">
        <ele>1468</ele>
        <time>2014-01-12T08:39:59.000Z</time>
      </trkpt>
      <trkpt lat="45.22298" lon="6.00445">
        <ele>1468</ele>
        <time>2014-01-12T08:40:03.000Z</time>
      </trkpt>
      <trkpt lat="45.22292" lon="6.00443">
        <ele>1468</ele>
        <time>2014-01-12T08:40:09.000Z</time>
      </trkpt>
      <trkpt lat="45.22289" lon="6.00444">
        <ele>1468</ele>
        <time>2014-01-12T08:40:17.000Z</time>
      </trkpt>
      <trkpt lat="45.22287" lon="6.00444">
        <ele>1469</ele>
        <time>2014-01-12T08:40:23.000Z</time>
      </trkpt>
      <trkpt lat="45.22285" lon="6.00446">
        <ele>1469</ele>
        <time>2014-01-12T08:40:29.000Z</time>
      </trkpt>
      <trkpt lat="45.22285" lon="6.00446">
        <ele>1469</ele>
        <time>2014-01-12T08:40:37.000Z</time>
      </trkpt>
      <trkpt lat="45.2228" lon="6.00444">
        <ele>1469</ele>
        <time>2014-01-12T08:40:43.000Z</time>
      </trkpt>
      <trkpt lat="45.22272" lon="6.00438">
        <ele>1468</ele>
        <time>2014-01-12T08:40:49.000Z</time>
      </trkpt>
      <trkpt lat="45.22265" lon="6.00439">
        <ele>1468</ele>
        <time>2014-01-12T08:40:56.000Z</time>
      </trkpt>
      <trkpt lat="45.22261" lon="6.00439">
        <ele>1468</ele>
        <time>2014-01-12T08:41:02.000Z</time>
      </trkpt>
      <trkpt lat="45.2226" lon="6.00439">
        <ele>1468</ele>
        <time>2014-01-12T08:41:03.000Z</time>
      </trkpt>
      <trkpt lat="45.22254" lon="6.00437">
        <ele>1468</ele>
        <time>2014-01-12T08:41:10.000Z</time>
      </trkpt>
      <trkpt lat="45.2225" lon="6.00435">
        <ele>1477</ele>
        <time>2014-01-12T08:41:16.000Z</time>
      </trkpt>
      <trkpt lat="45.22247" lon="6.00435">
        <ele>1477</ele>
        <time>2014-01-12T08:41:21.000Z</time>
      </trkpt>
      <trkpt lat="45.22243" lon="6.00434">
        <ele>1478</ele>
        <time>2014-01-12T08:41:25.000Z</time>
      </trkpt>
      <trkpt lat="45.22238" lon="6.00433">
        <ele>1478</ele>
        <time>2014-01-12T08:41:32.000Z</time>
      </trkpt>
      <trkpt lat="45.22236" lon="6.00433">
        <ele>1479</ele>
        <time>2014-01-12T08:41:35.000Z</time>
      </trkpt>
      <trkpt lat="45.22234" lon="6.00434">
        <ele>1480</ele>
        <time>2014-01-12T08:41:40.000Z</time>
      </trkpt>
      <trkpt lat="45.22234" lon="6.00439">
        <ele>1481</ele>
        <time>2014-01-12T08:41:46.000Z</time>
      </trkpt>
      <trkpt lat="45.22236" lon="6.00443">
        <ele>1482</ele>
        <time>2014-01-12T08:41:51.000Z</time>
      </trkpt>
      <trkpt lat="45.22236" lon="6.00451">
        <ele>1484</ele>
        <time>2014-01-12T08:41:58.000Z</time>
      </trkpt>
      <trkpt lat="45.22237" lon="6.00459">
        <ele>1485</ele>
        <time>2014-01-12T08:42:05.000Z</time>
      </trkpt>
      <trkpt lat="45.22235" lon="6.00468">
        <ele>1486</ele>
        <time>2014-01-12T08:42:13.000Z</time>
      </trkpt>
      <trkpt lat="45.22233" lon="6.00471">
        <ele>1487</ele>
        <time>2014-01-12T08:42:19.000Z</time>
      </trkpt>
      <trkpt lat="45.22233" lon="6.00473">
        <ele>1487</ele>
        <time>2014-01-12T08:42:21.000Z</time>
      </trkpt>
      <trkpt lat="45.22232" lon="6.00476">
        <ele>1487</ele>
        <time>2014-01-12T08:42:24.000Z</time>
      </trkpt>
      <trkpt lat="45.22234" lon="6.00485">
        <ele>1487</ele>
        <time>2014-01-12T08:42:31.000Z</time>
      </trkpt>
      <trkpt lat="45.22239" lon="6.00494">
        <ele>1486</ele>
        <time>2014-01-12T08:42:39.000Z</time>
      </trkpt>
      <trkpt lat="45.2224" lon="6.00501">
        <ele>1491</ele>
        <time>2014-01-12T08:42:47.000Z</time>
      </trkpt>
      <trkpt lat="45.22244" lon="6.0051">
        <ele>1492</ele>
        <time>2014-01-12T08:42:56.000Z</time>
      </trkpt>
      <trkpt lat="45.22242" lon="6.00515">
        <ele>1495</ele>
        <time>2014-01-12T08:43:03.000Z</time>
      </trkpt>
      <trkpt lat="45.22235" lon="6.00514">
        <ele>1497</ele>
        <time>2014-01-12T08:43:10.000Z</time>
      </trkpt>
      <trkpt lat="45.22228" lon="6.00514">
        <ele>1499</ele>
        <time>2014-01-12T08:43:17.000Z</time>
      </trkpt>
      <trkpt lat="45.22225" lon="6.00521">
        <ele>1502</ele>
        <time>2014-01-12T08:43:26.000Z</time>
      </trkpt>
      <trkpt lat="45.22226" lon="6.00528">
        <ele>1503</ele>
        <time>2014-01-12T08:43:34.000Z</time>
      </trkpt>
      <trkpt lat="45.22227" lon="6.00536">
        <ele>1504</ele>
        <time>2014-01-12T08:43:41.000Z</time>
      </trkpt>
      <trkpt lat="45.2223" lon="6.00541">
        <ele>1505</ele>
        <time>2014-01-12T08:43:48.000Z</time>
      </trkpt>
      <trkpt lat="45.2223" lon="6.0055">
        <ele>1506</ele>
        <time>2014-01-12T08:43:55.000Z</time>
      </trkpt>
      <trkpt lat="45.22231" lon="6.00561">
        <ele>1507</ele>
        <time>2014-01-12T08:44:05.000Z</time>
      </trkpt>
      <trkpt lat="45.22232" lon="6.00568">
        <ele>1508</ele>
        <time>2014-01-12T08:44:12.000Z</time>
      </trkpt>
      <trkpt lat="45.22232" lon="6.00577">
        <ele>1509</ele>
        <time>2014-01-12T08:44:20.000Z</time>
      </trkpt>
      <trkpt lat="45.22232" lon="6.00578">
        <ele>1509</ele>
        <time>2014-01-12T08:44:21.000Z</time>
      </trkpt>
      <trkpt lat="45.22232" lon="6.00586">
        <ele>1518</ele>
        <time>2014-01-12T08:44:30.000Z</time>
      </trkpt>
      <trkpt lat="45.22232" lon="6.00594">
        <ele>1519</ele>
        <time>2014-01-12T08:44:37.000Z</time>
      </trkpt>
      <trkpt lat="45.22233" lon="6.006">
        <ele>1520</ele>
        <time>2014-01-12T08:44:44.000Z</time>
      </trkpt>
      <trkpt lat="45.22235" lon="6.00607">
        <ele>1521</ele>
        <time>2014-01-12T08:44:51.000Z</time>
      </trkpt>
      <trkpt lat="45.22235" lon="6.00615">
        <ele>1522</ele>
        <time>2014-01-12T08:44:59.000Z</time>
      </trkpt>
      <trkpt lat="45.22236" lon="6.00622">
        <ele>1523</ele>
        <time>2014-01-12T08:45:06.000Z</time>
      </trkpt>
      <trkpt lat="45.22237" lon="6.00627">
        <ele>1524</ele>
        <time>2014-01-12T08:45:12.000Z</time>
      </trkpt>
      <trkpt lat="45.22237" lon="6.00627">
        <ele>1524</ele>
        <time>2014-01-12T08:45:13.000Z</time>
      </trkpt>
      <trkpt lat="45.2224" lon="6.00632">
        <ele>1525</ele>
        <time>2014-01-12T08:45:19.000Z</time>
      </trkpt>
      <trkpt lat="45.22242" lon="6.00639">
        <ele>1526</ele>
        <time>2014-01-12T08:45:26.000Z</time>
      </trkpt>
      <trkpt lat="45.22244" lon="6.00646">
        <ele>1526</ele>
        <time>2014-01-12T08:45:34.000Z</time>
      </trkpt>
      <trkpt lat="45.22245" lon="6.00651">
        <ele>1527</ele>
        <time>2014-01-12T08:45:39.000Z</time>
      </trkpt>
      <trkpt lat="45.22246" lon="6.00658">
        <ele>1527</ele>
        <time>2014-01-12T08:45:47.000Z</time>
      </trkpt>
      <trkpt lat="45.22247" lon="6.00664">
        <ele>1528</ele>
        <time>2014-01-12T08:45:55.000Z</time>
      </trkpt>
      <trkpt lat="45.22247" lon="6.00672">
        <ele>1532</ele>
        <time>2014-01-12T08:46:02.000Z</time>
      </trkpt>
      <trkpt lat="45.22247" lon="6.00675">
        <ele>1532</ele>
        <time>2014-01-12T08:46:08.000Z</time>
      </trkpt>
      <trkpt lat="45.22247" lon="6.00675">
        <ele>1532</ele>
        <time>2014-01-12T08:46:14.000Z</time>
      </trkpt>
      <trkpt lat="45.22245" lon="6.00675">
        <ele>1533</ele>
        <time>2014-01-12T08:46:27.000Z</time>
      </trkpt>
      <trkpt lat="45.22245" lon="6.00676">
        <ele>1533</ele>
        <time>2014-01-12T08:46:39.000Z</time>
      </trkpt>
      <trkpt lat="45.22246" lon="6.00684">
        <ele>1536</ele>
        <time>2014-01-12T08:46:44.000Z</time>
      </trkpt>
      <trkpt lat="45.22245" lon="6.00688">
        <ele>1537</ele>
        <time>2014-01-12T08:46:49.000Z</time>
      </trkpt>
      <trkpt lat="45.22244" lon="6.00697">
        <ele>1539</ele>
        <time>2014-01-12T08:46:57.000Z</time>
      </trkpt>
      <trkpt lat="45.22244" lon="6.00698">
        <ele>1539</ele>
        <time>2014-01-12T08:47:17.000Z</time>
      </trkpt>
      <trkpt lat="45.22244" lon="6.00699">
        <ele>1540</ele>
        <time>2014-01-12T08:47:23.000Z</time>
      </trkpt>
      <trkpt lat="45.22244" lon="6.00703">
        <ele>1540</ele>
        <time>2014-01-12T08:47:26.000Z</time>
      </trkpt>
      <trkpt lat="45.22243" lon="6.00713">
        <ele>1542</ele>
        <time>2014-01-12T08:47:32.000Z</time>
      </trkpt>
      <trkpt lat="45.22242" lon="6.00723">
        <ele>1543</ele>
        <time>2014-01-12T08:47:39.000Z</time>
      </trkpt>
      <trkpt lat="45.22242" lon="6.00731">
        <ele>1544</ele>
        <time>2014-01-12T08:47:45.000Z</time>
      </trkpt>
      <trkpt lat="45.22242" lon="6.0074">
        <ele>1545</ele>
        <time>2014-01-12T08:47:52.000Z</time>
      </trkpt>
      <trkpt lat="45.22242" lon="6.00741">
        <ele>1545</ele>
        <time>2014-01-12T08:47:53.000Z</time>
      </trkpt>
      <trkpt lat="45.22239" lon="6.0075">
        <ele>1551</ele>
        <time>2014-01-12T08:48:01.000Z</time>
      </trkpt>
      <trkpt lat="45.22236" lon="6.00759">
        <ele>1553</ele>
        <time>2014-01-12T08:48:08.000Z</time>
      </trkpt>
      <trkpt lat="45.22234" lon="6.00766">
        <ele>1554</ele>
        <time>2014-01-12T08:48:13.000Z</time>
      </trkpt>
      <trkpt lat="45.22233" lon="6.0077">
        <ele>1555</ele>
        <time>2014-01-12T08:48:19.000Z</time>
      </trkpt>
      <trkpt lat="45.22232" lon="6.00774">
        <ele>1556</ele>
        <time>2014-01-12T08:48:22.000Z</time>
      </trkpt>
      <trkpt lat="45.22231" lon="6.00781">
        <ele>1557</ele>
        <time>2014-01-12T08:48:27.000Z</time>
      </trkpt>
      <trkpt lat="45.22231" lon="6.00787">
        <ele>1558</ele>
        <time>2014-01-12T08:48:33.000Z</time>
      </trkpt>
      <trkpt lat="45.2223" lon="6.00797">
        <ele>1560</ele>
        <time>2014-01-12T08:48:41.000Z</time>
      </trkpt>
      <trkpt lat="45.22229" lon="6.00803">
        <ele>1560</ele>
        <time>2014-01-12T08:48:47.000Z</time>
      </trkpt>
      <trkpt lat="45.22226" lon="6.00808">
        <ele>1561</ele>
        <time>2014-01-12T08:48:55.000Z</time>
      </trkpt>
      <trkpt lat="45.22225" lon="6.00812">
        <ele>1561</ele>
        <time>2014-01-12T08:49:03.000Z</time>
      </trkpt>
      <trkpt lat="45.22226" lon="6.00816">
        <ele>1562</ele>
        <time>2014-01-12T08:49:13.000Z</time>
      </trkpt>
      <trkpt lat="45.22225" lon="6.00816">
        <ele>1562</ele>
        <time>2014-01-12T08:49:19.000Z</time>
      </trkpt>
      <trkpt lat="45.22226" lon="6.00823">
        <ele>1562</ele>
        <time>2014-01-12T08:49:25.000Z</time>
      </trkpt>
      <trkpt lat="45.22226" lon="6.00828">
        <ele>1563</ele>
        <time>2014-01-12T08:49:29.000Z</time>
      </trkpt>
      <trkpt lat="45.22228" lon="6.00836">
        <ele>1572</ele>
        <time>2014-01-12T08:49:36.000Z</time>
      </trkpt>
      <trkpt lat="45.22229" lon="6.00842">
        <ele>1572</ele>
        <time>2014-01-12T08:49:42.000Z</time>
      </trkpt>
      <trkpt lat="45.22232" lon="6.00848">
        <ele>1573</ele>
        <time>2014-01-12T08:49:49.000Z</time>
      </trkpt>
      <trkpt lat="45.22236" lon="6.00856">
        <ele>1574</ele>
        <time>2014-01-12T08:49:57.000Z</time>
      </trkpt>
      <trkpt lat="45.2224" lon="6.00862">
        <ele>1575</ele>
        <time>2014-01-12T08:50:04.000Z</time>
      </trkpt>
      <trkpt lat="45.22244" lon="6.0087">
        <ele>1576</ele>
        <time>2014-01-12T08:50:12.000Z</time>
      </trkpt>
      <trkpt lat="45.22246" lon="6.00878">
        <ele>1577</ele>
        <time>2014-01-12T08:50:19.000Z</time>
      </trkpt>
      <trkpt lat="45.22245" lon="6.00886">
        <ele>1578</ele>
        <time>2014-01-12T08:50:27.000Z</time>
      </trkpt>
      <trkpt lat="45.22244" lon="6.00893">
        <ele>1579</ele>
        <time>2014-01-12T08:50:35.000Z</time>
      </trkpt>
      <trkpt lat="45.22244" lon="6.009">
        <ele>1580</ele>
        <time>2014-01-12T08:50:43.000Z</time>
      </trkpt>
      <trkpt lat="45.22244" lon="6.00902">
        <ele>1581</ele>
        <time>2014-01-12T08:50:45.000Z</time>
      </trkpt>
      <trkpt lat="45.22244" lon="6.00908">
        <ele>1581</ele>
        <time>2014-01-12T08:50:52.000Z</time>
      </trkpt>
      <trkpt lat="45.22245" lon="6.00913">
        <ele>1582</ele>
        <time>2014-01-12T08:50:57.000Z</time>
      </trkpt>
      <trkpt lat="45.22245" lon="6.00917">
        <ele>1582</ele>
        <time>2014-01-12T08:51:04.000Z</time>
      </trkpt>
      <trkpt lat="45.22245" lon="6.00917">
        <ele>1582</ele>
        <time>2014-01-12T08:51:05.000Z</time>
      </trkpt>
      <trkpt lat="45.22249" lon="6.00921">
        <ele>1585</ele>
        <time>2014-01-12T08:51:11.000Z</time>
      </trkpt>
      <trkpt lat="45.22247" lon="6.00927">
        <ele>1587</ele>
        <time>2014-01-12T08:51:17.000Z</time>
      </trkpt>
      <trkpt lat="45.22242" lon="6.00931">
        <ele>1589</ele>
        <time>2014-01-12T08:51:22.000Z</time>
      </trkpt>
      <trkpt lat="45.22235" lon="6.00933">
        <ele>1590</ele>
        <time>2014-01-12T08:51:29.000Z</time>
      </trkpt>
      <trkpt lat="45.22232" lon="6.00936">
        <ele>1591</ele>
        <time>2014-01-12T08:51:35.000Z</time>
      </trkpt>
      <trkpt lat="45.22232" lon="6.00937">
        <ele>1591</ele>
        <time>2014-01-12T08:51:42.000Z</time>
      </trkpt>
      <trkpt lat="45.22232" lon="6.00939">
        <ele>1591</ele>
        <time>2014-01-12T08:51:48.000Z</time>
      </trkpt>
      <trkpt lat="45.22235" lon="6.00946">
        <ele>1592</ele>
        <time>2014-01-12T08:51:56.000Z</time>
      </trkpt>
      <trkpt lat="45.22235" lon="6.00951">
        <ele>1593</ele>
        <time>2014-01-12T08:52:02.000Z</time>
      </trkpt>
      <trkpt lat="45.22234" lon="6.00957">
        <ele>1594</ele>
        <time>2014-01-12T08:52:10.000Z</time>
      </trkpt>
      <trkpt lat="45.22235" lon="6.00965">
        <ele>1595</ele>
        <time>2014-01-12T08:52:17.000Z</time>
      </trkpt>
      <trkpt lat="45.22235" lon="6.00969">
        <ele>1595</ele>
        <time>2014-01-12T08:52:19.000Z</time>
      </trkpt>
      <trkpt lat="45.22233" lon="6.00977">
        <ele>1596</ele>
        <time>2014-01-12T08:52:26.000Z</time>
      </trkpt>
      <trkpt lat="45.22232" lon="6.00986">
        <ele>1597</ele>
        <time>2014-01-12T08:52:34.000Z</time>
      </trkpt>
      <trkpt lat="45.22232" lon="6.00995">
        <ele>1597</ele>
        <time>2014-01-12T08:52:42.000Z</time>
      </trkpt>
      <trkpt lat="45.22233" lon="6.00996">
        <ele>1598</ele>
        <time>2014-01-12T08:52:43.000Z</time>
      </trkpt>
      <trkpt lat="45.22235" lon="6.01">
        <ele>1603</ele>
        <time>2014-01-12T08:52:47.000Z</time>
      </trkpt>
      <trkpt lat="45.22237" lon="6.01008">
        <ele>1603</ele>
        <time>2014-01-12T08:52:54.000Z</time>
      </trkpt>
      <trkpt lat="45.22238" lon="6.01016">
        <ele>1604</ele>
        <time>2014-01-12T08:53:00.000Z</time>
      </trkpt>
      <trkpt lat="45.22237" lon="6.01029">
        <ele>1606</ele>
        <time>2014-01-12T08:53:09.000Z</time>
      </trkpt>
      <trkpt lat="45.22238" lon="6.01033">
        <ele>1606</ele>
        <time>2014-01-12T08:53:12.000Z</time>
      </trkpt>
      <trkpt lat="45.2224" lon="6.01035">
        <ele>1606</ele>
        <time>2014-01-12T08:53:14.000Z</time>
      </trkpt>
      <trkpt lat="45.22237" lon="6.01043">
        <ele>1607</ele>
        <time>2014-01-12T08:53:22.000Z</time>
      </trkpt>
      <trkpt lat="45.22235" lon="6.01054">
        <ele>1608</ele>
        <time>2014-01-12T08:53:32.000Z</time>
      </trkpt>
      <trkpt lat="45.22235" lon="6.01063">
        <ele>1610</ele>
        <time>2014-01-12T08:53:38.000Z</time>
      </trkpt>
      <trkpt lat="45.22236" lon="6.01072">
        <ele>1611</ele>
        <time>2014-01-12T08:53:44.000Z</time>
      </trkpt>
      <trkpt lat="45.22234" lon="6.01082">
        <ele>1611</ele>
        <time>2014-01-12T08:53:52.000Z</time>
      </trkpt>
      <trkpt lat="45.22236" lon="6.01089">
        <ele>1616</ele>
        <time>2014-01-12T08:54:00.000Z</time>
      </trkpt>
      <trkpt lat="45.22239" lon="6.01096">
        <ele>1617</ele>
        <time>2014-01-12T08:54:07.000Z</time>
      </trkpt>
      <trkpt lat="45.22239" lon="6.01105">
        <ele>1617</ele>
        <time>2014-01-12T08:54:14.000Z</time>
      </trkpt>
      <trkpt lat="45.2224" lon="6.01115">
        <ele>1618</ele>
        <time>2014-01-12T08:54:21.000Z</time>
      </trkpt>
      <trkpt lat="45.22243" lon="6.01122">
        <ele>1619</ele>
        <time>2014-01-12T08:54:28.000Z</time>
      </trkpt>
      <trkpt lat="45.22243" lon="6.01124">
        <ele>1619</ele>
        <time>2014-01-12T08:54:30.000Z</time>
      </trkpt>
      <trkpt lat="45.22245" lon="6.01133">
        <ele>1620</ele>
        <time>2014-01-12T08:54:38.000Z</time>
      </trkpt>
      <trkpt lat="45.22247" lon="6.01142">
        <ele>1621</ele>
        <time>2014-01-12T08:54:46.000Z</time>
      </trkpt>
      <trkpt lat="45.2225" lon="6.01152">
        <ele>1622</ele>
        <time>2014-01-12T08:54:53.000Z</time>
      </trkpt>
      <trkpt lat="45.22252" lon="6.0116">
        <ele>1628</ele>
        <time>2014-01-12T08:55:01.000Z</time>
      </trkpt>
      <trkpt lat="45.22253" lon="6.01164">
        <ele>1627</ele>
        <time>2014-01-12T08:55:05.000Z</time>
      </trkpt>
      <trkpt lat="45.22253" lon="6.01166">
        <ele>1627</ele>
        <time>2014-01-12T08:55:07.000Z</time>
      </trkpt>
      <trkpt lat="45.22248" lon="6.01179">
        <ele>1628</ele>
        <time>2014-01-12T08:55:15.000Z</time>
      </trkpt>
      <trkpt lat="45.22245" lon="6.0119">
        <ele>1630</ele>
        <time>2014-01-12T08:55:22.000Z</time>
      </trkpt>
      <trkpt lat="45.22241" lon="6.01196">
        <ele>1630</ele>
        <time>2014-01-12T08:55:28.000Z</time>
      </trkpt>
      <trkpt lat="45.2224" lon="6.01204">
        <ele>1631</ele>
        <time>2014-01-12T08:55:36.000Z</time>
      </trkpt>
      <trkpt lat="45.22242" lon="6.01207">
        <ele>1632</ele>
        <time>2014-01-12T08:55:43.000Z</time>
      </trkpt>
      <trkpt lat="45.22244" lon="6.01209">
        <ele>1632</ele>
        <time>2014-01-12T08:55:50.000Z</time>
      </trkpt>
      <trkpt lat="45.22243" lon="6.01214">
        <ele>1633</ele>
        <time>2014-01-12T08:55:56.000Z</time>
      </trkpt>
      <trkpt lat="45.22242" lon="6.01215">
        <ele>1633</ele>
        <time>2014-01-12T08:55:58.000Z</time>
      </trkpt>
      <trkpt lat="45.22244" lon="6.01221">
        <ele>1634</ele>
        <time>2014-01-12T08:56:04.000Z</time>
      </trkpt>
      <trkpt lat="45.22247" lon="6.01223">
        <ele>1634</ele>
        <time>2014-01-12T08:56:11.000Z</time>
      </trkpt>
      <trkpt lat="45.22241" lon="6.01235">
        <ele>1636</ele>
        <time>2014-01-12T08:56:19.000Z</time>
      </trkpt>
      <trkpt lat="45.22239" lon="6.01245">
        <ele>1638</ele>
        <time>2014-01-12T08:56:28.000Z</time>
      </trkpt>
      <trkpt lat="45.22238" lon="6.01253">
        <ele>1644</ele>
        <time>2014-01-12T08:56:35.000Z</time>
      </trkpt>
      <trkpt lat="45.22234" lon="6.01258">
        <ele>1645</ele>
        <time>2014-01-12T08:56:43.000Z</time>
      </trkpt>
      <trkpt lat="45.22232" lon="6.01264">
        <ele>1645</ele>
        <time>2014-01-12T08:56:50.000Z</time>
      </trkpt>
      <trkpt lat="45.22231" lon="6.01271">
        <ele>1646</ele>
        <time>2014-01-12T08:56:58.000Z</time>
      </trkpt>
      <trkpt lat="45.22231" lon="6.01278">
        <ele>1647</ele>
        <time>2014-01-12T08:57:05.000Z</time>
      </trkpt>
      <trkpt lat="45.22232" lon="6.01285">
        <ele>1648</ele>
        <time>2014-01-12T08:57:12.000Z</time>
      </trkpt>
      <trkpt lat="45.22234" lon="6.01292">
        <ele>1649</ele>
        <time>2014-01-12T08:57:19.000Z</time>
      </trkpt>
      <trkpt lat="45.22238" lon="6.01297">
        <ele>1650</ele>
        <time>2014-01-12T08:57:26.000Z</time>
      </trkpt>
      <trkpt lat="45.22242" lon="6.013">
        <ele>1651</ele>
        <time>2014-01-12T08:57:34.000Z</time>
      </trkpt>
      <trkpt lat="45.22246" lon="6.01302">
        <ele>1651</ele>
        <time>2014-01-12T08:57:40.000Z</time>
      </trkpt>
      <trkpt lat="45.22247" lon="6.01303">
        <ele>1652</ele>
        <time>2014-01-12T08:57:42.000Z</time>
      </trkpt>
      <trkpt lat="45.22252" lon="6.01301">
        <ele>1662</ele>
        <time>2014-01-12T08:57:48.000Z</time>
      </trkpt>
      <trkpt lat="45.22253" lon="6.01301">
        <ele>1662</ele>
        <time>2014-01-12T08:57:50.000Z</time>
      </trkpt>
      <trkpt lat="45.22258" lon="6.01298">
        <ele>1662</ele>
        <time>2014-01-12T08:57:57.000Z</time>
      </trkpt>
      <trkpt lat="45.22263" lon="6.01294">
        <ele>1662</ele>
        <time>2014-01-12T08:58:04.000Z</time>
      </trkpt>
      <trkpt lat="45.22265" lon="6.01293">
        <ele>1662</ele>
        <time>2014-01-12T08:58:07.000Z</time>
      </trkpt>
      <trkpt lat="45.22271" lon="6.01293">
        <ele>1663</ele>
        <time>2014-01-12T08:58:14.000Z</time>
      </trkpt>
      <trkpt lat="45.22277" lon="6.01298">
        <ele>1664</ele>
        <time>2014-01-12T08:58:21.000Z</time>
      </trkpt>
      <trkpt lat="45.22279" lon="6.01298">
        <ele>1665</ele>
        <time>2014-01-12T08:58:22.000Z</time>
      </trkpt>
      <trkpt lat="45.22282" lon="6.01297">
        <ele>1665</ele>
        <time>2014-01-12T08:58:27.000Z</time>
      </trkpt>
      <trkpt lat="45.22284" lon="6.013">
        <ele>1666</ele>
        <time>2014-01-12T08:58:30.000Z</time>
      </trkpt>
      <trkpt lat="45.22286" lon="6.01309">
        <ele>1667</ele>
        <time>2014-01-12T08:58:37.000Z</time>
      </trkpt>
      <trkpt lat="45.22283" lon="6.01318">
        <ele>1667</ele>
        <time>2014-01-12T08:58:45.000Z</time>
      </trkpt>
      <trkpt lat="45.22281" lon="6.01324">
        <ele>1667</ele>
        <time>2014-01-12T08:58:52.000Z</time>
      </trkpt>
      <trkpt lat="45.22279" lon="6.01335">
        <ele>1678</ele>
        <time>2014-01-12T08:59:03.000Z</time>
      </trkpt>
      <trkpt lat="45.22278" lon="6.01349">
        <ele>1679</ele>
        <time>2014-01-12T08:59:11.000Z</time>
      </trkpt>
      <trkpt lat="45.22277" lon="6.0136">
        <ele>1680</ele>
        <time>2014-01-12T08:59:18.000Z</time>
      </trkpt>
      <trkpt lat="45.22276" lon="6.01361">
        <ele>1680</ele>
        <time>2014-01-12T08:59:19.000Z</time>
      </trkpt>
      <trkpt lat="45.22268" lon="6.01367">
        <ele>1680</ele>
        <time>2014-01-12T08:59:26.000Z</time>
      </trkpt>
      <trkpt lat="45.22263" lon="6.01372">
        <ele>1680</ele>
        <time>2014-01-12T08:59:33.000Z</time>
      </trkpt>
      <trkpt lat="45.2226" lon="6.01373">
        <ele>1680</ele>
        <time>2014-01-12T08:59:38.000Z</time>
      </trkpt>
      <trkpt lat="45.22253" lon="6.01379">
        <ele>1680</ele>
        <time>2014-01-12T08:59:46.000Z</time>
      </trkpt>
      <trkpt lat="45.22246" lon="6.01383">
        <ele>1667</ele>
        <time>2014-01-12T08:59:54.000Z</time>
      </trkpt>
      <trkpt lat="45.22244" lon="6.01384">
        <ele>1667</ele>
        <time>2014-01-12T08:59:56.000Z</time>
      </trkpt>
      <trkpt lat="45.22238" lon="6.01393">
        <ele>1669</ele>
        <time>2014-01-12T09:00:04.000Z</time>
      </trkpt>
      <trkpt lat="45.22236" lon="6.014">
        <ele>1670</ele>
        <time>2014-01-12T09:00:11.000Z</time>
      </trkpt>
      <trkpt lat="45.22233" lon="6.01407">
        <ele>1670</ele>
        <time>2014-01-12T09:00:19.000Z</time>
      </trkpt>
      <trkpt lat="45.22232" lon="6.01411">
        <ele>1671</ele>
        <time>2014-01-12T09:00:24.000Z</time>
      </trkpt>
      <trkpt lat="45.2223" lon="6.01418">
        <ele>1676</ele>
        <time>2014-01-12T09:00:33.000Z</time>
      </trkpt>
      <trkpt lat="45.22229" lon="6.01425">
        <ele>1675</ele>
        <time>2014-01-12T09:00:40.000Z</time>
      </trkpt>
      <trkpt lat="45.22231" lon="6.01434">
        <ele>1676</ele>
        <time>2014-01-12T09:00:48.000Z</time>
      </trkpt>
      <trkpt lat="45.22233" lon="6.01438">
        <ele>1676</ele>
        <time>2014-01-12T09:00:51.000Z</time>
      </trkpt>
      <trkpt lat="45.22236" lon="6.01449">
        <ele>1676</ele>
        <time>2014-01-12T09:00:59.000Z</time>
      </trkpt>
      <trkpt lat="45.22238" lon="6.01457">
        <ele>1677</ele>
        <time>2014-01-12T09:01:06.000Z</time>
      </trkpt>
      <trkpt lat="45.22239" lon="6.01466">
        <ele>1677</ele>
        <time>2014-01-12T09:01:13.000Z</time>
      </trkpt>
      <trkpt lat="45.2224" lon="6.01472">
        <ele>1678</ele>
        <time>2014-01-12T09:01:19.000Z</time>
      </trkpt>
      <trkpt lat="45.22241" lon="6.01483">
        <ele>1680</ele>
        <time>2014-01-12T09:01:25.000Z</time>
      </trkpt>
      <trkpt lat="45.22245" lon="6.01492">
        <ele>1683</ele>
        <time>2014-01-12T09:01:31.000Z</time>
      </trkpt>
      <trkpt lat="45.22246" lon="6.01507">
        <ele>1684</ele>
        <time>2014-01-12T09:01:41.000Z</time>
      </trkpt>
      <trkpt lat="45.22245" lon="6.01514">
        <ele>1682</ele>
        <time>2014-01-12T09:01:45.000Z</time>
      </trkpt>
      <trkpt lat="45.22248" lon="6.01526">
        <ele>1680</ele>
        <time>2014-01-12T09:01:53.000Z</time>
      </trkpt>
      <trkpt lat="45.22252" lon="6.01536">
        <ele>1698</ele>
        <time>2014-01-12T09:02:02.000Z</time>
      </trkpt>
      <trkpt lat="45.22252" lon="6.01541">
        <ele>1698</ele>
        <time>2014-01-12T09:02:11.000Z</time>
      </trkpt>
      <trkpt lat="45.22253" lon="6.01543">
        <ele>1698</ele>
        <time>2014-01-12T09:02:18.000Z</time>
      </trkpt>
      <trkpt lat="45.22255" lon="6.01554">
        <ele>1697</ele>
        <time>2014-01-12T09:02:25.000Z</time>
      </trkpt>
      <trkpt lat="45.22256" lon="6.01559">
        <ele>1696</ele>
        <time>2014-01-12T09:02:28.000Z</time>
      </trkpt>
      <trkpt lat="45.22259" lon="6.0157">
        <ele>1693</ele>
        <time>2014-01-12T09:02:34.000Z</time>
      </trkpt>
      <trkpt lat="45.22261" lon="6.01575">
        <ele>1692</ele>
        <time>2014-01-12T09:02:37.000Z</time>
      </trkpt>
      <trkpt lat="45.22262" lon="6.01586">
        <ele>1690</ele>
        <time>2014-01-12T09:02:44.000Z</time>
      </trkpt>
      <trkpt lat="45.22263" lon="6.0159">
        <ele>1691</ele>
        <time>2014-01-12T09:02:47.000Z</time>
      </trkpt>
      <trkpt lat="45.22266" lon="6.01603">
        <ele>1694</ele>
        <time>2014-01-12T09:02:56.000Z</time>
      </trkpt>
      <trkpt lat="45.22266" lon="6.01605">
        <ele>1694</ele>
        <time>2014-01-12T09:02:57.000Z</time>
      </trkpt>
      <trkpt lat="45.22263" lon="6.01612">
        <ele>1694</ele>
        <time>2014-01-12T09:03:02.000Z</time>
      </trkpt>
      <trkpt lat="45.22263" lon="6.01616">
        <ele>1694</ele>
        <time>2014-01-12T09:03:04.000Z</time>
      </trkpt>
      <trkpt lat="45.22263" lon="6.0162">
        <ele>1694</ele>
        <time>2014-01-12T09:03:06.000Z</time>
      </trkpt>
      <trkpt lat="45.22265" lon="6.01634">
        <ele>1694</ele>
        <time>2014-01-12T09:03:14.000Z</time>
      </trkpt>
      <trkpt lat="45.22268" lon="6.01643">
        <ele>1693</ele>
        <time>2014-01-12T09:03:19.000Z</time>
      </trkpt>
      <trkpt lat="45.22268" lon="6.01651">
        <ele>1691</ele>
        <time>2014-01-12T09:03:23.000Z</time>
      </trkpt>
      <trkpt lat="45.22269" lon="6.01658">
        <ele>1691</ele>
        <time>2014-01-12T09:03:27.000Z</time>
      </trkpt>
      <trkpt lat="45.22269" lon="6.01662">
        <ele>1690</ele>
        <time>2014-01-12T09:03:29.000Z</time>
      </trkpt>
      <trkpt lat="45.2227" lon="6.01672">
        <ele>1689</ele>
        <time>2014-01-12T09:03:35.000Z</time>
      </trkpt>
      <trkpt lat="45.22271" lon="6.01684">
        <ele>1690</ele>
        <time>2014-01-12T09:03:41.000Z</time>
      </trkpt>
      <trkpt lat="45.2227" lon="6.01698">
        <ele>1692</ele>
        <time>2014-01-12T09:03:48.000Z</time>
      </trkpt>
      <trkpt lat="45.2227" lon="6.01708">
        <ele>1693</ele>
        <time>2014-01-12T09:03:55.000Z</time>
      </trkpt>
      <trkpt lat="45.22269" lon="6.01712">
        <ele>1692</ele>
        <time>2014-01-12T09:04:05.000Z</time>
      </trkpt>
      <trkpt lat="45.22268" lon="6.01723">
        <ele>1692</ele>
        <time>2014-01-12T09:04:16.000Z</time>
      </trkpt>
      <trkpt lat="45.22268" lon="6.01727">
        <ele>1691</ele>
        <time>2014-01-12T09:04:21.000Z</time>
      </trkpt>
      <trkpt lat="45.2227" lon="6.01739">
        <ele>1691</ele>
        <time>2014-01-12T09:04:30.000Z</time>
      </trkpt>
      <trkpt lat="45.22272" lon="6.01746">
        <ele>1691</ele>
        <time>2014-01-12T09:04:37.000Z</time>
      </trkpt>
      <trkpt lat="45.22274" lon="6.01756">
        <ele>1695</ele>
        <time>2014-01-12T09:04:45.000Z</time>
      </trkpt>
      <trkpt lat="45.22274" lon="6.01764">
        <ele>1696</ele>
        <time>2014-01-12T09:04:52.000Z</time>
      </trkpt>
      <trkpt lat="45.22275" lon="6.01772">
        <ele>1698</ele>
        <time>2014-01-12T09:04:59.000Z</time>
      </trkpt>
      <trkpt lat="45.22275" lon="6.01781">
        <ele>1699</ele>
        <time>2014-01-12T09:05:07.000Z</time>
      </trkpt>
      <trkpt lat="45.22274" lon="6.01787">
        <ele>1699</ele>
        <time>2014-01-12T09:05:15.000Z</time>
      </trkpt>
      <trkpt lat="45.22272" lon="6.01792">
        <ele>1699</ele>
        <time>2014-01-12T09:05:24.000Z</time>
      </trkpt>
      <trkpt lat="45.22272" lon="6.01794">
        <ele>1699</ele>
        <time>2014-01-12T09:05:31.000Z</time>
      </trkpt>
      <trkpt lat="45.22271" lon="6.018">
        <ele>1699</ele>
        <time>2014-01-12T09:05:37.000Z</time>
      </trkpt>
      <trkpt lat="45.2227" lon="6.01806">
        <ele>1699</ele>
        <time>2014-01-12T09:05:44.000Z</time>
      </trkpt>
      <trkpt lat="45.22268" lon="6.01812">
        <ele>1699</ele>
        <time>2014-01-12T09:05:51.000Z</time>
      </trkpt>
      <trkpt lat="45.22269" lon="6.01816">
        <ele>1699</ele>
        <time>2014-01-12T09:06:00.000Z</time>
      </trkpt>
      <trkpt lat="45.22269" lon="6.01818">
        <ele>1699</ele>
        <time>2014-01-12T09:06:02.000Z</time>
      </trkpt>
      <trkpt lat="45.22267" lon="6.01821">
        <ele>1698</ele>
        <time>2014-01-12T09:06:08.000Z</time>
      </trkpt>
      <trkpt lat="45.22262" lon="6.01822">
        <ele>1696</ele>
        <time>2014-01-12T09:06:15.000Z</time>
      </trkpt>
      <trkpt lat="45.22256" lon="6.01826">
        <ele>1694</ele>
        <time>2014-01-12T09:06:21.000Z</time>
      </trkpt>
      <trkpt lat="45.2225" lon="6.01836">
        <ele>1692</ele>
        <time>2014-01-12T09:06:29.000Z</time>
      </trkpt>
      <trkpt lat="45.22247" lon="6.01842">
        <ele>1691</ele>
        <time>2014-01-12T09:06:36.000Z</time>
      </trkpt>
      <trkpt lat="45.2225" lon="6.01849">
        <ele>1700</ele>
        <time>2014-01-12T09:06:44.000Z</time>
      </trkpt>
      <trkpt lat="45.22252" lon="6.01853">
        <ele>1702</ele>
        <time>2014-01-12T09:06:49.000Z</time>
      </trkpt>
      <trkpt lat="45.22253" lon="6.01866">
        <ele>1705</ele>
        <time>2014-01-12T09:06:59.000Z</time>
      </trkpt>
      <trkpt lat="45.22252" lon="6.01876">
        <ele>1706</ele>
        <time>2014-01-12T09:07:06.000Z</time>
      </trkpt>
      <trkpt lat="45.22251" lon="6.0188">
        <ele>1706</ele>
        <time>2014-01-12T09:07:09.000Z</time>
      </trkpt>
      <trkpt lat="45.22254" lon="6.01892">
        <ele>1705</ele>
        <time>2014-01-12T09:07:17.000Z</time>
      </trkpt>
      <trkpt lat="45.22254" lon="6.01895">
        <ele>1705</ele>
        <time>2014-01-12T09:07:20.000Z</time>
      </trkpt>
      <trkpt lat="45.22255" lon="6.01901">
        <ele>1704</ele>
        <time>2014-01-12T09:07:26.000Z</time>
      </trkpt>
      <trkpt lat="45.22255" lon="6.01906">
        <ele>1703</ele>
        <time>2014-01-12T09:07:29.000Z</time>
      </trkpt>
      <trkpt lat="45.22253" lon="6.01918">
        <ele>1700</ele>
        <time>2014-01-12T09:07:37.000Z</time>
      </trkpt>
      <trkpt lat="45.22251" lon="6.01927">
        <ele>1705</ele>
        <time>2014-01-12T09:07:45.000Z</time>
      </trkpt>
      <trkpt lat="45.22253" lon="6.01935">
        <ele>1709</ele>
        <time>2014-01-12T09:07:52.000Z</time>
      </trkpt>
      <trkpt lat="45.22256" lon="6.01944">
        <ele>1712</ele>
        <time>2014-01-12T09:08:00.000Z</time>
      </trkpt>
      <trkpt lat="45.22256" lon="6.01956">
        <ele>1714</ele>
        <time>2014-01-12T09:08:08.000Z</time>
      </trkpt>
      <trkpt lat="45.22257" lon="6.01958">
        <ele>1715</ele>
        <time>2014-01-12T09:08:09.000Z</time>
      </trkpt>
      <trkpt lat="45.22256" lon="6.01965">
        <ele>1715</ele>
        <time>2014-01-12T09:08:14.000Z</time>
      </trkpt>
      <trkpt lat="45.22252" lon="6.01978">
        <ele>1714</ele>
        <time>2014-01-12T09:08:21.000Z</time>
      </trkpt>
      <trkpt lat="45.22251" lon="6.01982">
        <ele>1714</ele>
        <time>2014-01-12T09:08:24.000Z</time>
      </trkpt>
      <trkpt lat="45.22248" lon="6.01992">
        <ele>1707</ele>
        <time>2014-01-12T09:08:32.000Z</time>
      </trkpt>
      <trkpt lat="45.22249" lon="6.02001">
        <ele>1709</ele>
        <time>2014-01-12T09:08:39.000Z</time>
      </trkpt>
      <trkpt lat="45.2225" lon="6.02009">
        <ele>1710</ele>
        <time>2014-01-12T09:08:46.000Z</time>
      </trkpt>
      <trkpt lat="45.22248" lon="6.02016">
        <ele>1711</ele>
        <time>2014-01-12T09:08:54.000Z</time>
      </trkpt>
      <trkpt lat="45.22248" lon="6.02022">
        <ele>1712</ele>
        <time>2014-01-12T09:09:01.000Z</time>
      </trkpt>
      <trkpt lat="45.2225" lon="6.0203">
        <ele>1713</ele>
        <time>2014-01-12T09:09:08.000Z</time>
      </trkpt>
      <trkpt lat="45.22251" lon="6.02038">
        <ele>1722</ele>
        <time>2014-01-12T09:09:15.000Z</time>
      </trkpt>
      <trkpt lat="45.22251" lon="6.02046">
        <ele>1722</ele>
        <time>2014-01-12T09:09:23.000Z</time>
      </trkpt>
      <trkpt lat="45.22251" lon="6.02048">
        <ele>1723</ele>
        <time>2014-01-12T09:09:25.000Z</time>
      </trkpt>
      <trkpt lat="45.22252" lon="6.02054">
        <ele>1723</ele>
        <time>2014-01-12T09:09:32.000Z</time>
      </trkpt>
      <trkpt lat="45.22254" lon="6.02061">
        <ele>1723</ele>
        <time>2014-01-12T09:09:38.000Z</time>
      </trkpt>
      <trkpt lat="45.22255" lon="6.02065">
        <ele>1723</ele>
        <time>2014-01-12T09:09:42.000Z</time>
      </trkpt>
      <trkpt lat="45.2226" lon="6.02072">
        <ele>1723</ele>
        <time>2014-01-12T09:09:49.000Z</time>
      </trkpt>
      <trkpt lat="45.22261" lon="6.02077">
        <ele>1723</ele>
        <time>2014-01-12T09:09:56.000Z</time>
      </trkpt>
      <trkpt lat="45.22261" lon="6.02083">
        <ele>1722</ele>
        <time>2014-01-12T09:10:04.000Z</time>
      </trkpt>
      <trkpt lat="45.22261" lon="6.02084">
        <ele>1725</ele>
        <time>2014-01-12T09:10:11.000Z</time>
      </trkpt>
      <trkpt lat="45.22264" lon="6.02087">
        <ele>1725</ele>
        <time>2014-01-12T09:10:41.000Z</time>
      </trkpt>
      <trkpt lat="45.22267" lon="6.02092">
        <ele>1727</ele>
        <time>2014-01-12T09:10:47.000Z</time>
      </trkpt>
      <trkpt lat="45.22272" lon="6.02099">
        <ele>1728</ele>
        <time>2014-01-12T09:10:54.000Z</time>
      </trkpt>
      <trkpt lat="45.22275" lon="6.02104">
        <ele>1729</ele>
        <time>2014-01-12T09:11:00.000Z</time>
      </trkpt>
      <trkpt lat="45.22277" lon="6.02113">
        <ele>1730</ele>
        <time>2014-01-12T09:11:09.000Z</time>
      </trkpt>
      <trkpt lat="45.22277" lon="6.02119">
        <ele>1731</ele>
        <time>2014-01-12T09:11:17.000Z</time>
      </trkpt>
      <trkpt lat="45.22281" lon="6.02122">
        <ele>1731</ele>
        <time>2014-01-12T09:11:53.000Z</time>
      </trkpt>
      <trkpt lat="45.22284" lon="6.02127">
        <ele>1732</ele>
        <time>2014-01-12T09:11:58.000Z</time>
      </trkpt>
      <trkpt lat="45.22288" lon="6.02132">
        <ele>1732</ele>
        <time>2014-01-12T09:12:05.000Z</time>
      </trkpt>
      <trkpt lat="45.2229" lon="6.02136">
        <ele>1733</ele>
        <time>2014-01-12T09:12:11.000Z</time>
      </trkpt>
      <trkpt lat="45.22293" lon="6.0214">
        <ele>1733</ele>
        <time>2014-01-12T09:12:17.000Z</time>
      </trkpt>
      <trkpt lat="45.22296" lon="6.02144">
        <ele>1733</ele>
        <time>2014-01-12T09:12:23.000Z</time>
      </trkpt>
      <trkpt lat="45.22298" lon="6.02152">
        <ele>1734</ele>
        <time>2014-01-12T09:12:30.000Z</time>
      </trkpt>
      <trkpt lat="45.223" lon="6.02158">
        <ele>1734</ele>
        <time>2014-01-12T09:12:36.000Z</time>
      </trkpt>
      <trkpt lat="45.223" lon="6.02159">
        <ele>1734</ele>
        <time>2014-01-12T09:12:37.000Z</time>
      </trkpt>
      <trkpt lat="45.223" lon="6.02168">
        <ele>1740</ele>
        <time>2014-01-12T09:12:46.000Z</time>
      </trkpt>
      <trkpt lat="45.22303" lon="6.02171">
        <ele>1740</ele>
        <time>2014-01-12T09:12:52.000Z</time>
      </trkpt>
      <trkpt lat="45.22306" lon="6.02174">
        <ele>1740</ele>
        <time>2014-01-12T09:12:58.000Z</time>
      </trkpt>
      <trkpt lat="45.22308" lon="6.02177">
        <ele>1740</ele>
        <time>2014-01-12T09:13:04.000Z</time>
      </trkpt>
      <trkpt lat="45.22309" lon="6.0218">
        <ele>1741</ele>
        <time>2014-01-12T09:13:06.000Z</time>
      </trkpt>
      <trkpt lat="45.22313" lon="6.02186">
        <ele>1741</ele>
        <time>2014-01-12T09:13:13.000Z</time>
      </trkpt>
      <trkpt lat="45.22314" lon="6.02189">
        <ele>1741</ele>
        <time>2014-01-12T09:13:18.000Z</time>
      </trkpt>
      <trkpt lat="45.22317" lon="6.02194">
        <ele>1742</ele>
        <time>2014-01-12T09:13:25.000Z</time>
      </trkpt>
      <trkpt lat="45.22317" lon="6.02194">
        <ele>1742</ele>
        <time>2014-01-12T09:13:26.000Z</time>
      </trkpt>
      <trkpt lat="45.22319" lon="6.02198">
        <ele>1742</ele>
        <time>2014-01-12T09:13:32.000Z</time>
      </trkpt>
      <trkpt lat="45.22321" lon="6.02205">
        <ele>1743</ele>
        <time>2014-01-12T09:13:39.000Z</time>
      </trkpt>
      <trkpt lat="45.22323" lon="6.02212">
        <ele>1743</ele>
        <time>2014-01-12T09:13:45.000Z</time>
      </trkpt>
      <trkpt lat="45.22323" lon="6.02212">
        <ele>1743</ele>
        <time>2014-01-12T09:13:46.000Z</time>
      </trkpt>
      <trkpt lat="45.22325" lon="6.02219">
        <ele>1744</ele>
        <time>2014-01-12T09:13:54.000Z</time>
      </trkpt>
      <trkpt lat="45.22327" lon="6.02223">
        <ele>1745</ele>
        <time>2014-01-12T09:14:00.000Z</time>
      </trkpt>
      <trkpt lat="45.22329" lon="6.0223">
        <ele>1746</ele>
        <time>2014-01-12T09:14:07.000Z</time>
      </trkpt>
      <trkpt lat="45.22332" lon="6.02235">
        <ele>1748</ele>
        <time>2014-01-12T09:14:13.000Z</time>
      </trkpt>
      <trkpt lat="45.22332" lon="6.02236">
        <ele>1748</ele>
        <time>2014-01-12T09:14:19.000Z</time>
      </trkpt>
      <trkpt lat="45.22334" lon="6.02239">
        <ele>1757</ele>
        <time>2014-01-12T09:14:25.000Z</time>
      </trkpt>
      <trkpt lat="45.22337" lon="6.02244">
        <ele>1756</ele>
        <time>2014-01-12T09:14:32.000Z</time>
      </trkpt>
      <trkpt lat="45.22339" lon="6.02247">
        <ele>1756</ele>
        <time>2014-01-12T09:14:37.000Z</time>
      </trkpt>
      <trkpt lat="45.22345" lon="6.02252">
        <ele>1762</ele>
        <time>2014-01-12T09:14:45.000Z</time>
      </trkpt>
      <trkpt lat="45.22348" lon="6.02256">
        <ele>1764</ele>
        <time>2014-01-12T09:14:52.000Z</time>
      </trkpt>
      <trkpt lat="45.2235" lon="6.02261">
        <ele>1766</ele>
        <time>2014-01-12T09:14:58.000Z</time>
      </trkpt>
      <trkpt lat="45.22351" lon="6.02266">
        <ele>1768</ele>
        <time>2014-01-12T09:15:04.000Z</time>
      </trkpt>
      <trkpt lat="45.22353" lon="6.02269">
        <ele>1769</ele>
        <time>2014-01-12T09:15:10.000Z</time>
      </trkpt>
      <trkpt lat="45.22353" lon="6.0227">
        <ele>1769</ele>
        <time>2014-01-12T09:15:13.000Z</time>
      </trkpt>
      <trkpt lat="45.22356" lon="6.0227">
        <ele>1770</ele>
        <time>2014-01-12T09:15:19.000Z</time>
      </trkpt>
      <trkpt lat="45.22359" lon="6.02271">
        <ele>1771</ele>
        <time>2014-01-12T09:15:25.000Z</time>
      </trkpt>
      <trkpt lat="45.22361" lon="6.02273">
        <ele>1772</ele>
        <time>2014-01-12T09:15:30.000Z</time>
      </trkpt>
      <trkpt lat="45.22363" lon="6.02277">
        <ele>1773</ele>
        <time>2014-01-12T09:15:37.000Z</time>
      </trkpt>
      <trkpt lat="45.22366" lon="6.02279">
        <ele>1773</ele>
        <time>2014-01-12T09:15:45.000Z</time>
      </trkpt>
      <trkpt lat="45.2237" lon="6.02286">
        <ele>1775</ele>
        <time>2014-01-12T09:15:51.000Z</time>
      </trkpt>
      <trkpt lat="45.22372" lon="6.02287">
        <ele>1775</ele>
        <time>2014-01-12T09:15:57.000Z</time>
      </trkpt>
      <trkpt lat="45.22373" lon="6.02291">
        <ele>1776</ele>
        <time>2014-01-12T09:16:04.000Z</time>
      </trkpt>
      <trkpt lat="45.22375" lon="6.02296">
        <ele>1777</ele>
        <time>2014-01-12T09:16:10.000Z</time>
      </trkpt>
      <trkpt lat="45.22379" lon="6.02299">
        <ele>1777</ele>
        <time>2014-01-12T09:16:16.000Z</time>
      </trkpt>
      <trkpt lat="45.22382" lon="6.02306">
        <ele>1778</ele>
        <time>2014-01-12T09:16:22.000Z</time>
      </trkpt>
      <trkpt lat="45.22385" lon="6.0231">
        <ele>1779</ele>
        <time>2014-01-12T09:16:29.000Z</time>
      </trkpt>
      <trkpt lat="45.22387" lon="6.02315">
        <ele>1780</ele>
        <time>2014-01-12T09:16:35.000Z</time>
      </trkpt>
      <trkpt lat="45.22385" lon="6.02322">
        <ele>1780</ele>
        <time>2014-01-12T09:16:42.000Z</time>
      </trkpt>
      <trkpt lat="45.22385" lon="6.02327">
        <ele>1781</ele>
        <time>2014-01-12T09:16:49.000Z</time>
      </trkpt>
      <trkpt lat="45.22386" lon="6.02333">
        <ele>1781</ele>
        <time>2014-01-12T09:16:55.000Z</time>
      </trkpt>
      <trkpt lat="45.22386" lon="6.02336">
        <ele>1788</ele>
        <time>2014-01-12T09:17:01.000Z</time>
      </trkpt>
      <trkpt lat="45.22387" lon="6.0234">
        <ele>1788</ele>
        <time>2014-01-12T09:17:05.000Z</time>
      </trkpt>
      <trkpt lat="45.22387" lon="6.02348">
        <ele>1788</ele>
        <time>2014-01-12T09:17:13.000Z</time>
      </trkpt>
      <trkpt lat="45.22388" lon="6.02354">
        <ele>1788</ele>
        <time>2014-01-12T09:17:19.000Z</time>
      </trkpt>
      <trkpt lat="45.22389" lon="6.0236">
        <ele>1788</ele>
        <time>2014-01-12T09:17:26.000Z</time>
      </trkpt>
      <trkpt lat="45.22392" lon="6.02365">
        <ele>1789</ele>
        <time>2014-01-12T09:17:32.000Z</time>
      </trkpt>
      <trkpt lat="45.22394" lon="6.02366">
        <ele>1789</ele>
        <time>2014-01-12T09:17:38.000Z</time>
      </trkpt>
      <trkpt lat="45.22394" lon="6.02367">
        <ele>1789</ele>
        <time>2014-01-12T09:17:44.000Z</time>
      </trkpt>
      <trkpt lat="45.22395" lon="6.02371">
        <ele>1789</ele>
        <time>2014-01-12T09:17:50.000Z</time>
      </trkpt>
      <trkpt lat="45.22396" lon="6.02371">
        <ele>1790</ele>
        <time>2014-01-12T09:17:56.000Z</time>
      </trkpt>
      <trkpt lat="45.22401" lon="6.02372">
        <ele>1790</ele>
        <time>2014-01-12T09:18:02.000Z</time>
      </trkpt>
      <trkpt lat="45.22402" lon="6.02377">
        <ele>1790</ele>
        <time>2014-01-12T09:18:08.000Z</time>
      </trkpt>
      <trkpt lat="45.22404" lon="6.02381">
        <ele>1791</ele>
        <time>2014-01-12T09:18:14.000Z</time>
      </trkpt>
      <trkpt lat="45.22409" lon="6.02384">
        <ele>1792</ele>
        <time>2014-01-12T09:18:20.000Z</time>
      </trkpt>
      <trkpt lat="45.22411" lon="6.02383">
        <ele>1792</ele>
        <time>2014-01-12T09:18:22.000Z</time>
      </trkpt>
      <trkpt lat="45.22416" lon="6.02381">
        <ele>1792</ele>
        <time>2014-01-12T09:18:29.000Z</time>
      </trkpt>
      <trkpt lat="45.22419" lon="6.02382">
        <ele>1810</ele>
        <time>2014-01-12T09:18:34.000Z</time>
      </trkpt>
      <trkpt lat="45.22421" lon="6.02384">
        <ele>1810</ele>
        <time>2014-01-12T09:18:40.000Z</time>
      </trkpt>
      <trkpt lat="45.22421" lon="6.0239">
        <ele>1810</ele>
        <time>2014-01-12T09:18:47.000Z</time>
      </trkpt>
      <trkpt lat="45.22421" lon="6.02394">
        <ele>1810</ele>
        <time>2014-01-12T09:18:52.000Z</time>
      </trkpt>
      <trkpt lat="45.22421" lon="6.02396">
        <ele>1809</ele>
        <time>2014-01-12T09:18:54.000Z</time>
      </trkpt>
      <trkpt lat="45.22421" lon="6.02402">
        <ele>1808</ele>
        <time>2014-01-12T09:19:01.000Z</time>
      </trkpt>
      <trkpt lat="45.22421" lon="6.02409">
        <ele>1807</ele>
        <time>2014-01-12T09:19:08.000Z</time>
      </trkpt>
      <trkpt lat="45.22421" lon="6.02413">
        <ele>1806</ele>
        <time>2014-01-12T09:19:14.000Z</time>
      </trkpt>
      <trkpt lat="45.22425" lon="6.02417">
        <ele>1809</ele>
        <time>2014-01-12T09:19:20.000Z</time>
      </trkpt>
      <trkpt lat="45.22432" lon="6.02411">
        <ele>1810</ele>
        <time>2014-01-12T09:19:28.000Z</time>
      </trkpt>
      <trkpt lat="45.22438" lon="6.02408">
        <ele>1812</ele>
        <time>2014-01-12T09:19:34.000Z</time>
      </trkpt>
      <trkpt lat="45.22442" lon="6.02406">
        <ele>1813</ele>
        <time>2014-01-12T09:19:41.000Z</time>
      </trkpt>
      <trkpt lat="45.22445" lon="6.02407">
        <ele>1813</ele>
        <time>2014-01-12T09:19:46.000Z</time>
      </trkpt>
      <trkpt lat="45.2245" lon="6.02409">
        <ele>1815</ele>
        <time>2014-01-12T09:19:52.000Z</time>
      </trkpt>
      <trkpt lat="45.22454" lon="6.02411">
        <ele>1816</ele>
        <time>2014-01-12T09:19:58.000Z</time>
      </trkpt>
      <trkpt lat="45.22455" lon="6.02414">
        <ele>1816</ele>
        <time>2014-01-12T09:20:04.000Z</time>
      </trkpt>
      <trkpt lat="45.22455" lon="6.02415">
        <ele>1816</ele>
        <time>2014-01-12T09:20:06.000Z</time>
      </trkpt>
      <trkpt lat="45.22457" lon="6.0242">
        <ele>1821</ele>
        <time>2014-01-12T09:20:13.000Z</time>
      </trkpt>
      <trkpt lat="45.22457" lon="6.0242">
        <ele>1821</ele>
        <time>2014-01-12T09:20:14.000Z</time>
      </trkpt>
      <trkpt lat="45.22456" lon="6.02428">
        <ele>1821</ele>
        <time>2014-01-12T09:20:21.000Z</time>
      </trkpt>
      <trkpt lat="45.22458" lon="6.02435">
        <ele>1821</ele>
        <time>2014-01-12T09:20:28.000Z</time>
      </trkpt>
      <trkpt lat="45.22458" lon="6.02441">
        <ele>1822</ele>
        <time>2014-01-12T09:20:34.000Z</time>
      </trkpt>
      <trkpt lat="45.22458" lon="6.02448">
        <ele>1822</ele>
        <time>2014-01-12T09:20:42.000Z</time>
      </trkpt>
      <trkpt lat="45.22458" lon="6.02453">
        <ele>1822</ele>
        <time>2014-01-12T09:20:48.000Z</time>
      </trkpt>
      <trkpt lat="45.22457" lon="6.02459">
        <ele>1822</ele>
        <time>2014-01-12T09:20:54.000Z</time>
      </trkpt>
      <trkpt lat="45.22459" lon="6.02465">
        <ele>1823</ele>
        <time>2014-01-12T09:21:01.000Z</time>
      </trkpt>
      <trkpt lat="45.2246" lon="6.02473">
        <ele>1823</ele>
        <time>2014-01-12T09:21:08.000Z</time>
      </trkpt>
      <trkpt lat="45.22463" lon="6.02478">
        <ele>1824</ele>
        <time>2014-01-12T09:21:15.000Z</time>
      </trkpt>
      <trkpt lat="45.22467" lon="6.02479">
        <ele>1825</ele>
        <time>2014-01-12T09:21:22.000Z</time>
      </trkpt>
      <trkpt lat="45.22471" lon="6.02476">
        <ele>1825</ele>
        <time>2014-01-12T09:21:28.000Z</time>
      </trkpt>
      <trkpt lat="45.22475" lon="6.02473">
        <ele>1826</ele>
        <time>2014-01-12T09:21:35.000Z</time>
      </trkpt>
      <trkpt lat="45.22478" lon="6.0247">
        <ele>1826</ele>
        <time>2014-01-12T09:21:41.000Z</time>
      </trkpt>
      <trkpt lat="45.22481" lon="6.02467">
        <ele>1826</ele>
        <time>2014-01-12T09:21:47.000Z</time>
      </trkpt>
      <trkpt lat="45.22483" lon="6.02464">
        <ele>1826</ele>
        <time>2014-01-12T09:21:53.000Z</time>
      </trkpt>
      <trkpt lat="45.22484" lon="6.02464">
        <ele>1826</ele>
        <time>2014-01-12T09:22:02.000Z</time>
      </trkpt>
      <trkpt lat="45.22483" lon="6.02463">
        <ele>1826</ele>
        <time>2014-01-12T09:22:34.000Z</time>
      </trkpt>
      <trkpt lat="45.22483" lon="6.02463">
        <ele>1826</ele>
        <time>2014-01-12T09:22:48.000Z</time>
      </trkpt>
      <trkpt lat="45.22484" lon="6.02463">
        <ele>1826</ele>
        <time>2014-01-12T09:23:23.000Z</time>
      </trkpt>
      <trkpt lat="45.22485" lon="6.02464">
        <ele>1827</ele>
        <time>2014-01-12T09:23:34.000Z</time>
      </trkpt>
      <trkpt lat="45.22486" lon="6.02464">
        <ele>1827</ele>
        <time>2014-01-12T09:24:34.000Z</time>
      </trkpt>
      <trkpt lat="45.2249" lon="6.02461">
        <ele>1827</ele>
        <time>2014-01-12T09:24:42.000Z</time>
      </trkpt>
      <trkpt lat="45.22495" lon="6.02465">
        <ele>1828</ele>
        <time>2014-01-12T09:24:50.000Z</time>
      </trkpt>
      <trkpt lat="45.22496" lon="6.02465">
        <ele>1828</ele>
        <time>2014-01-12T09:24:51.000Z</time>
      </trkpt>
      <trkpt lat="45.225" lon="6.02466">
        <ele>1843</ele>
        <time>2014-01-12T09:24:58.000Z</time>
      </trkpt>
      <trkpt lat="45.22506" lon="6.02467">
        <ele>1844</ele>
        <time>2014-01-12T09:25:05.000Z</time>
      </trkpt>
      <trkpt lat="45.22513" lon="6.0247">
        <ele>1844</ele>
        <time>2014-01-12T09:25:13.000Z</time>
      </trkpt>
      <trkpt lat="45.22519" lon="6.02472">
        <ele>1845</ele>
        <time>2014-01-12T09:25:20.000Z</time>
      </trkpt>
      <trkpt lat="45.22527" lon="6.02473">
        <ele>1846</ele>
        <time>2014-01-12T09:25:30.000Z</time>
      </trkpt>
      <trkpt lat="45.22532" lon="6.02473">
        <ele>1846</ele>
        <time>2014-01-12T09:25:36.000Z</time>
      </trkpt>
      <trkpt lat="45.22537" lon="6.02475">
        <ele>1847</ele>
        <time>2014-01-12T09:25:43.000Z</time>
      </trkpt>
      <trkpt lat="45.22541" lon="6.02477">
        <ele>1847</ele>
        <time>2014-01-12T09:25:49.000Z</time>
      </trkpt>
      <trkpt lat="45.22544" lon="6.02479">
        <ele>1848</ele>
        <time>2014-01-12T09:25:56.000Z</time>
      </trkpt>
      <trkpt lat="45.22549" lon="6.02482">
        <ele>1849</ele>
        <time>2014-01-12T09:26:03.000Z</time>
      </trkpt>
      <trkpt lat="45.22555" lon="6.02482">
        <ele>1850</ele>
        <time>2014-01-12T09:26:09.000Z</time>
      </trkpt>
      <trkpt lat="45.22561" lon="6.02485">
        <ele>1851</ele>
        <time>2014-01-12T09:26:16.000Z</time>
      </trkpt>
      <trkpt lat="45.22562" lon="6.02486">
        <ele>1851</ele>
        <time>2014-01-12T09:26:18.000Z</time>
      </trkpt>
      <trkpt lat="45.22564" lon="6.02489">
        <ele>1852</ele>
        <time>2014-01-12T09:26:22.000Z</time>
      </trkpt>
      <trkpt lat="45.22567" lon="6.02492">
        <ele>1852</ele>
        <time>2014-01-12T09:26:25.000Z</time>
      </trkpt>
      <trkpt lat="45.22571" lon="6.02498">
        <ele>1853</ele>
        <time>2014-01-12T09:26:33.000Z</time>
      </trkpt>
      <trkpt lat="45.22576" lon="6.025">
        <ele>1856</ele>
        <time>2014-01-12T09:26:39.000Z</time>
      </trkpt>
      <trkpt lat="45.22581" lon="6.02502">
        <ele>1857</ele>
        <time>2014-01-12T09:26:46.000Z</time>
      </trkpt>
      <trkpt lat="45.22587" lon="6.02503">
        <ele>1859</ele>
        <time>2014-01-12T09:26:53.000Z</time>
      </trkpt>
      <trkpt lat="45.22591" lon="6.02504">
        <ele>1861</ele>
        <time>2014-01-12T09:26:59.000Z</time>
      </trkpt>
      <trkpt lat="45.22595" lon="6.02505">
        <ele>1862</ele>
        <time>2014-01-12T09:27:06.000Z</time>
      </trkpt>
      <trkpt lat="45.22598" lon="6.02504">
        <ele>1863</ele>
        <time>2014-01-12T09:27:10.000Z</time>
      </trkpt>
      <trkpt lat="45.22604" lon="6.02505">
        <ele>1865</ele>
        <time>2014-01-12T09:27:18.000Z</time>
      </trkpt>
      <trkpt lat="45.22609" lon="6.02503">
        <ele>1866</ele>
        <time>2014-01-12T09:27:24.000Z</time>
      </trkpt>
      <trkpt lat="45.22613" lon="6.02504">
        <ele>1867</ele>
        <time>2014-01-12T09:27:31.000Z</time>
      </trkpt>
      <trkpt lat="45.22618" lon="6.02505">
        <ele>1868</ele>
        <time>2014-01-12T09:27:39.000Z</time>
      </trkpt>
      <trkpt lat="45.22622" lon="6.02503">
        <ele>1869</ele>
        <time>2014-01-12T09:27:46.000Z</time>
      </trkpt>
      <trkpt lat="45.22625" lon="6.02504">
        <ele>1869</ele>
        <time>2014-01-12T09:27:53.000Z</time>
      </trkpt>
      <trkpt lat="45.22627" lon="6.02507">
        <ele>1870</ele>
        <time>2014-01-12T09:28:00.000Z</time>
      </trkpt>
      <trkpt lat="45.22631" lon="6.02511">
        <ele>1870</ele>
        <time>2014-01-12T09:28:06.000Z</time>
      </trkpt>
      <trkpt lat="45.22635" lon="6.02515">
        <ele>1871</ele>
        <time>2014-01-12T09:28:13.000Z</time>
      </trkpt>
      <trkpt lat="45.22638" lon="6.02518">
        <ele>1871</ele>
        <time>2014-01-12T09:28:19.000Z</time>
      </trkpt>
      <trkpt lat="45.2264" lon="6.0252">
        <ele>1872</ele>
        <time>2014-01-12T09:28:24.000Z</time>
      </trkpt>
      <trkpt lat="45.22643" lon="6.02522">
        <ele>1872</ele>
        <time>2014-01-12T09:28:31.000Z</time>
      </trkpt>
      <trkpt lat="45.22646" lon="6.02526">
        <ele>1872</ele>
        <time>2014-01-12T09:28:39.000Z</time>
      </trkpt>
      <trkpt lat="45.22651" lon="6.0253">
        <ele>1872</ele>
        <time>2014-01-12T09:28:46.000Z</time>
      </trkpt>
      <trkpt lat="45.22655" lon="6.02532">
        <ele>1873</ele>
        <time>2014-01-12T09:28:52.000Z</time>
      </trkpt>
      <trkpt lat="45.2266" lon="6.02528">
        <ele>1873</ele>
        <time>2014-01-12T09:28:59.000Z</time>
      </trkpt>
      <trkpt lat="45.22663" lon="6.02525">
        <ele>1874</ele>
        <time>2014-01-12T09:29:07.000Z</time>
      </trkpt>
      <trkpt lat="45.22664" lon="6.02523">
        <ele>1874</ele>
        <time>2014-01-12T09:29:14.000Z</time>
      </trkpt>
      <trkpt lat="45.22668" lon="6.02522">
        <ele>1886</ele>
        <time>2014-01-12T09:29:20.000Z</time>
      </trkpt>
      <trkpt lat="45.22669" lon="6.02522">
        <ele>1886</ele>
        <time>2014-01-12T09:29:26.000Z</time>
      </trkpt>
      <trkpt lat="45.22671" lon="6.02522">
        <ele>1886</ele>
        <time>2014-01-12T09:29:33.000Z</time>
      </trkpt>
      <trkpt lat="45.22673" lon="6.02521">
        <ele>1886</ele>
        <time>2014-01-12T09:29:42.000Z</time>
      </trkpt>
      <trkpt lat="45.22675" lon="6.02522">
        <ele>1886</ele>
        <time>2014-01-12T09:29:55.000Z</time>
      </trkpt>
      <trkpt lat="45.22675" lon="6.02522">
        <ele>1887</ele>
        <time>2014-01-12T09:32:38.000Z</time>
      </trkpt>
      <trkpt lat="45.22675" lon="6.02522">
        <ele>1887</ele>
        <time>2014-01-12T09:32:40.000Z</time>
      </trkpt>
      <trkpt lat="45.22675" lon="6.02522">
        <ele>1887</ele>
        <time>2014-01-12T09:32:46.000Z</time>
      </trkpt>
      <trkpt lat="45.22682" lon="6.02522">
        <ele>1887</ele>
        <time>2014-01-12T09:33:01.000Z</time>
      </trkpt>
      <trkpt lat="45.22687" lon="6.02524">
        <ele>1889</ele>
        <time>2014-01-12T09:33:08.000Z</time>
      </trkpt>
      <trkpt lat="45.22691" lon="6.02525">
        <ele>1889</ele>
        <time>2014-01-12T09:33:15.000Z</time>
      </trkpt>
      <trkpt lat="45.22691" lon="6.02525">
        <ele>1889</ele>
        <time>2014-01-12T09:33:27.000Z</time>
      </trkpt>
      <trkpt lat="45.22694" lon="6.02526">
        <ele>1890</ele>
        <time>2014-01-12T09:33:34.000Z</time>
      </trkpt>
      <trkpt lat="45.22699" lon="6.02526">
        <ele>1891</ele>
        <time>2014-01-12T09:33:41.000Z</time>
      </trkpt>
      <trkpt lat="45.22706" lon="6.02527">
        <ele>1892</ele>
        <time>2014-01-12T09:33:48.000Z</time>
      </trkpt>
      <trkpt lat="45.22707" lon="6.02528">
        <ele>1892</ele>
        <time>2014-01-12T09:33:49.000Z</time>
      </trkpt>
      <trkpt lat="45.22712" lon="6.02527">
        <ele>1893</ele>
        <time>2014-01-12T09:33:56.000Z</time>
      </trkpt>
      <trkpt lat="45.22715" lon="6.02529">
        <ele>1894</ele>
        <time>2014-01-12T09:34:02.000Z</time>
      </trkpt>
      <trkpt lat="45.22719" lon="6.02531">
        <ele>1894</ele>
        <time>2014-01-12T09:34:09.000Z</time>
      </trkpt>
      <trkpt lat="45.22722" lon="6.02533">
        <ele>1895</ele>
        <time>2014-01-12T09:34:14.000Z</time>
      </trkpt>
      <trkpt lat="45.22726" lon="6.02535">
        <ele>1895</ele>
        <time>2014-01-12T09:34:20.000Z</time>
      </trkpt>
      <trkpt lat="45.2273" lon="6.02535">
        <ele>1896</ele>
        <time>2014-01-12T09:34:26.000Z</time>
      </trkpt>
      <trkpt lat="45.22734" lon="6.02533">
        <ele>1897</ele>
        <time>2014-01-12T09:34:34.000Z</time>
      </trkpt>
      <trkpt lat="45.22739" lon="6.02535">
        <ele>1897</ele>
        <time>2014-01-12T09:34:40.000Z</time>
      </trkpt>
      <trkpt lat="45.22745" lon="6.02536">
        <ele>1897</ele>
        <time>2014-01-12T09:34:47.000Z</time>
      </trkpt>
      <trkpt lat="45.2275" lon="6.02538">
        <ele>1897</ele>
        <time>2014-01-12T09:34:54.000Z</time>
      </trkpt>
      <trkpt lat="45.22754" lon="6.0254">
        <ele>1916</ele>
        <time>2014-01-12T09:35:01.000Z</time>
      </trkpt>
      <trkpt lat="45.22762" lon="6.02542">
        <ele>1916</ele>
        <time>2014-01-12T09:35:10.000Z</time>
      </trkpt>
      <trkpt lat="45.22768" lon="6.02547">
        <ele>1917</ele>
        <time>2014-01-12T09:35:19.000Z</time>
      </trkpt>
      <trkpt lat="45.22773" lon="6.02551">
        <ele>1917</ele>
        <time>2014-01-12T09:35:25.000Z</time>
      </trkpt>
      <trkpt lat="45.22778" lon="6.02553">
        <ele>1918</ele>
        <time>2014-01-12T09:35:32.000Z</time>
      </trkpt>
      <trkpt lat="45.22781" lon="6.02554">
        <ele>1918</ele>
        <time>2014-01-12T09:35:35.000Z</time>
      </trkpt>
      <trkpt lat="45.22787" lon="6.02558">
        <ele>1919</ele>
        <time>2014-01-12T09:35:44.000Z</time>
      </trkpt>
      <trkpt lat="45.22789" lon="6.02559">
        <ele>1919</ele>
        <time>2014-01-12T09:35:46.000Z</time>
      </trkpt>
      <trkpt lat="45.22794" lon="6.02562">
        <ele>1920</ele>
        <time>2014-01-12T09:35:52.000Z</time>
      </trkpt>
      <trkpt lat="45.22799" lon="6.02567">
        <ele>1921</ele>
        <time>2014-01-12T09:36:00.000Z</time>
      </trkpt>
      <trkpt lat="45.22802" lon="6.0257">
        <ele>1922</ele>
        <time>2014-01-12T09:36:04.000Z</time>
      </trkpt>
      <trkpt lat="45.22806" lon="6.02572">
        <ele>1923</ele>
        <time>2014-01-12T09:36:12.000Z</time>
      </trkpt>
      <trkpt lat="45.22811" lon="6.02576">
        <ele>1924</ele>
        <time>2014-01-12T09:36:20.000Z</time>
      </trkpt>
      <trkpt lat="45.22814" lon="6.02582">
        <ele>1925</ele>
        <time>2014-01-12T09:36:27.000Z</time>
      </trkpt>
      <trkpt lat="45.22818" lon="6.02585">
        <ele>1922</ele>
        <time>2014-01-12T09:36:33.000Z</time>
      </trkpt>
      <trkpt lat="45.22821" lon="6.02588">
        <ele>1923</ele>
        <time>2014-01-12T09:36:39.000Z</time>
      </trkpt>
      <trkpt lat="45.22824" lon="6.02591">
        <ele>1924</ele>
        <time>2014-01-12T09:36:46.000Z</time>
      </trkpt>
      <trkpt lat="45.22827" lon="6.02595">
        <ele>1924</ele>
        <time>2014-01-12T09:36:53.000Z</time>
      </trkpt>
      <trkpt lat="45.22831" lon="6.026">
        <ele>1923</ele>
        <time>2014-01-12T09:37:00.000Z</time>
      </trkpt>
      <trkpt lat="45.22835" lon="6.02603">
        <ele>1940</ele>
        <time>2014-01-12T09:37:06.000Z</time>
      </trkpt>
      <trkpt lat="45.22836" lon="6.02605">
        <ele>1940</ele>
        <time>2014-01-12T09:37:12.000Z</time>
      </trkpt>
      <trkpt lat="45.22837" lon="6.02606">
        <ele>1941</ele>
        <time>2014-01-12T09:37:18.000Z</time>
      </trkpt>
      <trkpt lat="45.22841" lon="6.0261">
        <ele>1942</ele>
        <time>2014-01-12T09:37:24.000Z</time>
      </trkpt>
      <trkpt lat="45.22845" lon="6.02613">
        <ele>1943</ele>
        <time>2014-01-12T09:37:32.000Z</time>
      </trkpt>
      <trkpt lat="45.2285" lon="6.02617">
        <ele>1944</ele>
        <time>2014-01-12T09:37:39.000Z</time>
      </trkpt>
      <trkpt lat="45.22854" lon="6.02618">
        <ele>1945</ele>
        <time>2014-01-12T09:37:45.000Z</time>
      </trkpt>
      <trkpt lat="45.22855" lon="6.02619">
        <ele>1945</ele>
        <time>2014-01-12T09:37:49.000Z</time>
      </trkpt>
      <trkpt lat="45.2286" lon="6.0262">
        <ele>1946</ele>
        <time>2014-01-12T09:37:55.000Z</time>
      </trkpt>
      <trkpt lat="45.22862" lon="6.02621">
        <ele>1947</ele>
        <time>2014-01-12T09:38:02.000Z</time>
      </trkpt>
      <trkpt lat="45.22864" lon="6.02622">
        <ele>1947</ele>
        <time>2014-01-12T09:38:04.000Z</time>
      </trkpt>
      <trkpt lat="45.22868" lon="6.02626">
        <ele>1948</ele>
        <time>2014-01-12T09:38:09.000Z</time>
      </trkpt>
      <trkpt lat="45.22874" lon="6.02627">
        <ele>1949</ele>
        <time>2014-01-12T09:38:17.000Z</time>
      </trkpt>
      <trkpt lat="45.22879" lon="6.02628">
        <ele>1950</ele>
        <time>2014-01-12T09:38:23.000Z</time>
      </trkpt>
      <trkpt lat="45.22883" lon="6.02631">
        <ele>1951</ele>
        <time>2014-01-12T09:38:31.000Z</time>
      </trkpt>
      <trkpt lat="45.22889" lon="6.02633">
        <ele>1953</ele>
        <time>2014-01-12T09:38:38.000Z</time>
      </trkpt>
      <trkpt lat="45.22894" lon="6.02636">
        <ele>1954</ele>
        <time>2014-01-12T09:38:46.000Z</time>
      </trkpt>
      <trkpt lat="45.22894" lon="6.02637">
        <ele>1954</ele>
        <time>2014-01-12T09:38:51.000Z</time>
      </trkpt>
      <trkpt lat="45.22897" lon="6.02638">
        <ele>1954</ele>
        <time>2014-01-12T09:38:56.000Z</time>
      </trkpt>
      <trkpt lat="45.22899" lon="6.02638">
        <ele>1955</ele>
        <time>2014-01-12T09:39:02.000Z</time>
      </trkpt>
      <trkpt lat="45.22899" lon="6.02638">
        <ele>1955</ele>
        <time>2014-01-12T09:39:08.000Z</time>
      </trkpt>
      <trkpt lat="45.22898" lon="6.02638">
        <ele>1955</ele>
        <time>2014-01-12T09:39:14.000Z</time>
      </trkpt>
      <trkpt lat="45.22901" lon="6.02645">
        <ele>1956</ele>
        <time>2014-01-12T09:39:20.000Z</time>
      </trkpt>
      <trkpt lat="45.22902" lon="6.02646">
        <ele>1956</ele>
        <time>2014-01-12T09:39:27.000Z</time>
      </trkpt>
      <trkpt lat="45.22903" lon="6.02648">
        <ele>1957</ele>
        <time>2014-01-12T09:39:32.000Z</time>
      </trkpt>
      <trkpt lat="45.22908" lon="6.02651">
        <ele>1959</ele>
        <time>2014-01-12T09:39:39.000Z</time>
      </trkpt>
      <trkpt lat="45.2291" lon="6.02655">
        <ele>1960</ele>
        <time>2014-01-12T09:39:45.000Z</time>
      </trkpt>
      <trkpt lat="45.22911" lon="6.02663">
        <ele>1963</ele>
        <time>2014-01-12T09:39:53.000Z</time>
      </trkpt>
      <trkpt lat="45.22913" lon="6.02664">
        <ele>1964</ele>
        <time>2014-01-12T09:40:00.000Z</time>
      </trkpt>
      <trkpt lat="45.22914" lon="6.02668">
        <ele>1966</ele>
        <time>2014-01-12T09:40:07.000Z</time>
      </trkpt>
      <trkpt lat="45.22915" lon="6.02673">
        <ele>1966</ele>
        <time>2014-01-12T09:40:16.000Z</time>
      </trkpt>
      <trkpt lat="45.22916" lon="6.02677">
        <ele>1965</ele>
        <time>2014-01-12T09:40:23.000Z</time>
      </trkpt>
      <trkpt lat="45.22918" lon="6.02683">
        <ele>1982</ele>
        <time>2014-01-12T09:40:30.000Z</time>
      </trkpt>
      <trkpt lat="45.22919" lon="6.02688">
        <ele>1985</ele>
        <time>2014-01-12T09:40:35.000Z</time>
      </trkpt>
      <trkpt lat="45.22919" lon="6.02694">
        <ele>1988</ele>
        <time>2014-01-12T09:40:42.000Z</time>
      </trkpt>
      <trkpt lat="45.22919" lon="6.027">
        <ele>1990</ele>
        <time>2014-01-12T09:40:48.000Z</time>
      </trkpt>
      <trkpt lat="45.2292" lon="6.02699">
        <ele>1990</ele>
        <time>2014-01-12T09:40:55.000Z</time>
      </trkpt>
      <trkpt lat="45.22921" lon="6.02696">
        <ele>1989</ele>
        <time>2014-01-12T09:40:58.000Z</time>
      </trkpt>
      <trkpt lat="45.22926" lon="6.02697">
        <ele>1990</ele>
        <time>2014-01-12T09:41:04.000Z</time>
      </trkpt>
      <trkpt lat="45.22931" lon="6.02695">
        <ele>1990</ele>
        <time>2014-01-12T09:41:11.000Z</time>
      </trkpt>
      <trkpt lat="45.22932" lon="6.02695">
        <ele>1991</ele>
        <time>2014-01-12T09:41:15.000Z</time>
      </trkpt>
      <trkpt lat="45.22936" lon="6.02694">
        <ele>1991</ele>
        <time>2014-01-12T09:41:21.000Z</time>
      </trkpt>
      <trkpt lat="45.22939" lon="6.02692">
        <ele>1991</ele>
        <time>2014-01-12T09:41:26.000Z</time>
      </trkpt>
      <trkpt lat="45.22942" lon="6.02684">
        <ele>1991</ele>
        <time>2014-01-12T09:41:34.000Z</time>
      </trkpt>
      <trkpt lat="45.22946" lon="6.02683">
        <ele>1992</ele>
        <time>2014-01-12T09:41:39.000Z</time>
      </trkpt>
      <trkpt lat="45.2295" lon="6.02681">
        <ele>1994</ele>
        <time>2014-01-12T09:41:46.000Z</time>
      </trkpt>
      <trkpt lat="45.22954" lon="6.02681">
        <ele>1995</ele>
        <time>2014-01-12T09:41:52.000Z</time>
      </trkpt>
      <trkpt lat="45.22957" lon="6.02677">
        <ele>1996</ele>
        <time>2014-01-12T09:41:59.000Z</time>
      </trkpt>
      <trkpt lat="45.22958" lon="6.02675">
        <ele>1996</ele>
        <time>2014-01-12T09:42:07.000Z</time>
      </trkpt>
      <trkpt lat="45.2296" lon="6.02675">
        <ele>1996</ele>
        <time>2014-01-12T09:42:11.000Z</time>
      </trkpt>
      <trkpt lat="45.22962" lon="6.02675">
        <ele>1997</ele>
        <time>2014-01-12T09:42:17.000Z</time>
      </trkpt>
      <trkpt lat="45.22963" lon="6.02677">
        <ele>1998</ele>
        <time>2014-01-12T09:42:23.000Z</time>
      </trkpt>
      <trkpt lat="45.22966" lon="6.02681">
        <ele>1999</ele>
        <time>2014-01-12T09:42:29.000Z</time>
      </trkpt>
      <trkpt lat="45.22968" lon="6.02683">
        <ele>2000</ele>
        <time>2014-01-12T09:42:34.000Z</time>
      </trkpt>
      <trkpt lat="45.22969" lon="6.02686">
        <ele>2000</ele>
        <time>2014-01-12T09:42:40.000Z</time>
      </trkpt>
      <trkpt lat="45.22967" lon="6.02691">
        <ele>2000</ele>
        <time>2014-01-12T09:42:47.000Z</time>
      </trkpt>
      <trkpt lat="45.22967" lon="6.02697">
        <ele>2000</ele>
        <time>2014-01-12T09:42:54.000Z</time>
      </trkpt>
      <trkpt lat="45.22966" lon="6.02701">
        <ele>2000</ele>
        <time>2014-01-12T09:42:58.000Z</time>
      </trkpt>
      <trkpt lat="45.22966" lon="6.02706">
        <ele>2001</ele>
        <time>2014-01-12T09:43:04.000Z</time>
      </trkpt>
      <trkpt lat="45.22965" lon="6.02711">
        <ele>2002</ele>
        <time>2014-01-12T09:43:11.000Z</time>
      </trkpt>
      <trkpt lat="45.22964" lon="6.02716">
        <ele>2002</ele>
        <time>2014-01-12T09:43:17.000Z</time>
      </trkpt>
      <trkpt lat="45.22965" lon="6.0272">
        <ele>2003</ele>
        <time>2014-01-12T09:43:21.000Z</time>
      </trkpt>
      <trkpt lat="45.22965" lon="6.02725">
        <ele>2003</ele>
        <time>2014-01-12T09:43:27.000Z</time>
      </trkpt>
      <trkpt lat="45.22965" lon="6.0273">
        <ele>2004</ele>
        <time>2014-01-12T09:43:34.000Z</time>
      </trkpt>
      <trkpt lat="45.22966" lon="6.02734">
        <ele>2005</ele>
        <time>2014-01-12T09:43:40.000Z</time>
      </trkpt>
      <trkpt lat="45.22969" lon="6.0273">
        <ele>2005</ele>
        <time>2014-01-12T09:43:46.000Z</time>
      </trkpt>
      <trkpt lat="45.22972" lon="6.0273">
        <ele>2006</ele>
        <time>2014-01-12T09:43:52.000Z</time>
      </trkpt>
      <trkpt lat="45.22974" lon="6.02728">
        <ele>2006</ele>
        <time>2014-01-12T09:43:57.000Z</time>
      </trkpt>
      <trkpt lat="45.22976" lon="6.02727">
        <ele>2007</ele>
        <time>2014-01-12T09:44:03.000Z</time>
      </trkpt>
      <trkpt lat="45.2298" lon="6.02721">
        <ele>2007</ele>
        <time>2014-01-12T09:44:10.000Z</time>
      </trkpt>
      <trkpt lat="45.22983" lon="6.02719">
        <ele>2007</ele>
        <time>2014-01-12T09:44:15.000Z</time>
      </trkpt>
      <trkpt lat="45.22985" lon="6.02715">
        <ele>2006</ele>
        <time>2014-01-12T09:44:20.000Z</time>
      </trkpt>
      <trkpt lat="45.22989" lon="6.02708">
        <ele>2006</ele>
        <time>2014-01-12T09:44:28.000Z</time>
      </trkpt>
      <trkpt lat="45.2299" lon="6.02706">
        <ele>2006</ele>
        <time>2014-01-12T09:44:31.000Z</time>
      </trkpt>
      <trkpt lat="45.22997" lon="6.02702">
        <ele>2006</ele>
        <time>2014-01-12T09:44:39.000Z</time>
      </trkpt>
      <trkpt lat="45.23001" lon="6.02698">
        <ele>2030</ele>
        <time>2014-01-12T09:44:46.000Z</time>
      </trkpt>
      <trkpt lat="45.23005" lon="6.02694">
        <ele>2029</ele>
        <time>2014-01-12T09:44:53.000Z</time>
      </trkpt>
      <trkpt lat="45.23006" lon="6.02689">
        <ele>2028</ele>
        <time>2014-01-12T09:45:00.000Z</time>
      </trkpt>
      <trkpt lat="45.23008" lon="6.02682">
        <ele>2025</ele>
        <time>2014-01-12T09:45:06.000Z</time>
      </trkpt>
      <trkpt lat="45.23008" lon="6.02681">
        <ele>2025</ele>
        <time>2014-01-12T09:45:07.000Z</time>
      </trkpt>
      <trkpt lat="45.23012" lon="6.02677">
        <ele>2025</ele>
        <time>2014-01-12T09:45:13.000Z</time>
      </trkpt>
      <trkpt lat="45.23013" lon="6.02677">
        <ele>2025</ele>
        <time>2014-01-12T09:45:19.000Z</time>
      </trkpt>
      <trkpt lat="45.23016" lon="6.0268">
        <ele>2028</ele>
        <time>2014-01-12T09:45:23.000Z</time>
      </trkpt>
      <trkpt lat="45.23018" lon="6.02686">
        <ele>2030</ele>
        <time>2014-01-12T09:45:29.000Z</time>
      </trkpt>
      <trkpt lat="45.23019" lon="6.02688">
        <ele>2031</ele>
        <time>2014-01-12T09:45:34.000Z</time>
      </trkpt>
      <trkpt lat="45.23023" lon="6.0269">
        <ele>2033</ele>
        <time>2014-01-12T09:45:41.000Z</time>
      </trkpt>
      <trkpt lat="45.23026" lon="6.02697">
        <ele>2035</ele>
        <time>2014-01-12T09:45:48.000Z</time>
      </trkpt>
      <trkpt lat="45.23024" lon="6.02704">
        <ele>2035</ele>
        <time>2014-01-12T09:45:55.000Z</time>
      </trkpt>
      <trkpt lat="45.23023" lon="6.02708">
        <ele>2036</ele>
        <time>2014-01-12T09:45:58.000Z</time>
      </trkpt>
      <trkpt lat="45.23022" lon="6.02715">
        <ele>2036</ele>
        <time>2014-01-12T09:46:05.000Z</time>
      </trkpt>
      <trkpt lat="45.23022" lon="6.0272">
        <ele>2036</ele>
        <time>2014-01-12T09:46:11.000Z</time>
      </trkpt>
      <trkpt lat="45.23021" lon="6.0272">
        <ele>2036</ele>
        <time>2014-01-12T09:46:12.000Z</time>
      </trkpt>
      <trkpt lat="45.23021" lon="6.02721">
        <ele>2036</ele>
        <time>2014-01-12T09:46:14.000Z</time>
      </trkpt>
      <trkpt lat="45.23021" lon="6.02728">
        <ele>2036</ele>
        <time>2014-01-12T09:46:21.000Z</time>
      </trkpt>
      <trkpt lat="45.23021" lon="6.02734">
        <ele>2036</ele>
        <time>2014-01-12T09:46:27.000Z</time>
      </trkpt>
      <trkpt lat="45.23022" lon="6.02732">
        <ele>2037</ele>
        <time>2014-01-12T09:46:33.000Z</time>
      </trkpt>
      <trkpt lat="45.23025" lon="6.02729">
        <ele>2037</ele>
        <time>2014-01-12T09:46:39.000Z</time>
      </trkpt>
      <trkpt lat="45.23028" lon="6.02725">
        <ele>2038</ele>
        <time>2014-01-12T09:46:45.000Z</time>
      </trkpt>
      <trkpt lat="45.23031" lon="6.02719">
        <ele>2038</ele>
        <time>2014-01-12T09:46:52.000Z</time>
      </trkpt>
      <trkpt lat="45.23037" lon="6.02716">
        <ele>2040</ele>
        <time>2014-01-12T09:46:59.000Z</time>
      </trkpt>
      <trkpt lat="45.23039" lon="6.02715">
        <ele>2040</ele>
        <time>2014-01-12T09:47:01.000Z</time>
      </trkpt>
      <trkpt lat="45.23045" lon="6.02713">
        <ele>2041</ele>
        <time>2014-01-12T09:47:09.000Z</time>
      </trkpt>
      <trkpt lat="45.23049" lon="6.02711">
        <ele>2042</ele>
        <time>2014-01-12T09:47:15.000Z</time>
      </trkpt>
      <trkpt lat="45.23051" lon="6.02705">
        <ele>2042</ele>
        <time>2014-01-12T09:47:22.000Z</time>
      </trkpt>
      <trkpt lat="45.23052" lon="6.02702">
        <ele>2042</ele>
        <time>2014-01-12T09:47:26.000Z</time>
      </trkpt>
      <trkpt lat="45.23053" lon="6.02698">
        <ele>2042</ele>
        <time>2014-01-12T09:47:32.000Z</time>
      </trkpt>
      <trkpt lat="45.23056" lon="6.02692">
        <ele>2043</ele>
        <time>2014-01-12T09:47:39.000Z</time>
      </trkpt>
      <trkpt lat="45.23056" lon="6.02686">
        <ele>2043</ele>
        <time>2014-01-12T09:47:45.000Z</time>
      </trkpt>
      <trkpt lat="45.23058" lon="6.0268">
        <ele>2043</ele>
        <time>2014-01-12T09:47:52.000Z</time>
      </trkpt>
      <trkpt lat="45.23061" lon="6.02671">
        <ele>2045</ele>
        <time>2014-01-12T09:48:00.000Z</time>
      </trkpt>
      <trkpt lat="45.23064" lon="6.02667">
        <ele>2043</ele>
        <time>2014-01-12T09:48:07.000Z</time>
      </trkpt>
      <trkpt lat="45.23066" lon="6.02662">
        <ele>2043</ele>
        <time>2014-01-12T09:48:13.000Z</time>
      </trkpt>
      <trkpt lat="45.23067" lon="6.0266">
        <ele>2044</ele>
        <time>2014-01-12T09:48:19.000Z</time>
      </trkpt>
      <trkpt lat="45.23067" lon="6.02654">
        <ele>2043</ele>
        <time>2014-01-12T09:48:26.000Z</time>
      </trkpt>
      <trkpt lat="45.23069" lon="6.02651">
        <ele>2043</ele>
        <time>2014-01-12T09:48:34.000Z</time>
      </trkpt>
      <trkpt lat="45.23074" lon="6.02655">
        <ele>2046</ele>
        <time>2014-01-12T09:48:42.000Z</time>
      </trkpt>
      <trkpt lat="45.23078" lon="6.02657">
        <ele>2048</ele>
        <time>2014-01-12T09:48:49.000Z</time>
      </trkpt>
      <trkpt lat="45.23081" lon="6.02659">
        <ele>2050</ele>
        <time>2014-01-12T09:48:55.000Z</time>
      </trkpt>
      <trkpt lat="45.23086" lon="6.02663">
        <ele>2059</ele>
        <time>2014-01-12T09:49:03.000Z</time>
      </trkpt>
      <trkpt lat="45.23088" lon="6.02666">
        <ele>2060</ele>
        <time>2014-01-12T09:49:09.000Z</time>
      </trkpt>
      <trkpt lat="45.2309" lon="6.02666">
        <ele>2061</ele>
        <time>2014-01-12T09:49:15.000Z</time>
      </trkpt>
      <trkpt lat="45.2309" lon="6.02667">
        <ele>2061</ele>
        <time>2014-01-12T09:49:38.000Z</time>
      </trkpt>
      <trkpt lat="45.23093" lon="6.02669">
        <ele>2064</ele>
        <time>2014-01-12T09:49:45.000Z</time>
      </trkpt>
      <trkpt lat="45.23095" lon="6.02671">
        <ele>2065</ele>
        <time>2014-01-12T09:49:51.000Z</time>
      </trkpt>
      <trkpt lat="45.23098" lon="6.02672">
        <ele>2067</ele>
        <time>2014-01-12T09:49:59.000Z</time>
      </trkpt>
      <trkpt lat="45.23101" lon="6.02674">
        <ele>2069</ele>
        <time>2014-01-12T09:50:06.000Z</time>
      </trkpt>
      <trkpt lat="45.23107" lon="6.02681">
        <ele>2073</ele>
        <time>2014-01-12T09:50:13.000Z</time>
      </trkpt>
      <trkpt lat="45.23112" lon="6.02688">
        <ele>2076</ele>
        <time>2014-01-12T09:50:21.000Z</time>
      </trkpt>
      <trkpt lat="45.23112" lon="6.02688">
        <ele>2076</ele>
        <time>2014-01-12T09:50:22.000Z</time>
      </trkpt>
      <trkpt lat="45.23114" lon="6.02694">
        <ele>2077</ele>
        <time>2014-01-12T09:50:28.000Z</time>
      </trkpt>
      <trkpt lat="45.23116" lon="6.02701">
        <ele>2078</ele>
        <time>2014-01-12T09:50:35.000Z</time>
      </trkpt>
      <trkpt lat="45.23118" lon="6.02705">
        <ele>2079</ele>
        <time>2014-01-12T09:50:40.000Z</time>
      </trkpt>
      <trkpt lat="45.23121" lon="6.02711">
        <ele>2080</ele>
        <time>2014-01-12T09:50:46.000Z</time>
      </trkpt>
      <trkpt lat="45.23122" lon="6.02713">
        <ele>2080</ele>
        <time>2014-01-12T09:50:54.000Z</time>
      </trkpt>
      <trkpt lat="45.23121" lon="6.0272">
        <ele>2081</ele>
        <time>2014-01-12T09:51:08.000Z</time>
      </trkpt>
      <trkpt lat="45.2312" lon="6.02724">
        <ele>2080</ele>
        <time>2014-01-12T09:51:15.000Z</time>
      </trkpt>
      <trkpt lat="45.23122" lon="6.02721">
        <ele>2081</ele>
        <time>2014-01-12T09:51:21.000Z</time>
      </trkpt>
      <trkpt lat="45.23125" lon="6.02718">
        <ele>2081</ele>
        <time>2014-01-12T09:51:27.000Z</time>
      </trkpt>
      <trkpt lat="45.23128" lon="6.02713">
        <ele>2082</ele>
        <time>2014-01-12T09:51:35.000Z</time>
      </trkpt>
      <trkpt lat="45.23129" lon="6.02708">
        <ele>2082</ele>
        <time>2014-01-12T09:51:42.000Z</time>
      </trkpt>
      <trkpt lat="45.2313" lon="6.02706">
        <ele>2082</ele>
        <time>2014-01-12T09:51:48.000Z</time>
      </trkpt>
      <trkpt lat="45.23133" lon="6.02699">
        <ele>2083</ele>
        <time>2014-01-12T09:51:54.000Z</time>
      </trkpt>
      <trkpt lat="45.23134" lon="6.02699">
        <ele>2083</ele>
        <time>2014-01-12T09:51:59.000Z</time>
      </trkpt>
      <trkpt lat="45.23136" lon="6.02704">
        <ele>2083</ele>
        <time>2014-01-12T09:52:04.000Z</time>
      </trkpt>
      <trkpt lat="45.23137" lon="6.0271">
        <ele>2084</ele>
        <time>2014-01-12T09:52:11.000Z</time>
      </trkpt>
      <trkpt lat="45.2314" lon="6.02716">
        <ele>2085</ele>
        <time>2014-01-12T09:52:18.000Z</time>
      </trkpt>
      <trkpt lat="45.23144" lon="6.02721">
        <ele>2087</ele>
        <time>2014-01-12T09:52:26.000Z</time>
      </trkpt>
      <trkpt lat="45.23147" lon="6.02722">
        <ele>2087</ele>
        <time>2014-01-12T09:52:32.000Z</time>
      </trkpt>
      <trkpt lat="45.23147" lon="6.02722">
        <ele>2087</ele>
        <time>2014-01-12T09:52:41.000Z</time>
      </trkpt>
      <trkpt lat="45.2315" lon="6.02723">
        <ele>2088</ele>
        <time>2014-01-12T09:53:09.000Z</time>
      </trkpt>
      <trkpt lat="45.23155" lon="6.02724">
        <ele>2089</ele>
        <time>2014-01-12T09:53:16.000Z</time>
      </trkpt>
      <trkpt lat="45.23157" lon="6.02724">
        <ele>2090</ele>
        <time>2014-01-12T09:53:19.000Z</time>
      </trkpt>
      <trkpt lat="45.23163" lon="6.02725">
        <ele>2091</ele>
        <time>2014-01-12T09:53:26.000Z</time>
      </trkpt>
      <trkpt lat="45.23166" lon="6.02724">
        <ele>2091</ele>
        <time>2014-01-12T09:53:30.000Z</time>
      </trkpt>
      <trkpt lat="45.23166" lon="6.02725">
        <ele>2091</ele>
        <time>2014-01-12T09:53:31.000Z</time>
      </trkpt>
      <trkpt lat="45.23171" lon="6.02725">
        <ele>2112</ele>
        <time>2014-01-12T09:53:39.000Z</time>
      </trkpt>
      <trkpt lat="45.23174" lon="6.02725">
        <ele>2112</ele>
        <time>2014-01-12T09:53:45.000Z</time>
      </trkpt>
      <trkpt lat="45.23176" lon="6.02723">
        <ele>2113</ele>
        <time>2014-01-12T09:53:51.000Z</time>
      </trkpt>
      <trkpt lat="45.23179" lon="6.02723">
        <ele>2113</ele>
        <time>2014-01-12T09:53:57.000Z</time>
      </trkpt>
      <trkpt lat="45.23182" lon="6.02719">
        <ele>2114</ele>
        <time>2014-01-12T09:54:04.000Z</time>
      </trkpt>
      <trkpt lat="45.23187" lon="6.02721">
        <ele>2115</ele>
        <time>2014-01-12T09:54:10.000Z</time>
      </trkpt>
      <trkpt lat="45.23191" lon="6.02719">
        <ele>2116</ele>
        <time>2014-01-12T09:54:17.000Z</time>
      </trkpt>
      <trkpt lat="45.23192" lon="6.02718">
        <ele>2116</ele>
        <time>2014-01-12T09:54:22.000Z</time>
      </trkpt>
      <trkpt lat="45.23194" lon="6.02715">
        <ele>2116</ele>
        <time>2014-01-12T09:54:29.000Z</time>
      </trkpt>
      <trkpt lat="45.23201" lon="6.0271">
        <ele>2117</ele>
        <time>2014-01-12T09:54:38.000Z</time>
      </trkpt>
      <trkpt lat="45.23205" lon="6.0271">
        <ele>2118</ele>
        <time>2014-01-12T09:54:46.000Z</time>
      </trkpt>
      <trkpt lat="45.23209" lon="6.02705">
        <ele>2119</ele>
        <time>2014-01-12T09:54:53.000Z</time>
      </trkpt>
      <trkpt lat="45.23211" lon="6.02702">
        <ele>2120</ele>
        <time>2014-01-12T09:54:58.000Z</time>
      </trkpt>
      <trkpt lat="45.23212" lon="6.02699">
        <ele>2120</ele>
        <time>2014-01-12T09:55:04.000Z</time>
      </trkpt>
      <trkpt lat="45.23212" lon="6.02699">
        <ele>2120</ele>
        <time>2014-01-12T09:55:11.000Z</time>
      </trkpt>
      <trkpt lat="45.23211" lon="6.02699">
        <ele>2119</ele>
        <time>2014-01-12T09:55:16.000Z</time>
      </trkpt>
      <trkpt lat="45.23213" lon="6.02703">
        <ele>2120</ele>
        <time>2014-01-12T09:55:24.000Z</time>
      </trkpt>
      <trkpt lat="45.23216" lon="6.02706">
        <ele>2121</ele>
        <time>2014-01-12T09:55:32.000Z</time>
      </trkpt>
      <trkpt lat="45.23218" lon="6.02708">
        <ele>2121</ele>
        <time>2014-01-12T09:55:37.000Z</time>
      </trkpt>
      <trkpt lat="45.23219" lon="6.02712">
        <ele>2121</ele>
        <time>2014-01-12T09:55:44.000Z</time>
      </trkpt>
      <trkpt lat="45.2322" lon="6.02716">
        <ele>2122</ele>
        <time>2014-01-12T09:55:50.000Z</time>
      </trkpt>
      <trkpt lat="45.23222" lon="6.02714">
        <ele>2122</ele>
        <time>2014-01-12T09:55:56.000Z</time>
      </trkpt>
      <trkpt lat="45.23225" lon="6.0271">
        <ele>2122</ele>
        <time>2014-01-12T09:56:02.000Z</time>
      </trkpt>
      <trkpt lat="45.23226" lon="6.02704">
        <ele>2123</ele>
        <time>2014-01-12T09:56:08.000Z</time>
      </trkpt>
      <trkpt lat="45.23227" lon="6.02702">
        <ele>2123</ele>
        <time>2014-01-12T09:56:10.000Z</time>
      </trkpt>
      <trkpt lat="45.23227" lon="6.02701">
        <ele>2123</ele>
        <time>2014-01-12T09:56:16.000Z</time>
      </trkpt>
      <trkpt lat="45.23228" lon="6.02707">
        <ele>2123</ele>
        <time>2014-01-12T09:56:23.000Z</time>
      </trkpt>
      <trkpt lat="45.23231" lon="6.02713">
        <ele>2123</ele>
        <time>2014-01-12T09:56:29.000Z</time>
      </trkpt>
      <trkpt lat="45.23233" lon="6.0272">
        <ele>2124</ele>
        <time>2014-01-12T09:56:36.000Z</time>
      </trkpt>
      <trkpt lat="45.23235" lon="6.02723">
        <ele>2125</ele>
        <time>2014-01-12T09:56:40.000Z</time>
      </trkpt>
      <trkpt lat="45.23238" lon="6.0273">
        <ele>2126</ele>
        <time>2014-01-12T09:56:48.000Z</time>
      </trkpt>
      <trkpt lat="45.2324" lon="6.02738">
        <ele>2128</ele>
        <time>2014-01-12T09:56:55.000Z</time>
      </trkpt>
      <trkpt lat="45.23241" lon="6.02745">
        <ele>2130</ele>
        <time>2014-01-12T09:57:01.000Z</time>
      </trkpt>
      <trkpt lat="45.2324" lon="6.02751">
        <ele>2131</ele>
        <time>2014-01-12T09:57:08.000Z</time>
      </trkpt>
      <trkpt lat="45.23242" lon="6.02752">
        <ele>2132</ele>
        <time>2014-01-12T09:57:16.000Z</time>
      </trkpt>
      <trkpt lat="45.23246" lon="6.0275">
        <ele>2133</ele>
        <time>2014-01-12T09:57:23.000Z</time>
      </trkpt>
      <trkpt lat="45.23251" lon="6.02746">
        <ele>2137</ele>
        <time>2014-01-12T09:57:32.000Z</time>
      </trkpt>
      <trkpt lat="45.23253" lon="6.02744">
        <ele>2138</ele>
        <time>2014-01-12T09:57:38.000Z</time>
      </trkpt>
      <trkpt lat="45.23256" lon="6.02738">
        <ele>2141</ele>
        <time>2014-01-12T09:57:44.000Z</time>
      </trkpt>
      <trkpt lat="45.23257" lon="6.02734">
        <ele>2142</ele>
        <time>2014-01-12T09:57:49.000Z</time>
      </trkpt>
      <trkpt lat="45.23257" lon="6.02727">
        <ele>2143</ele>
        <time>2014-01-12T09:57:55.000Z</time>
      </trkpt>
      <trkpt lat="45.23258" lon="6.02722">
        <ele>2144</ele>
        <time>2014-01-12T09:58:03.000Z</time>
      </trkpt>
      <trkpt lat="45.23259" lon="6.02718">
        <ele>2144</ele>
        <time>2014-01-12T09:58:08.000Z</time>
      </trkpt>
      <trkpt lat="45.23258" lon="6.02716">
        <ele>2145</ele>
        <time>2014-01-12T09:58:15.000Z</time>
      </trkpt>
      <trkpt lat="45.2326" lon="6.02709">
        <ele>2145</ele>
        <time>2014-01-12T09:58:22.000Z</time>
      </trkpt>
      <trkpt lat="45.23263" lon="6.02708">
        <ele>2145</ele>
        <time>2014-01-12T09:58:28.000Z</time>
      </trkpt>
      <trkpt lat="45.23267" lon="6.02713">
        <ele>2146</ele>
        <time>2014-01-12T09:58:36.000Z</time>
      </trkpt>
      <trkpt lat="45.23271" lon="6.02716">
        <ele>2146</ele>
        <time>2014-01-12T09:58:43.000Z</time>
      </trkpt>
      <trkpt lat="45.23275" lon="6.02716">
        <ele>2147</ele>
        <time>2014-01-12T09:58:49.000Z</time>
      </trkpt>
      <trkpt lat="45.23279" lon="6.02716">
        <ele>2147</ele>
        <time>2014-01-12T09:58:56.000Z</time>
      </trkpt>
      <trkpt lat="45.23285" lon="6.02714">
        <ele>2148</ele>
        <time>2014-01-12T09:59:03.000Z</time>
      </trkpt>
      <trkpt lat="45.23291" lon="6.02715">
        <ele>2149</ele>
        <time>2014-01-12T09:59:11.000Z</time>
      </trkpt>
      <trkpt lat="45.23295" lon="6.02715">
        <ele>2150</ele>
        <time>2014-01-12T09:59:18.000Z</time>
      </trkpt>
      <trkpt lat="45.23301" lon="6.02715">
        <ele>2151</ele>
        <time>2014-01-12T09:59:25.000Z</time>
      </trkpt>
      <trkpt lat="45.23304" lon="6.02716">
        <ele>2151</ele>
        <time>2014-01-12T09:59:32.000Z</time>
      </trkpt>
      <trkpt lat="45.23309" lon="6.02714">
        <ele>2152</ele>
        <time>2014-01-12T09:59:39.000Z</time>
      </trkpt>
      <trkpt lat="45.23315" lon="6.02714">
        <ele>2153</ele>
        <time>2014-01-12T09:59:48.000Z</time>
      </trkpt>
      <trkpt lat="45.23318" lon="6.02713">
        <ele>2153</ele>
        <time>2014-01-12T09:59:53.000Z</time>
      </trkpt>
      <trkpt lat="45.23322" lon="6.02713">
        <ele>2153</ele>
        <time>2014-01-12T10:00:01.000Z</time>
      </trkpt>
      <trkpt lat="45.23324" lon="6.02711">
        <ele>2153</ele>
        <time>2014-01-12T10:00:07.000Z</time>
      </trkpt>
      <trkpt lat="45.23328" lon="6.02708">
        <ele>2154</ele>
        <time>2014-01-12T10:00:15.000Z</time>
      </trkpt>
      <trkpt lat="45.23331" lon="6.02707">
        <ele>2154</ele>
        <time>2014-01-12T10:00:21.000Z</time>
      </trkpt>
      <trkpt lat="45.23331" lon="6.02706">
        <ele>2154</ele>
        <time>2014-01-12T10:00:30.000Z</time>
      </trkpt>
      <trkpt lat="45.23331" lon="6.02706">
        <ele>2154</ele>
        <time>2014-01-12T10:00:43.000Z</time>
      </trkpt>
      <trkpt lat="45.23331" lon="6.02707">
        <ele>2154</ele>
        <time>2014-01-12T10:01:19.000Z</time>
      </trkpt>
      <trkpt lat="45.23332" lon="6.02707">
        <ele>2154</ele>
        <time>2014-01-12T10:01:50.000Z</time>
      </trkpt>
      <trkpt lat="45.23331" lon="6.02707">
        <ele>2154</ele>
        <time>2014-01-12T10:01:51.000Z</time>
      </trkpt>
      <trkpt lat="45.23331" lon="6.02707">
        <ele>2154</ele>
        <time>2014-01-12T10:01:57.000Z</time>
      </trkpt>
      <trkpt lat="45.23331" lon="6.02707">
        <ele>2154</ele>
        <time>2014-01-12T10:02:00.000Z</time>
      </trkpt>
      <trkpt lat="45.23331" lon="6.02707">
        <ele>2154</ele>
        <time>2014-01-12T10:02:15.000Z</time>
      </trkpt>
      <trkpt lat="45.23331" lon="6.02707">
        <ele>2154</ele>
        <time>2014-01-12T10:02:16.000Z</time>
      </trkpt>
      <trkpt lat="45.23331" lon="6.02707">
        <ele>2154</ele>
        <time>2014-01-12T10:02:17.000Z</time>
      </trkpt>
      <trkpt lat="45.23331" lon="6.02707">
        <ele>2154</ele>
        <time>2014-01-12T10:02:20.000Z</time>
      </trkpt>
      <trkpt lat="45.23331" lon="6.02707">
        <ele>2154</ele>
        <time>2014-01-12T10:02:21.000Z</time>
      </trkpt>
      <trkpt lat="45.23331" lon="6.02707">
        <ele>2154</ele>
        <time>2014-01-12T10:02:28.000Z</time>
      </trkpt>
      <trkpt lat="45.23331" lon="6.02707">
        <ele>2154</ele>
        <time>2014-01-12T10:02:49.000Z</time>
      </trkpt>
      <trkpt lat="45.23332" lon="6.02706">
        <ele>2154</ele>
        <time>2014-01-12T10:03:17.000Z</time>
      </trkpt>
      <trkpt lat="45.23335" lon="6.02701">
        <ele>2167</ele>
        <time>2014-01-12T10:03:43.000Z</time>
      </trkpt>
      <trkpt lat="45.23338" lon="6.02697">
        <ele>2167</ele>
        <time>2014-01-12T10:03:49.000Z</time>
      </trkpt>
      <trkpt lat="45.23342" lon="6.0269">
        <ele>2167</ele>
        <time>2014-01-12T10:03:57.000Z</time>
      </trkpt>
      <trkpt lat="45.23345" lon="6.02684">
        <ele>2167</ele>
        <time>2014-01-12T10:04:04.000Z</time>
      </trkpt>
      <trkpt lat="45.23347" lon="6.02679">
        <ele>2167</ele>
        <time>2014-01-12T10:04:11.000Z</time>
      </trkpt>
      <trkpt lat="45.2335" lon="6.02675">
        <ele>2167</ele>
        <time>2014-01-12T10:04:18.000Z</time>
      </trkpt>
      <trkpt lat="45.23354" lon="6.0267">
        <ele>2167</ele>
        <time>2014-01-12T10:04:26.000Z</time>
      </trkpt>
      <trkpt lat="45.23357" lon="6.02667">
        <ele>2175</ele>
        <time>2014-01-12T10:04:32.000Z</time>
      </trkpt>
      <trkpt lat="45.23362" lon="6.02663">
        <ele>2177</ele>
        <time>2014-01-12T10:04:38.000Z</time>
      </trkpt>
      <trkpt lat="45.23365" lon="6.02661">
        <ele>2178</ele>
        <time>2014-01-12T10:04:44.000Z</time>
      </trkpt>
      <trkpt lat="45.23365" lon="6.02661">
        <ele>2178</ele>
        <time>2014-01-12T10:04:50.000Z</time>
      </trkpt>
      <trkpt lat="45.23368" lon="6.02655">
        <ele>2179</ele>
        <time>2014-01-12T10:04:57.000Z</time>
      </trkpt>
      <trkpt lat="45.23372" lon="6.02649">
        <ele>2180</ele>
        <time>2014-01-12T10:05:04.000Z</time>
      </trkpt>
      <trkpt lat="45.23375" lon="6.02644">
        <ele>2181</ele>
        <time>2014-01-12T10:05:11.000Z</time>
      </trkpt>
      <trkpt lat="45.23379" lon="6.02638">
        <ele>2182</ele>
        <time>2014-01-12T10:05:19.000Z</time>
      </trkpt>
      <trkpt lat="45.2338" lon="6.02637">
        <ele>2183</ele>
        <time>2014-01-12T10:05:24.000Z</time>
      </trkpt>
      <trkpt lat="45.23381" lon="6.02635">
        <ele>2183</ele>
        <time>2014-01-12T10:05:30.000Z</time>
      </trkpt>
      <trkpt lat="45.23386" lon="6.02635">
        <ele>2184</ele>
        <time>2014-01-12T10:05:36.000Z</time>
      </trkpt>
      <trkpt lat="45.23391" lon="6.02632">
        <ele>2184</ele>
        <time>2014-01-12T10:05:42.000Z</time>
      </trkpt>
      <trkpt lat="45.23394" lon="6.02631">
        <ele>2185</ele>
        <time>2014-01-12T10:05:45.000Z</time>
      </trkpt>
      <trkpt lat="45.23398" lon="6.02629">
        <ele>2185</ele>
        <time>2014-01-12T10:05:51.000Z</time>
      </trkpt>
      <trkpt lat="45.23402" lon="6.0263">
        <ele>2186</ele>
        <time>2014-01-12T10:05:57.000Z</time>
      </trkpt>
      <trkpt lat="45.23405" lon="6.02631">
        <ele>2186</ele>
        <time>2014-01-12T10:06:03.000Z</time>
      </trkpt>
      <trkpt lat="45.23405" lon="6.02631">
        <ele>2186</ele>
        <time>2014-01-12T10:06:11.000Z</time>
      </trkpt>
      <trkpt lat="45.23406" lon="6.02632">
        <ele>2186</ele>
        <time>2014-01-12T10:06:18.000Z</time>
      </trkpt>
      <trkpt lat="45.23412" lon="6.02632">
        <ele>2186</ele>
        <time>2014-01-12T10:06:24.000Z</time>
      </trkpt>
      <trkpt lat="45.23416" lon="6.02631">
        <ele>2186</ele>
        <time>2014-01-12T10:06:30.000Z</time>
      </trkpt>
      <trkpt lat="45.2342" lon="6.02626">
        <ele>2206</ele>
        <time>2014-01-12T10:06:37.000Z</time>
      </trkpt>
      <trkpt lat="45.23422" lon="6.02622">
        <ele>2207</ele>
        <time>2014-01-12T10:06:43.000Z</time>
      </trkpt>
      <trkpt lat="45.23424" lon="6.02618">
        <ele>2207</ele>
        <time>2014-01-12T10:06:49.000Z</time>
      </trkpt>
      <trkpt lat="45.23425" lon="6.02614">
        <ele>2208</ele>
        <time>2014-01-12T10:06:55.000Z</time>
      </trkpt>
      <trkpt lat="45.23425" lon="6.02608">
        <ele>2208</ele>
        <time>2014-01-12T10:07:03.000Z</time>
      </trkpt>
      <trkpt lat="45.23424" lon="6.02603">
        <ele>2207</ele>
        <time>2014-01-12T10:07:09.000Z</time>
      </trkpt>
      <trkpt lat="45.23423" lon="6.02601">
        <ele>2207</ele>
        <time>2014-01-12T10:07:15.000Z</time>
      </trkpt>
      <trkpt lat="45.23423" lon="6.02594">
        <ele>2206</ele>
        <time>2014-01-12T10:07:23.000Z</time>
      </trkpt>
      <trkpt lat="45.23424" lon="6.02589">
        <ele>2206</ele>
        <time>2014-01-12T10:07:30.000Z</time>
      </trkpt>
      <trkpt lat="45.23424" lon="6.02581">
        <ele>2210</ele>
        <time>2014-01-12T10:07:36.000Z</time>
      </trkpt>
      <trkpt lat="45.23423" lon="6.02578">
        <ele>2211</ele>
        <time>2014-01-12T10:07:42.000Z</time>
      </trkpt>
      <trkpt lat="45.23424" lon="6.02573">
        <ele>2214</ele>
        <time>2014-01-12T10:07:49.000Z</time>
      </trkpt>
      <trkpt lat="45.23428" lon="6.02575">
        <ele>2216</ele>
        <time>2014-01-12T10:07:55.000Z</time>
      </trkpt>
      <trkpt lat="45.23432" lon="6.02571">
        <ele>2219</ele>
        <time>2014-01-12T10:08:01.000Z</time>
      </trkpt>
      <trkpt lat="45.23436" lon="6.0257">
        <ele>2221</ele>
        <time>2014-01-12T10:08:08.000Z</time>
      </trkpt>
      <trkpt lat="45.2344" lon="6.0257">
        <ele>2223</ele>
        <time>2014-01-12T10:08:15.000Z</time>
      </trkpt>
      <trkpt lat="45.23443" lon="6.0257">
        <ele>2224</ele>
        <time>2014-01-12T10:08:23.000Z</time>
      </trkpt>
      <trkpt lat="45.23447" lon="6.0257">
        <ele>2226</ele>
        <time>2014-01-12T10:08:31.000Z</time>
      </trkpt>
      <trkpt lat="45.23449" lon="6.02575">
        <ele>2226</ele>
        <time>2014-01-12T10:08:37.000Z</time>
      </trkpt>
      <trkpt lat="45.23451" lon="6.02586">
        <ele>2214</ele>
        <time>2014-01-12T10:08:43.000Z</time>
      </trkpt>
      <trkpt lat="45.23454" lon="6.02593">
        <ele>2215</ele>
        <time>2014-01-12T10:08:50.000Z</time>
      </trkpt>
      <trkpt lat="45.23458" lon="6.02597">
        <ele>2216</ele>
        <time>2014-01-12T10:08:57.000Z</time>
      </trkpt>
      <trkpt lat="45.2346" lon="6.02599">
        <ele>2216</ele>
        <time>2014-01-12T10:09:02.000Z</time>
      </trkpt>
      <trkpt lat="45.2346" lon="6.02599">
        <ele>2216</ele>
        <time>2014-01-12T10:09:04.000Z</time>
      </trkpt>
      <trkpt lat="45.23461" lon="6.02596">
        <ele>2217</ele>
        <time>2014-01-12T10:09:09.000Z</time>
      </trkpt>
      <trkpt lat="45.23462" lon="6.02589">
        <ele>2218</ele>
        <time>2014-01-12T10:09:15.000Z</time>
      </trkpt>
      <trkpt lat="45.23463" lon="6.02585">
        <ele>2218</ele>
        <time>2014-01-12T10:09:22.000Z</time>
      </trkpt>
      <trkpt lat="45.23466" lon="6.02578">
        <ele>2232</ele>
        <time>2014-01-12T10:09:28.000Z</time>
      </trkpt>
      <trkpt lat="45.23469" lon="6.02569">
        <ele>2233</ele>
        <time>2014-01-12T10:09:35.000Z</time>
      </trkpt>
      <trkpt lat="45.23471" lon="6.02565">
        <ele>2234</ele>
        <time>2014-01-12T10:09:43.000Z</time>
      </trkpt>
      <trkpt lat="45.23471" lon="6.02563">
        <ele>2234</ele>
        <time>2014-01-12T10:09:49.000Z</time>
      </trkpt>
      <trkpt lat="45.23474" lon="6.02559">
        <ele>2235</ele>
        <time>2014-01-12T10:09:56.000Z</time>
      </trkpt>
      <trkpt lat="45.23475" lon="6.02557">
        <ele>2236</ele>
        <time>2014-01-12T10:10:03.000Z</time>
      </trkpt>
      <trkpt lat="45.23477" lon="6.02553">
        <ele>2236</ele>
        <time>2014-01-12T10:10:08.000Z</time>
      </trkpt>
      <trkpt lat="45.23476" lon="6.0255">
        <ele>2237</ele>
        <time>2014-01-12T10:10:15.000Z</time>
      </trkpt>
      <trkpt lat="45.23478" lon="6.02551">
        <ele>2237</ele>
        <time>2014-01-12T10:10:19.000Z</time>
      </trkpt>
      <trkpt lat="45.23481" lon="6.02559">
        <ele>2237</ele>
        <time>2014-01-12T10:10:28.000Z</time>
      </trkpt>
      <trkpt lat="45.23483" lon="6.02563">
        <ele>2237</ele>
        <time>2014-01-12T10:10:34.000Z</time>
      </trkpt>
      <trkpt lat="45.23484" lon="6.02566">
        <ele>2237</ele>
        <time>2014-01-12T10:10:39.000Z</time>
      </trkpt>
      <trkpt lat="45.23488" lon="6.02575">
        <ele>2238</ele>
        <time>2014-01-12T10:10:46.000Z</time>
      </trkpt>
      <trkpt lat="45.23489" lon="6.0258">
        <ele>2238</ele>
        <time>2014-01-12T10:10:53.000Z</time>
      </trkpt>
      <trkpt lat="45.23489" lon="6.02582">
        <ele>2238</ele>
        <time>2014-01-12T10:11:00.000Z</time>
      </trkpt>
      <trkpt lat="45.23491" lon="6.02578">
        <ele>2238</ele>
        <time>2014-01-12T10:11:06.000Z</time>
      </trkpt>
      <trkpt lat="45.23492" lon="6.02573">
        <ele>2238</ele>
        <time>2014-01-12T10:11:14.000Z</time>
      </trkpt>
      <trkpt lat="45.23494" lon="6.02567">
        <ele>2238</ele>
        <time>2014-01-12T10:11:19.000Z</time>
      </trkpt>
      <trkpt lat="45.23495" lon="6.02564">
        <ele>2238</ele>
        <time>2014-01-12T10:11:23.000Z</time>
      </trkpt>
      <trkpt lat="45.23497" lon="6.02557">
        <ele>2239</ele>
        <time>2014-01-12T10:11:29.000Z</time>
      </trkpt>
      <trkpt lat="45.23499" lon="6.02553">
        <ele>2239</ele>
        <time>2014-01-12T10:11:35.000Z</time>
      </trkpt>
      <trkpt lat="45.23502" lon="6.02548">
        <ele>2267</ele>
        <time>2014-01-12T10:11:41.000Z</time>
      </trkpt>
      <trkpt lat="45.23503" lon="6.02543">
        <ele>2268</ele>
        <time>2014-01-12T10:11:47.000Z</time>
      </trkpt>
      <trkpt lat="45.23501" lon="6.02536">
        <ele>2269</ele>
        <time>2014-01-12T10:11:53.000Z</time>
      </trkpt>
      <trkpt lat="45.235" lon="6.02533">
        <ele>2244</ele>
        <time>2014-01-12T10:12:01.000Z</time>
      </trkpt>
      <trkpt lat="45.235" lon="6.0253">
        <ele>2245</ele>
        <time>2014-01-12T10:12:08.000Z</time>
      </trkpt>
      <trkpt lat="45.235" lon="6.02529">
        <ele>2245</ele>
        <time>2014-01-12T10:12:09.000Z</time>
      </trkpt>
      <trkpt lat="45.23501" lon="6.02532">
        <ele>2270</ele>
        <time>2014-01-12T10:12:15.000Z</time>
      </trkpt>
      <trkpt lat="45.23501" lon="6.02533">
        <ele>2270</ele>
        <time>2014-01-12T10:12:17.000Z</time>
      </trkpt>
      <trkpt lat="45.23502" lon="6.02539">
        <ele>2269</ele>
        <time>2014-01-12T10:12:24.000Z</time>
      </trkpt>
      <trkpt lat="45.23505" lon="6.02544">
        <ele>2268</ele>
        <time>2014-01-12T10:12:31.000Z</time>
      </trkpt>
      <trkpt lat="45.23509" lon="6.02549">
        <ele>2267</ele>
        <time>2014-01-12T10:12:39.000Z</time>
      </trkpt>
      <trkpt lat="45.23511" lon="6.02551">
        <ele>2267</ele>
        <time>2014-01-12T10:12:46.000Z</time>
      </trkpt>
      <trkpt lat="45.23513" lon="6.02552">
        <ele>2267</ele>
        <time>2014-01-12T10:12:53.000Z</time>
      </trkpt>
      <trkpt lat="45.23516" lon="6.02558">
        <ele>2266</ele>
        <time>2014-01-12T10:13:00.000Z</time>
      </trkpt>
      <trkpt lat="45.23518" lon="6.02561">
        <ele>2265</ele>
        <time>2014-01-12T10:13:07.000Z</time>
      </trkpt>
      <trkpt lat="45.23519" lon="6.02563">
        <ele>2265</ele>
        <time>2014-01-12T10:13:13.000Z</time>
      </trkpt>
      <trkpt lat="45.23521" lon="6.02565">
        <ele>2265</ele>
        <time>2014-01-12T10:13:20.000Z</time>
      </trkpt>
      <trkpt lat="45.23525" lon="6.02573">
        <ele>2265</ele>
        <time>2014-01-12T10:13:31.000Z</time>
      </trkpt>
      <trkpt lat="45.23527" lon="6.02576">
        <ele>2266</ele>
        <time>2014-01-12T10:13:36.000Z</time>
      </trkpt>
      <trkpt lat="45.2353" lon="6.02582">
        <ele>2266</ele>
        <time>2014-01-12T10:13:44.000Z</time>
      </trkpt>
      <trkpt lat="45.23534" lon="6.0258">
        <ele>2269</ele>
        <time>2014-01-12T10:13:51.000Z</time>
      </trkpt>
      <trkpt lat="45.23537" lon="6.02582">
        <ele>2270</ele>
        <time>2014-01-12T10:13:57.000Z</time>
      </trkpt>
      <trkpt lat="45.23541" lon="6.02581">
        <ele>2271</ele>
        <time>2014-01-12T10:14:04.000Z</time>
      </trkpt>
      <trkpt lat="45.23543" lon="6.0258">
        <ele>2272</ele>
        <time>2014-01-12T10:14:09.000Z</time>
      </trkpt>
      <trkpt lat="45.23547" lon="6.02582">
        <ele>2273</ele>
        <time>2014-01-12T10:14:15.000Z</time>
      </trkpt>
      <trkpt lat="45.23548" lon="6.02583">
        <ele>2274</ele>
        <time>2014-01-12T10:14:18.000Z</time>
      </trkpt>
      <trkpt lat="45.23552" lon="6.02582">
        <ele>2275</ele>
        <time>2014-01-12T10:14:24.000Z</time>
      </trkpt>
      <trkpt lat="45.23557" lon="6.02582">
        <ele>2277</ele>
        <time>2014-01-12T10:14:30.000Z</time>
      </trkpt>
      <trkpt lat="45.2356" lon="6.02585">
        <ele>2266</ele>
        <time>2014-01-12T10:14:39.000Z</time>
      </trkpt>
      <trkpt lat="45.23564" lon="6.02588">
        <ele>2268</ele>
        <time>2014-01-12T10:14:47.000Z</time>
      </trkpt>
      <trkpt lat="45.23566" lon="6.02592">
        <ele>2268</ele>
        <time>2014-01-12T10:14:53.000Z</time>
      </trkpt>
      <trkpt lat="45.23568" lon="6.02594">
        <ele>2268</ele>
        <time>2014-01-12T10:14:59.000Z</time>
      </trkpt>
      <trkpt lat="45.2357" lon="6.02592">
        <ele>2270</ele>
        <time>2014-01-12T10:15:06.000Z</time>
      </trkpt>
      <trkpt lat="45.2357" lon="6.02588">
        <ele>2272</ele>
        <time>2014-01-12T10:15:13.000Z</time>
      </trkpt>
      <trkpt lat="45.23574" lon="6.0258">
        <ele>2282</ele>
        <time>2014-01-12T10:15:19.000Z</time>
      </trkpt>
      <trkpt lat="45.23576" lon="6.02577">
        <ele>2282</ele>
        <time>2014-01-12T10:15:24.000Z</time>
      </trkpt>
      <trkpt lat="45.23577" lon="6.02574">
        <ele>2282</ele>
        <time>2014-01-12T10:15:30.000Z</time>
      </trkpt>
      <trkpt lat="45.23581" lon="6.02569">
        <ele>2282</ele>
        <time>2014-01-12T10:15:36.000Z</time>
      </trkpt>
      <trkpt lat="45.23582" lon="6.02564">
        <ele>2282</ele>
        <time>2014-01-12T10:15:42.000Z</time>
      </trkpt>
      <trkpt lat="45.23583" lon="6.02561">
        <ele>2282</ele>
        <time>2014-01-12T10:15:47.000Z</time>
      </trkpt>
      <trkpt lat="45.23584" lon="6.02556">
        <ele>2311</ele>
        <time>2014-01-12T10:15:53.000Z</time>
      </trkpt>
      <trkpt lat="45.23586" lon="6.02553">
        <ele>2312</ele>
        <time>2014-01-12T10:15:58.000Z</time>
      </trkpt>
      <trkpt lat="45.23587" lon="6.02557">
        <ele>2311</ele>
        <time>2014-01-12T10:16:04.000Z</time>
      </trkpt>
      <trkpt lat="45.23589" lon="6.02563">
        <ele>2308</ele>
        <time>2014-01-12T10:16:08.000Z</time>
      </trkpt>
      <trkpt lat="45.23592" lon="6.02574">
        <ele>2302</ele>
        <time>2014-01-12T10:16:15.000Z</time>
      </trkpt>
      <trkpt lat="45.23594" lon="6.02576">
        <ele>2302</ele>
        <time>2014-01-12T10:16:21.000Z</time>
      </trkpt>
      <trkpt lat="45.23597" lon="6.02579">
        <ele>2303</ele>
        <time>2014-01-12T10:16:28.000Z</time>
      </trkpt>
      <trkpt lat="45.23599" lon="6.02586">
        <ele>2294</ele>
        <time>2014-01-12T10:16:35.000Z</time>
      </trkpt>
      <trkpt lat="45.23601" lon="6.02594">
        <ele>2295</ele>
        <time>2014-01-12T10:16:41.000Z</time>
      </trkpt>
      <trkpt lat="45.23603" lon="6.02601">
        <ele>2297</ele>
        <time>2014-01-12T10:16:48.000Z</time>
      </trkpt>
      <trkpt lat="45.23603" lon="6.02602">
        <ele>2297</ele>
        <time>2014-01-12T10:16:49.000Z</time>
      </trkpt>
      <trkpt lat="45.23606" lon="6.02604">
        <ele>2297</ele>
        <time>2014-01-12T10:16:55.000Z</time>
      </trkpt>
      <trkpt lat="45.23606" lon="6.02606">
        <ele>2298</ele>
        <time>2014-01-12T10:17:01.000Z</time>
      </trkpt>
      <trkpt lat="45.23606" lon="6.02599">
        <ele>2297</ele>
        <time>2014-01-12T10:17:09.000Z</time>
      </trkpt>
      <trkpt lat="45.23606" lon="6.02594">
        <ele>2297</ele>
        <time>2014-01-12T10:17:15.000Z</time>
      </trkpt>
      <trkpt lat="45.23606" lon="6.02589">
        <ele>2297</ele>
        <time>2014-01-12T10:17:22.000Z</time>
      </trkpt>
      <trkpt lat="45.23607" lon="6.02584">
        <ele>2298</ele>
        <time>2014-01-12T10:17:29.000Z</time>
      </trkpt>
      <trkpt lat="45.23608" lon="6.02578">
        <ele>2312</ele>
        <time>2014-01-12T10:17:35.000Z</time>
      </trkpt>
      <trkpt lat="45.23609" lon="6.02573">
        <ele>2313</ele>
        <time>2014-01-12T10:17:41.000Z</time>
      </trkpt>
      <trkpt lat="45.23611" lon="6.02571">
        <ele>2315</ele>
        <time>2014-01-12T10:17:46.000Z</time>
      </trkpt>
      <trkpt lat="45.23612" lon="6.02567">
        <ele>2316</ele>
        <time>2014-01-12T10:17:52.000Z</time>
      </trkpt>
      <trkpt lat="45.23613" lon="6.02565">
        <ele>2317</ele>
        <time>2014-01-12T10:17:57.000Z</time>
      </trkpt>
      <trkpt lat="45.23616" lon="6.02561">
        <ele>2319</ele>
        <time>2014-01-12T10:18:03.000Z</time>
      </trkpt>
      <trkpt lat="45.23618" lon="6.02558">
        <ele>2321</ele>
        <time>2014-01-12T10:18:09.000Z</time>
      </trkpt>
      <trkpt lat="45.23619" lon="6.0256">
        <ele>2321</ele>
        <time>2014-01-12T10:18:19.000Z</time>
      </trkpt>
      <trkpt lat="45.23619" lon="6.02562">
        <ele>2321</ele>
        <time>2014-01-12T10:18:21.000Z</time>
      </trkpt>
      <trkpt lat="45.23621" lon="6.0257">
        <ele>2320</ele>
        <time>2014-01-12T10:18:27.000Z</time>
      </trkpt>
      <trkpt lat="45.23621" lon="6.02573">
        <ele>2320</ele>
        <time>2014-01-12T10:18:32.000Z</time>
      </trkpt>
      <trkpt lat="45.23621" lon="6.02581">
        <ele>2319</ele>
        <time>2014-01-12T10:18:38.000Z</time>
      </trkpt>
      <trkpt lat="45.23623" lon="6.02584">
        <ele>2305</ele>
        <time>2014-01-12T10:18:48.000Z</time>
      </trkpt>
      <trkpt lat="45.23626" lon="6.02592">
        <ele>2306</ele>
        <time>2014-01-12T10:18:55.000Z</time>
      </trkpt>
      <trkpt lat="45.23626" lon="6.02597">
        <ele>2306</ele>
        <time>2014-01-12T10:19:04.000Z</time>
      </trkpt>
      <trkpt lat="45.23626" lon="6.02603">
        <ele>2305</ele>
        <time>2014-01-12T10:19:10.000Z</time>
      </trkpt>
      <trkpt lat="45.23628" lon="6.02604">
        <ele>2306</ele>
        <time>2014-01-12T10:19:17.000Z</time>
      </trkpt>
      <trkpt lat="45.23629" lon="6.02609">
        <ele>2305</ele>
        <time>2014-01-12T10:19:22.000Z</time>
      </trkpt>
      <trkpt lat="45.2363" lon="6.02615">
        <ele>2305</ele>
        <time>2014-01-12T10:19:29.000Z</time>
      </trkpt>
      <trkpt lat="45.23631" lon="6.0262">
        <ele>2305</ele>
        <time>2014-01-12T10:19:36.000Z</time>
      </trkpt>
      <trkpt lat="45.23631" lon="6.02622">
        <ele>2304</ele>
        <time>2014-01-12T10:19:45.000Z</time>
      </trkpt>
      <trkpt lat="45.23631" lon="6.02626">
        <ele>2304</ele>
        <time>2014-01-12T10:19:52.000Z</time>
      </trkpt>
      <trkpt lat="45.23634" lon="6.02625">
        <ele>2305</ele>
        <time>2014-01-12T10:20:00.000Z</time>
      </trkpt>
      <trkpt lat="45.23634" lon="6.02627">
        <ele>2305</ele>
        <time>2014-01-12T10:20:08.000Z</time>
      </trkpt>
      <trkpt lat="45.23636" lon="6.02627">
        <ele>2305</ele>
        <time>2014-01-12T10:20:15.000Z</time>
      </trkpt>
      <trkpt lat="45.23638" lon="6.02621">
        <ele>2307</ele>
        <time>2014-01-12T10:20:23.000Z</time>
      </trkpt>
      <trkpt lat="45.23639" lon="6.02618">
        <ele>2308</ele>
        <time>2014-01-12T10:20:30.000Z</time>
      </trkpt>
      <trkpt lat="45.23643" lon="6.02611">
        <ele>2310</ele>
        <time>2014-01-12T10:20:38.000Z</time>
      </trkpt>
      <trkpt lat="45.23645" lon="6.0261">
        <ele>2311</ele>
        <time>2014-01-12T10:20:39.000Z</time>
      </trkpt>
      <trkpt lat="45.23647" lon="6.02604">
        <ele>2314</ele>
        <time>2014-01-12T10:20:44.000Z</time>
      </trkpt>
      <trkpt lat="45.23649" lon="6.02601">
        <ele>2316</ele>
        <time>2014-01-12T10:20:47.000Z</time>
      </trkpt>
      <trkpt lat="45.23652" lon="6.02593">
        <ele>2320</ele>
        <time>2014-01-12T10:20:54.000Z</time>
      </trkpt>
      <trkpt lat="45.23655" lon="6.02588">
        <ele>2323</ele>
        <time>2014-01-12T10:21:00.000Z</time>
      </trkpt>
      <trkpt lat="45.23655" lon="6.02586">
        <ele>2325</ele>
        <time>2014-01-12T10:21:07.000Z</time>
      </trkpt>
      <trkpt lat="45.23657" lon="6.02585">
        <ele>2326</ele>
        <time>2014-01-12T10:21:12.000Z</time>
      </trkpt>
      <trkpt lat="45.23658" lon="6.02582">
        <ele>2334</ele>
        <time>2014-01-12T10:21:18.000Z</time>
      </trkpt>
      <trkpt lat="45.23659" lon="6.0258">
        <ele>2335</ele>
        <time>2014-01-12T10:21:24.000Z</time>
      </trkpt>
      <trkpt lat="45.2366" lon="6.02579">
        <ele>2335</ele>
        <time>2014-01-12T10:21:26.000Z</time>
      </trkpt>
      <trkpt lat="45.23661" lon="6.02583">
        <ele>2335</ele>
        <time>2014-01-12T10:21:30.000Z</time>
      </trkpt>
      <trkpt lat="45.23663" lon="6.02586">
        <ele>2332</ele>
        <time>2014-01-12T10:21:37.000Z</time>
      </trkpt>
      <trkpt lat="45.23667" lon="6.0259">
        <ele>2341</ele>
        <time>2014-01-12T10:21:47.000Z</time>
      </trkpt>
      <trkpt lat="45.23669" lon="6.02592">
        <ele>2342</ele>
        <time>2014-01-12T10:21:55.000Z</time>
      </trkpt>
      <trkpt lat="45.23672" lon="6.02595">
        <ele>2343</ele>
        <time>2014-01-12T10:22:01.000Z</time>
      </trkpt>
      <trkpt lat="45.23674" lon="6.02599">
        <ele>2344</ele>
        <time>2014-01-12T10:22:07.000Z</time>
      </trkpt>
      <trkpt lat="45.23676" lon="6.02604">
        <ele>2345</ele>
        <time>2014-01-12T10:22:14.000Z</time>
      </trkpt>
      <trkpt lat="45.23677" lon="6.0261">
        <ele>2346</ele>
        <time>2014-01-12T10:22:20.000Z</time>
      </trkpt>
      <trkpt lat="45.23677" lon="6.02611">
        <ele>2346</ele>
        <time>2014-01-12T10:22:27.000Z</time>
      </trkpt>
      <trkpt lat="45.23679" lon="6.02607">
        <ele>2346</ele>
        <time>2014-01-12T10:22:33.000Z</time>
      </trkpt>
      <trkpt lat="45.23681" lon="6.02602">
        <ele>2346</ele>
        <time>2014-01-12T10:22:38.000Z</time>
      </trkpt>
      <trkpt lat="45.23685" lon="6.02596">
        <ele>2347</ele>
        <time>2014-01-12T10:22:44.000Z</time>
      </trkpt>
      <trkpt lat="45.23687" lon="6.02592">
        <ele>2347</ele>
        <time>2014-01-12T10:22:50.000Z</time>
      </trkpt>
      <trkpt lat="45.23687" lon="6.02589">
        <ele>2347</ele>
        <time>2014-01-12T10:22:56.000Z</time>
      </trkpt>
      <trkpt lat="45.23688" lon="6.02584">
        <ele>2347</ele>
        <time>2014-01-12T10:23:02.000Z</time>
      </trkpt>
      <trkpt lat="45.23687" lon="6.02584">
        <ele>2347</ele>
        <time>2014-01-12T10:23:08.000Z</time>
      </trkpt>
      <trkpt lat="45.23686" lon="6.02583">
        <ele>2356</ele>
        <time>2014-01-12T10:23:15.000Z</time>
      </trkpt>
      <trkpt lat="45.23687" lon="6.0258">
        <ele>2357</ele>
        <time>2014-01-12T10:23:20.000Z</time>
      </trkpt>
      <trkpt lat="45.23687" lon="6.02575">
        <ele>2358</ele>
        <time>2014-01-12T10:23:26.000Z</time>
      </trkpt>
      <trkpt lat="45.23689" lon="6.02573">
        <ele>2359</ele>
        <time>2014-01-12T10:23:33.000Z</time>
      </trkpt>
      <trkpt lat="45.2369" lon="6.02576">
        <ele>2359</ele>
        <time>2014-01-12T10:23:38.000Z</time>
      </trkpt>
      <trkpt lat="45.2369" lon="6.02579">
        <ele>2359</ele>
        <time>2014-01-12T10:23:44.000Z</time>
      </trkpt>
      <trkpt lat="45.2369" lon="6.02581">
        <ele>2359</ele>
        <time>2014-01-12T10:23:51.000Z</time>
      </trkpt>
      <trkpt lat="45.23692" lon="6.02583">
        <ele>2359</ele>
        <time>2014-01-12T10:23:58.000Z</time>
      </trkpt>
      <trkpt lat="45.23694" lon="6.02586">
        <ele>2350</ele>
        <time>2014-01-12T10:24:04.000Z</time>
      </trkpt>
      <trkpt lat="45.23696" lon="6.02589">
        <ele>2350</ele>
        <time>2014-01-12T10:24:12.000Z</time>
      </trkpt>
      <trkpt lat="45.23698" lon="6.02592">
        <ele>2351</ele>
        <time>2014-01-12T10:24:18.000Z</time>
      </trkpt>
      <trkpt lat="45.23703" lon="6.02597">
        <ele>2353</ele>
        <time>2014-01-12T10:24:26.000Z</time>
      </trkpt>
      <trkpt lat="45.23707" lon="6.02601">
        <ele>2354</ele>
        <time>2014-01-12T10:24:33.000Z</time>
      </trkpt>
      <trkpt lat="45.23708" lon="6.02602">
        <ele>2354</ele>
        <time>2014-01-12T10:24:40.000Z</time>
      </trkpt>
      <trkpt lat="45.23711" lon="6.02607">
        <ele>2354</ele>
        <time>2014-01-12T10:24:46.000Z</time>
      </trkpt>
      <trkpt lat="45.23716" lon="6.02611">
        <ele>2356</ele>
        <time>2014-01-12T10:24:53.000Z</time>
      </trkpt>
      <trkpt lat="45.23721" lon="6.02611">
        <ele>2357</ele>
        <time>2014-01-12T10:25:01.000Z</time>
      </trkpt>
      <trkpt lat="45.23722" lon="6.0261">
        <ele>2358</ele>
        <time>2014-01-12T10:25:08.000Z</time>
      </trkpt>
      <trkpt lat="45.23724" lon="6.0261">
        <ele>2358</ele>
        <time>2014-01-12T10:25:27.000Z</time>
      </trkpt>
      <trkpt lat="45.23726" lon="6.0261">
        <ele>2359</ele>
        <time>2014-01-12T10:25:33.000Z</time>
      </trkpt>
      <trkpt lat="45.23727" lon="6.02611">
        <ele>2359</ele>
        <time>2014-01-12T10:25:34.000Z</time>
      </trkpt>
      <trkpt lat="45.23731" lon="6.0261">
        <ele>2360</ele>
        <time>2014-01-12T10:25:41.000Z</time>
      </trkpt>
      <trkpt lat="45.23736" lon="6.02614">
        <ele>2361</ele>
        <time>2014-01-12T10:25:49.000Z</time>
      </trkpt>
      <trkpt lat="45.23737" lon="6.02615">
        <ele>2361</ele>
        <time>2014-01-12T10:25:56.000Z</time>
      </trkpt>
      <trkpt lat="45.2374" lon="6.02616">
        <ele>2361</ele>
        <time>2014-01-12T10:26:09.000Z</time>
      </trkpt>
      <trkpt lat="45.23744" lon="6.02619">
        <ele>2361</ele>
        <time>2014-01-12T10:26:16.000Z</time>
      </trkpt>
      <trkpt lat="45.23747" lon="6.02622">
        <ele>2361</ele>
        <time>2014-01-12T10:26:23.000Z</time>
      </trkpt>
      <trkpt lat="45.23748" lon="6.02623">
        <ele>2360</ele>
        <time>2014-01-12T10:26:30.000Z</time>
      </trkpt>
      <trkpt lat="45.23747" lon="6.02619">
        <ele>2361</ele>
        <time>2014-01-12T10:26:37.000Z</time>
      </trkpt>
      <trkpt lat="45.23748" lon="6.02616">
        <ele>2362</ele>
        <time>2014-01-12T10:26:42.000Z</time>
      </trkpt>
      <trkpt lat="45.23748" lon="6.02614">
        <ele>2363</ele>
        <time>2014-01-12T10:26:47.000Z</time>
      </trkpt>
      <trkpt lat="45.23748" lon="6.02608">
        <ele>2365</ele>
        <time>2014-01-12T10:26:53.000Z</time>
      </trkpt>
      <trkpt lat="45.23748" lon="6.02605">
        <ele>2366</ele>
        <time>2014-01-12T10:26:59.000Z</time>
      </trkpt>
      <trkpt lat="45.23747" lon="6.02602">
        <ele>2367</ele>
        <time>2014-01-12T10:27:05.000Z</time>
      </trkpt>
      <trkpt lat="45.23748" lon="6.02597">
        <ele>2371</ele>
        <time>2014-01-12T10:27:10.000Z</time>
      </trkpt>
      <trkpt lat="45.23748" lon="6.02593">
        <ele>2374</ele>
        <time>2014-01-12T10:27:15.000Z</time>
      </trkpt>
      <trkpt lat="45.23749" lon="6.02589">
        <ele>2378</ele>
        <time>2014-01-12T10:27:21.000Z</time>
      </trkpt>
      <trkpt lat="45.23749" lon="6.02585">
        <ele>2381</ele>
        <time>2014-01-12T10:27:28.000Z</time>
      </trkpt>
      <trkpt lat="45.23749" lon="6.02582">
        <ele>2383</ele>
        <time>2014-01-12T10:27:33.000Z</time>
      </trkpt>
      <trkpt lat="45.23748" lon="6.02578">
        <ele>2381</ele>
        <time>2014-01-12T10:27:38.000Z</time>
      </trkpt>
      <trkpt lat="45.23748" lon="6.02574">
        <ele>2380</ele>
        <time>2014-01-12T10:27:44.000Z</time>
      </trkpt>
      <trkpt lat="45.23748" lon="6.0257">
        <ele>2379</ele>
        <time>2014-01-12T10:27:49.000Z</time>
      </trkpt>
      <trkpt lat="45.23749" lon="6.0257">
        <ele>2379</ele>
        <time>2014-01-12T10:27:55.000Z</time>
      </trkpt>
      <trkpt lat="45.23751" lon="6.02573">
        <ele>2380</ele>
        <time>2014-01-12T10:28:03.000Z</time>
      </trkpt>
      <trkpt lat="45.23754" lon="6.02575">
        <ele>2380</ele>
        <time>2014-01-12T10:28:10.000Z</time>
      </trkpt>
      <trkpt lat="45.23756" lon="6.02579">
        <ele>2381</ele>
        <time>2014-01-12T10:28:19.000Z</time>
      </trkpt>
      <trkpt lat="45.2376" lon="6.02584">
        <ele>2379</ele>
        <time>2014-01-12T10:28:28.000Z</time>
      </trkpt>
      <trkpt lat="45.23762" lon="6.02584">
        <ele>2379</ele>
        <time>2014-01-12T10:28:31.000Z</time>
      </trkpt>
      <trkpt lat="45.23764" lon="6.02587">
        <ele>2378</ele>
        <time>2014-01-12T10:28:36.000Z</time>
      </trkpt>
      <trkpt lat="45.23768" lon="6.0259">
        <ele>2377</ele>
        <time>2014-01-12T10:28:43.000Z</time>
      </trkpt>
      <trkpt lat="45.23771" lon="6.02592">
        <ele>2376</ele>
        <time>2014-01-12T10:28:51.000Z</time>
      </trkpt>
      <trkpt lat="45.23771" lon="6.02589">
        <ele>2376</ele>
        <time>2014-01-12T10:28:58.000Z</time>
      </trkpt>
      <trkpt lat="45.23772" lon="6.02585">
        <ele>2376</ele>
        <time>2014-01-12T10:29:05.000Z</time>
      </trkpt>
      <trkpt lat="45.23776" lon="6.02583">
        <ele>2375</ele>
        <time>2014-01-12T10:29:10.000Z</time>
      </trkpt>
      <trkpt lat="45.23777" lon="6.02583">
        <ele>2374</ele>
        <time>2014-01-12T10:29:12.000Z</time>
      </trkpt>
      <trkpt lat="45.2378" lon="6.02583">
        <ele>2374</ele>
        <time>2014-01-12T10:29:20.000Z</time>
      </trkpt>
      <trkpt lat="45.23783" lon="6.02586">
        <ele>2374</ele>
        <time>2014-01-12T10:29:27.000Z</time>
      </trkpt>
      <trkpt lat="45.23784" lon="6.02586">
        <ele>2374</ele>
        <time>2014-01-12T10:29:34.000Z</time>
      </trkpt>
      <trkpt lat="45.23784" lon="6.02586">
        <ele>2374</ele>
        <time>2014-01-12T10:29:41.000Z</time>
      </trkpt>
      <trkpt lat="45.23787" lon="6.02583">
        <ele>2372</ele>
        <time>2014-01-12T10:29:54.000Z</time>
      </trkpt>
      <trkpt lat="45.23787" lon="6.02576">
        <ele>2372</ele>
        <time>2014-01-12T10:30:02.000Z</time>
      </trkpt>
      <trkpt lat="45.23785" lon="6.02571">
        <ele>2372</ele>
        <time>2014-01-12T10:30:09.000Z</time>
      </trkpt>
      <trkpt lat="45.23785" lon="6.0257">
        <ele>2372</ele>
        <time>2014-01-12T10:30:13.000Z</time>
      </trkpt>
      <trkpt lat="45.23783" lon="6.02566">
        <ele>2372</ele>
        <time>2014-01-12T10:30:19.000Z</time>
      </trkpt>
      <trkpt lat="45.23782" lon="6.02563">
        <ele>2372</ele>
        <time>2014-01-12T10:30:21.000Z</time>
      </trkpt>
      <trkpt lat="45.23782" lon="6.02562">
        <ele>2372</ele>
        <time>2014-01-12T10:30:27.000Z</time>
      </trkpt>
      <trkpt lat="45.23782" lon="6.02557">
        <ele>2372</ele>
        <time>2014-01-12T10:31:04.000Z</time>
      </trkpt>
      <trkpt lat="45.23783" lon="6.02551">
        <ele>2372</ele>
        <time>2014-01-12T10:31:10.000Z</time>
      </trkpt>
      <trkpt lat="45.23783" lon="6.0255">
        <ele>2372</ele>
        <time>2014-01-12T10:31:14.000Z</time>
      </trkpt>
      <trkpt lat="45.23783" lon="6.02543">
        <ele>2372</ele>
        <time>2014-01-12T10:31:19.000Z</time>
      </trkpt>
      <trkpt lat="45.23783" lon="6.02539">
        <ele>2372</ele>
        <time>2014-01-12T10:31:25.000Z</time>
      </trkpt>
      <trkpt lat="45.23783" lon="6.0254">
        <ele>2371</ele>
        <time>2014-01-12T10:31:30.000Z</time>
      </trkpt>
      <trkpt lat="45.23781" lon="6.02539">
        <ele>2372</ele>
        <time>2014-01-12T10:31:35.000Z</time>
      </trkpt>
      <trkpt lat="45.2378" lon="6.02539">
        <ele>2372</ele>
        <time>2014-01-12T10:31:37.000Z</time>
      </trkpt>
      <trkpt lat="45.23779" lon="6.02539">
        <ele>2372</ele>
        <time>2014-01-12T10:31:42.000Z</time>
      </trkpt>
      <trkpt lat="45.23778" lon="6.02541">
        <ele>2373</ele>
        <time>2014-01-12T10:31:48.000Z</time>
      </trkpt>
      <trkpt lat="45.23777" lon="6.02539">
        <ele>2373</ele>
        <time>2014-01-12T10:31:54.000Z</time>
      </trkpt>
      <trkpt lat="45.23777" lon="6.02536">
        <ele>2373</ele>
        <time>2014-01-12T10:32:01.000Z</time>
      </trkpt>
      <trkpt lat="45.23777" lon="6.02534">
        <ele>2373</ele>
        <time>2014-01-12T10:32:07.000Z</time>
      </trkpt>
      <trkpt lat="45.23776" lon="6.02529">
        <ele>2374</ele>
        <time>2014-01-12T10:32:16.000Z</time>
      </trkpt>
      <trkpt lat="45.23775" lon="6.02528">
        <ele>2374</ele>
        <time>2014-01-12T10:32:22.000Z</time>
      </trkpt>
      <trkpt lat="45.23775" lon="6.02528">
        <ele>2374</ele>
        <time>2014-01-12T10:32:33.000Z</time>
      </trkpt>
      <trkpt lat="45.23775" lon="6.02527">
        <ele>2374</ele>
        <time>2014-01-12T10:32:49.000Z</time>
      </trkpt>
      <trkpt lat="45.23775" lon="6.02528">
        <ele>2374</ele>
        <time>2014-01-12T10:33:06.000Z</time>
      </trkpt>
      <trkpt lat="45.23775" lon="6.02528">
        <ele>2374</ele>
        <time>2014-01-12T10:33:08.000Z</time>
      </trkpt>
      <trkpt lat="45.23775" lon="6.02528">
        <ele>2374</ele>
        <time>2014-01-12T10:33:17.000Z</time>
      </trkpt>
      <trkpt lat="45.23775" lon="6.02529">
        <ele>2374</ele>
        <time>2014-01-12T10:33:24.000Z</time>
      </trkpt>
      <trkpt lat="45.23775" lon="6.02528">
        <ele>2374</ele>
        <time>2014-01-12T10:35:14.000Z</time>
      </trkpt>
      <trkpt lat="45.23775" lon="6.02528">
        <ele>2374</ele>
        <time>2014-01-12T10:35:44.000Z</time>
      </trkpt>
      <trkpt lat="45.23775" lon="6.02528">
        <ele>2374</ele>
        <time>2014-01-12T10:35:54.000Z</time>
      </trkpt>
      <trkpt lat="45.23776" lon="6.02527">
        <ele>2374</ele>
        <time>2014-01-12T10:38:51.000Z</time>
      </trkpt>
      <trkpt lat="45.23776" lon="6.02527">
        <ele>2374</ele>
        <time>2014-01-12T10:39:36.000Z</time>
      </trkpt>
      <trkpt lat="45.23776" lon="6.02527">
        <ele>2374</ele>
        <time>2014-01-12T10:39:37.000Z</time>
      </trkpt>
      <trkpt lat="45.23776" lon="6.02527">
        <ele>2374</ele>
        <time>2014-01-12T10:39:39.000Z</time>
      </trkpt>
      <trkpt lat="45.23776" lon="6.02527">
        <ele>2374</ele>
        <time>2014-01-12T10:39:40.000Z</time>
      </trkpt>
      <trkpt lat="45.23776" lon="6.02527">
        <ele>2374</ele>
        <time>2014-01-12T10:39:45.000Z</time>
      </trkpt>
      <trkpt lat="45.23774" lon="6.02528">
        <ele>2374</ele>
        <time>2014-01-12T10:39:54.000Z</time>
      </trkpt>
      <trkpt lat="45.23774" lon="6.02528">
        <ele>2374</ele>
        <time>2014-01-12T10:40:21.000Z</time>
      </trkpt>
      <trkpt lat="45.23774" lon="6.02528">
        <ele>2374</ele>
        <time>2014-01-12T10:40:51.000Z</time>
      </trkpt>
      <trkpt lat="45.23775" lon="6.02527">
        <ele>2374</ele>
        <time>2014-01-12T10:41:03.000Z</time>
      </trkpt>
      <trkpt lat="45.23775" lon="6.02527">
        <ele>2374</ele>
        <time>2014-01-12T10:41:19.000Z</time>
      </trkpt>
      <trkpt lat="45.23775" lon="6.02527">
        <ele>2374</ele>
        <time>2014-01-12T10:41:26.000Z</time>
      </trkpt>
      <trkpt lat="45.23775" lon="6.02527">
        <ele>2374</ele>
        <time>2014-01-12T10:41:31.000Z</time>
      </trkpt>
      <trkpt lat="45.23775" lon="6.02527">
        <ele>2374</ele>
        <time>2014-01-12T10:41:44.000Z</time>
      </trkpt>
      <trkpt lat="45.23775" lon="6.02528">
        <ele>2374</ele>
        <time>2014-01-12T10:41:58.000Z</time>
      </trkpt>
      <trkpt lat="45.23775" lon="6.02528">
        <ele>2374</ele>
        <time>2014-01-12T10:42:03.000Z</time>
      </trkpt>
      <trkpt lat="45.23774" lon="6.02529">
        <ele>2374</ele>
        <time>2014-01-12T10:42:13.000Z</time>
      </trkpt>
      <trkpt lat="45.23777" lon="6.02531">
        <ele>2373</ele>
        <time>2014-01-12T10:42:18.000Z</time>
      </trkpt>
      <trkpt lat="45.23777" lon="6.02532">
        <ele>2373</ele>
        <time>2014-01-12T10:42:22.000Z</time>
      </trkpt>
      <trkpt lat="45.23777" lon="6.02536">
        <ele>2373</ele>
        <time>2014-01-12T10:42:28.000Z</time>
      </trkpt>
      <trkpt lat="45.23782" lon="6.02539">
        <ele>2372</ele>
        <time>2014-01-12T10:42:32.000Z</time>
      </trkpt>
      <trkpt lat="45.23782" lon="6.02548">
        <ele>2372</ele>
        <time>2014-01-12T10:42:36.000Z</time>
      </trkpt>
      <trkpt lat="45.23782" lon="6.02548">
        <ele>2372</ele>
        <time>2014-01-12T10:42:37.000Z</time>
      </trkpt>
      <trkpt lat="45.23782" lon="6.02562">
        <ele>2373</ele>
        <time>2014-01-12T10:42:42.000Z</time>
      </trkpt>
      <trkpt lat="45.23782" lon="6.0257">
        <ele>2373</ele>
        <time>2014-01-12T10:42:45.000Z</time>
      </trkpt>
      <trkpt lat="45.23783" lon="6.02576">
        <ele>2373</ele>
        <time>2014-01-12T10:42:47.000Z</time>
      </trkpt>
      <trkpt lat="45.23784" lon="6.02586">
        <ele>2374</ele>
        <time>2014-01-12T10:42:52.000Z</time>
      </trkpt>
      <trkpt lat="45.2378" lon="6.02585">
        <ele>2374</ele>
        <time>2014-01-12T10:42:56.000Z</time>
      </trkpt>
      <trkpt lat="45.23772" lon="6.02588">
        <ele>2376</ele>
        <time>2014-01-12T10:42:59.000Z</time>
      </trkpt>
      <trkpt lat="45.2377" lon="6.0259">
        <ele>2376</ele>
        <time>2014-01-12T10:43:00.000Z</time>
      </trkpt>
      <trkpt lat="45.23764" lon="6.02584">
        <ele>2378</ele>
        <time>2014-01-12T10:43:02.000Z</time>
      </trkpt>
      <trkpt lat="45.23757" lon="6.02584">
        <ele>2381</ele>
        <time>2014-01-12T10:43:04.000Z</time>
      </trkpt>
      <trkpt lat="45.23753" lon="6.02586">
        <ele>2382</ele>
        <time>2014-01-12T10:43:05.000Z</time>
      </trkpt>
      <trkpt lat="45.23744" lon="6.02594">
        <ele>2372</ele>
        <time>2014-01-12T10:43:07.000Z</time>
      </trkpt>
      <trkpt lat="45.23735" lon="6.02603">
        <ele>2364</ele>
        <time>2014-01-12T10:43:09.000Z</time>
      </trkpt>
      <trkpt lat="45.23732" lon="6.02609">
        <ele>2361</ele>
        <time>2014-01-12T10:43:10.000Z</time>
      </trkpt>
      <trkpt lat="45.23724" lon="6.02612">
        <ele>2358</ele>
        <time>2014-01-12T10:43:12.000Z</time>
      </trkpt>
      <trkpt lat="45.23718" lon="6.02615">
        <ele>2356</ele>
        <time>2014-01-12T10:43:14.000Z</time>
      </trkpt>
      <trkpt lat="45.23713" lon="6.0261">
        <ele>2355</ele>
        <time>2014-01-12T10:43:18.000Z</time>
      </trkpt>
      <trkpt lat="45.23713" lon="6.0261">
        <ele>2355</ele>
        <time>2014-01-12T10:43:26.000Z</time>
      </trkpt>
      <trkpt lat="45.23714" lon="6.02612">
        <ele>2355</ele>
        <time>2014-01-12T10:43:42.000Z</time>
      </trkpt>
      <trkpt lat="45.23715" lon="6.02613">
        <ele>2355</ele>
        <time>2014-01-12T10:43:43.000Z</time>
      </trkpt>
      <trkpt lat="45.23719" lon="6.02618">
        <ele>2355</ele>
        <time>2014-01-12T10:43:52.000Z</time>
      </trkpt>
      <trkpt lat="45.23726" lon="6.02627">
        <ele>2356</ele>
        <time>2014-01-12T10:43:58.000Z</time>
      </trkpt>
      <trkpt lat="45.23732" lon="6.02633">
        <ele>2357</ele>
        <time>2014-01-12T10:44:00.000Z</time>
      </trkpt>
      <trkpt lat="45.23727" lon="6.0264">
        <ele>2355</ele>
        <time>2014-01-12T10:44:03.000Z</time>
      </trkpt>
      <trkpt lat="45.23725" lon="6.02647">
        <ele>2354</ele>
        <time>2014-01-12T10:44:05.000Z</time>
      </trkpt>
      <trkpt lat="45.23724" lon="6.02656">
        <ele>2354</ele>
        <time>2014-01-12T10:44:07.000Z</time>
      </trkpt>
      <trkpt lat="45.23721" lon="6.02658">
        <ele>2353</ele>
        <time>2014-01-12T10:44:08.000Z</time>
      </trkpt>
      <trkpt lat="45.23722" lon="6.02667">
        <ele>2337</ele>
        <time>2014-01-12T10:44:10.000Z</time>
      </trkpt>
      <trkpt lat="45.23726" lon="6.02677">
        <ele>2337</ele>
        <time>2014-01-12T10:44:12.000Z</time>
      </trkpt>
      <trkpt lat="45.23721" lon="6.0268">
        <ele>2334</ele>
        <time>2014-01-12T10:44:14.000Z</time>
      </trkpt>
      <trkpt lat="45.23716" lon="6.02681">
        <ele>2331</ele>
        <time>2014-01-12T10:44:16.000Z</time>
      </trkpt>
      <trkpt lat="45.23717" lon="6.02692">
        <ele>2330</ele>
        <time>2014-01-12T10:44:18.000Z</time>
      </trkpt>
      <trkpt lat="45.23711" lon="6.02701">
        <ele>2325</ele>
        <time>2014-01-12T10:44:20.000Z</time>
      </trkpt>
      <trkpt lat="45.2371" lon="6.02707">
        <ele>2323</ele>
        <time>2014-01-12T10:44:21.000Z</time>
      </trkpt>
      <trkpt lat="45.23712" lon="6.02714">
        <ele>2322</ele>
        <time>2014-01-12T10:44:22.000Z</time>
      </trkpt>
      <trkpt lat="45.23717" lon="6.02729">
        <ele>2321</ele>
        <time>2014-01-12T10:44:25.000Z</time>
      </trkpt>
      <trkpt lat="45.2371" lon="6.02737">
        <ele>2317</ele>
        <time>2014-01-12T10:44:28.000Z</time>
      </trkpt>
      <trkpt lat="45.23708" lon="6.02744">
        <ele>2315</ele>
        <time>2014-01-12T10:44:30.000Z</time>
      </trkpt>
      <trkpt lat="45.23704" lon="6.02752">
        <ele>2293</ele>
        <time>2014-01-12T10:44:32.000Z</time>
      </trkpt>
      <trkpt lat="45.23701" lon="6.02759">
        <ele>2292</ele>
        <time>2014-01-12T10:44:34.000Z</time>
      </trkpt>
      <trkpt lat="45.237" lon="6.02756">
        <ele>2291</ele>
        <time>2014-01-12T10:44:37.000Z</time>
      </trkpt>
      <trkpt lat="45.237" lon="6.02756">
        <ele>2292</ele>
        <time>2014-01-12T10:44:45.000Z</time>
      </trkpt>
      <trkpt lat="45.237" lon="6.02757">
        <ele>2292</ele>
        <time>2014-01-12T10:45:02.000Z</time>
      </trkpt>
      <trkpt lat="45.237" lon="6.02757">
        <ele>2292</ele>
        <time>2014-01-12T10:45:09.000Z</time>
      </trkpt>
      <trkpt lat="45.2369" lon="6.02767">
        <ele>2288</ele>
        <time>2014-01-12T10:45:13.000Z</time>
      </trkpt>
      <trkpt lat="45.23682" lon="6.02771">
        <ele>2285</ele>
        <time>2014-01-12T10:45:15.000Z</time>
      </trkpt>
      <trkpt lat="45.23675" lon="6.02776">
        <ele>2284</ele>
        <time>2014-01-12T10:45:17.000Z</time>
      </trkpt>
      <trkpt lat="45.23672" lon="6.02779">
        <ele>2284</ele>
        <time>2014-01-12T10:45:18.000Z</time>
      </trkpt>
      <trkpt lat="45.23663" lon="6.02781">
        <ele>2254</ele>
        <time>2014-01-12T10:45:21.000Z</time>
      </trkpt>
      <trkpt lat="45.23659" lon="6.02781">
        <ele>2254</ele>
        <time>2014-01-12T10:45:23.000Z</time>
      </trkpt>
      <trkpt lat="45.23659" lon="6.02787">
        <ele>2252</ele>
        <time>2014-01-12T10:45:26.000Z</time>
      </trkpt>
      <trkpt lat="45.23659" lon="6.02788">
        <ele>2252</ele>
        <time>2014-01-12T10:45:27.000Z</time>
      </trkpt>
      <trkpt lat="45.23658" lon="6.02789">
        <ele>2251</ele>
        <time>2014-01-12T10:45:31.000Z</time>
      </trkpt>
      <trkpt lat="45.23659" lon="6.02789">
        <ele>2251</ele>
        <time>2014-01-12T10:45:34.000Z</time>
      </trkpt>
      <trkpt lat="45.23655" lon="6.0279">
        <ele>2251</ele>
        <time>2014-01-12T10:45:37.000Z</time>
      </trkpt>
      <trkpt lat="45.23642" lon="6.02789">
        <ele>2248</ele>
        <time>2014-01-12T10:45:42.000Z</time>
      </trkpt>
      <trkpt lat="45.2363" lon="6.02787">
        <ele>2245</ele>
        <time>2014-01-12T10:45:45.000Z</time>
      </trkpt>
      <trkpt lat="45.23627" lon="6.02793">
        <ele>2243</ele>
        <time>2014-01-12T10:45:47.000Z</time>
      </trkpt>
      <trkpt lat="45.23623" lon="6.02801">
        <ele>2241</ele>
        <time>2014-01-12T10:45:49.000Z</time>
      </trkpt>
      <trkpt lat="45.23623" lon="6.02808">
        <ele>2239</ele>
        <time>2014-01-12T10:45:50.000Z</time>
      </trkpt>
      <trkpt lat="45.23618" lon="6.02817">
        <ele>2236</ele>
        <time>2014-01-12T10:45:52.000Z</time>
      </trkpt>
      <trkpt lat="45.23616" lon="6.02822">
        <ele>2234</ele>
        <time>2014-01-12T10:45:53.000Z</time>
      </trkpt>
      <trkpt lat="45.23609" lon="6.02829">
        <ele>2229</ele>
        <time>2014-01-12T10:45:55.000Z</time>
      </trkpt>
      <trkpt lat="45.236" lon="6.02838">
        <ele>2214</ele>
        <time>2014-01-12T10:45:57.000Z</time>
      </trkpt>
      <trkpt lat="45.23598" lon="6.02846">
        <ele>2213</ele>
        <time>2014-01-12T10:45:58.000Z</time>
      </trkpt>
      <trkpt lat="45.23595" lon="6.02852">
        <ele>2214</ele>
        <time>2014-01-12T10:45:59.000Z</time>
      </trkpt>
      <trkpt lat="45.23585" lon="6.02865">
        <ele>2213</ele>
        <time>2014-01-12T10:46:02.000Z</time>
      </trkpt>
      <trkpt lat="45.23582" lon="6.02869">
        <ele>2190</ele>
        <time>2014-01-12T10:46:03.000Z</time>
      </trkpt>
      <trkpt lat="45.23581" lon="6.02877">
        <ele>2189</ele>
        <time>2014-01-12T10:46:05.000Z</time>
      </trkpt>
      <trkpt lat="45.23581" lon="6.02877">
        <ele>2189</ele>
        <time>2014-01-12T10:46:09.000Z</time>
      </trkpt>
      <trkpt lat="45.23581" lon="6.02876">
        <ele>2189</ele>
        <time>2014-01-12T10:46:11.000Z</time>
      </trkpt>
      <trkpt lat="45.23581" lon="6.02876">
        <ele>2189</ele>
        <time>2014-01-12T10:46:20.000Z</time>
      </trkpt>
      <trkpt lat="45.23581" lon="6.02876">
        <ele>2189</ele>
        <time>2014-01-12T10:46:29.000Z</time>
      </trkpt>
      <trkpt lat="45.23581" lon="6.02875">
        <ele>2189</ele>
        <time>2014-01-12T10:46:39.000Z</time>
      </trkpt>
      <trkpt lat="45.23582" lon="6.02874">
        <ele>2190</ele>
        <time>2014-01-12T10:46:50.000Z</time>
      </trkpt>
      <trkpt lat="45.23582" lon="6.02873">
        <ele>2190</ele>
        <time>2014-01-12T10:47:16.000Z</time>
      </trkpt>
      <trkpt lat="45.23582" lon="6.02873">
        <ele>2190</ele>
        <time>2014-01-12T10:47:21.000Z</time>
      </trkpt>
      <trkpt lat="45.23582" lon="6.02872">
        <ele>2190</ele>
        <time>2014-01-12T10:47:22.000Z</time>
      </trkpt>
      <trkpt lat="45.23582" lon="6.02872">
        <ele>2190</ele>
        <time>2014-01-12T10:47:24.000Z</time>
      </trkpt>
      <trkpt lat="45.23582" lon="6.02872">
        <ele>2190</ele>
        <time>2014-01-12T10:47:28.000Z</time>
      </trkpt>
      <trkpt lat="45.23582" lon="6.02872">
        <ele>2190</ele>
        <time>2014-01-12T10:47:29.000Z</time>
      </trkpt>
      <trkpt lat="45.23582" lon="6.02872">
        <ele>2190</ele>
        <time>2014-01-12T10:47:31.000Z</time>
      </trkpt>
      <trkpt lat="45.23582" lon="6.02872">
        <ele>2190</ele>
        <time>2014-01-12T10:47:56.000Z</time>
      </trkpt>
      <trkpt lat="45.23582" lon="6.02871">
        <ele>2190</ele>
        <time>2014-01-12T10:49:04.000Z</time>
      </trkpt>
      <trkpt lat="45.23583" lon="6.02871">
        <ele>2190</ele>
        <time>2014-01-12T10:52:03.000Z</time>
      </trkpt>
      <trkpt lat="45.23583" lon="6.02871">
        <ele>2190</ele>
        <time>2014-01-12T10:52:08.000Z</time>
      </trkpt>
      <trkpt lat="45.23582" lon="6.02872">
        <ele>2190</ele>
        <time>2014-01-12T10:52:11.000Z</time>
      </trkpt>
      <trkpt lat="45.23582" lon="6.02872">
        <ele>2190</ele>
        <time>2014-01-12T10:52:15.000Z</time>
      </trkpt>
      <trkpt lat="45.23583" lon="6.02872">
        <ele>2190</ele>
        <time>2014-01-12T10:53:06.000Z</time>
      </trkpt>
      <trkpt lat="45.23583" lon="6.02872">
        <ele>2190</ele>
        <time>2014-01-12T10:53:25.000Z</time>
      </trkpt>
      <trkpt lat="45.23584" lon="6.02873">
        <ele>2213</ele>
        <time>2014-01-12T10:53:32.000Z</time>
      </trkpt>
      <trkpt lat="45.23585" lon="6.02874">
        <ele>2213</ele>
        <time>2014-01-12T10:53:39.000Z</time>
      </trkpt>
      <trkpt lat="45.2359" lon="6.02879">
        <ele>2213</ele>
        <time>2014-01-12T10:53:45.000Z</time>
      </trkpt>
      <trkpt lat="45.23595" lon="6.02886">
        <ele>2212</ele>
        <time>2014-01-12T10:53:51.000Z</time>
      </trkpt>
      <trkpt lat="45.23597" lon="6.02894">
        <ele>2211</ele>
        <time>2014-01-12T10:53:58.000Z</time>
      </trkpt>
      <trkpt lat="45.23598" lon="6.02894">
        <ele>2211</ele>
        <time>2014-01-12T10:54:02.000Z</time>
      </trkpt>
      <trkpt lat="45.23599" lon="6.02903">
        <ele>2208</ele>
        <time>2014-01-12T10:54:10.000Z</time>
      </trkpt>
      <trkpt lat="45.23599" lon="6.02906">
        <ele>2207</ele>
        <time>2014-01-12T10:54:12.000Z</time>
      </trkpt>
      <trkpt lat="45.23601" lon="6.02915">
        <ele>2207</ele>
        <time>2014-01-12T10:54:19.000Z</time>
      </trkpt>
      <trkpt lat="45.23603" lon="6.02923">
        <ele>2201</ele>
        <time>2014-01-12T10:54:27.000Z</time>
      </trkpt>
      <trkpt lat="45.23607" lon="6.02931">
        <ele>2202</ele>
        <time>2014-01-12T10:54:35.000Z</time>
      </trkpt>
      <trkpt lat="45.23609" lon="6.02935">
        <ele>2203</ele>
        <time>2014-01-12T10:54:41.000Z</time>
      </trkpt>
      <trkpt lat="45.23611" lon="6.02938">
        <ele>2204</ele>
        <time>2014-01-12T10:54:52.000Z</time>
      </trkpt>
      <trkpt lat="45.23612" lon="6.02939">
        <ele>2204</ele>
        <time>2014-01-12T10:54:53.000Z</time>
      </trkpt>
      <trkpt lat="45.23616" lon="6.02944">
        <ele>2205</ele>
        <time>2014-01-12T10:55:00.000Z</time>
      </trkpt>
      <trkpt lat="45.2362" lon="6.0295">
        <ele>2205</ele>
        <time>2014-01-12T10:55:07.000Z</time>
      </trkpt>
      <trkpt lat="45.23623" lon="6.02954">
        <ele>2206</ele>
        <time>2014-01-12T10:55:13.000Z</time>
      </trkpt>
      <trkpt lat="45.23627" lon="6.02959">
        <ele>2206</ele>
        <time>2014-01-12T10:55:20.000Z</time>
      </trkpt>
      <trkpt lat="45.23631" lon="6.02966">
        <ele>2206</ele>
        <time>2014-01-12T10:55:27.000Z</time>
      </trkpt>
      <trkpt lat="45.23635" lon="6.0297">
        <ele>2207</ele>
        <time>2014-01-12T10:55:34.000Z</time>
      </trkpt>
      <trkpt lat="45.2364" lon="6.02975">
        <ele>2208</ele>
        <time>2014-01-12T10:55:42.000Z</time>
      </trkpt>
      <trkpt lat="45.23646" lon="6.02977">
        <ele>2209</ele>
        <time>2014-01-12T10:55:49.000Z</time>
      </trkpt>
      <trkpt lat="45.23651" lon="6.02977">
        <ele>2209</ele>
        <time>2014-01-12T10:55:56.000Z</time>
      </trkpt>
      <trkpt lat="45.23654" lon="6.02976">
        <ele>2210</ele>
        <time>2014-01-12T10:56:02.000Z</time>
      </trkpt>
      <trkpt lat="45.23656" lon="6.02975">
        <ele>2210</ele>
        <time>2014-01-12T10:56:09.000Z</time>
      </trkpt>
      <trkpt lat="45.23661" lon="6.02978">
        <ele>2211</ele>
        <time>2014-01-12T10:56:16.000Z</time>
      </trkpt>
      <trkpt lat="45.23663" lon="6.0298">
        <ele>2211</ele>
        <time>2014-01-12T10:56:21.000Z</time>
      </trkpt>
      <trkpt lat="45.23667" lon="6.02982">
        <ele>2230</ele>
        <time>2014-01-12T10:56:29.000Z</time>
      </trkpt>
      <trkpt lat="45.23671" lon="6.02984">
        <ele>2229</ele>
        <time>2014-01-12T10:56:34.000Z</time>
      </trkpt>
      <trkpt lat="45.23673" lon="6.02983">
        <ele>2231</ele>
        <time>2014-01-12T10:56:40.000Z</time>
      </trkpt>
      <trkpt lat="45.23676" lon="6.02985">
        <ele>2230</ele>
        <time>2014-01-12T10:56:47.000Z</time>
      </trkpt>
      <trkpt lat="45.2368" lon="6.02985">
        <ele>2232</ele>
        <time>2014-01-12T10:56:52.000Z</time>
      </trkpt>
      <trkpt lat="45.23683" lon="6.02989">
        <ele>2232</ele>
        <time>2014-01-12T10:56:58.000Z</time>
      </trkpt>
      <trkpt lat="45.23686" lon="6.02992">
        <ele>2233</ele>
        <time>2014-01-12T10:57:04.000Z</time>
      </trkpt>
      <trkpt lat="45.23689" lon="6.02993">
        <ele>2234</ele>
        <time>2014-01-12T10:57:10.000Z</time>
      </trkpt>
      <trkpt lat="45.23695" lon="6.02995">
        <ele>2237</ele>
        <time>2014-01-12T10:57:18.000Z</time>
      </trkpt>
      <trkpt lat="45.23699" lon="6.02998">
        <ele>2239</ele>
        <time>2014-01-12T10:57:24.000Z</time>
      </trkpt>
      <trkpt lat="45.23703" lon="6.03001">
        <ele>2232</ele>
        <time>2014-01-12T10:57:30.000Z</time>
      </trkpt>
      <trkpt lat="45.23707" lon="6.03004">
        <ele>2234</ele>
        <time>2014-01-12T10:57:37.000Z</time>
      </trkpt>
      <trkpt lat="45.23712" lon="6.03009">
        <ele>2236</ele>
        <time>2014-01-12T10:57:44.000Z</time>
      </trkpt>
      <trkpt lat="45.23716" lon="6.03011">
        <ele>2237</ele>
        <time>2014-01-12T10:57:51.000Z</time>
      </trkpt>
      <trkpt lat="45.23716" lon="6.03013">
        <ele>2237</ele>
        <time>2014-01-12T10:57:53.000Z</time>
      </trkpt>
      <trkpt lat="45.23721" lon="6.03018">
        <ele>2238</ele>
        <time>2014-01-12T10:58:00.000Z</time>
      </trkpt>
      <trkpt lat="45.23725" lon="6.03024">
        <ele>2239</ele>
        <time>2014-01-12T10:58:07.000Z</time>
      </trkpt>
      <trkpt lat="45.23728" lon="6.03027">
        <ele>2239</ele>
        <time>2014-01-12T10:58:14.000Z</time>
      </trkpt>
      <trkpt lat="45.23732" lon="6.03032">
        <ele>2240</ele>
        <time>2014-01-12T10:58:21.000Z</time>
      </trkpt>
      <trkpt lat="45.23735" lon="6.0304">
        <ele>2239</ele>
        <time>2014-01-12T10:58:28.000Z</time>
      </trkpt>
      <trkpt lat="45.23737" lon="6.03046">
        <ele>2239</ele>
        <time>2014-01-12T10:58:35.000Z</time>
      </trkpt>
      <trkpt lat="45.23739" lon="6.03053">
        <ele>2239</ele>
        <time>2014-01-12T10:58:41.000Z</time>
      </trkpt>
      <trkpt lat="45.23741" lon="6.0306">
        <ele>2240</ele>
        <time>2014-01-12T10:58:48.000Z</time>
      </trkpt>
      <trkpt lat="45.23741" lon="6.03061">
        <ele>2240</ele>
        <time>2014-01-12T10:58:49.000Z</time>
      </trkpt>
      <trkpt lat="45.23743" lon="6.03069">
        <ele>2242</ele>
        <time>2014-01-12T10:58:56.000Z</time>
      </trkpt>
      <trkpt lat="45.23742" lon="6.03071">
        <ele>2242</ele>
        <time>2014-01-12T10:58:59.000Z</time>
      </trkpt>
      <trkpt lat="45.23742" lon="6.03078">
        <ele>2244</ele>
        <time>2014-01-12T10:59:06.000Z</time>
      </trkpt>
      <trkpt lat="45.23741" lon="6.03086">
        <ele>2243</ele>
        <time>2014-01-12T10:59:13.000Z</time>
      </trkpt>
      <trkpt lat="45.23739" lon="6.03092">
        <ele>2241</ele>
        <time>2014-01-12T10:59:21.000Z</time>
      </trkpt>
      <trkpt lat="45.23739" lon="6.03096">
        <ele>2241</ele>
        <time>2014-01-12T10:59:27.000Z</time>
      </trkpt>
      <trkpt lat="45.23738" lon="6.03099">
        <ele>2240</ele>
        <time>2014-01-12T10:59:34.000Z</time>
      </trkpt>
      <trkpt lat="45.23737" lon="6.03102">
        <ele>2239</ele>
        <time>2014-01-12T10:59:41.000Z</time>
      </trkpt>
      <trkpt lat="45.23738" lon="6.03108">
        <ele>2238</ele>
        <time>2014-01-12T10:59:45.000Z</time>
      </trkpt>
      <trkpt lat="45.2374" lon="6.03113">
        <ele>2238</ele>
        <time>2014-01-12T10:59:50.000Z</time>
      </trkpt>
      <trkpt lat="45.23744" lon="6.03121">
        <ele>2239</ele>
        <time>2014-01-12T10:59:57.000Z</time>
      </trkpt>
      <trkpt lat="45.23744" lon="6.03124">
        <ele>2239</ele>
        <time>2014-01-12T11:00:04.000Z</time>
      </trkpt>
      <trkpt lat="45.23745" lon="6.03128">
        <ele>2239</ele>
        <time>2014-01-12T11:00:10.000Z</time>
      </trkpt>
      <trkpt lat="45.23745" lon="6.03136">
        <ele>2240</ele>
        <time>2014-01-12T11:00:18.000Z</time>
      </trkpt>
      <trkpt lat="45.23746" lon="6.03142">
        <ele>2241</ele>
        <time>2014-01-12T11:00:24.000Z</time>
      </trkpt>
      <trkpt lat="45.23748" lon="6.03147">
        <ele>2243</ele>
        <time>2014-01-12T11:00:31.000Z</time>
      </trkpt>
      <trkpt lat="45.2375" lon="6.03154">
        <ele>2246</ele>
        <time>2014-01-12T11:00:38.000Z</time>
      </trkpt>
      <trkpt lat="45.23752" lon="6.0316">
        <ele>2260</ele>
        <time>2014-01-12T11:00:46.000Z</time>
      </trkpt>
      <trkpt lat="45.23753" lon="6.03165">
        <ele>2258</ele>
        <time>2014-01-12T11:00:53.000Z</time>
      </trkpt>
      <trkpt lat="45.23753" lon="6.0317">
        <ele>2259</ele>
        <time>2014-01-12T11:01:00.000Z</time>
      </trkpt>
      <trkpt lat="45.23753" lon="6.03175">
        <ele>2262</ele>
        <time>2014-01-12T11:01:07.000Z</time>
      </trkpt>
      <trkpt lat="45.23754" lon="6.03182">
        <ele>2265</ele>
        <time>2014-01-12T11:01:14.000Z</time>
      </trkpt>
      <trkpt lat="45.23757" lon="6.03188">
        <ele>2268</ele>
        <time>2014-01-12T11:01:21.000Z</time>
      </trkpt>
      <trkpt lat="45.23759" lon="6.03194">
        <ele>2269</ele>
        <time>2014-01-12T11:01:28.000Z</time>
      </trkpt>
      <trkpt lat="45.23762" lon="6.03197">
        <ele>2270</ele>
        <time>2014-01-12T11:01:34.000Z</time>
      </trkpt>
      <trkpt lat="45.23763" lon="6.03198">
        <ele>2271</ele>
        <time>2014-01-12T11:01:41.000Z</time>
      </trkpt>
      <trkpt lat="45.23766" lon="6.03195">
        <ele>2271</ele>
        <time>2014-01-12T11:01:48.000Z</time>
      </trkpt>
      <trkpt lat="45.23769" lon="6.03191">
        <ele>2271</ele>
        <time>2014-01-12T11:01:54.000Z</time>
      </trkpt>
      <trkpt lat="45.23771" lon="6.03186">
        <ele>2271</ele>
        <time>2014-01-12T11:02:00.000Z</time>
      </trkpt>
      <trkpt lat="45.23771" lon="6.03185">
        <ele>2271</ele>
        <time>2014-01-12T11:02:01.000Z</time>
      </trkpt>
      <trkpt lat="45.23776" lon="6.03184">
        <ele>2272</ele>
        <time>2014-01-12T11:02:09.000Z</time>
      </trkpt>
      <trkpt lat="45.2378" lon="6.0319">
        <ele>2274</ele>
        <time>2014-01-12T11:02:15.000Z</time>
      </trkpt>
      <trkpt lat="45.23784" lon="6.03192">
        <ele>2275</ele>
        <time>2014-01-12T11:02:21.000Z</time>
      </trkpt>
      <trkpt lat="45.23789" lon="6.03196">
        <ele>2277</ele>
        <time>2014-01-12T11:02:27.000Z</time>
      </trkpt>
      <trkpt lat="45.2379" lon="6.03197">
        <ele>2277</ele>
        <time>2014-01-12T11:02:29.000Z</time>
      </trkpt>
      <trkpt lat="45.23792" lon="6.032">
        <ele>2278</ele>
        <time>2014-01-12T11:02:36.000Z</time>
      </trkpt>
      <trkpt lat="45.23795" lon="6.03204">
        <ele>2278</ele>
        <time>2014-01-12T11:02:42.000Z</time>
      </trkpt>
      <trkpt lat="45.23799" lon="6.03207">
        <ele>2279</ele>
        <time>2014-01-12T11:02:49.000Z</time>
      </trkpt>
      <trkpt lat="45.23803" lon="6.0321">
        <ele>2280</ele>
        <time>2014-01-12T11:02:56.000Z</time>
      </trkpt>
      <trkpt lat="45.23809" lon="6.03213">
        <ele>2281</ele>
        <time>2014-01-12T11:03:02.000Z</time>
      </trkpt>
      <trkpt lat="45.23812" lon="6.03215">
        <ele>2282</ele>
        <time>2014-01-12T11:03:10.000Z</time>
      </trkpt>
      <trkpt lat="45.23815" lon="6.03219">
        <ele>2283</ele>
        <time>2014-01-12T11:03:17.000Z</time>
      </trkpt>
      <trkpt lat="45.23815" lon="6.03219">
        <ele>2283</ele>
        <time>2014-01-12T11:03:26.000Z</time>
      </trkpt>
      <trkpt lat="45.23819" lon="6.03221">
        <ele>2283</ele>
        <time>2014-01-12T11:03:48.000Z</time>
      </trkpt>
      <trkpt lat="45.23823" lon="6.03225">
        <ele>2285</ele>
        <time>2014-01-12T11:03:55.000Z</time>
      </trkpt>
      <trkpt lat="45.23829" lon="6.03228">
        <ele>2286</ele>
        <time>2014-01-12T11:04:03.000Z</time>
      </trkpt>
      <trkpt lat="45.23833" lon="6.03231">
        <ele>2308</ele>
        <time>2014-01-12T11:04:11.000Z</time>
      </trkpt>
      <trkpt lat="45.23837" lon="6.03235">
        <ele>2306</ele>
        <time>2014-01-12T11:04:19.000Z</time>
      </trkpt>
      <trkpt lat="45.23842" lon="6.03238">
        <ele>2307</ele>
        <time>2014-01-12T11:04:26.000Z</time>
      </trkpt>
      <trkpt lat="45.23846" lon="6.03241">
        <ele>2307</ele>
        <time>2014-01-12T11:04:34.000Z</time>
      </trkpt>
      <trkpt lat="45.23849" lon="6.03242">
        <ele>2308</ele>
        <time>2014-01-12T11:04:41.000Z</time>
      </trkpt>
      <trkpt lat="45.23851" lon="6.03246">
        <ele>2309</ele>
        <time>2014-01-12T11:04:48.000Z</time>
      </trkpt>
      <trkpt lat="45.23855" lon="6.03251">
        <ele>2308</ele>
        <time>2014-01-12T11:04:56.000Z</time>
      </trkpt>
      <trkpt lat="45.23857" lon="6.03254">
        <ele>2309</ele>
        <time>2014-01-12T11:05:02.000Z</time>
      </trkpt>
      <trkpt lat="45.23861" lon="6.03255">
        <ele>2311</ele>
        <time>2014-01-12T11:05:09.000Z</time>
      </trkpt>
      <trkpt lat="45.23864" lon="6.03258">
        <ele>2312</ele>
        <time>2014-01-12T11:05:14.000Z</time>
      </trkpt>
      <trkpt lat="45.23866" lon="6.03259">
        <ele>2313</ele>
        <time>2014-01-12T11:05:17.000Z</time>
      </trkpt>
      <trkpt lat="45.23869" lon="6.03262">
        <ele>2314</ele>
        <time>2014-01-12T11:05:24.000Z</time>
      </trkpt>
      <trkpt lat="45.23869" lon="6.03261">
        <ele>2314</ele>
        <time>2014-01-12T11:05:31.000Z</time>
      </trkpt>
      <trkpt lat="45.23869" lon="6.03259">
        <ele>2314</ele>
        <time>2014-01-12T11:05:35.000Z</time>
      </trkpt>
      <trkpt lat="45.23869" lon="6.03251">
        <ele>2314</ele>
        <time>2014-01-12T11:05:42.000Z</time>
      </trkpt>
      <trkpt lat="45.23867" lon="6.03245">
        <ele>2317</ele>
        <time>2014-01-12T11:05:48.000Z</time>
      </trkpt>
      <trkpt lat="45.23867" lon="6.03241">
        <ele>2317</ele>
        <time>2014-01-12T11:05:53.000Z</time>
      </trkpt>
      <trkpt lat="45.23867" lon="6.03233">
        <ele>2318</ele>
        <time>2014-01-12T11:06:00.000Z</time>
      </trkpt>
      <trkpt lat="45.23866" lon="6.03231">
        <ele>2317</ele>
        <time>2014-01-12T11:06:06.000Z</time>
      </trkpt>
      <trkpt lat="45.23869" lon="6.03234">
        <ele>2319</ele>
        <time>2014-01-12T11:06:12.000Z</time>
      </trkpt>
      <trkpt lat="45.23873" lon="6.03236">
        <ele>2320</ele>
        <time>2014-01-12T11:06:18.000Z</time>
      </trkpt>
      <trkpt lat="45.23875" lon="6.03238">
        <ele>2320</ele>
        <time>2014-01-12T11:06:24.000Z</time>
      </trkpt>
      <trkpt lat="45.23878" lon="6.03243">
        <ele>2322</ele>
        <time>2014-01-12T11:06:31.000Z</time>
      </trkpt>
      <trkpt lat="45.23881" lon="6.03244">
        <ele>2323</ele>
        <time>2014-01-12T11:06:38.000Z</time>
      </trkpt>
      <trkpt lat="45.23881" lon="6.03246">
        <ele>2323</ele>
        <time>2014-01-12T11:06:39.000Z</time>
      </trkpt>
      <trkpt lat="45.23883" lon="6.03251">
        <ele>2320</ele>
        <time>2014-01-12T11:06:45.000Z</time>
      </trkpt>
      <trkpt lat="45.23885" lon="6.03252">
        <ele>2321</ele>
        <time>2014-01-12T11:06:50.000Z</time>
      </trkpt>
      <trkpt lat="45.23888" lon="6.03254">
        <ele>2322</ele>
        <time>2014-01-12T11:06:54.000Z</time>
      </trkpt>
      <trkpt lat="45.23888" lon="6.03254">
        <ele>2322</ele>
        <time>2014-01-12T11:06:59.000Z</time>
      </trkpt>
      <trkpt lat="45.2389" lon="6.03262">
        <ele>2322</ele>
        <time>2014-01-12T11:07:07.000Z</time>
      </trkpt>
      <trkpt lat="45.23891" lon="6.03263">
        <ele>2323</ele>
        <time>2014-01-12T11:07:12.000Z</time>
      </trkpt>
      <trkpt lat="45.2389" lon="6.03257">
        <ele>2323</ele>
        <time>2014-01-12T11:07:17.000Z</time>
      </trkpt>
      <trkpt lat="45.2389" lon="6.03249">
        <ele>2326</ele>
        <time>2014-01-12T11:07:24.000Z</time>
      </trkpt>
      <trkpt lat="45.23889" lon="6.03248">
        <ele>2326</ele>
        <time>2014-01-12T11:07:25.000Z</time>
      </trkpt>
      <trkpt lat="45.23887" lon="6.03237">
        <ele>2325</ele>
        <time>2014-01-12T11:07:32.000Z</time>
      </trkpt>
      <trkpt lat="45.23886" lon="6.03231">
        <ele>2325</ele>
        <time>2014-01-12T11:07:38.000Z</time>
      </trkpt>
      <trkpt lat="45.23884" lon="6.03224">
        <ele>2324</ele>
        <time>2014-01-12T11:07:44.000Z</time>
      </trkpt>
      <trkpt lat="45.2388" lon="6.03218">
        <ele>2323</ele>
        <time>2014-01-12T11:07:49.000Z</time>
      </trkpt>
      <trkpt lat="45.23879" lon="6.03213">
        <ele>2323</ele>
        <time>2014-01-12T11:07:56.000Z</time>
      </trkpt>
      <trkpt lat="45.23878" lon="6.03208">
        <ele>2323</ele>
        <time>2014-01-12T11:08:02.000Z</time>
      </trkpt>
      <trkpt lat="45.23877" lon="6.032">
        <ele>2323</ele>
        <time>2014-01-12T11:08:10.000Z</time>
      </trkpt>
      <trkpt lat="45.23875" lon="6.03197">
        <ele>2323</ele>
        <time>2014-01-12T11:08:14.000Z</time>
      </trkpt>
      <trkpt lat="45.23874" lon="6.03197">
        <ele>2322</ele>
        <time>2014-01-12T11:08:16.000Z</time>
      </trkpt>
      <trkpt lat="45.23872" lon="6.03199">
        <ele>2322</ele>
        <time>2014-01-12T11:08:19.000Z</time>
      </trkpt>
      <trkpt lat="45.23872" lon="6.03201">
        <ele>2322</ele>
        <time>2014-01-12T11:08:21.000Z</time>
      </trkpt>
      <trkpt lat="45.23873" lon="6.03202">
        <ele>2322</ele>
        <time>2014-01-12T11:08:30.000Z</time>
      </trkpt>
      <trkpt lat="45.23875" lon="6.03202">
        <ele>2322</ele>
        <time>2014-01-12T11:08:36.000Z</time>
      </trkpt>
      <trkpt lat="45.23877" lon="6.03203">
        <ele>2323</ele>
        <time>2014-01-12T11:08:43.000Z</time>
      </trkpt>
      <trkpt lat="45.23877" lon="6.03204">
        <ele>2323</ele>
        <time>2014-01-12T11:08:44.000Z</time>
      </trkpt>
      <trkpt lat="45.23878" lon="6.03206">
        <ele>2323</ele>
        <time>2014-01-12T11:08:52.000Z</time>
      </trkpt>
      <trkpt lat="45.23877" lon="6.03204">
        <ele>2323</ele>
        <time>2014-01-12T11:09:01.000Z</time>
      </trkpt>
      <trkpt lat="45.23875" lon="6.03199">
        <ele>2322</ele>
        <time>2014-01-12T11:09:09.000Z</time>
      </trkpt>
      <trkpt lat="45.23873" lon="6.03194">
        <ele>2322</ele>
        <time>2014-01-12T11:09:15.000Z</time>
      </trkpt>
      <trkpt lat="45.23874" lon="6.03191">
        <ele>2323</ele>
        <time>2014-01-12T11:09:18.000Z</time>
      </trkpt>
      <trkpt lat="45.23876" lon="6.03185">
        <ele>2324</ele>
        <time>2014-01-12T11:09:24.000Z</time>
      </trkpt>
      <trkpt lat="45.23881" lon="6.03182">
        <ele>2326</ele>
        <time>2014-01-12T11:09:32.000Z</time>
      </trkpt>
      <trkpt lat="45.23885" lon="6.0318">
        <ele>2328</ele>
        <time>2014-01-12T11:09:39.000Z</time>
      </trkpt>
      <trkpt lat="45.2389" lon="6.0318">
        <ele>2330</ele>
        <time>2014-01-12T11:09:45.000Z</time>
      </trkpt>
      <trkpt lat="45.23894" lon="6.0318">
        <ele>2332</ele>
        <time>2014-01-12T11:09:53.000Z</time>
      </trkpt>
      <trkpt lat="45.23895" lon="6.0318">
        <ele>2332</ele>
        <time>2014-01-12T11:09:55.000Z</time>
      </trkpt>
      <trkpt lat="45.23899" lon="6.03183">
        <ele>2333</ele>
        <time>2014-01-12T11:10:01.000Z</time>
      </trkpt>
      <trkpt lat="45.239" lon="6.03184">
        <ele>2334</ele>
        <time>2014-01-12T11:10:07.000Z</time>
      </trkpt>
      <trkpt lat="45.23903" lon="6.03183">
        <ele>2335</ele>
        <time>2014-01-12T11:10:15.000Z</time>
      </trkpt>
      <trkpt lat="45.23909" lon="6.03184">
        <ele>2336</ele>
        <time>2014-01-12T11:10:25.000Z</time>
      </trkpt>
      <trkpt lat="45.23912" lon="6.03188">
        <ele>2336</ele>
        <time>2014-01-12T11:10:31.000Z</time>
      </trkpt>
      <trkpt lat="45.23917" lon="6.03192">
        <ele>2362</ele>
        <time>2014-01-12T11:10:38.000Z</time>
      </trkpt>
      <trkpt lat="45.23919" lon="6.03195">
        <ele>2362</ele>
        <time>2014-01-12T11:10:44.000Z</time>
      </trkpt>
      <trkpt lat="45.23921" lon="6.03196">
        <ele>2363</ele>
        <time>2014-01-12T11:10:49.000Z</time>
      </trkpt>
      <trkpt lat="45.23924" lon="6.03199">
        <ele>2363</ele>
        <time>2014-01-12T11:10:57.000Z</time>
      </trkpt>
      <trkpt lat="45.23927" lon="6.03206">
        <ele>2364</ele>
        <time>2014-01-12T11:11:05.000Z</time>
      </trkpt>
      <trkpt lat="45.23929" lon="6.03209">
        <ele>2364</ele>
        <time>2014-01-12T11:11:12.000Z</time>
      </trkpt>
      <trkpt lat="45.23932" lon="6.03215">
        <ele>2364</ele>
        <time>2014-01-12T11:11:17.000Z</time>
      </trkpt>
      <trkpt lat="45.23934" lon="6.0322">
        <ele>2363</ele>
        <time>2014-01-12T11:11:23.000Z</time>
      </trkpt>
      <trkpt lat="45.23935" lon="6.03225">
        <ele>2363</ele>
        <time>2014-01-12T11:11:31.000Z</time>
      </trkpt>
      <trkpt lat="45.23937" lon="6.03226">
        <ele>2363</ele>
        <time>2014-01-12T11:11:36.000Z</time>
      </trkpt>
      <trkpt lat="45.23936" lon="6.03223">
        <ele>2363</ele>
        <time>2014-01-12T11:11:41.000Z</time>
      </trkpt>
      <trkpt lat="45.23936" lon="6.03219">
        <ele>2364</ele>
        <time>2014-01-12T11:11:46.000Z</time>
      </trkpt>
      <trkpt lat="45.23938" lon="6.03213">
        <ele>2365</ele>
        <time>2014-01-12T11:11:54.000Z</time>
      </trkpt>
      <trkpt lat="45.23938" lon="6.03211">
        <ele>2366</ele>
        <time>2014-01-12T11:11:56.000Z</time>
      </trkpt>
      <trkpt lat="45.2394" lon="6.03204">
        <ele>2367</ele>
        <time>2014-01-12T11:12:03.000Z</time>
      </trkpt>
      <trkpt lat="45.2394" lon="6.032">
        <ele>2367</ele>
        <time>2014-01-12T11:12:08.000Z</time>
      </trkpt>
      <trkpt lat="45.2394" lon="6.032">
        <ele>2367</ele>
        <time>2014-01-12T11:12:11.000Z</time>
      </trkpt>
      <trkpt lat="45.2394" lon="6.03197">
        <ele>2367</ele>
        <time>2014-01-12T11:12:16.000Z</time>
      </trkpt>
      <trkpt lat="45.2394" lon="6.03199">
        <ele>2367</ele>
        <time>2014-01-12T11:12:20.000Z</time>
      </trkpt>
      <trkpt lat="45.23944" lon="6.03206">
        <ele>2368</ele>
        <time>2014-01-12T11:12:27.000Z</time>
      </trkpt>
      <trkpt lat="45.23946" lon="6.03213">
        <ele>2368</ele>
        <time>2014-01-12T11:12:34.000Z</time>
      </trkpt>
      <trkpt lat="45.23948" lon="6.03217">
        <ele>2368</ele>
        <time>2014-01-12T11:12:40.000Z</time>
      </trkpt>
      <trkpt lat="45.23949" lon="6.03222">
        <ele>2368</ele>
        <time>2014-01-12T11:12:45.000Z</time>
      </trkpt>
      <trkpt lat="45.2395" lon="6.03224">
        <ele>2368</ele>
        <time>2014-01-12T11:12:48.000Z</time>
      </trkpt>
      <trkpt lat="45.23951" lon="6.03229">
        <ele>2368</ele>
        <time>2014-01-12T11:12:53.000Z</time>
      </trkpt>
      <trkpt lat="45.23952" lon="6.03232">
        <ele>2368</ele>
        <time>2014-01-12T11:12:58.000Z</time>
      </trkpt>
      <trkpt lat="45.23954" lon="6.03236">
        <ele>2369</ele>
        <time>2014-01-12T11:13:03.000Z</time>
      </trkpt>
      <trkpt lat="45.23956" lon="6.03238">
        <ele>2370</ele>
        <time>2014-01-12T11:13:09.000Z</time>
      </trkpt>
      <trkpt lat="45.23958" lon="6.0324">
        <ele>2370</ele>
        <time>2014-01-12T11:13:17.000Z</time>
      </trkpt>
      <trkpt lat="45.23959" lon="6.03241">
        <ele>2371</ele>
        <time>2014-01-12T11:13:20.000Z</time>
      </trkpt>
      <trkpt lat="45.2396" lon="6.03243">
        <ele>2371</ele>
        <time>2014-01-12T11:13:25.000Z</time>
      </trkpt>
      <trkpt lat="45.2396" lon="6.03244">
        <ele>2371</ele>
        <time>2014-01-12T11:13:32.000Z</time>
      </trkpt>
      <trkpt lat="45.2396" lon="6.03243">
        <ele>2371</ele>
        <time>2014-01-12T11:13:36.000Z</time>
      </trkpt>
      <trkpt lat="45.2396" lon="6.03238">
        <ele>2371</ele>
        <time>2014-01-12T11:13:42.000Z</time>
      </trkpt>
      <trkpt lat="45.2396" lon="6.03234">
        <ele>2372</ele>
        <time>2014-01-12T11:13:47.000Z</time>
      </trkpt>
      <trkpt lat="45.23961" lon="6.03231">
        <ele>2372</ele>
        <time>2014-01-12T11:13:52.000Z</time>
      </trkpt>
      <trkpt lat="45.23962" lon="6.03223">
        <ele>2373</ele>
        <time>2014-01-12T11:13:59.000Z</time>
      </trkpt>
      <trkpt lat="45.23963" lon="6.0322">
        <ele>2373</ele>
        <time>2014-01-12T11:14:02.000Z</time>
      </trkpt>
      <trkpt lat="45.23964" lon="6.03214">
        <ele>2373</ele>
        <time>2014-01-12T11:14:09.000Z</time>
      </trkpt>
      <trkpt lat="45.23964" lon="6.03213">
        <ele>2373</ele>
        <time>2014-01-12T11:14:10.000Z</time>
      </trkpt>
      <trkpt lat="45.23967" lon="6.03211">
        <ele>2374</ele>
        <time>2014-01-12T11:14:16.000Z</time>
      </trkpt>
      <trkpt lat="45.23967" lon="6.03213">
        <ele>2374</ele>
        <time>2014-01-12T11:14:21.000Z</time>
      </trkpt>
      <trkpt lat="45.23969" lon="6.03217">
        <ele>2375</ele>
        <time>2014-01-12T11:14:25.000Z</time>
      </trkpt>
      <trkpt lat="45.23971" lon="6.03221">
        <ele>2375</ele>
        <time>2014-01-12T11:14:31.000Z</time>
      </trkpt>
      <trkpt lat="45.23973" lon="6.03227">
        <ele>2376</ele>
        <time>2014-01-12T11:14:37.000Z</time>
      </trkpt>
      <trkpt lat="45.23973" lon="6.0323">
        <ele>2377</ele>
        <time>2014-01-12T11:14:42.000Z</time>
      </trkpt>
      <trkpt lat="45.23977" lon="6.03236">
        <ele>2379</ele>
        <time>2014-01-12T11:14:50.000Z</time>
      </trkpt>
      <trkpt lat="45.23978" lon="6.03238">
        <ele>2379</ele>
        <time>2014-01-12T11:14:55.000Z</time>
      </trkpt>
      <trkpt lat="45.23979" lon="6.03241">
        <ele>2380</ele>
        <time>2014-01-12T11:15:01.000Z</time>
      </trkpt>
      <trkpt lat="45.23979" lon="6.03241">
        <ele>2380</ele>
        <time>2014-01-12T11:15:03.000Z</time>
      </trkpt>
      <trkpt lat="45.2398" lon="6.03239">
        <ele>2381</ele>
        <time>2014-01-12T11:15:09.000Z</time>
      </trkpt>
      <trkpt lat="45.23983" lon="6.03235">
        <ele>2381</ele>
        <time>2014-01-12T11:15:15.000Z</time>
      </trkpt>
      <trkpt lat="45.23984" lon="6.03231">
        <ele>2381</ele>
        <time>2014-01-12T11:15:21.000Z</time>
      </trkpt>
      <trkpt lat="45.23986" lon="6.03226">
        <ele>2380</ele>
        <time>2014-01-12T11:15:26.000Z</time>
      </trkpt>
      <trkpt lat="45.23986" lon="6.03225">
        <ele>2380</ele>
        <time>2014-01-12T11:15:33.000Z</time>
      </trkpt>
      <trkpt lat="45.2399" lon="6.03218">
        <ele>2380</ele>
        <time>2014-01-12T11:15:41.000Z</time>
      </trkpt>
      <trkpt lat="45.2399" lon="6.03218">
        <ele>2380</ele>
        <time>2014-01-12T11:15:45.000Z</time>
      </trkpt>
      <trkpt lat="45.2399" lon="6.03214">
        <ele>2380</ele>
        <time>2014-01-12T11:15:51.000Z</time>
      </trkpt>
      <trkpt lat="45.23991" lon="6.03211">
        <ele>2380</ele>
        <time>2014-01-12T11:15:57.000Z</time>
      </trkpt>
      <trkpt lat="45.23992" lon="6.03208">
        <ele>2381</ele>
        <time>2014-01-12T11:16:02.000Z</time>
      </trkpt>
      <trkpt lat="45.23995" lon="6.03207">
        <ele>2381</ele>
        <time>2014-01-12T11:16:07.000Z</time>
      </trkpt>
      <trkpt lat="45.23998" lon="6.03209">
        <ele>2381</ele>
        <time>2014-01-12T11:16:14.000Z</time>
      </trkpt>
      <trkpt lat="45.24001" lon="6.03214">
        <ele>2406</ele>
        <time>2014-01-12T11:16:21.000Z</time>
      </trkpt>
      <trkpt lat="45.24003" lon="6.03216">
        <ele>2406</ele>
        <time>2014-01-12T11:16:25.000Z</time>
      </trkpt>
      <trkpt lat="45.24005" lon="6.0322">
        <ele>2405</ele>
        <time>2014-01-12T11:16:31.000Z</time>
      </trkpt>
      <trkpt lat="45.24005" lon="6.03221">
        <ele>2405</ele>
        <time>2014-01-12T11:16:32.000Z</time>
      </trkpt>
      <trkpt lat="45.24005" lon="6.0322">
        <ele>2405</ele>
        <time>2014-01-12T11:16:37.000Z</time>
      </trkpt>
      <trkpt lat="45.24006" lon="6.03215">
        <ele>2406</ele>
        <time>2014-01-12T11:16:43.000Z</time>
      </trkpt>
      <trkpt lat="45.24007" lon="6.03209">
        <ele>2406</ele>
        <time>2014-01-12T11:16:49.000Z</time>
      </trkpt>
      <trkpt lat="45.24009" lon="6.03203">
        <ele>2406</ele>
        <time>2014-01-12T11:16:55.000Z</time>
      </trkpt>
      <trkpt lat="45.24009" lon="6.03199">
        <ele>2406</ele>
        <time>2014-01-12T11:17:00.000Z</time>
      </trkpt>
      <trkpt lat="45.24009" lon="6.03197">
        <ele>2406</ele>
        <time>2014-01-12T11:17:05.000Z</time>
      </trkpt>
      <trkpt lat="45.24009" lon="6.03194">
        <ele>2406</ele>
        <time>2014-01-12T11:17:10.000Z</time>
      </trkpt>
      <trkpt lat="45.2401" lon="6.03191">
        <ele>2406</ele>
        <time>2014-01-12T11:17:13.000Z</time>
      </trkpt>
      <trkpt lat="45.24009" lon="6.03187">
        <ele>2405</ele>
        <time>2014-01-12T11:17:18.000Z</time>
      </trkpt>
      <trkpt lat="45.24012" lon="6.03188">
        <ele>2406</ele>
        <time>2014-01-12T11:17:24.000Z</time>
      </trkpt>
      <trkpt lat="45.24014" lon="6.0319">
        <ele>2406</ele>
        <time>2014-01-12T11:17:29.000Z</time>
      </trkpt>
      <trkpt lat="45.24019" lon="6.03192">
        <ele>2407</ele>
        <time>2014-01-12T11:17:35.000Z</time>
      </trkpt>
      <trkpt lat="45.24022" lon="6.03193">
        <ele>2407</ele>
        <time>2014-01-12T11:17:41.000Z</time>
      </trkpt>
      <trkpt lat="45.24023" lon="6.03195">
        <ele>2407</ele>
        <time>2014-01-12T11:17:47.000Z</time>
      </trkpt>
      <trkpt lat="45.24025" lon="6.03201">
        <ele>2408</ele>
        <time>2014-01-12T11:17:55.000Z</time>
      </trkpt>
      <trkpt lat="45.24028" lon="6.03205">
        <ele>2409</ele>
        <time>2014-01-12T11:18:01.000Z</time>
      </trkpt>
      <trkpt lat="45.2403" lon="6.03207">
        <ele>2409</ele>
        <time>2014-01-12T11:18:06.000Z</time>
      </trkpt>
      <trkpt lat="45.24032" lon="6.03209">
        <ele>2409</ele>
        <time>2014-01-12T11:18:12.000Z</time>
      </trkpt>
      <trkpt lat="45.24032" lon="6.03209">
        <ele>2409</ele>
        <time>2014-01-12T11:18:14.000Z</time>
      </trkpt>
      <trkpt lat="45.24032" lon="6.03209">
        <ele>2409</ele>
        <time>2014-01-12T11:18:18.000Z</time>
      </trkpt>
      <trkpt lat="45.24033" lon="6.0321">
        <ele>2409</ele>
        <time>2014-01-12T11:18:24.000Z</time>
      </trkpt>
      <trkpt lat="45.24034" lon="6.0321">
        <ele>2410</ele>
        <time>2014-01-12T11:18:26.000Z</time>
      </trkpt>
      <trkpt lat="45.24037" lon="6.03211">
        <ele>2410</ele>
        <time>2014-01-12T11:18:32.000Z</time>
      </trkpt>
      <trkpt lat="45.24041" lon="6.03216">
        <ele>2411</ele>
        <time>2014-01-12T11:18:39.000Z</time>
      </trkpt>
      <trkpt lat="45.24046" lon="6.03219">
        <ele>2412</ele>
        <time>2014-01-12T11:18:46.000Z</time>
      </trkpt>
      <trkpt lat="45.2405" lon="6.03221">
        <ele>2413</ele>
        <time>2014-01-12T11:18:52.000Z</time>
      </trkpt>
      <trkpt lat="45.24052" lon="6.03222">
        <ele>2413</ele>
        <time>2014-01-12T11:18:55.000Z</time>
      </trkpt>
      <trkpt lat="45.24054" lon="6.03225">
        <ele>2414</ele>
        <time>2014-01-12T11:19:02.000Z</time>
      </trkpt>
      <trkpt lat="45.24059" lon="6.03225">
        <ele>2415</ele>
        <time>2014-01-12T11:19:10.000Z</time>
      </trkpt>
      <trkpt lat="45.24063" lon="6.03225">
        <ele>2416</ele>
        <time>2014-01-12T11:19:16.000Z</time>
      </trkpt>
      <trkpt lat="45.24064" lon="6.03226">
        <ele>2416</ele>
        <time>2014-01-12T11:19:18.000Z</time>
      </trkpt>
      <trkpt lat="45.24067" lon="6.03226">
        <ele>2417</ele>
        <time>2014-01-12T11:19:24.000Z</time>
      </trkpt>
      <trkpt lat="45.2407" lon="6.03226">
        <ele>2418</ele>
        <time>2014-01-12T11:19:30.000Z</time>
      </trkpt>
      <trkpt lat="45.24072" lon="6.03226">
        <ele>2418</ele>
        <time>2014-01-12T11:19:36.000Z</time>
      </trkpt>
      <trkpt lat="45.24074" lon="6.03226">
        <ele>2418</ele>
        <time>2014-01-12T11:19:43.000Z</time>
      </trkpt>
      <trkpt lat="45.24075" lon="6.03225">
        <ele>2418</ele>
        <time>2014-01-12T11:19:45.000Z</time>
      </trkpt>
      <trkpt lat="45.2408" lon="6.03226">
        <ele>2419</ele>
        <time>2014-01-12T11:19:53.000Z</time>
      </trkpt>
      <trkpt lat="45.24085" lon="6.03228">
        <ele>2427</ele>
        <time>2014-01-12T11:20:02.000Z</time>
      </trkpt>
      <trkpt lat="45.24087" lon="6.0323">
        <ele>2427</ele>
        <time>2014-01-12T11:20:09.000Z</time>
      </trkpt>
      <trkpt lat="45.24088" lon="6.0323">
        <ele>2427</ele>
        <time>2014-01-12T11:20:11.000Z</time>
      </trkpt>
      <trkpt lat="45.24092" lon="6.03232">
        <ele>2427</ele>
        <time>2014-01-12T11:20:17.000Z</time>
      </trkpt>
      <trkpt lat="45.24094" lon="6.03233">
        <ele>2427</ele>
        <time>2014-01-12T11:20:19.000Z</time>
      </trkpt>
      <trkpt lat="45.24098" lon="6.03237">
        <ele>2428</ele>
        <time>2014-01-12T11:20:26.000Z</time>
      </trkpt>
      <trkpt lat="45.241" lon="6.03239">
        <ele>2428</ele>
        <time>2014-01-12T11:20:32.000Z</time>
      </trkpt>
      <trkpt lat="45.24101" lon="6.03242">
        <ele>2428</ele>
        <time>2014-01-12T11:20:39.000Z</time>
      </trkpt>
      <trkpt lat="45.24104" lon="6.03247">
        <ele>2428</ele>
        <time>2014-01-12T11:20:48.000Z</time>
      </trkpt>
      <trkpt lat="45.24107" lon="6.03253">
        <ele>2440</ele>
        <time>2014-01-12T11:20:54.000Z</time>
      </trkpt>
      <trkpt lat="45.24108" lon="6.03257">
        <ele>2441</ele>
        <time>2014-01-12T11:21:00.000Z</time>
      </trkpt>
      <trkpt lat="45.24109" lon="6.03264">
        <ele>2441</ele>
        <time>2014-01-12T11:21:09.000Z</time>
      </trkpt>
      <trkpt lat="45.2411" lon="6.0327">
        <ele>2442</ele>
        <time>2014-01-12T11:21:16.000Z</time>
      </trkpt>
      <trkpt lat="45.24112" lon="6.03275">
        <ele>2443</ele>
        <time>2014-01-12T11:21:23.000Z</time>
      </trkpt>
      <trkpt lat="45.24115" lon="6.03279">
        <ele>2443</ele>
        <time>2014-01-12T11:21:29.000Z</time>
      </trkpt>
      <trkpt lat="45.24116" lon="6.03281">
        <ele>2444</ele>
        <time>2014-01-12T11:21:35.000Z</time>
      </trkpt>
      <trkpt lat="45.24117" lon="6.03281">
        <ele>2444</ele>
        <time>2014-01-12T11:21:41.000Z</time>
      </trkpt>
      <trkpt lat="45.2412" lon="6.03284">
        <ele>2444</ele>
        <time>2014-01-12T11:21:47.000Z</time>
      </trkpt>
      <trkpt lat="45.24123" lon="6.03287">
        <ele>2445</ele>
        <time>2014-01-12T11:21:53.000Z</time>
      </trkpt>
      <trkpt lat="45.24126" lon="6.03291">
        <ele>2445</ele>
        <time>2014-01-12T11:21:59.000Z</time>
      </trkpt>
      <trkpt lat="45.24128" lon="6.03297">
        <ele>2446</ele>
        <time>2014-01-12T11:22:07.000Z</time>
      </trkpt>
      <trkpt lat="45.24131" lon="6.033">
        <ele>2446</ele>
        <time>2014-01-12T11:22:15.000Z</time>
      </trkpt>
      <trkpt lat="45.24133" lon="6.03304">
        <ele>2447</ele>
        <time>2014-01-12T11:22:22.000Z</time>
      </trkpt>
      <trkpt lat="45.24136" lon="6.03306">
        <ele>2447</ele>
        <time>2014-01-12T11:22:28.000Z</time>
      </trkpt>
      <trkpt lat="45.2414" lon="6.03309">
        <ele>2448</ele>
        <time>2014-01-12T11:22:35.000Z</time>
      </trkpt>
      <trkpt lat="45.24142" lon="6.03308">
        <ele>2448</ele>
        <time>2014-01-12T11:22:42.000Z</time>
      </trkpt>
      <trkpt lat="45.24146" lon="6.03309">
        <ele>2449</ele>
        <time>2014-01-12T11:22:48.000Z</time>
      </trkpt>
      <trkpt lat="45.24149" lon="6.03312">
        <ele>2449</ele>
        <time>2014-01-12T11:22:56.000Z</time>
      </trkpt>
      <trkpt lat="45.24154" lon="6.03315">
        <ele>2451</ele>
        <time>2014-01-12T11:23:03.000Z</time>
      </trkpt>
      <trkpt lat="45.24156" lon="6.03314">
        <ele>2451</ele>
        <time>2014-01-12T11:23:08.000Z</time>
      </trkpt>
      <trkpt lat="45.24156" lon="6.03313">
        <ele>2451</ele>
        <time>2014-01-12T11:23:15.000Z</time>
      </trkpt>
      <trkpt lat="45.24156" lon="6.03313">
        <ele>2451</ele>
        <time>2014-01-12T11:23:16.000Z</time>
      </trkpt>
      <trkpt lat="45.24156" lon="6.03313">
        <ele>2451</ele>
        <time>2014-01-12T11:23:34.000Z</time>
      </trkpt>
      <trkpt lat="45.24156" lon="6.03313">
        <ele>2450</ele>
        <time>2014-01-12T11:23:42.000Z</time>
      </trkpt>
      <trkpt lat="45.24156" lon="6.03313">
        <ele>2450</ele>
        <time>2014-01-12T11:23:43.000Z</time>
      </trkpt>
      <trkpt lat="45.24156" lon="6.03313">
        <ele>2450</ele>
        <time>2014-01-12T11:23:45.000Z</time>
      </trkpt>
      <trkpt lat="45.24156" lon="6.03313">
        <ele>2450</ele>
        <time>2014-01-12T11:23:52.000Z</time>
      </trkpt>
      <trkpt lat="45.24156" lon="6.03313">
        <ele>2450</ele>
        <time>2014-01-12T11:23:59.000Z</time>
      </trkpt>
      <trkpt lat="45.24156" lon="6.03313">
        <ele>2450</ele>
        <time>2014-01-12T11:24:06.000Z</time>
      </trkpt>
      <trkpt lat="45.24156" lon="6.03313">
        <ele>2450</ele>
        <time>2014-01-12T11:24:07.000Z</time>
      </trkpt>
      <trkpt lat="45.24156" lon="6.03313">
        <ele>2450</ele>
        <time>2014-01-12T11:24:08.000Z</time>
      </trkpt>
      <trkpt lat="45.24156" lon="6.03313">
        <ele>2451</ele>
        <time>2014-01-12T11:25:14.000Z</time>
      </trkpt>
      <trkpt lat="45.24155" lon="6.03316">
        <ele>2451</ele>
        <time>2014-01-12T11:33:23.000Z</time>
      </trkpt>
      <trkpt lat="45.24154" lon="6.03315">
        <ele>2451</ele>
        <time>2014-01-12T11:33:30.000Z</time>
      </trkpt>
      <trkpt lat="45.24155" lon="6.03315">
        <ele>2451</ele>
        <time>2014-01-12T11:33:48.000Z</time>
      </trkpt>
      <trkpt lat="45.24155" lon="6.03315">
        <ele>2451</ele>
        <time>2014-01-12T11:33:58.000Z</time>
      </trkpt>
      <trkpt lat="45.2415" lon="6.03312">
        <ele>2450</ele>
        <time>2014-01-12T11:34:04.000Z</time>
      </trkpt>
      <trkpt lat="45.24147" lon="6.03311">
        <ele>2449</ele>
        <time>2014-01-12T11:34:08.000Z</time>
      </trkpt>
      <trkpt lat="45.24142" lon="6.03311">
        <ele>2448</ele>
        <time>2014-01-12T11:34:15.000Z</time>
      </trkpt>
      <trkpt lat="45.24138" lon="6.03311">
        <ele>2448</ele>
        <time>2014-01-12T11:34:21.000Z</time>
      </trkpt>
      <trkpt lat="45.24137" lon="6.0331">
        <ele>2448</ele>
        <time>2014-01-12T11:34:34.000Z</time>
      </trkpt>
      <trkpt lat="45.24137" lon="6.0331">
        <ele>2448</ele>
        <time>2014-01-12T11:34:49.000Z</time>
      </trkpt>
      <trkpt lat="45.24137" lon="6.0331">
        <ele>2448</ele>
        <time>2014-01-12T11:35:21.000Z</time>
      </trkpt>
      <trkpt lat="45.24134" lon="6.03308">
        <ele>2447</ele>
        <time>2014-01-12T11:35:30.000Z</time>
      </trkpt>
      <trkpt lat="45.24129" lon="6.03308">
        <ele>2447</ele>
        <time>2014-01-12T11:35:35.000Z</time>
      </trkpt>
      <trkpt lat="45.24124" lon="6.03307">
        <ele>2446</ele>
        <time>2014-01-12T11:35:43.000Z</time>
      </trkpt>
      <trkpt lat="45.24121" lon="6.03312">
        <ele>2446</ele>
        <time>2014-01-12T11:35:49.000Z</time>
      </trkpt>
      <trkpt lat="45.24117" lon="6.03314">
        <ele>2446</ele>
        <time>2014-01-12T11:35:56.000Z</time>
      </trkpt>
      <trkpt lat="45.24117" lon="6.03312">
        <ele>2445</ele>
        <time>2014-01-12T11:36:02.000Z</time>
      </trkpt>
      <trkpt lat="45.24117" lon="6.03312">
        <ele>2445</ele>
        <time>2014-01-12T11:36:18.000Z</time>
      </trkpt>
      <trkpt lat="45.24117" lon="6.03312">
        <ele>2445</ele>
        <time>2014-01-12T11:36:25.000Z</time>
      </trkpt>
      <trkpt lat="45.24117" lon="6.03313">
        <ele>2445</ele>
        <time>2014-01-12T11:36:27.000Z</time>
      </trkpt>
      <trkpt lat="45.24117" lon="6.03313">
        <ele>2445</ele>
        <time>2014-01-12T11:36:34.000Z</time>
      </trkpt>
      <trkpt lat="45.24117" lon="6.03313">
        <ele>2445</ele>
        <time>2014-01-12T11:36:59.000Z</time>
      </trkpt>
      <trkpt lat="45.24117" lon="6.03313">
        <ele>2445</ele>
        <time>2014-01-12T11:37:02.000Z</time>
      </trkpt>
      <trkpt lat="45.24117" lon="6.03313">
        <ele>2445</ele>
        <time>2014-01-12T11:37:08.000Z</time>
      </trkpt>
      <trkpt lat="45.24117" lon="6.03312">
        <ele>2445</ele>
        <time>2014-01-12T11:37:14.000Z</time>
      </trkpt>
      <trkpt lat="45.24117" lon="6.03312">
        <ele>2445</ele>
        <time>2014-01-12T11:37:31.000Z</time>
      </trkpt>
      <trkpt lat="45.24121" lon="6.03297">
        <ele>2445</ele>
        <time>2014-01-12T11:37:37.000Z</time>
      </trkpt>
      <trkpt lat="45.24117" lon="6.0329">
        <ele>2444</ele>
        <time>2014-01-12T11:37:39.000Z</time>
      </trkpt>
      <trkpt lat="45.24109" lon="6.03269">
        <ele>2442</ele>
        <time>2014-01-12T11:37:43.000Z</time>
      </trkpt>
      <trkpt lat="45.24111" lon="6.03255">
        <ele>2441</ele>
        <time>2014-01-12T11:37:45.000Z</time>
      </trkpt>
      <trkpt lat="45.24109" lon="6.0324">
        <ele>2428</ele>
        <time>2014-01-12T11:37:47.000Z</time>
      </trkpt>
      <trkpt lat="45.24106" lon="6.03227">
        <ele>2426</ele>
        <time>2014-01-12T11:37:49.000Z</time>
      </trkpt>
      <trkpt lat="45.24098" lon="6.03225">
        <ele>2426</ele>
        <time>2014-01-12T11:37:51.000Z</time>
      </trkpt>
      <trkpt lat="45.24092" lon="6.03221">
        <ele>2425</ele>
        <time>2014-01-12T11:37:53.000Z</time>
      </trkpt>
      <trkpt lat="45.24092" lon="6.0322">
        <ele>2425</ele>
        <time>2014-01-12T11:37:54.000Z</time>
      </trkpt>
      <trkpt lat="45.24092" lon="6.03223">
        <ele>2425</ele>
        <time>2014-01-12T11:38:00.000Z</time>
      </trkpt>
      <trkpt lat="45.24087" lon="6.03222">
        <ele>2425</ele>
        <time>2014-01-12T11:38:02.000Z</time>
      </trkpt>
      <trkpt lat="45.24077" lon="6.03213">
        <ele>2416</ele>
        <time>2014-01-12T11:38:04.000Z</time>
      </trkpt>
      <trkpt lat="45.24061" lon="6.03214">
        <ele>2414</ele>
        <time>2014-01-12T11:38:07.000Z</time>
      </trkpt>
      <trkpt lat="45.24056" lon="6.03211">
        <ele>2413</ele>
        <time>2014-01-12T11:38:08.000Z</time>
      </trkpt>
      <trkpt lat="45.24044" lon="6.03207">
        <ele>2411</ele>
        <time>2014-01-12T11:38:11.000Z</time>
      </trkpt>
      <trkpt lat="45.24033" lon="6.03193">
        <ele>2409</ele>
        <time>2014-01-12T11:38:14.000Z</time>
      </trkpt>
      <trkpt lat="45.24023" lon="6.03172">
        <ele>2406</ele>
        <time>2014-01-12T11:38:18.000Z</time>
      </trkpt>
      <trkpt lat="45.24015" lon="6.03163">
        <ele>2401</ele>
        <time>2014-01-12T11:38:21.000Z</time>
      </trkpt>
      <trkpt lat="45.2401" lon="6.03161">
        <ele>2400</ele>
        <time>2014-01-12T11:38:23.000Z</time>
      </trkpt>
      <trkpt lat="45.24006" lon="6.03171">
        <ele>2402</ele>
        <time>2014-01-12T11:38:26.000Z</time>
      </trkpt>
      <trkpt lat="45.24003" lon="6.03177">
        <ele>2403</ele>
        <time>2014-01-12T11:38:28.000Z</time>
      </trkpt>
      <trkpt lat="45.24004" lon="6.03183">
        <ele>2404</ele>
        <time>2014-01-12T11:38:30.000Z</time>
      </trkpt>
      <trkpt lat="45.24002" lon="6.03183">
        <ele>2404</ele>
        <time>2014-01-12T11:38:36.000Z</time>
      </trkpt>
      <trkpt lat="45.24002" lon="6.03184">
        <ele>2404</ele>
        <time>2014-01-12T11:38:44.000Z</time>
      </trkpt>
      <trkpt lat="45.24002" lon="6.0319">
        <ele>2405</ele>
        <time>2014-01-12T11:39:01.000Z</time>
      </trkpt>
      <trkpt lat="45.23991" lon="6.03203">
        <ele>2381</ele>
        <time>2014-01-12T11:39:05.000Z</time>
      </trkpt>
      <trkpt lat="45.23983" lon="6.03208">
        <ele>2379</ele>
        <time>2014-01-12T11:39:07.000Z</time>
      </trkpt>
      <trkpt lat="45.23969" lon="6.03222">
        <ele>2375</ele>
        <time>2014-01-12T11:39:11.000Z</time>
      </trkpt>
      <trkpt lat="45.23965" lon="6.0322">
        <ele>2374</ele>
        <time>2014-01-12T11:39:12.000Z</time>
      </trkpt>
      <trkpt lat="45.23958" lon="6.03215">
        <ele>2371</ele>
        <time>2014-01-12T11:39:14.000Z</time>
      </trkpt>
      <trkpt lat="45.23952" lon="6.03218">
        <ele>2369</ele>
        <time>2014-01-12T11:39:16.000Z</time>
      </trkpt>
      <trkpt lat="45.23949" lon="6.03214">
        <ele>2368</ele>
        <time>2014-01-12T11:39:17.000Z</time>
      </trkpt>
      <trkpt lat="45.23945" lon="6.03213">
        <ele>2367</ele>
        <time>2014-01-12T11:39:18.000Z</time>
      </trkpt>
      <trkpt lat="45.23942" lon="6.03224">
        <ele>2365</ele>
        <time>2014-01-12T11:39:20.000Z</time>
      </trkpt>
      <trkpt lat="45.23936" lon="6.03235">
        <ele>2360</ele>
        <time>2014-01-12T11:39:23.000Z</time>
      </trkpt>
      <trkpt lat="45.23933" lon="6.0323">
        <ele>2361</ele>
        <time>2014-01-12T11:39:24.000Z</time>
      </trkpt>
      <trkpt lat="45.23929" lon="6.03214">
        <ele>2363</ele>
        <time>2014-01-12T11:39:26.000Z</time>
      </trkpt>
      <trkpt lat="45.23927" lon="6.03205">
        <ele>2364</ele>
        <time>2014-01-12T11:39:27.000Z</time>
      </trkpt>
      <trkpt lat="45.23904" lon="6.03163">
        <ele>2344</ele>
        <time>2014-01-12T11:39:33.000Z</time>
      </trkpt>
      <trkpt lat="45.23894" lon="6.03167">
        <ele>2333</ele>
        <time>2014-01-12T11:39:36.000Z</time>
      </trkpt>
      <trkpt lat="45.23884" lon="6.03174">
        <ele>2328</ele>
        <time>2014-01-12T11:39:38.000Z</time>
      </trkpt>
      <trkpt lat="45.23874" lon="6.03179">
        <ele>2323</ele>
        <time>2014-01-12T11:39:40.000Z</time>
      </trkpt>
      <trkpt lat="45.23864" lon="6.03178">
        <ele>2319</ele>
        <time>2014-01-12T11:39:43.000Z</time>
      </trkpt>
      <trkpt lat="45.23864" lon="6.03179">
        <ele>2319</ele>
        <time>2014-01-12T11:39:44.000Z</time>
      </trkpt>
      <trkpt lat="45.23868" lon="6.03187">
        <ele>2321</ele>
        <time>2014-01-12T11:39:49.000Z</time>
      </trkpt>
      <trkpt lat="45.23868" lon="6.03187">
        <ele>2321</ele>
        <time>2014-01-12T11:39:54.000Z</time>
      </trkpt>
      <trkpt lat="45.23871" lon="6.03192">
        <ele>2322</ele>
        <time>2014-01-12T11:40:00.000Z</time>
      </trkpt>
      <trkpt lat="45.23871" lon="6.03192">
        <ele>2322</ele>
        <time>2014-01-12T11:40:21.000Z</time>
      </trkpt>
      <trkpt lat="45.23874" lon="6.03198">
        <ele>2322</ele>
        <time>2014-01-12T11:40:36.000Z</time>
      </trkpt>
      <trkpt lat="45.23878" lon="6.03208">
        <ele>2323</ele>
        <time>2014-01-12T11:40:39.000Z</time>
      </trkpt>
      <trkpt lat="45.2387" lon="6.03209">
        <ele>2321</ele>
        <time>2014-01-12T11:40:43.000Z</time>
      </trkpt>
      <trkpt lat="45.23867" lon="6.03207">
        <ele>2320</ele>
        <time>2014-01-12T11:40:44.000Z</time>
      </trkpt>
      <trkpt lat="45.23862" lon="6.03212">
        <ele>2318</ele>
        <time>2014-01-12T11:40:46.000Z</time>
      </trkpt>
      <trkpt lat="45.23858" lon="6.03214">
        <ele>2317</ele>
        <time>2014-01-12T11:40:47.000Z</time>
      </trkpt>
      <trkpt lat="45.23856" lon="6.03218">
        <ele>2316</ele>
        <time>2014-01-12T11:40:48.000Z</time>
      </trkpt>
      <trkpt lat="45.23849" lon="6.03224">
        <ele>2313</ele>
        <time>2014-01-12T11:40:50.000Z</time>
      </trkpt>
      <trkpt lat="45.23847" lon="6.03227">
        <ele>2312</ele>
        <time>2014-01-12T11:40:51.000Z</time>
      </trkpt>
      <trkpt lat="45.23839" lon="6.03233">
        <ele>2308</ele>
        <time>2014-01-12T11:40:53.000Z</time>
      </trkpt>
      <trkpt lat="45.23831" lon="6.03236">
        <ele>2288</ele>
        <time>2014-01-12T11:40:55.000Z</time>
      </trkpt>
      <trkpt lat="45.23825" lon="6.03246">
        <ele>2289</ele>
        <time>2014-01-12T11:40:57.000Z</time>
      </trkpt>
      <trkpt lat="45.23813" lon="6.03242">
        <ele>2284</ele>
        <time>2014-01-12T11:40:59.000Z</time>
      </trkpt>
      <trkpt lat="45.23804" lon="6.03231">
        <ele>2281</ele>
        <time>2014-01-12T11:41:01.000Z</time>
      </trkpt>
      <trkpt lat="45.23799" lon="6.03228">
        <ele>2279</ele>
        <time>2014-01-12T11:41:02.000Z</time>
      </trkpt>
      <trkpt lat="45.2379" lon="6.03236">
        <ele>2277</ele>
        <time>2014-01-12T11:41:04.000Z</time>
      </trkpt>
      <trkpt lat="45.23787" lon="6.03246">
        <ele>2276</ele>
        <time>2014-01-12T11:41:05.000Z</time>
      </trkpt>
      <trkpt lat="45.23774" lon="6.03269">
        <ele>2273</ele>
        <time>2014-01-12T11:41:08.000Z</time>
      </trkpt>
      <trkpt lat="45.23767" lon="6.03256">
        <ele>2269</ele>
        <time>2014-01-12T11:41:11.000Z</time>
      </trkpt>
      <trkpt lat="45.23765" lon="6.03254">
        <ele>2268</ele>
        <time>2014-01-12T11:41:14.000Z</time>
      </trkpt>
      <trkpt lat="45.23765" lon="6.03254">
        <ele>2268</ele>
        <time>2014-01-12T11:41:23.000Z</time>
      </trkpt>
      <trkpt lat="45.23765" lon="6.03254">
        <ele>2268</ele>
        <time>2014-01-12T11:41:43.000Z</time>
      </trkpt>
      <trkpt lat="45.23765" lon="6.03254">
        <ele>2268</ele>
        <time>2014-01-12T11:41:55.000Z</time>
      </trkpt>
      <trkpt lat="45.23764" lon="6.03254">
        <ele>2268</ele>
        <time>2014-01-12T11:41:57.000Z</time>
      </trkpt>
      <trkpt lat="45.23764" lon="6.03254">
        <ele>2268</ele>
        <time>2014-01-12T11:42:11.000Z</time>
      </trkpt>
      <trkpt lat="45.23764" lon="6.03254">
        <ele>2268</ele>
        <time>2014-01-12T11:42:40.000Z</time>
      </trkpt>
      <trkpt lat="45.23764" lon="6.03255">
        <ele>2268</ele>
        <time>2014-01-12T11:42:53.000Z</time>
      </trkpt>
      <trkpt lat="45.23764" lon="6.03255">
        <ele>2268</ele>
        <time>2014-01-12T11:42:57.000Z</time>
      </trkpt>
      <trkpt lat="45.23764" lon="6.03255">
        <ele>2268</ele>
        <time>2014-01-12T11:43:07.000Z</time>
      </trkpt>
      <trkpt lat="45.23764" lon="6.03255">
        <ele>2268</ele>
        <time>2014-01-12T11:43:19.000Z</time>
      </trkpt>
      <trkpt lat="45.23764" lon="6.03256">
        <ele>2268</ele>
        <time>2014-01-12T11:44:52.000Z</time>
      </trkpt>
      <trkpt lat="45.23764" lon="6.03256">
        <ele>2268</ele>
        <time>2014-01-12T11:44:53.000Z</time>
      </trkpt>
      <trkpt lat="45.23766" lon="6.03255">
        <ele>2269</ele>
        <time>2014-01-12T11:46:32.000Z</time>
      </trkpt>
      <trkpt lat="45.23766" lon="6.03255">
        <ele>2269</ele>
        <time>2014-01-12T11:46:49.000Z</time>
      </trkpt>
      <trkpt lat="45.23766" lon="6.03255">
        <ele>2269</ele>
        <time>2014-01-12T11:46:51.000Z</time>
      </trkpt>
      <trkpt lat="45.23765" lon="6.03255">
        <ele>2268</ele>
        <time>2014-01-12T11:47:15.000Z</time>
      </trkpt>
      <trkpt lat="45.23766" lon="6.0326">
        <ele>2269</ele>
        <time>2014-01-12T11:56:33.000Z</time>
      </trkpt>
      <trkpt lat="45.23766" lon="6.0326">
        <ele>2269</ele>
        <time>2014-01-12T12:04:19.000Z</time>
      </trkpt>
      <trkpt lat="45.23766" lon="6.03263">
        <ele>2270</ele>
        <time>2014-01-12T12:04:32.000Z</time>
      </trkpt>
      <trkpt lat="45.23766" lon="6.03263">
        <ele>2270</ele>
        <time>2014-01-12T12:04:40.000Z</time>
      </trkpt>
      <trkpt lat="45.23766" lon="6.03263">
        <ele>2270</ele>
        <time>2014-01-12T12:04:44.000Z</time>
      </trkpt>
      <trkpt lat="45.23767" lon="6.0326">
        <ele>2270</ele>
        <time>2014-01-12T12:05:02.000Z</time>
      </trkpt>
      <trkpt lat="45.23767" lon="6.03261">
        <ele>2270</ele>
        <time>2014-01-12T12:05:46.000Z</time>
      </trkpt>
      <trkpt lat="45.23767" lon="6.03255">
        <ele>2269</ele>
        <time>2014-01-12T12:18:58.000Z</time>
      </trkpt>
      <trkpt lat="45.23767" lon="6.03255">
        <ele>2269</ele>
        <time>2014-01-12T12:19:15.000Z</time>
      </trkpt>
      <trkpt lat="45.23767" lon="6.03255">
        <ele>2269</ele>
        <time>2014-01-12T12:19:22.000Z</time>
      </trkpt>
      <trkpt lat="45.23767" lon="6.03255">
        <ele>2269</ele>
        <time>2014-01-12T12:19:24.000Z</time>
      </trkpt>
      <trkpt lat="45.23767" lon="6.03257">
        <ele>2269</ele>
        <time>2014-01-12T12:19:46.000Z</time>
      </trkpt>
      <trkpt lat="45.23767" lon="6.03257">
        <ele>2269</ele>
        <time>2014-01-12T12:19:50.000Z</time>
      </trkpt>
      <trkpt lat="45.23767" lon="6.03257">
        <ele>2269</ele>
        <time>2014-01-12T12:19:51.000Z</time>
      </trkpt>
      <trkpt lat="45.23767" lon="6.03257">
        <ele>2269</ele>
        <time>2014-01-12T12:19:56.000Z</time>
      </trkpt>
      <trkpt lat="45.23767" lon="6.03257">
        <ele>2269</ele>
        <time>2014-01-12T12:19:57.000Z</time>
      </trkpt>
      <trkpt lat="45.23766" lon="6.03254">
        <ele>2269</ele>
        <time>2014-01-12T12:20:01.000Z</time>
      </trkpt>
      <trkpt lat="45.23766" lon="6.03254">
        <ele>2269</ele>
        <time>2014-01-12T12:20:13.000Z</time>
      </trkpt>
      <trkpt lat="45.23766" lon="6.03254">
        <ele>2269</ele>
        <time>2014-01-12T12:20:21.000Z</time>
      </trkpt>
      <trkpt lat="45.23766" lon="6.03254">
        <ele>2269</ele>
        <time>2014-01-12T12:20:23.000Z</time>
      </trkpt>
      <trkpt lat="45.23765" lon="6.03252">
        <ele>2268</ele>
        <time>2014-01-12T12:20:47.000Z</time>
      </trkpt>
      <trkpt lat="45.23765" lon="6.03251">
        <ele>2268</ele>
        <time>2014-01-12T12:20:51.000Z</time>
      </trkpt>
      <trkpt lat="45.23765" lon="6.03251">
        <ele>2268</ele>
        <time>2014-01-12T12:21:01.000Z</time>
      </trkpt>
      <trkpt lat="45.23765" lon="6.03251">
        <ele>2268</ele>
        <time>2014-01-12T12:21:17.000Z</time>
      </trkpt>
      <trkpt lat="45.23763" lon="6.03252">
        <ele>2267</ele>
        <time>2014-01-12T12:21:18.000Z</time>
      </trkpt>
      <trkpt lat="45.23761" lon="6.03256">
        <ele>2267</ele>
        <time>2014-01-12T12:21:20.000Z</time>
      </trkpt>
      <trkpt lat="45.2376" lon="6.0326">
        <ele>2267</ele>
        <time>2014-01-12T12:21:28.000Z</time>
      </trkpt>
      <trkpt lat="45.23759" lon="6.0326">
        <ele>2267</ele>
        <time>2014-01-12T12:21:36.000Z</time>
      </trkpt>
      <trkpt lat="45.23755" lon="6.03262">
        <ele>2267</ele>
        <time>2014-01-12T12:21:42.000Z</time>
      </trkpt>
      <trkpt lat="45.23748" lon="6.03246">
        <ele>2256</ele>
        <time>2014-01-12T12:21:46.000Z</time>
      </trkpt>
      <trkpt lat="45.23742" lon="6.03245">
        <ele>2253</ele>
        <time>2014-01-12T12:21:48.000Z</time>
      </trkpt>
      <trkpt lat="45.23733" lon="6.03242">
        <ele>2248</ele>
        <time>2014-01-12T12:21:50.000Z</time>
      </trkpt>
      <trkpt lat="45.23724" lon="6.03237">
        <ele>2245</ele>
        <time>2014-01-12T12:21:52.000Z</time>
      </trkpt>
      <trkpt lat="45.23719" lon="6.03222">
        <ele>2242</ele>
        <time>2014-01-12T12:21:54.000Z</time>
      </trkpt>
      <trkpt lat="45.23712" lon="6.0321">
        <ele>2240</ele>
        <time>2014-01-12T12:21:56.000Z</time>
      </trkpt>
      <trkpt lat="45.23699" lon="6.03212">
        <ele>2237</ele>
        <time>2014-01-12T12:21:58.000Z</time>
      </trkpt>
      <trkpt lat="45.23693" lon="6.032">
        <ele>2235</ele>
        <time>2014-01-12T12:22:00.000Z</time>
      </trkpt>
      <trkpt lat="45.23687" lon="6.03174">
        <ele>2229</ele>
        <time>2014-01-12T12:22:04.000Z</time>
      </trkpt>
      <trkpt lat="45.23687" lon="6.03156">
        <ele>2225</ele>
        <time>2014-01-12T12:22:06.000Z</time>
      </trkpt>
      <trkpt lat="45.23684" lon="6.0312">
        <ele>2226</ele>
        <time>2014-01-12T12:22:11.000Z</time>
      </trkpt>
      <trkpt lat="45.23682" lon="6.03103">
        <ele>2223</ele>
        <time>2014-01-12T12:22:16.000Z</time>
      </trkpt>
      <trkpt lat="45.23682" lon="6.03103">
        <ele>2223</ele>
        <time>2014-01-12T12:22:27.000Z</time>
      </trkpt>
      <trkpt lat="45.23682" lon="6.03104">
        <ele>2223</ele>
        <time>2014-01-12T12:22:57.000Z</time>
      </trkpt>
      <trkpt lat="45.23669" lon="6.03094">
        <ele>2216</ele>
        <time>2014-01-12T12:23:01.000Z</time>
      </trkpt>
      <trkpt lat="45.2366" lon="6.03093">
        <ele>2204</ele>
        <time>2014-01-12T12:23:03.000Z</time>
      </trkpt>
      <trkpt lat="45.2365" lon="6.0309">
        <ele>2202</ele>
        <time>2014-01-12T12:23:05.000Z</time>
      </trkpt>
      <trkpt lat="45.23645" lon="6.0309">
        <ele>2200</ele>
        <time>2014-01-12T12:23:06.000Z</time>
      </trkpt>
      <trkpt lat="45.23641" lon="6.03086">
        <ele>2199</ele>
        <time>2014-01-12T12:23:07.000Z</time>
      </trkpt>
      <trkpt lat="45.23624" lon="6.0306">
        <ele>2195</ele>
        <time>2014-01-12T12:23:11.000Z</time>
      </trkpt>
      <trkpt lat="45.23616" lon="6.03062">
        <ele>2193</ele>
        <time>2014-01-12T12:23:13.000Z</time>
      </trkpt>
      <trkpt lat="45.23602" lon="6.03064">
        <ele>2190</ele>
        <time>2014-01-12T12:23:15.000Z</time>
      </trkpt>
      <trkpt lat="45.23589" lon="6.03054">
        <ele>2189</ele>
        <time>2014-01-12T12:23:17.000Z</time>
      </trkpt>
      <trkpt lat="45.23575" lon="6.03053">
        <ele>2174</ele>
        <time>2014-01-12T12:23:19.000Z</time>
      </trkpt>
      <trkpt lat="45.23568" lon="6.03048">
        <ele>2173</ele>
        <time>2014-01-12T12:23:20.000Z</time>
      </trkpt>
      <trkpt lat="45.23548" lon="6.03032">
        <ele>2171</ele>
        <time>2014-01-12T12:23:23.000Z</time>
      </trkpt>
      <trkpt lat="45.23534" lon="6.03033">
        <ele>2170</ele>
        <time>2014-01-12T12:23:25.000Z</time>
      </trkpt>
      <trkpt lat="45.2352" lon="6.03032">
        <ele>2168</ele>
        <time>2014-01-12T12:23:27.000Z</time>
      </trkpt>
      <trkpt lat="45.23507" lon="6.03024">
        <ele>2167</ele>
        <time>2014-01-12T12:23:29.000Z</time>
      </trkpt>
      <trkpt lat="45.23493" lon="6.0302">
        <ele>2159</ele>
        <time>2014-01-12T12:23:31.000Z</time>
      </trkpt>
      <trkpt lat="45.23473" lon="6.03002">
        <ele>2159</ele>
        <time>2014-01-12T12:23:36.000Z</time>
      </trkpt>
      <trkpt lat="45.23449" lon="6.03005">
        <ele>2157</ele>
        <time>2014-01-12T12:23:41.000Z</time>
      </trkpt>
      <trkpt lat="45.23444" lon="6.03005">
        <ele>2157</ele>
        <time>2014-01-12T12:23:42.000Z</time>
      </trkpt>
      <trkpt lat="45.2344" lon="6.03005">
        <ele>2156</ele>
        <time>2014-01-12T12:23:46.000Z</time>
      </trkpt>
      <trkpt lat="45.2344" lon="6.03006">
        <ele>2156</ele>
        <time>2014-01-12T12:23:55.000Z</time>
      </trkpt>
      <trkpt lat="45.23438" lon="6.03006">
        <ele>2156</ele>
        <time>2014-01-12T12:24:27.000Z</time>
      </trkpt>
      <trkpt lat="45.23434" lon="6.03004">
        <ele>2156</ele>
        <time>2014-01-12T12:24:33.000Z</time>
      </trkpt>
      <trkpt lat="45.23422" lon="6.02999">
        <ele>2157</ele>
        <time>2014-01-12T12:24:38.000Z</time>
      </trkpt>
      <trkpt lat="45.23415" lon="6.02995">
        <ele>2156</ele>
        <time>2014-01-12T12:24:40.000Z</time>
      </trkpt>
      <trkpt lat="45.234" lon="6.02985">
        <ele>2155</ele>
        <time>2014-01-12T12:24:44.000Z</time>
      </trkpt>
      <trkpt lat="45.23381" lon="6.02972">
        <ele>2154</ele>
        <time>2014-01-12T12:24:50.000Z</time>
      </trkpt>
      <trkpt lat="45.2337" lon="6.02963">
        <ele>2153</ele>
        <time>2014-01-12T12:24:55.000Z</time>
      </trkpt>
      <trkpt lat="45.2337" lon="6.02963">
        <ele>2153</ele>
        <time>2014-01-12T12:25:03.000Z</time>
      </trkpt>
      <trkpt lat="45.2337" lon="6.02962">
        <ele>2153</ele>
        <time>2014-01-12T12:25:17.000Z</time>
      </trkpt>
      <trkpt lat="45.23369" lon="6.02962">
        <ele>2153</ele>
        <time>2014-01-12T12:25:23.000Z</time>
      </trkpt>
      <trkpt lat="45.23369" lon="6.02963">
        <ele>2153</ele>
        <time>2014-01-12T12:25:32.000Z</time>
      </trkpt>
      <trkpt lat="45.2337" lon="6.02963">
        <ele>2153</ele>
        <time>2014-01-12T12:25:42.000Z</time>
      </trkpt>
      <trkpt lat="45.2337" lon="6.02963">
        <ele>2153</ele>
        <time>2014-01-12T12:26:03.000Z</time>
      </trkpt>
      <trkpt lat="45.2337" lon="6.02964">
        <ele>2153</ele>
        <time>2014-01-12T12:27:17.000Z</time>
      </trkpt>
      <trkpt lat="45.2337" lon="6.02965">
        <ele>2153</ele>
        <time>2014-01-12T12:27:42.000Z</time>
      </trkpt>
      <trkpt lat="45.23368" lon="6.0297">
        <ele>2153</ele>
        <time>2014-01-12T12:28:18.000Z</time>
      </trkpt>
      <trkpt lat="45.23368" lon="6.0297">
        <ele>2153</ele>
        <time>2014-01-12T12:28:36.000Z</time>
      </trkpt>
      <trkpt lat="45.23368" lon="6.0297">
        <ele>2153</ele>
        <time>2014-01-12T12:28:50.000Z</time>
      </trkpt>
      <trkpt lat="45.23367" lon="6.0297">
        <ele>2153</ele>
        <time>2014-01-12T12:29:16.000Z</time>
      </trkpt>
      <trkpt lat="45.23368" lon="6.02969">
        <ele>2153</ele>
        <time>2014-01-12T12:30:02.000Z</time>
      </trkpt>
      <trkpt lat="45.23369" lon="6.0297">
        <ele>2153</ele>
        <time>2014-01-12T12:30:31.000Z</time>
      </trkpt>
      <trkpt lat="45.23369" lon="6.0297">
        <ele>2153</ele>
        <time>2014-01-12T12:30:56.000Z</time>
      </trkpt>
      <trkpt lat="45.2337" lon="6.0297">
        <ele>2153</ele>
        <time>2014-01-12T12:31:56.000Z</time>
      </trkpt>
      <trkpt lat="45.23371" lon="6.02971">
        <ele>2153</ele>
        <time>2014-01-12T12:33:10.000Z</time>
      </trkpt>
      <trkpt lat="45.23372" lon="6.02969">
        <ele>2153</ele>
        <time>2014-01-12T12:33:33.000Z</time>
      </trkpt>
      <trkpt lat="45.23372" lon="6.02969">
        <ele>2153</ele>
        <time>2014-01-12T12:34:50.000Z</time>
      </trkpt>
      <trkpt lat="45.23372" lon="6.02969">
        <ele>2153</ele>
        <time>2014-01-12T12:35:09.000Z</time>
      </trkpt>
      <trkpt lat="45.23372" lon="6.0297">
        <ele>2153</ele>
        <time>2014-01-12T12:35:21.000Z</time>
      </trkpt>
      <trkpt lat="45.2337" lon="6.02972">
        <ele>2153</ele>
        <time>2014-01-12T12:35:26.000Z</time>
      </trkpt>
      <trkpt lat="45.23369" lon="6.02972">
        <ele>2153</ele>
        <time>2014-01-12T12:35:28.000Z</time>
      </trkpt>
      <trkpt lat="45.2337" lon="6.02978">
        <ele>2153</ele>
        <time>2014-01-12T12:35:32.000Z</time>
      </trkpt>
      <trkpt lat="45.23372" lon="6.02981">
        <ele>2153</ele>
        <time>2014-01-12T12:35:33.000Z</time>
      </trkpt>
      <trkpt lat="45.23384" lon="6.02999">
        <ele>2153</ele>
        <time>2014-01-12T12:35:39.000Z</time>
      </trkpt>
      <trkpt lat="45.23394" lon="6.0302">
        <ele>2151</ele>
        <time>2014-01-12T12:35:43.000Z</time>
      </trkpt>
      <trkpt lat="45.234" lon="6.03034">
        <ele>2151</ele>
        <time>2014-01-12T12:35:46.000Z</time>
      </trkpt>
      <trkpt lat="45.234" lon="6.03035">
        <ele>2151</ele>
        <time>2014-01-12T12:35:51.000Z</time>
      </trkpt>
      <trkpt lat="45.23399" lon="6.03036">
        <ele>2151</ele>
        <time>2014-01-12T12:36:01.000Z</time>
      </trkpt>
      <trkpt lat="45.234" lon="6.03035">
        <ele>2151</ele>
        <time>2014-01-12T12:36:02.000Z</time>
      </trkpt>
      <trkpt lat="45.23391" lon="6.03031">
        <ele>2150</ele>
        <time>2014-01-12T12:36:09.000Z</time>
      </trkpt>
      <trkpt lat="45.23372" lon="6.03024">
        <ele>2150</ele>
        <time>2014-01-12T12:36:15.000Z</time>
      </trkpt>
      <trkpt lat="45.23359" lon="6.03026">
        <ele>2149</ele>
        <time>2014-01-12T12:36:19.000Z</time>
      </trkpt>
      <trkpt lat="45.23344" lon="6.03026">
        <ele>2148</ele>
        <time>2014-01-12T12:36:22.000Z</time>
      </trkpt>
      <trkpt lat="45.23326" lon="6.03028">
        <ele>2140</ele>
        <time>2014-01-12T12:36:26.000Z</time>
      </trkpt>
      <trkpt lat="45.23319" lon="6.03029">
        <ele>2140</ele>
        <time>2014-01-12T12:36:28.000Z</time>
      </trkpt>
      <trkpt lat="45.23306" lon="6.03018">
        <ele>2139</ele>
        <time>2014-01-12T12:36:32.000Z</time>
      </trkpt>
      <trkpt lat="45.23299" lon="6.03011">
        <ele>2137</ele>
        <time>2014-01-12T12:36:34.000Z</time>
      </trkpt>
      <trkpt lat="45.23294" lon="6.03005">
        <ele>2136</ele>
        <time>2014-01-12T12:36:35.000Z</time>
      </trkpt>
      <trkpt lat="45.2328" lon="6.02988">
        <ele>2134</ele>
        <time>2014-01-12T12:36:39.000Z</time>
      </trkpt>
      <trkpt lat="45.23263" lon="6.02981">
        <ele>2131</ele>
        <time>2014-01-12T12:36:42.000Z</time>
      </trkpt>
      <trkpt lat="45.23247" lon="6.02965">
        <ele>2118</ele>
        <time>2014-01-12T12:36:46.000Z</time>
      </trkpt>
      <trkpt lat="45.23235" lon="6.02964">
        <ele>2117</ele>
        <time>2014-01-12T12:36:48.000Z</time>
      </trkpt>
      <trkpt lat="45.2321" lon="6.02945">
        <ele>2115</ele>
        <time>2014-01-12T12:36:52.000Z</time>
      </trkpt>
      <trkpt lat="45.23201" lon="6.02941">
        <ele>2114</ele>
        <time>2014-01-12T12:36:54.000Z</time>
      </trkpt>
      <trkpt lat="45.2319" lon="6.02934">
        <ele>2112</ele>
        <time>2014-01-12T12:36:57.000Z</time>
      </trkpt>
      <trkpt lat="45.23186" lon="6.02931">
        <ele>2111</ele>
        <time>2014-01-12T12:36:58.000Z</time>
      </trkpt>
      <trkpt lat="45.23183" lon="6.02928">
        <ele>2111</ele>
        <time>2014-01-12T12:36:59.000Z</time>
      </trkpt>
      <trkpt lat="45.23178" lon="6.02926">
        <ele>2110</ele>
        <time>2014-01-12T12:37:00.000Z</time>
      </trkpt>
      <trkpt lat="45.23174" lon="6.02922">
        <ele>2108</ele>
        <time>2014-01-12T12:37:01.000Z</time>
      </trkpt>
      <trkpt lat="45.23169" lon="6.02918">
        <ele>2107</ele>
        <time>2014-01-12T12:37:02.000Z</time>
      </trkpt>
      <trkpt lat="45.23163" lon="6.02915">
        <ele>2105</ele>
        <time>2014-01-12T12:37:03.000Z</time>
      </trkpt>
      <trkpt lat="45.23152" lon="6.02911">
        <ele>2103</ele>
        <time>2014-01-12T12:37:05.000Z</time>
      </trkpt>
      <trkpt lat="45.23132" lon="6.02902">
        <ele>2100</ele>
        <time>2014-01-12T12:37:09.000Z</time>
      </trkpt>
      <trkpt lat="45.23117" lon="6.02898">
        <ele>2098</ele>
        <time>2014-01-12T12:37:12.000Z</time>
      </trkpt>
      <trkpt lat="45.23107" lon="6.02895">
        <ele>2097</ele>
        <time>2014-01-12T12:37:14.000Z</time>
      </trkpt>
      <trkpt lat="45.23103" lon="6.02895">
        <ele>2097</ele>
        <time>2014-01-12T12:37:15.000Z</time>
      </trkpt>
      <trkpt lat="45.2309" lon="6.02895">
        <ele>2095</ele>
        <time>2014-01-12T12:37:18.000Z</time>
      </trkpt>
      <trkpt lat="45.23085" lon="6.02895">
        <ele>2095</ele>
        <time>2014-01-12T12:37:19.000Z</time>
      </trkpt>
      <trkpt lat="45.23079" lon="6.02895">
        <ele>2081</ele>
        <time>2014-01-12T12:37:22.000Z</time>
      </trkpt>
      <trkpt lat="45.23079" lon="6.02895">
        <ele>2081</ele>
        <time>2014-01-12T12:37:29.000Z</time>
      </trkpt>
      <trkpt lat="45.23079" lon="6.02896">
        <ele>2081</ele>
        <time>2014-01-12T12:37:40.000Z</time>
      </trkpt>
      <trkpt lat="45.23078" lon="6.02896">
        <ele>2081</ele>
        <time>2014-01-12T12:37:41.000Z</time>
      </trkpt>
      <trkpt lat="45.23076" lon="6.02895">
        <ele>2081</ele>
        <time>2014-01-12T12:37:42.000Z</time>
      </trkpt>
      <trkpt lat="45.23075" lon="6.02895">
        <ele>2081</ele>
        <time>2014-01-12T12:37:43.000Z</time>
      </trkpt>
      <trkpt lat="45.23074" lon="6.02894">
        <ele>2080</ele>
        <time>2014-01-12T12:37:44.000Z</time>
      </trkpt>
      <trkpt lat="45.23072" lon="6.02892">
        <ele>2080</ele>
        <time>2014-01-12T12:37:45.000Z</time>
      </trkpt>
      <trkpt lat="45.2307" lon="6.0289">
        <ele>2079</ele>
        <time>2014-01-12T12:37:46.000Z</time>
      </trkpt>
      <trkpt lat="45.23067" lon="6.02886">
        <ele>2079</ele>
        <time>2014-01-12T12:37:47.000Z</time>
      </trkpt>
      <trkpt lat="45.23065" lon="6.02882">
        <ele>2078</ele>
        <time>2014-01-12T12:37:48.000Z</time>
      </trkpt>
      <trkpt lat="45.23063" lon="6.0288">
        <ele>2078</ele>
        <time>2014-01-12T12:37:49.000Z</time>
      </trkpt>
      <trkpt lat="45.23061" lon="6.0288">
        <ele>2077</ele>
        <time>2014-01-12T12:37:50.000Z</time>
      </trkpt>
      <trkpt lat="45.23055" lon="6.02874">
        <ele>2076</ele>
        <time>2014-01-12T12:37:53.000Z</time>
      </trkpt>
      <trkpt lat="45.2305" lon="6.02874">
        <ele>2075</ele>
        <time>2014-01-12T12:37:56.000Z</time>
      </trkpt>
      <trkpt lat="45.23049" lon="6.02873">
        <ele>2075</ele>
        <time>2014-01-12T12:38:03.000Z</time>
      </trkpt>
      <trkpt lat="45.23049" lon="6.02873">
        <ele>2075</ele>
        <time>2014-01-12T12:38:37.000Z</time>
      </trkpt>
      <trkpt lat="45.23041" lon="6.0288">
        <ele>2074</ele>
        <time>2014-01-12T12:38:40.000Z</time>
      </trkpt>
      <trkpt lat="45.23033" lon="6.0288">
        <ele>2073</ele>
        <time>2014-01-12T12:38:42.000Z</time>
      </trkpt>
      <trkpt lat="45.23027" lon="6.02876">
        <ele>2072</ele>
        <time>2014-01-12T12:38:43.000Z</time>
      </trkpt>
      <trkpt lat="45.23011" lon="6.02873">
        <ele>2069</ele>
        <time>2014-01-12T12:38:46.000Z</time>
      </trkpt>
      <trkpt lat="45.23006" lon="6.0287">
        <ele>2068</ele>
        <time>2014-01-12T12:38:47.000Z</time>
      </trkpt>
      <trkpt lat="45.23001" lon="6.02868">
        <ele>2068</ele>
        <time>2014-01-12T12:38:48.000Z</time>
      </trkpt>
      <trkpt lat="45.22997" lon="6.02866">
        <ele>2046</ele>
        <time>2014-01-12T12:38:49.000Z</time>
      </trkpt>
      <trkpt lat="45.22993" lon="6.02864">
        <ele>2046</ele>
        <time>2014-01-12T12:38:50.000Z</time>
      </trkpt>
      <trkpt lat="45.22988" lon="6.02862">
        <ele>2045</ele>
        <time>2014-01-12T12:38:51.000Z</time>
      </trkpt>
      <trkpt lat="45.22983" lon="6.0286">
        <ele>2045</ele>
        <time>2014-01-12T12:38:52.000Z</time>
      </trkpt>
      <trkpt lat="45.22979" lon="6.02858">
        <ele>2044</ele>
        <time>2014-01-12T12:38:53.000Z</time>
      </trkpt>
      <trkpt lat="45.22977" lon="6.02846">
        <ele>2044</ele>
        <time>2014-01-12T12:38:55.000Z</time>
      </trkpt>
      <trkpt lat="45.22975" lon="6.02835">
        <ele>2044</ele>
        <time>2014-01-12T12:38:58.000Z</time>
      </trkpt>
      <trkpt lat="45.22971" lon="6.02831">
        <ele>2032</ele>
        <time>2014-01-12T12:38:59.000Z</time>
      </trkpt>
      <trkpt lat="45.22968" lon="6.02818">
        <ele>2030</ele>
        <time>2014-01-12T12:39:01.000Z</time>
      </trkpt>
      <trkpt lat="45.22965" lon="6.02813">
        <ele>2028</ele>
        <time>2014-01-12T12:39:02.000Z</time>
      </trkpt>
      <trkpt lat="45.22962" lon="6.02807">
        <ele>2026</ele>
        <time>2014-01-12T12:39:03.000Z</time>
      </trkpt>
      <trkpt lat="45.22958" lon="6.02805">
        <ele>2024</ele>
        <time>2014-01-12T12:39:04.000Z</time>
      </trkpt>
      <trkpt lat="45.22953" lon="6.02808">
        <ele>2023</ele>
        <time>2014-01-12T12:39:05.000Z</time>
      </trkpt>
      <trkpt lat="45.22949" lon="6.02806">
        <ele>2022</ele>
        <time>2014-01-12T12:39:06.000Z</time>
      </trkpt>
      <trkpt lat="45.22945" lon="6.02803">
        <ele>2021</ele>
        <time>2014-01-12T12:39:07.000Z</time>
      </trkpt>
      <trkpt lat="45.22936" lon="6.02801">
        <ele>2019</ele>
        <time>2014-01-12T12:39:09.000Z</time>
      </trkpt>
      <trkpt lat="45.22932" lon="6.028">
        <ele>2018</ele>
        <time>2014-01-12T12:39:10.000Z</time>
      </trkpt>
      <trkpt lat="45.22928" lon="6.02802">
        <ele>2018</ele>
        <time>2014-01-12T12:39:11.000Z</time>
      </trkpt>
      <trkpt lat="45.22924" lon="6.02802">
        <ele>2017</ele>
        <time>2014-01-12T12:39:12.000Z</time>
      </trkpt>
      <trkpt lat="45.22916" lon="6.02801">
        <ele>1993</ele>
        <time>2014-01-12T12:39:14.000Z</time>
      </trkpt>
      <trkpt lat="45.22913" lon="6.02802">
        <ele>1993</ele>
        <time>2014-01-12T12:39:16.000Z</time>
      </trkpt>
      <trkpt lat="45.22912" lon="6.02798">
        <ele>1992</ele>
        <time>2014-01-12T12:39:18.000Z</time>
      </trkpt>
      <trkpt lat="45.22908" lon="6.02797">
        <ele>1991</ele>
        <time>2014-01-12T12:39:19.000Z</time>
      </trkpt>
      <trkpt lat="45.22905" lon="6.02801">
        <ele>1992</ele>
        <time>2014-01-12T12:39:20.000Z</time>
      </trkpt>
      <trkpt lat="45.22899" lon="6.02812">
        <ele>1993</ele>
        <time>2014-01-12T12:39:22.000Z</time>
      </trkpt>
      <trkpt lat="45.22898" lon="6.02819">
        <ele>1995</ele>
        <time>2014-01-12T12:39:24.000Z</time>
      </trkpt>
      <trkpt lat="45.22897" lon="6.02819">
        <ele>1995</ele>
        <time>2014-01-12T12:39:28.000Z</time>
      </trkpt>
      <trkpt lat="45.22891" lon="6.02819">
        <ele>1992</ele>
        <time>2014-01-12T12:39:31.000Z</time>
      </trkpt>
      <trkpt lat="45.22889" lon="6.02813">
        <ele>1991</ele>
        <time>2014-01-12T12:39:32.000Z</time>
      </trkpt>
      <trkpt lat="45.22889" lon="6.02806">
        <ele>1989</ele>
        <time>2014-01-12T12:39:33.000Z</time>
      </trkpt>
      <trkpt lat="45.22887" lon="6.02798">
        <ele>1987</ele>
        <time>2014-01-12T12:39:34.000Z</time>
      </trkpt>
      <trkpt lat="45.22884" lon="6.02794">
        <ele>1986</ele>
        <time>2014-01-12T12:39:35.000Z</time>
      </trkpt>
      <trkpt lat="45.22881" lon="6.02791">
        <ele>1985</ele>
        <time>2014-01-12T12:39:36.000Z</time>
      </trkpt>
      <trkpt lat="45.22878" lon="6.02787">
        <ele>1984</ele>
        <time>2014-01-12T12:39:37.000Z</time>
      </trkpt>
      <trkpt lat="45.22873" lon="6.02785">
        <ele>1982</ele>
        <time>2014-01-12T12:39:38.000Z</time>
      </trkpt>
      <trkpt lat="45.22868" lon="6.0278">
        <ele>1980</ele>
        <time>2014-01-12T12:39:39.000Z</time>
      </trkpt>
      <trkpt lat="45.22866" lon="6.02774">
        <ele>1979</ele>
        <time>2014-01-12T12:39:40.000Z</time>
      </trkpt>
      <trkpt lat="45.22863" lon="6.02769">
        <ele>1977</ele>
        <time>2014-01-12T12:39:41.000Z</time>
      </trkpt>
      <trkpt lat="45.22858" lon="6.02771">
        <ele>1976</ele>
        <time>2014-01-12T12:39:42.000Z</time>
      </trkpt>
      <trkpt lat="45.22855" lon="6.02777">
        <ele>1976</ele>
        <time>2014-01-12T12:39:43.000Z</time>
      </trkpt>
      <trkpt lat="45.22851" lon="6.02782">
        <ele>1977</ele>
        <time>2014-01-12T12:39:44.000Z</time>
      </trkpt>
      <trkpt lat="45.22846" lon="6.02788">
        <ele>1977</ele>
        <time>2014-01-12T12:39:45.000Z</time>
      </trkpt>
      <trkpt lat="45.22841" lon="6.02794">
        <ele>1977</ele>
        <time>2014-01-12T12:39:46.000Z</time>
      </trkpt>
      <trkpt lat="45.22835" lon="6.02799">
        <ele>1977</ele>
        <time>2014-01-12T12:39:47.000Z</time>
      </trkpt>
      <trkpt lat="45.22829" lon="6.028">
        <ele>1953</ele>
        <time>2014-01-12T12:39:48.000Z</time>
      </trkpt>
      <trkpt lat="45.22823" lon="6.02794">
        <ele>1951</ele>
        <time>2014-01-12T12:39:49.000Z</time>
      </trkpt>
      <trkpt lat="45.22819" lon="6.02789">
        <ele>1950</ele>
        <time>2014-01-12T12:39:50.000Z</time>
      </trkpt>
      <trkpt lat="45.2281" lon="6.02783">
        <ele>1947</ele>
        <time>2014-01-12T12:39:52.000Z</time>
      </trkpt>
      <trkpt lat="45.22804" lon="6.02784">
        <ele>1946</ele>
        <time>2014-01-12T12:39:53.000Z</time>
      </trkpt>
      <trkpt lat="45.22792" lon="6.02794">
        <ele>1945</ele>
        <time>2014-01-12T12:39:55.000Z</time>
      </trkpt>
      <trkpt lat="45.22787" lon="6.028">
        <ele>1945</ele>
        <time>2014-01-12T12:39:56.000Z</time>
      </trkpt>
      <trkpt lat="45.22776" lon="6.02812">
        <ele>1944</ele>
        <time>2014-01-12T12:39:59.000Z</time>
      </trkpt>
      <trkpt lat="45.22774" lon="6.02816">
        <ele>1944</ele>
        <time>2014-01-12T12:40:03.000Z</time>
      </trkpt>
      <trkpt lat="45.22773" lon="6.02818">
        <ele>1943</ele>
        <time>2014-01-12T12:40:15.000Z</time>
      </trkpt>
      <trkpt lat="45.22773" lon="6.02818">
        <ele>1943</ele>
        <time>2014-01-12T12:40:30.000Z</time>
      </trkpt>
      <trkpt lat="45.22773" lon="6.0282">
        <ele>1944</ele>
        <time>2014-01-12T12:40:37.000Z</time>
      </trkpt>
      <trkpt lat="45.22772" lon="6.0282">
        <ele>1943</ele>
        <time>2014-01-12T12:41:07.000Z</time>
      </trkpt>
      <trkpt lat="45.22771" lon="6.02814">
        <ele>1943</ele>
        <time>2014-01-12T12:41:10.000Z</time>
      </trkpt>
      <trkpt lat="45.22775" lon="6.02807">
        <ele>1943</ele>
        <time>2014-01-12T12:41:12.000Z</time>
      </trkpt>
      <trkpt lat="45.22782" lon="6.02798">
        <ele>1943</ele>
        <time>2014-01-12T12:41:17.000Z</time>
      </trkpt>
      <trkpt lat="45.22782" lon="6.02798">
        <ele>1943</ele>
        <time>2014-01-12T12:41:33.000Z</time>
      </trkpt>
      <trkpt lat="45.22774" lon="6.0279">
        <ele>1940</ele>
        <time>2014-01-12T12:41:37.000Z</time>
      </trkpt>
      <trkpt lat="45.22773" lon="6.02778">
        <ele>1937</ele>
        <time>2014-01-12T12:41:39.000Z</time>
      </trkpt>
      <trkpt lat="45.22765" lon="6.02769">
        <ele>1932</ele>
        <time>2014-01-12T12:41:41.000Z</time>
      </trkpt>
      <trkpt lat="45.22762" lon="6.02755">
        <ele>1924</ele>
        <time>2014-01-12T12:41:43.000Z</time>
      </trkpt>
      <trkpt lat="45.22755" lon="6.02745">
        <ele>1914</ele>
        <time>2014-01-12T12:41:45.000Z</time>
      </trkpt>
      <trkpt lat="45.22754" lon="6.02728">
        <ele>1917</ele>
        <time>2014-01-12T12:41:47.000Z</time>
      </trkpt>
      <trkpt lat="45.22757" lon="6.02694">
        <ele>1914</ele>
        <time>2014-01-12T12:41:51.000Z</time>
      </trkpt>
      <trkpt lat="45.22757" lon="6.0269">
        <ele>1913</ele>
        <time>2014-01-12T12:41:52.000Z</time>
      </trkpt>
      <trkpt lat="45.22744" lon="6.02689">
        <ele>1898</ele>
        <time>2014-01-12T12:41:56.000Z</time>
      </trkpt>
      <trkpt lat="45.22747" lon="6.02677">
        <ele>1898</ele>
        <time>2014-01-12T12:41:59.000Z</time>
      </trkpt>
      <trkpt lat="45.22743" lon="6.02654">
        <ele>1894</ele>
        <time>2014-01-12T12:42:02.000Z</time>
      </trkpt>
      <trkpt lat="45.22729" lon="6.02639">
        <ele>1892</ele>
        <time>2014-01-12T12:42:05.000Z</time>
      </trkpt>
      <trkpt lat="45.22726" lon="6.02634">
        <ele>1891</ele>
        <time>2014-01-12T12:42:06.000Z</time>
      </trkpt>
      <trkpt lat="45.22718" lon="6.02625">
        <ele>1890</ele>
        <time>2014-01-12T12:42:08.000Z</time>
      </trkpt>
      <trkpt lat="45.2271" lon="6.02616">
        <ele>1889</ele>
        <time>2014-01-12T12:42:10.000Z</time>
      </trkpt>
      <trkpt lat="45.22699" lon="6.02601">
        <ele>1888</ele>
        <time>2014-01-12T12:42:13.000Z</time>
      </trkpt>
      <trkpt lat="45.22693" lon="6.02587">
        <ele>1886</ele>
        <time>2014-01-12T12:42:15.000Z</time>
      </trkpt>
      <trkpt lat="45.2269" lon="6.02583">
        <ele>1887</ele>
        <time>2014-01-12T12:42:16.000Z</time>
      </trkpt>
      <trkpt lat="45.22683" lon="6.02576">
        <ele>1886</ele>
        <time>2014-01-12T12:42:18.000Z</time>
      </trkpt>
      <trkpt lat="45.22672" lon="6.02561">
        <ele>1886</ele>
        <time>2014-01-12T12:42:21.000Z</time>
      </trkpt>
      <trkpt lat="45.22668" lon="6.02555">
        <ele>1886</ele>
        <time>2014-01-12T12:42:22.000Z</time>
      </trkpt>
      <trkpt lat="45.22662" lon="6.02545">
        <ele>1873</ele>
        <time>2014-01-12T12:42:24.000Z</time>
      </trkpt>
      <trkpt lat="45.22654" lon="6.02544">
        <ele>1873</ele>
        <time>2014-01-12T12:42:26.000Z</time>
      </trkpt>
      <trkpt lat="45.22639" lon="6.02558">
        <ele>1872</ele>
        <time>2014-01-12T12:42:29.000Z</time>
      </trkpt>
      <trkpt lat="45.22634" lon="6.02559">
        <ele>1871</ele>
        <time>2014-01-12T12:42:30.000Z</time>
      </trkpt>
      <trkpt lat="45.22631" lon="6.02559">
        <ele>1871</ele>
        <time>2014-01-12T12:42:31.000Z</time>
      </trkpt>
      <trkpt lat="45.22628" lon="6.02562">
        <ele>1870</ele>
        <time>2014-01-12T12:42:32.000Z</time>
      </trkpt>
      <trkpt lat="45.22624" lon="6.02564">
        <ele>1870</ele>
        <time>2014-01-12T12:42:33.000Z</time>
      </trkpt>
      <trkpt lat="45.2262" lon="6.02563">
        <ele>1870</ele>
        <time>2014-01-12T12:42:34.000Z</time>
      </trkpt>
      <trkpt lat="45.22615" lon="6.02562">
        <ele>1869</ele>
        <time>2014-01-12T12:42:35.000Z</time>
      </trkpt>
      <trkpt lat="45.22612" lon="6.02563">
        <ele>1869</ele>
        <time>2014-01-12T12:42:36.000Z</time>
      </trkpt>
      <trkpt lat="45.22608" lon="6.02563">
        <ele>1868</ele>
        <time>2014-01-12T12:42:37.000Z</time>
      </trkpt>
      <trkpt lat="45.22605" lon="6.02561">
        <ele>1868</ele>
        <time>2014-01-12T12:42:38.000Z</time>
      </trkpt>
      <trkpt lat="45.22602" lon="6.02562">
        <ele>1868</ele>
        <time>2014-01-12T12:42:39.000Z</time>
      </trkpt>
      <trkpt lat="45.226" lon="6.02561">
        <ele>1867</ele>
        <time>2014-01-12T12:42:40.000Z</time>
      </trkpt>
      <trkpt lat="45.22596" lon="6.0256">
        <ele>1867</ele>
        <time>2014-01-12T12:42:41.000Z</time>
      </trkpt>
      <trkpt lat="45.22591" lon="6.0256">
        <ele>1867</ele>
        <time>2014-01-12T12:42:42.000Z</time>
      </trkpt>
      <trkpt lat="45.22585" lon="6.02566">
        <ele>1866</ele>
        <time>2014-01-12T12:42:45.000Z</time>
      </trkpt>
      <trkpt lat="45.22583" lon="6.02568">
        <ele>1859</ele>
        <time>2014-01-12T12:42:51.000Z</time>
      </trkpt>
      <trkpt lat="45.22582" lon="6.02569">
        <ele>1859</ele>
        <time>2014-01-12T12:43:03.000Z</time>
      </trkpt>
      <trkpt lat="45.22577" lon="6.02575">
        <ele>1860</ele>
        <time>2014-01-12T12:43:13.000Z</time>
      </trkpt>
      <trkpt lat="45.22565" lon="6.02581">
        <ele>1858</ele>
        <time>2014-01-12T12:43:20.000Z</time>
      </trkpt>
      <trkpt lat="45.22559" lon="6.02584">
        <ele>1864</ele>
        <time>2014-01-12T12:43:24.000Z</time>
      </trkpt>
      <trkpt lat="45.22554" lon="6.02587">
        <ele>1864</ele>
        <time>2014-01-12T12:43:31.000Z</time>
      </trkpt>
      <trkpt lat="45.22553" lon="6.02589">
        <ele>1864</ele>
        <time>2014-01-12T12:43:37.000Z</time>
      </trkpt>
      <trkpt lat="45.22552" lon="6.02591">
        <ele>1864</ele>
        <time>2014-01-12T12:43:42.000Z</time>
      </trkpt>
      <trkpt lat="45.22551" lon="6.02592">
        <ele>1864</ele>
        <time>2014-01-12T12:43:50.000Z</time>
      </trkpt>
      <trkpt lat="45.22551" lon="6.02594">
        <ele>1864</ele>
        <time>2014-01-12T12:43:54.000Z</time>
      </trkpt>
      <trkpt lat="45.22551" lon="6.02596">
        <ele>1864</ele>
        <time>2014-01-12T12:44:00.000Z</time>
      </trkpt>
      <trkpt lat="45.22549" lon="6.026">
        <ele>1864</ele>
        <time>2014-01-12T12:44:06.000Z</time>
      </trkpt>
      <trkpt lat="45.22545" lon="6.02603">
        <ele>1864</ele>
        <time>2014-01-12T12:44:13.000Z</time>
      </trkpt>
      <trkpt lat="45.22543" lon="6.02604">
        <ele>1864</ele>
        <time>2014-01-12T12:44:15.000Z</time>
      </trkpt>
      <trkpt lat="45.22539" lon="6.02608">
        <ele>1864</ele>
        <time>2014-01-12T12:44:22.000Z</time>
      </trkpt>
      <trkpt lat="45.2253" lon="6.02618">
        <ele>1864</ele>
        <time>2014-01-12T12:44:28.000Z</time>
      </trkpt>
      <trkpt lat="45.22528" lon="6.02621">
        <ele>1864</ele>
        <time>2014-01-12T12:44:33.000Z</time>
      </trkpt>
      <trkpt lat="45.22527" lon="6.02622">
        <ele>1864</ele>
        <time>2014-01-12T12:44:45.000Z</time>
      </trkpt>
      <trkpt lat="45.22525" lon="6.02625">
        <ele>1865</ele>
        <time>2014-01-12T12:44:50.000Z</time>
      </trkpt>
      <trkpt lat="45.22523" lon="6.02629">
        <ele>1865</ele>
        <time>2014-01-12T12:44:56.000Z</time>
      </trkpt>
      <trkpt lat="45.22523" lon="6.02629">
        <ele>1865</ele>
        <time>2014-01-12T12:45:12.000Z</time>
      </trkpt>
      <trkpt lat="45.22523" lon="6.02629">
        <ele>1865</ele>
        <time>2014-01-12T12:45:25.000Z</time>
      </trkpt>
      <trkpt lat="45.22523" lon="6.02628">
        <ele>1865</ele>
        <time>2014-01-12T12:45:38.000Z</time>
      </trkpt>
      <trkpt lat="45.22523" lon="6.02627">
        <ele>1865</ele>
        <time>2014-01-12T12:46:11.000Z</time>
      </trkpt>
      <trkpt lat="45.22523" lon="6.02627">
        <ele>1865</ele>
        <time>2014-01-12T12:46:14.000Z</time>
      </trkpt>
      <trkpt lat="45.22523" lon="6.02627">
        <ele>1865</ele>
        <time>2014-01-12T12:46:15.000Z</time>
      </trkpt>
      <trkpt lat="45.22523" lon="6.02627">
        <ele>1865</ele>
        <time>2014-01-12T12:46:17.000Z</time>
      </trkpt>
      <trkpt lat="45.22523" lon="6.02627">
        <ele>1865</ele>
        <time>2014-01-12T12:46:32.000Z</time>
      </trkpt>
      <trkpt lat="45.22523" lon="6.02627">
        <ele>1865</ele>
        <time>2014-01-12T12:46:33.000Z</time>
      </trkpt>
      <trkpt lat="45.22523" lon="6.02627">
        <ele>1865</ele>
        <time>2014-01-12T12:46:35.000Z</time>
      </trkpt>
      <trkpt lat="45.22523" lon="6.02627">
        <ele>1865</ele>
        <time>2014-01-12T12:46:37.000Z</time>
      </trkpt>
      <trkpt lat="45.22523" lon="6.02627">
        <ele>1865</ele>
        <time>2014-01-12T12:46:38.000Z</time>
      </trkpt>
      <trkpt lat="45.22523" lon="6.02627">
        <ele>1865</ele>
        <time>2014-01-12T12:46:41.000Z</time>
      </trkpt>
      <trkpt lat="45.22523" lon="6.02627">
        <ele>1865</ele>
        <time>2014-01-12T12:46:50.000Z</time>
      </trkpt>
      <trkpt lat="45.22523" lon="6.02627">
        <ele>1865</ele>
        <time>2014-01-12T12:46:51.000Z</time>
      </trkpt>
      <trkpt lat="45.22523" lon="6.02627">
        <ele>1865</ele>
        <time>2014-01-12T12:46:58.000Z</time>
      </trkpt>
      <trkpt lat="45.22523" lon="6.02627">
        <ele>1865</ele>
        <time>2014-01-12T12:46:59.000Z</time>
      </trkpt>
      <trkpt lat="45.22523" lon="6.02627">
        <ele>1865</ele>
        <time>2014-01-12T12:47:01.000Z</time>
      </trkpt>
      <trkpt lat="45.22523" lon="6.02627">
        <ele>1865</ele>
        <time>2014-01-12T12:47:04.000Z</time>
      </trkpt>
      <trkpt lat="45.22523" lon="6.02627">
        <ele>1865</ele>
        <time>2014-01-12T12:47:07.000Z</time>
      </trkpt>
      <trkpt lat="45.22523" lon="6.02627">
        <ele>1865</ele>
        <time>2014-01-12T12:47:11.000Z</time>
      </trkpt>
      <trkpt lat="45.22523" lon="6.02627">
        <ele>1865</ele>
        <time>2014-01-12T12:47:14.000Z</time>
      </trkpt>
      <trkpt lat="45.22523" lon="6.02627">
        <ele>1865</ele>
        <time>2014-01-12T12:47:15.000Z</time>
      </trkpt>
      <trkpt lat="45.22523" lon="6.02627">
        <ele>1865</ele>
        <time>2014-01-12T12:47:17.000Z</time>
      </trkpt>
      <trkpt lat="45.22523" lon="6.02627">
        <ele>1865</ele>
        <time>2014-01-12T12:47:18.000Z</time>
      </trkpt>
      <trkpt lat="45.22523" lon="6.02627">
        <ele>1865</ele>
        <time>2014-01-12T12:47:21.000Z</time>
      </trkpt>
      <trkpt lat="45.22523" lon="6.02627">
        <ele>1865</ele>
        <time>2014-01-12T12:47:22.000Z</time>
      </trkpt>
      <trkpt lat="45.22523" lon="6.02627">
        <ele>1865</ele>
        <time>2014-01-12T12:47:31.000Z</time>
      </trkpt>
      <trkpt lat="45.22523" lon="6.02627">
        <ele>1865</ele>
        <time>2014-01-12T12:47:41.000Z</time>
      </trkpt>
      <trkpt lat="45.22523" lon="6.02627">
        <ele>1865</ele>
        <time>2014-01-12T12:47:42.000Z</time>
      </trkpt>
      <trkpt lat="45.22523" lon="6.02627">
        <ele>1865</ele>
        <time>2014-01-12T12:47:44.000Z</time>
      </trkpt>
      <trkpt lat="45.22523" lon="6.02627">
        <ele>1865</ele>
        <time>2014-01-12T12:47:45.000Z</time>
      </trkpt>
      <trkpt lat="45.22523" lon="6.02629">
        <ele>1865</ele>
        <time>2014-01-12T12:48:03.000Z</time>
      </trkpt>
      <trkpt lat="45.22522" lon="6.02629">
        <ele>1865</ele>
        <time>2014-01-12T12:48:05.000Z</time>
      </trkpt>
      <trkpt lat="45.22522" lon="6.02629">
        <ele>1865</ele>
        <time>2014-01-12T12:48:10.000Z</time>
      </trkpt>
      <trkpt lat="45.22522" lon="6.02629">
        <ele>1865</ele>
        <time>2014-01-12T12:48:12.000Z</time>
      </trkpt>
      <trkpt lat="45.22522" lon="6.02629">
        <ele>1865</ele>
        <time>2014-01-12T12:48:13.000Z</time>
      </trkpt>
      <trkpt lat="45.22522" lon="6.02629">
        <ele>1865</ele>
        <time>2014-01-12T12:48:15.000Z</time>
      </trkpt>
      <trkpt lat="45.22522" lon="6.02629">
        <ele>1865</ele>
        <time>2014-01-12T12:48:33.000Z</time>
      </trkpt>
      <trkpt lat="45.22522" lon="6.02631">
        <ele>1865</ele>
        <time>2014-01-12T12:54:10.000Z</time>
      </trkpt>
      <trkpt lat="45.22522" lon="6.02631">
        <ele>1865</ele>
        <time>2014-01-12T12:54:11.000Z</time>
      </trkpt>
      <trkpt lat="45.22522" lon="6.02631">
        <ele>1865</ele>
        <time>2014-01-12T12:54:12.000Z</time>
      </trkpt>
      <trkpt lat="45.22522" lon="6.02631">
        <ele>1865</ele>
        <time>2014-01-12T12:54:39.000Z</time>
      </trkpt>
      <trkpt lat="45.22522" lon="6.02631">
        <ele>1865</ele>
        <time>2014-01-12T12:54:41.000Z</time>
      </trkpt>
      <trkpt lat="45.22522" lon="6.02631">
        <ele>1865</ele>
        <time>2014-01-12T12:54:50.000Z</time>
      </trkpt>
      <trkpt lat="45.22522" lon="6.02631">
        <ele>1865</ele>
        <time>2014-01-12T12:54:51.000Z</time>
      </trkpt>
      <trkpt lat="45.22522" lon="6.02631">
        <ele>1865</ele>
        <time>2014-01-12T12:54:53.000Z</time>
      </trkpt>
      <trkpt lat="45.22523" lon="6.02631">
        <ele>1865</ele>
        <time>2014-01-12T12:55:07.000Z</time>
      </trkpt>
      <trkpt lat="45.22523" lon="6.0263">
        <ele>1865</ele>
        <time>2014-01-12T12:55:18.000Z</time>
      </trkpt>
      <trkpt lat="45.22521" lon="6.02629">
        <ele>1865</ele>
        <time>2014-01-12T12:55:29.000Z</time>
      </trkpt>
      <trkpt lat="45.2252" lon="6.0263">
        <ele>1865</ele>
        <time>2014-01-12T12:55:44.000Z</time>
      </trkpt>
      <trkpt lat="45.22524" lon="6.02633">
        <ele>1865</ele>
        <time>2014-01-12T12:56:03.000Z</time>
      </trkpt>
      <trkpt lat="45.22527" lon="6.02638">
        <ele>1866</ele>
        <time>2014-01-12T12:56:10.000Z</time>
      </trkpt>
      <trkpt lat="45.22533" lon="6.02642">
        <ele>1867</ele>
        <time>2014-01-12T12:56:19.000Z</time>
      </trkpt>
      <trkpt lat="45.22535" lon="6.02648">
        <ele>1867</ele>
        <time>2014-01-12T12:56:27.000Z</time>
      </trkpt>
      <trkpt lat="45.22541" lon="6.02656">
        <ele>1868</ele>
        <time>2014-01-12T12:56:37.000Z</time>
      </trkpt>
      <trkpt lat="45.22544" lon="6.02661">
        <ele>1868</ele>
        <time>2014-01-12T12:56:43.000Z</time>
      </trkpt>
      <trkpt lat="45.22545" lon="6.02669">
        <ele>1882</ele>
        <time>2014-01-12T12:56:51.000Z</time>
      </trkpt>
      <trkpt lat="45.22546" lon="6.02672">
        <ele>1882</ele>
        <time>2014-01-12T12:56:55.000Z</time>
      </trkpt>
      <trkpt lat="45.22551" lon="6.0268">
        <ele>1883</ele>
        <time>2014-01-12T12:57:04.000Z</time>
      </trkpt>
      <trkpt lat="45.22553" lon="6.02687">
        <ele>1884</ele>
        <time>2014-01-12T12:57:13.000Z</time>
      </trkpt>
      <trkpt lat="45.22553" lon="6.02688">
        <ele>1884</ele>
        <time>2014-01-12T12:57:22.000Z</time>
      </trkpt>
      <trkpt lat="45.22554" lon="6.02691">
        <ele>1885</ele>
        <time>2014-01-12T12:57:29.000Z</time>
      </trkpt>
      <trkpt lat="45.22554" lon="6.02697">
        <ele>1886</ele>
        <time>2014-01-12T12:57:36.000Z</time>
      </trkpt>
      <trkpt lat="45.22554" lon="6.02701">
        <ele>1886</ele>
        <time>2014-01-12T12:57:43.000Z</time>
      </trkpt>
      <trkpt lat="45.22551" lon="6.02706">
        <ele>1887</ele>
        <time>2014-01-12T12:57:51.000Z</time>
      </trkpt>
      <trkpt lat="45.22549" lon="6.02708">
        <ele>1887</ele>
        <time>2014-01-12T12:57:58.000Z</time>
      </trkpt>
      <trkpt lat="45.22546" lon="6.0271">
        <ele>1888</ele>
        <time>2014-01-12T12:58:14.000Z</time>
      </trkpt>
      <trkpt lat="45.22544" lon="6.02714">
        <ele>1888</ele>
        <time>2014-01-12T12:58:20.000Z</time>
      </trkpt>
      <trkpt lat="45.22543" lon="6.02716">
        <ele>1889</ele>
        <time>2014-01-12T12:58:27.000Z</time>
      </trkpt>
      <trkpt lat="45.22544" lon="6.02718">
        <ele>1889</ele>
        <time>2014-01-12T12:58:30.000Z</time>
      </trkpt>
      <trkpt lat="45.22545" lon="6.02719">
        <ele>1889</ele>
        <time>2014-01-12T12:58:39.000Z</time>
      </trkpt>
      <trkpt lat="45.22547" lon="6.02722">
        <ele>1890</ele>
        <time>2014-01-12T12:59:05.000Z</time>
      </trkpt>
      <trkpt lat="45.22548" lon="6.02726">
        <ele>1890</ele>
        <time>2014-01-12T12:59:14.000Z</time>
      </trkpt>
      <trkpt lat="45.2255" lon="6.02732">
        <ele>1891</ele>
        <time>2014-01-12T12:59:21.000Z</time>
      </trkpt>
      <trkpt lat="45.2255" lon="6.02733">
        <ele>1891</ele>
        <time>2014-01-12T12:59:22.000Z</time>
      </trkpt>
      <trkpt lat="45.22552" lon="6.02739">
        <ele>1892</ele>
        <time>2014-01-12T12:59:30.000Z</time>
      </trkpt>
      <trkpt lat="45.22557" lon="6.02742">
        <ele>1893</ele>
        <time>2014-01-12T12:59:39.000Z</time>
      </trkpt>
      <trkpt lat="45.22559" lon="6.02744">
        <ele>1893</ele>
        <time>2014-01-12T12:59:46.000Z</time>
      </trkpt>
      <trkpt lat="45.22561" lon="6.02746">
        <ele>1894</ele>
        <time>2014-01-12T12:59:51.000Z</time>
      </trkpt>
      <trkpt lat="45.22557" lon="6.02748">
        <ele>1893</ele>
        <time>2014-01-12T12:59:59.000Z</time>
      </trkpt>
      <trkpt lat="45.22554" lon="6.0275">
        <ele>1912</ele>
        <time>2014-01-12T13:00:06.000Z</time>
      </trkpt>
      <trkpt lat="45.22551" lon="6.02752">
        <ele>1913</ele>
        <time>2014-01-12T13:00:13.000Z</time>
      </trkpt>
      <trkpt lat="45.22549" lon="6.02755">
        <ele>1913</ele>
        <time>2014-01-12T13:00:19.000Z</time>
      </trkpt>
      <trkpt lat="45.22545" lon="6.02758">
        <ele>1914</ele>
        <time>2014-01-12T13:00:27.000Z</time>
      </trkpt>
      <trkpt lat="45.22544" lon="6.0276">
        <ele>1914</ele>
        <time>2014-01-12T13:00:31.000Z</time>
      </trkpt>
      <trkpt lat="45.22541" lon="6.02762">
        <ele>1915</ele>
        <time>2014-01-12T13:00:37.000Z</time>
      </trkpt>
      <trkpt lat="45.22538" lon="6.02766">
        <ele>1915</ele>
        <time>2014-01-12T13:00:44.000Z</time>
      </trkpt>
      <trkpt lat="45.22538" lon="6.02767">
        <ele>1915</ele>
        <time>2014-01-12T13:00:45.000Z</time>
      </trkpt>
      <trkpt lat="45.22532" lon="6.0277">
        <ele>1916</ele>
        <time>2014-01-12T13:00:53.000Z</time>
      </trkpt>
      <trkpt lat="45.2253" lon="6.02772">
        <ele>1916</ele>
        <time>2014-01-12T13:00:59.000Z</time>
      </trkpt>
      <trkpt lat="45.22525" lon="6.02773">
        <ele>1916</ele>
        <time>2014-01-12T13:01:06.000Z</time>
      </trkpt>
      <trkpt lat="45.22527" lon="6.02776">
        <ele>1917</ele>
        <time>2014-01-12T13:01:13.000Z</time>
      </trkpt>
      <trkpt lat="45.22527" lon="6.02779">
        <ele>1918</ele>
        <time>2014-01-12T13:01:17.000Z</time>
      </trkpt>
      <trkpt lat="45.2253" lon="6.02784">
        <ele>1919</ele>
        <time>2014-01-12T13:01:25.000Z</time>
      </trkpt>
      <trkpt lat="45.22534" lon="6.02785">
        <ele>1919</ele>
        <time>2014-01-12T13:01:32.000Z</time>
      </trkpt>
      <trkpt lat="45.22537" lon="6.02788">
        <ele>1920</ele>
        <time>2014-01-12T13:01:39.000Z</time>
      </trkpt>
      <trkpt lat="45.22535" lon="6.02789">
        <ele>1920</ele>
        <time>2014-01-12T13:01:47.000Z</time>
      </trkpt>
      <trkpt lat="45.22532" lon="6.0279">
        <ele>1920</ele>
        <time>2014-01-12T13:01:54.000Z</time>
      </trkpt>
      <trkpt lat="45.22527" lon="6.02793">
        <ele>1921</ele>
        <time>2014-01-12T13:02:00.000Z</time>
      </trkpt>
      <trkpt lat="45.22527" lon="6.02794">
        <ele>1921</ele>
        <time>2014-01-12T13:02:06.000Z</time>
      </trkpt>
      <trkpt lat="45.22523" lon="6.02794">
        <ele>1922</ele>
        <time>2014-01-12T13:02:14.000Z</time>
      </trkpt>
      <trkpt lat="45.22517" lon="6.02796">
        <ele>1922</ele>
        <time>2014-01-12T13:02:21.000Z</time>
      </trkpt>
      <trkpt lat="45.22516" lon="6.02796">
        <ele>1923</ele>
        <time>2014-01-12T13:02:22.000Z</time>
      </trkpt>
      <trkpt lat="45.22507" lon="6.028">
        <ele>1924</ele>
        <time>2014-01-12T13:02:29.000Z</time>
      </trkpt>
      <trkpt lat="45.22502" lon="6.028">
        <ele>1924</ele>
        <time>2014-01-12T13:02:35.000Z</time>
      </trkpt>
      <trkpt lat="45.22496" lon="6.028">
        <ele>1929</ele>
        <time>2014-01-12T13:02:43.000Z</time>
      </trkpt>
      <trkpt lat="45.22492" lon="6.02799">
        <ele>1928</ele>
        <time>2014-01-12T13:02:50.000Z</time>
      </trkpt>
      <trkpt lat="45.22486" lon="6.02798">
        <ele>1928</ele>
        <time>2014-01-12T13:03:00.000Z</time>
      </trkpt>
      <trkpt lat="45.2248" lon="6.02799">
        <ele>1928</ele>
        <time>2014-01-12T13:03:08.000Z</time>
      </trkpt>
      <trkpt lat="45.22476" lon="6.02798">
        <ele>1928</ele>
        <time>2014-01-12T13:03:15.000Z</time>
      </trkpt>
      <trkpt lat="45.22471" lon="6.02797">
        <ele>1928</ele>
        <time>2014-01-12T13:03:22.000Z</time>
      </trkpt>
      <trkpt lat="45.22467" lon="6.02795">
        <ele>1928</ele>
        <time>2014-01-12T13:03:29.000Z</time>
      </trkpt>
      <trkpt lat="45.22462" lon="6.02797">
        <ele>1928</ele>
        <time>2014-01-12T13:03:36.000Z</time>
      </trkpt>
      <trkpt lat="45.22461" lon="6.02796">
        <ele>1928</ele>
        <time>2014-01-12T13:03:42.000Z</time>
      </trkpt>
      <trkpt lat="45.22458" lon="6.02793">
        <ele>1928</ele>
        <time>2014-01-12T13:03:50.000Z</time>
      </trkpt>
      <trkpt lat="45.22451" lon="6.02793">
        <ele>1928</ele>
        <time>2014-01-12T13:03:58.000Z</time>
      </trkpt>
      <trkpt lat="45.22447" lon="6.02792">
        <ele>1928</ele>
        <time>2014-01-12T13:04:05.000Z</time>
      </trkpt>
      <trkpt lat="45.22444" lon="6.02793">
        <ele>1928</ele>
        <time>2014-01-12T13:04:12.000Z</time>
      </trkpt>
      <trkpt lat="45.22442" lon="6.02794">
        <ele>1929</ele>
        <time>2014-01-12T13:04:17.000Z</time>
      </trkpt>
      <trkpt lat="45.22445" lon="6.02797">
        <ele>1929</ele>
        <time>2014-01-12T13:04:25.000Z</time>
      </trkpt>
      <trkpt lat="45.22448" lon="6.028">
        <ele>1930</ele>
        <time>2014-01-12T13:04:31.000Z</time>
      </trkpt>
      <trkpt lat="45.22451" lon="6.02805">
        <ele>1931</ele>
        <time>2014-01-12T13:04:38.000Z</time>
      </trkpt>
      <trkpt lat="45.22451" lon="6.02812">
        <ele>1932</ele>
        <time>2014-01-12T13:04:47.000Z</time>
      </trkpt>
      <trkpt lat="45.22454" lon="6.02819">
        <ele>1933</ele>
        <time>2014-01-12T13:04:54.000Z</time>
      </trkpt>
      <trkpt lat="45.22458" lon="6.02824">
        <ele>1934</ele>
        <time>2014-01-12T13:05:02.000Z</time>
      </trkpt>
      <trkpt lat="45.22459" lon="6.02825">
        <ele>1934</ele>
        <time>2014-01-12T13:05:03.000Z</time>
      </trkpt>
      <trkpt lat="45.22466" lon="6.02835">
        <ele>1955</ele>
        <time>2014-01-12T13:05:11.000Z</time>
      </trkpt>
      <trkpt lat="45.2247" lon="6.02843">
        <ele>1955</ele>
        <time>2014-01-12T13:05:21.000Z</time>
      </trkpt>
      <trkpt lat="45.22473" lon="6.02844">
        <ele>1955</ele>
        <time>2014-01-12T13:05:28.000Z</time>
      </trkpt>
      <trkpt lat="45.22474" lon="6.02847">
        <ele>1955</ele>
        <time>2014-01-12T13:05:35.000Z</time>
      </trkpt>
      <trkpt lat="45.22475" lon="6.0285">
        <ele>1955</ele>
        <time>2014-01-12T13:05:44.000Z</time>
      </trkpt>
      <trkpt lat="45.22477" lon="6.02857">
        <ele>1956</ele>
        <time>2014-01-12T13:05:52.000Z</time>
      </trkpt>
      <trkpt lat="45.22482" lon="6.02859">
        <ele>1956</ele>
        <time>2014-01-12T13:06:02.000Z</time>
      </trkpt>
      <trkpt lat="45.22485" lon="6.02863">
        <ele>1957</ele>
        <time>2014-01-12T13:06:11.000Z</time>
      </trkpt>
      <trkpt lat="45.22488" lon="6.02865">
        <ele>1957</ele>
        <time>2014-01-12T13:06:21.000Z</time>
      </trkpt>
      <trkpt lat="45.22494" lon="6.02867">
        <ele>1957</ele>
        <time>2014-01-12T13:06:29.000Z</time>
      </trkpt>
      <trkpt lat="45.22498" lon="6.02869">
        <ele>1957</ele>
        <time>2014-01-12T13:06:36.000Z</time>
      </trkpt>
      <trkpt lat="45.22502" lon="6.02868">
        <ele>1952</ele>
        <time>2014-01-12T13:06:44.000Z</time>
      </trkpt>
      <trkpt lat="45.22509" lon="6.02868">
        <ele>1952</ele>
        <time>2014-01-12T13:06:52.000Z</time>
      </trkpt>
      <trkpt lat="45.22516" lon="6.02868">
        <ele>1952</ele>
        <time>2014-01-12T13:07:01.000Z</time>
      </trkpt>
      <trkpt lat="45.2252" lon="6.0287">
        <ele>1952</ele>
        <time>2014-01-12T13:07:10.000Z</time>
      </trkpt>
      <trkpt lat="45.22521" lon="6.02874">
        <ele>1952</ele>
        <time>2014-01-12T13:07:16.000Z</time>
      </trkpt>
      <trkpt lat="45.22522" lon="6.02875">
        <ele>1953</ele>
        <time>2014-01-12T13:07:25.000Z</time>
      </trkpt>
      <trkpt lat="45.22522" lon="6.02876">
        <ele>1953</ele>
        <time>2014-01-12T13:07:46.000Z</time>
      </trkpt>
      <trkpt lat="45.22522" lon="6.02875">
        <ele>1953</ele>
        <time>2014-01-12T13:08:22.000Z</time>
      </trkpt>
      <trkpt lat="45.22523" lon="6.02876">
        <ele>1953</ele>
        <time>2014-01-12T13:09:09.000Z</time>
      </trkpt>
      <trkpt lat="45.22522" lon="6.02883">
        <ele>1954</ele>
        <time>2014-01-12T13:09:17.000Z</time>
      </trkpt>
      <trkpt lat="45.22522" lon="6.02887">
        <ele>1955</ele>
        <time>2014-01-12T13:09:21.000Z</time>
      </trkpt>
      <trkpt lat="45.22522" lon="6.02897">
        <ele>1956</ele>
        <time>2014-01-12T13:09:29.000Z</time>
      </trkpt>
      <trkpt lat="45.22522" lon="6.02907">
        <ele>1958</ele>
        <time>2014-01-12T13:09:36.000Z</time>
      </trkpt>
      <trkpt lat="45.22523" lon="6.02916">
        <ele>1959</ele>
        <time>2014-01-12T13:09:44.000Z</time>
      </trkpt>
      <trkpt lat="45.22524" lon="6.02917">
        <ele>1971</ele>
        <time>2014-01-12T13:09:51.000Z</time>
      </trkpt>
      <trkpt lat="45.22525" lon="6.02922">
        <ele>1971</ele>
        <time>2014-01-12T13:10:05.000Z</time>
      </trkpt>
      <trkpt lat="45.22527" lon="6.02932">
        <ele>1972</ele>
        <time>2014-01-12T13:10:13.000Z</time>
      </trkpt>
      <trkpt lat="45.22528" lon="6.02941">
        <ele>1973</ele>
        <time>2014-01-12T13:10:20.000Z</time>
      </trkpt>
      <trkpt lat="45.22528" lon="6.02952">
        <ele>1975</ele>
        <time>2014-01-12T13:10:28.000Z</time>
      </trkpt>
      <trkpt lat="45.22529" lon="6.02961">
        <ele>1976</ele>
        <time>2014-01-12T13:10:35.000Z</time>
      </trkpt>
      <trkpt lat="45.22533" lon="6.02969">
        <ele>1977</ele>
        <time>2014-01-12T13:10:43.000Z</time>
      </trkpt>
      <trkpt lat="45.22534" lon="6.02972">
        <ele>1977</ele>
        <time>2014-01-12T13:10:51.000Z</time>
      </trkpt>
      <trkpt lat="45.2254" lon="6.02976">
        <ele>1978</ele>
        <time>2014-01-12T13:11:01.000Z</time>
      </trkpt>
      <trkpt lat="45.22544" lon="6.02975">
        <ele>1977</ele>
        <time>2014-01-12T13:11:08.000Z</time>
      </trkpt>
      <trkpt lat="45.22547" lon="6.02978">
        <ele>1978</ele>
        <time>2014-01-12T13:11:28.000Z</time>
      </trkpt>
      <trkpt lat="45.2255" lon="6.0298">
        <ele>1978</ele>
        <time>2014-01-12T13:11:38.000Z</time>
      </trkpt>
      <trkpt lat="45.22555" lon="6.02982">
        <ele>1978</ele>
        <time>2014-01-12T13:11:46.000Z</time>
      </trkpt>
      <trkpt lat="45.22559" lon="6.02985">
        <ele>1978</ele>
        <time>2014-01-12T13:11:55.000Z</time>
      </trkpt>
      <trkpt lat="45.22561" lon="6.02988">
        <ele>1979</ele>
        <time>2014-01-12T13:12:03.000Z</time>
      </trkpt>
      <trkpt lat="45.22564" lon="6.02991">
        <ele>1979</ele>
        <time>2014-01-12T13:12:09.000Z</time>
      </trkpt>
      <trkpt lat="45.22567" lon="6.02995">
        <ele>1980</ele>
        <time>2014-01-12T13:12:16.000Z</time>
      </trkpt>
      <trkpt lat="45.22568" lon="6.03002">
        <ele>1991</ele>
        <time>2014-01-12T13:12:25.000Z</time>
      </trkpt>
      <trkpt lat="45.22569" lon="6.03005">
        <ele>1991</ele>
        <time>2014-01-12T13:12:33.000Z</time>
      </trkpt>
      <trkpt lat="45.2257" lon="6.0301">
        <ele>1991</ele>
        <time>2014-01-12T13:12:46.000Z</time>
      </trkpt>
      <trkpt lat="45.22572" lon="6.03014">
        <ele>1992</ele>
        <time>2014-01-12T13:12:55.000Z</time>
      </trkpt>
      <trkpt lat="45.22572" lon="6.03018">
        <ele>1993</ele>
        <time>2014-01-12T13:13:02.000Z</time>
      </trkpt>
      <trkpt lat="45.22571" lon="6.03023">
        <ele>1995</ele>
        <time>2014-01-12T13:13:11.000Z</time>
      </trkpt>
      <trkpt lat="45.2257" lon="6.03025">
        <ele>1995</ele>
        <time>2014-01-12T13:13:18.000Z</time>
      </trkpt>
      <trkpt lat="45.22568" lon="6.03024">
        <ele>1995</ele>
        <time>2014-01-12T13:13:22.000Z</time>
      </trkpt>
      <trkpt lat="45.22562" lon="6.03022">
        <ele>1995</ele>
        <time>2014-01-12T13:13:30.000Z</time>
      </trkpt>
      <trkpt lat="45.22559" lon="6.03024">
        <ele>1996</ele>
        <time>2014-01-12T13:13:37.000Z</time>
      </trkpt>
      <trkpt lat="45.22555" lon="6.03025">
        <ele>1997</ele>
        <time>2014-01-12T13:13:43.000Z</time>
      </trkpt>
      <trkpt lat="45.2255" lon="6.03027">
        <ele>1997</ele>
        <time>2014-01-12T13:13:49.000Z</time>
      </trkpt>
      <trkpt lat="45.22547" lon="6.03029">
        <ele>1998</ele>
        <time>2014-01-12T13:13:55.000Z</time>
      </trkpt>
      <trkpt lat="45.22544" lon="6.03031">
        <ele>1998</ele>
        <time>2014-01-12T13:14:01.000Z</time>
      </trkpt>
      <trkpt lat="45.22544" lon="6.03031">
        <ele>1998</ele>
        <time>2014-01-12T13:14:09.000Z</time>
      </trkpt>
      <trkpt lat="45.22544" lon="6.03038">
        <ele>2000</ele>
        <time>2014-01-12T13:14:17.000Z</time>
      </trkpt>
      <trkpt lat="45.22547" lon="6.03043">
        <ele>2000</ele>
        <time>2014-01-12T13:14:25.000Z</time>
      </trkpt>
      <trkpt lat="45.22546" lon="6.03045">
        <ele>2001</ele>
        <time>2014-01-12T13:14:30.000Z</time>
      </trkpt>
      <trkpt lat="45.22542" lon="6.03048">
        <ele>2001</ele>
        <time>2014-01-12T13:14:35.000Z</time>
      </trkpt>
      <trkpt lat="45.2254" lon="6.03053">
        <ele>2002</ele>
        <time>2014-01-12T13:14:42.000Z</time>
      </trkpt>
      <trkpt lat="45.22538" lon="6.03055">
        <ele>2003</ele>
        <time>2014-01-12T13:14:51.000Z</time>
      </trkpt>
      <trkpt lat="45.22536" lon="6.03058">
        <ele>2003</ele>
        <time>2014-01-12T13:14:59.000Z</time>
      </trkpt>
      <trkpt lat="45.22532" lon="6.0306">
        <ele>2004</ele>
        <time>2014-01-12T13:15:05.000Z</time>
      </trkpt>
      <trkpt lat="45.22528" lon="6.03059">
        <ele>2004</ele>
        <time>2014-01-12T13:15:13.000Z</time>
      </trkpt>
      <trkpt lat="45.22519" lon="6.0306">
        <ele>2006</ele>
        <time>2014-01-12T13:15:23.000Z</time>
      </trkpt>
      <trkpt lat="45.22516" lon="6.03058">
        <ele>2006</ele>
        <time>2014-01-12T13:15:29.000Z</time>
      </trkpt>
      <trkpt lat="45.22513" lon="6.03059">
        <ele>2006</ele>
        <time>2014-01-12T13:15:36.000Z</time>
      </trkpt>
      <trkpt lat="45.22509" lon="6.03061">
        <ele>2007</ele>
        <time>2014-01-12T13:15:42.000Z</time>
      </trkpt>
      <trkpt lat="45.22507" lon="6.03062">
        <ele>2008</ele>
        <time>2014-01-12T13:15:48.000Z</time>
      </trkpt>
      <trkpt lat="45.22504" lon="6.03062">
        <ele>2008</ele>
        <time>2014-01-12T13:15:54.000Z</time>
      </trkpt>
      <trkpt lat="45.22499" lon="6.03062">
        <ele>2017</ele>
        <time>2014-01-12T13:16:01.000Z</time>
      </trkpt>
      <trkpt lat="45.22496" lon="6.03063">
        <ele>2017</ele>
        <time>2014-01-12T13:16:10.000Z</time>
      </trkpt>
      <trkpt lat="45.22496" lon="6.03065">
        <ele>2017</ele>
        <time>2014-01-12T13:16:21.000Z</time>
      </trkpt>
      <trkpt lat="45.22495" lon="6.03067">
        <ele>2018</ele>
        <time>2014-01-12T13:16:27.000Z</time>
      </trkpt>
      <trkpt lat="45.22495" lon="6.03068">
        <ele>2018</ele>
        <time>2014-01-12T13:16:34.000Z</time>
      </trkpt>
      <trkpt lat="45.2249" lon="6.03071">
        <ele>2018</ele>
        <time>2014-01-12T13:16:41.000Z</time>
      </trkpt>
      <trkpt lat="45.22487" lon="6.03073">
        <ele>2019</ele>
        <time>2014-01-12T13:16:46.000Z</time>
      </trkpt>
      <trkpt lat="45.22482" lon="6.03074">
        <ele>2019</ele>
        <time>2014-01-12T13:16:53.000Z</time>
      </trkpt>
      <trkpt lat="45.22483" lon="6.03076">
        <ele>2019</ele>
        <time>2014-01-12T13:16:59.000Z</time>
      </trkpt>
      <trkpt lat="45.22486" lon="6.03083">
        <ele>2019</ele>
        <time>2014-01-12T13:17:08.000Z</time>
      </trkpt>
      <trkpt lat="45.22489" lon="6.03087">
        <ele>2034</ele>
        <time>2014-01-12T13:17:17.000Z</time>
      </trkpt>
      <trkpt lat="45.22489" lon="6.0309">
        <ele>2036</ele>
        <time>2014-01-12T13:17:28.000Z</time>
      </trkpt>
      <trkpt lat="45.22491" lon="6.03095">
        <ele>2037</ele>
        <time>2014-01-12T13:17:35.000Z</time>
      </trkpt>
      <trkpt lat="45.22491" lon="6.031">
        <ele>2041</ele>
        <time>2014-01-12T13:17:44.000Z</time>
      </trkpt>
      <trkpt lat="45.22495" lon="6.03106">
        <ele>2044</ele>
        <time>2014-01-12T13:17:52.000Z</time>
      </trkpt>
      <trkpt lat="45.22495" lon="6.0311">
        <ele>2046</ele>
        <time>2014-01-12T13:18:00.000Z</time>
      </trkpt>
      <trkpt lat="45.22499" lon="6.03114">
        <ele>2048</ele>
        <time>2014-01-12T13:18:08.000Z</time>
      </trkpt>
      <trkpt lat="45.22499" lon="6.03122">
        <ele>2052</ele>
        <time>2014-01-12T13:18:16.000Z</time>
      </trkpt>
      <trkpt lat="45.22499" lon="6.03121">
        <ele>2051</ele>
        <time>2014-01-12T13:18:24.000Z</time>
      </trkpt>
      <trkpt lat="45.22495" lon="6.03123">
        <ele>2053</ele>
        <time>2014-01-12T13:18:31.000Z</time>
      </trkpt>
      <trkpt lat="45.2249" lon="6.03121">
        <ele>2052</ele>
        <time>2014-01-12T13:18:39.000Z</time>
      </trkpt>
      <trkpt lat="45.22484" lon="6.0312">
        <ele>2053</ele>
        <time>2014-01-12T13:18:48.000Z</time>
      </trkpt>
      <trkpt lat="45.22482" lon="6.03122">
        <ele>2054</ele>
        <time>2014-01-12T13:18:54.000Z</time>
      </trkpt>
      <trkpt lat="45.22478" lon="6.03125">
        <ele>2056</ele>
        <time>2014-01-12T13:19:00.000Z</time>
      </trkpt>
      <trkpt lat="45.22474" lon="6.03126">
        <ele>2057</ele>
        <time>2014-01-12T13:19:06.000Z</time>
      </trkpt>
      <trkpt lat="45.22469" lon="6.03127">
        <ele>2058</ele>
        <time>2014-01-12T13:19:12.000Z</time>
      </trkpt>
      <trkpt lat="45.22465" lon="6.03125">
        <ele>2058</ele>
        <time>2014-01-12T13:19:20.000Z</time>
      </trkpt>
      <trkpt lat="45.22461" lon="6.03125">
        <ele>2059</ele>
        <time>2014-01-12T13:19:26.000Z</time>
      </trkpt>
      <trkpt lat="45.22458" lon="6.03127">
        <ele>2060</ele>
        <time>2014-01-12T13:19:35.000Z</time>
      </trkpt>
      <trkpt lat="45.22458" lon="6.03128">
        <ele>2060</ele>
        <time>2014-01-12T13:19:44.000Z</time>
      </trkpt>
      <trkpt lat="45.22459" lon="6.03132">
        <ele>2061</ele>
        <time>2014-01-12T13:19:51.000Z</time>
      </trkpt>
      <trkpt lat="45.22461" lon="6.03138">
        <ele>2063</ele>
        <time>2014-01-12T13:19:59.000Z</time>
      </trkpt>
      <trkpt lat="45.22462" lon="6.03142">
        <ele>2063</ele>
        <time>2014-01-12T13:20:06.000Z</time>
      </trkpt>
      <trkpt lat="45.22464" lon="6.03146">
        <ele>2064</ele>
        <time>2014-01-12T13:20:15.000Z</time>
      </trkpt>
      <trkpt lat="45.22467" lon="6.03149">
        <ele>2064</ele>
        <time>2014-01-12T13:20:22.000Z</time>
      </trkpt>
      <trkpt lat="45.22468" lon="6.03152">
        <ele>2064</ele>
        <time>2014-01-12T13:20:40.000Z</time>
      </trkpt>
      <trkpt lat="45.2247" lon="6.03158">
        <ele>2065</ele>
        <time>2014-01-12T13:20:47.000Z</time>
      </trkpt>
      <trkpt lat="45.22474" lon="6.03157">
        <ele>2064</ele>
        <time>2014-01-12T13:20:57.000Z</time>
      </trkpt>
      <trkpt lat="45.22475" lon="6.03156">
        <ele>2064</ele>
        <time>2014-01-12T13:21:04.000Z</time>
      </trkpt>
      <trkpt lat="45.22472" lon="6.03155">
        <ele>2064</ele>
        <time>2014-01-12T13:21:12.000Z</time>
      </trkpt>
      <trkpt lat="45.22469" lon="6.03158">
        <ele>2065</ele>
        <time>2014-01-12T13:21:18.000Z</time>
      </trkpt>
      <trkpt lat="45.22467" lon="6.03159">
        <ele>2065</ele>
        <time>2014-01-12T13:21:25.000Z</time>
      </trkpt>
      <trkpt lat="45.22465" lon="6.03159">
        <ele>2066</ele>
        <time>2014-01-12T13:21:33.000Z</time>
      </trkpt>
      <trkpt lat="45.22464" lon="6.03159">
        <ele>2066</ele>
        <time>2014-01-12T13:21:40.000Z</time>
      </trkpt>
      <trkpt lat="45.2246" lon="6.03158">
        <ele>2067</ele>
        <time>2014-01-12T13:21:47.000Z</time>
      </trkpt>
      <trkpt lat="45.22458" lon="6.03155">
        <ele>2067</ele>
        <time>2014-01-12T13:21:53.000Z</time>
      </trkpt>
      <trkpt lat="45.22455" lon="6.03154">
        <ele>2068</ele>
        <time>2014-01-12T13:22:00.000Z</time>
      </trkpt>
      <trkpt lat="45.22453" lon="6.03154">
        <ele>2069</ele>
        <time>2014-01-12T13:22:13.000Z</time>
      </trkpt>
      <trkpt lat="45.22446" lon="6.03154">
        <ele>2071</ele>
        <time>2014-01-12T13:22:20.000Z</time>
      </trkpt>
      <trkpt lat="45.22442" lon="6.03152">
        <ele>2073</ele>
        <time>2014-01-12T13:22:27.000Z</time>
      </trkpt>
      <trkpt lat="45.2244" lon="6.03154">
        <ele>2074</ele>
        <time>2014-01-12T13:22:33.000Z</time>
      </trkpt>
      <trkpt lat="45.22438" lon="6.03153">
        <ele>2075</ele>
        <time>2014-01-12T13:22:40.000Z</time>
      </trkpt>
      <trkpt lat="45.22437" lon="6.03152">
        <ele>2075</ele>
        <time>2014-01-12T13:22:47.000Z</time>
      </trkpt>
      <trkpt lat="45.22437" lon="6.03152">
        <ele>2075</ele>
        <time>2014-01-12T13:22:58.000Z</time>
      </trkpt>
      <trkpt lat="45.22437" lon="6.03151">
        <ele>2074</ele>
        <time>2014-01-12T13:23:09.000Z</time>
      </trkpt>
      <trkpt lat="45.22438" lon="6.03155">
        <ele>2075</ele>
        <time>2014-01-12T13:23:41.000Z</time>
      </trkpt>
      <trkpt lat="45.22442" lon="6.03159">
        <ele>2075</ele>
        <time>2014-01-12T13:23:48.000Z</time>
      </trkpt>
      <trkpt lat="45.22443" lon="6.03159">
        <ele>2074</ele>
        <time>2014-01-12T13:23:57.000Z</time>
      </trkpt>
      <trkpt lat="45.22443" lon="6.03163">
        <ele>2075</ele>
        <time>2014-01-12T13:24:04.000Z</time>
      </trkpt>
      <trkpt lat="45.22444" lon="6.03167">
        <ele>2105</ele>
        <time>2014-01-12T13:24:13.000Z</time>
      </trkpt>
      <trkpt lat="45.22446" lon="6.0317">
        <ele>2106</ele>
        <time>2014-01-12T13:24:22.000Z</time>
      </trkpt>
      <trkpt lat="45.22448" lon="6.03173">
        <ele>2106</ele>
        <time>2014-01-12T13:24:29.000Z</time>
      </trkpt>
      <trkpt lat="45.22448" lon="6.03174">
        <ele>2106</ele>
        <time>2014-01-12T13:24:57.000Z</time>
      </trkpt>
      <trkpt lat="45.22448" lon="6.03174">
        <ele>2106</ele>
        <time>2014-01-12T13:25:09.000Z</time>
      </trkpt>
      <trkpt lat="45.22446" lon="6.03174">
        <ele>2106</ele>
        <time>2014-01-12T13:25:31.000Z</time>
      </trkpt>
      <trkpt lat="45.22445" lon="6.03173">
        <ele>2106</ele>
        <time>2014-01-12T13:25:39.000Z</time>
      </trkpt>
      <trkpt lat="45.22442" lon="6.03174">
        <ele>2107</ele>
        <time>2014-01-12T13:25:54.000Z</time>
      </trkpt>
      <trkpt lat="45.22441" lon="6.03174">
        <ele>2107</ele>
        <time>2014-01-12T13:26:15.000Z</time>
      </trkpt>
      <trkpt lat="45.2244" lon="6.03174">
        <ele>2107</ele>
        <time>2014-01-12T13:26:25.000Z</time>
      </trkpt>
      <trkpt lat="45.22438" lon="6.03173">
        <ele>2107</ele>
        <time>2014-01-12T13:26:43.000Z</time>
      </trkpt>
      <trkpt lat="45.22435" lon="6.03172">
        <ele>2106</ele>
        <time>2014-01-12T13:27:02.000Z</time>
      </trkpt>
      <trkpt lat="45.22431" lon="6.03168">
        <ele>2106</ele>
        <time>2014-01-12T13:27:11.000Z</time>
      </trkpt>
      <trkpt lat="45.22429" lon="6.03169">
        <ele>2106</ele>
        <time>2014-01-12T13:27:22.000Z</time>
      </trkpt>
      <trkpt lat="45.22429" lon="6.03169">
        <ele>2106</ele>
        <time>2014-01-12T13:27:54.000Z</time>
      </trkpt>
      <trkpt lat="45.22429" lon="6.0317">
        <ele>2106</ele>
        <time>2014-01-12T13:28:06.000Z</time>
      </trkpt>
      <trkpt lat="45.2243" lon="6.0317">
        <ele>2106</ele>
        <time>2014-01-12T13:28:17.000Z</time>
      </trkpt>
      <trkpt lat="45.2243" lon="6.03172">
        <ele>2106</ele>
        <time>2014-01-12T13:28:37.000Z</time>
      </trkpt>
      <trkpt lat="45.22432" lon="6.03177">
        <ele>2107</ele>
        <time>2014-01-12T13:28:45.000Z</time>
      </trkpt>
      <trkpt lat="45.22433" lon="6.03179">
        <ele>2108</ele>
        <time>2014-01-12T13:28:52.000Z</time>
      </trkpt>
      <trkpt lat="45.22434" lon="6.03179">
        <ele>2108</ele>
        <time>2014-01-12T13:29:04.000Z</time>
      </trkpt>
      <trkpt lat="45.22434" lon="6.03179">
        <ele>2108</ele>
        <time>2014-01-12T13:29:24.000Z</time>
      </trkpt>
      <trkpt lat="45.22434" lon="6.03179">
        <ele>2108</ele>
        <time>2014-01-12T13:30:24.000Z</time>
      </trkpt>
      <trkpt lat="45.2243" lon="6.03179">
        <ele>2108</ele>
        <time>2014-01-12T13:30:44.000Z</time>
      </trkpt>
      <trkpt lat="45.2243" lon="6.03179">
        <ele>2108</ele>
        <time>2014-01-12T13:31:23.000Z</time>
      </trkpt>
      <trkpt lat="45.2243" lon="6.03179">
        <ele>2108</ele>
        <time>2014-01-12T13:36:33.000Z</time>
      </trkpt>
      <trkpt lat="45.2243" lon="6.03179">
        <ele>2108</ele>
        <time>2014-01-12T13:37:15.000Z</time>
      </trkpt>
      <trkpt lat="45.2243" lon="6.03179">
        <ele>2108</ele>
        <time>2014-01-12T13:38:01.000Z</time>
      </trkpt>
      <trkpt lat="45.22429" lon="6.0318">
        <ele>2108</ele>
        <time>2014-01-12T13:39:28.000Z</time>
      </trkpt>
      <trkpt lat="45.22428" lon="6.03177">
        <ele>2107</ele>
        <time>2014-01-12T13:39:35.000Z</time>
      </trkpt>
      <trkpt lat="45.22428" lon="6.03177">
        <ele>2107</ele>
        <time>2014-01-12T13:39:36.000Z</time>
      </trkpt>
      <trkpt lat="45.22425" lon="6.03177">
        <ele>2107</ele>
        <time>2014-01-12T13:39:45.000Z</time>
      </trkpt>
      <trkpt lat="45.22423" lon="6.03176">
        <ele>2106</ele>
        <time>2014-01-12T13:39:59.000Z</time>
      </trkpt>
      <trkpt lat="45.22423" lon="6.03176">
        <ele>2106</ele>
        <time>2014-01-12T13:40:08.000Z</time>
      </trkpt>
      <trkpt lat="45.22423" lon="6.03176">
        <ele>2106</ele>
        <time>2014-01-12T13:40:45.000Z</time>
      </trkpt>
      <trkpt lat="45.22422" lon="6.03176">
        <ele>2106</ele>
        <time>2014-01-12T13:41:07.000Z</time>
      </trkpt>
      <trkpt lat="45.22421" lon="6.03176">
        <ele>2106</ele>
        <time>2014-01-12T13:41:29.000Z</time>
      </trkpt>
      <trkpt lat="45.22421" lon="6.03176">
        <ele>2106</ele>
        <time>2014-01-12T13:41:36.000Z</time>
      </trkpt>
      <trkpt lat="45.22421" lon="6.03176">
        <ele>2106</ele>
        <time>2014-01-12T13:41:37.000Z</time>
      </trkpt>
      <trkpt lat="45.22421" lon="6.03176">
        <ele>2106</ele>
        <time>2014-01-12T13:41:38.000Z</time>
      </trkpt>
      <trkpt lat="45.22421" lon="6.03176">
        <ele>2106</ele>
        <time>2014-01-12T13:41:39.000Z</time>
      </trkpt>
      <trkpt lat="45.22421" lon="6.03175">
        <ele>2106</ele>
        <time>2014-01-12T13:42:07.000Z</time>
      </trkpt>
      <trkpt lat="45.22421" lon="6.03175">
        <ele>2106</ele>
        <time>2014-01-12T13:42:36.000Z</time>
      </trkpt>
      <trkpt lat="45.2242" lon="6.03175">
        <ele>2105</ele>
        <time>2014-01-12T13:42:59.000Z</time>
      </trkpt>
      <trkpt lat="45.2242" lon="6.03175">
        <ele>2105</ele>
        <time>2014-01-12T13:43:18.000Z</time>
      </trkpt>
      <trkpt lat="45.2242" lon="6.03174">
        <ele>2105</ele>
        <time>2014-01-12T13:44:11.000Z</time>
      </trkpt>
      <trkpt lat="45.22419" lon="6.03174">
        <ele>2105</ele>
        <time>2014-01-12T13:44:42.000Z</time>
      </trkpt>
      <trkpt lat="45.22419" lon="6.03174">
        <ele>2105</ele>
        <time>2014-01-12T13:45:40.000Z</time>
      </trkpt>
      <trkpt lat="45.22419" lon="6.03175">
        <ele>2106</ele>
        <time>2014-01-12T13:46:03.000Z</time>
      </trkpt>
      <trkpt lat="45.22419" lon="6.03175">
        <ele>2106</ele>
        <time>2014-01-12T13:46:22.000Z</time>
      </trkpt>
      <trkpt lat="45.22419" lon="6.03175">
        <ele>2106</ele>
        <time>2014-01-12T13:46:23.000Z</time>
      </trkpt>
      <trkpt lat="45.22419" lon="6.03175">
        <ele>2106</ele>
        <time>2014-01-12T13:46:25.000Z</time>
      </trkpt>
      <trkpt lat="45.22419" lon="6.03175">
        <ele>2106</ele>
        <time>2014-01-12T13:46:27.000Z</time>
      </trkpt>
      <trkpt lat="45.22419" lon="6.03175">
        <ele>2106</ele>
        <time>2014-01-12T13:46:29.000Z</time>
      </trkpt>
      <trkpt lat="45.22419" lon="6.03175">
        <ele>2106</ele>
        <time>2014-01-12T13:46:45.000Z</time>
      </trkpt>
      <trkpt lat="45.22418" lon="6.03175">
        <ele>2106</ele>
        <time>2014-01-12T13:47:10.000Z</time>
      </trkpt>
      <trkpt lat="45.22418" lon="6.03175">
        <ele>2106</ele>
        <time>2014-01-12T13:47:30.000Z</time>
      </trkpt>
      <trkpt lat="45.22418" lon="6.03175">
        <ele>2106</ele>
        <time>2014-01-12T13:47:31.000Z</time>
      </trkpt>
      <trkpt lat="45.22418" lon="6.03175">
        <ele>2106</ele>
        <time>2014-01-12T13:47:33.000Z</time>
      </trkpt>
      <trkpt lat="45.22418" lon="6.03175">
        <ele>2106</ele>
        <time>2014-01-12T13:47:34.000Z</time>
      </trkpt>
      <trkpt lat="45.22418" lon="6.03175">
        <ele>2106</ele>
        <time>2014-01-12T13:47:35.000Z</time>
      </trkpt>
      <trkpt lat="45.22418" lon="6.03175">
        <ele>2106</ele>
        <time>2014-01-12T13:47:38.000Z</time>
      </trkpt>
      <trkpt lat="45.22418" lon="6.03175">
        <ele>2106</ele>
        <time>2014-01-12T13:47:54.000Z</time>
      </trkpt>
      <trkpt lat="45.22418" lon="6.03175">
        <ele>2106</ele>
        <time>2014-01-12T13:48:06.000Z</time>
      </trkpt>
      <trkpt lat="45.22418" lon="6.03176">
        <ele>2106</ele>
        <time>2014-01-12T13:48:31.000Z</time>
      </trkpt>
      <trkpt lat="45.22418" lon="6.03176">
        <ele>2106</ele>
        <time>2014-01-12T13:48:46.000Z</time>
      </trkpt>
      <trkpt lat="45.22418" lon="6.03176">
        <ele>2106</ele>
        <time>2014-01-12T13:48:47.000Z</time>
      </trkpt>
      <trkpt lat="45.22418" lon="6.03176">
        <ele>2106</ele>
        <time>2014-01-12T13:48:50.000Z</time>
      </trkpt>
      <trkpt lat="45.22418" lon="6.03176">
        <ele>2106</ele>
        <time>2014-01-12T13:48:52.000Z</time>
      </trkpt>
      <trkpt lat="45.22418" lon="6.03176">
        <ele>2106</ele>
        <time>2014-01-12T13:49:09.000Z</time>
      </trkpt>
      <trkpt lat="45.22419" lon="6.03176">
        <ele>2106</ele>
        <time>2014-01-12T13:49:41.000Z</time>
      </trkpt>
      <trkpt lat="45.22417" lon="6.03176">
        <ele>2106</ele>
        <time>2014-01-12T13:49:47.000Z</time>
      </trkpt>
      <trkpt lat="45.22417" lon="6.03176">
        <ele>2106</ele>
        <time>2014-01-12T13:49:56.000Z</time>
      </trkpt>
      <trkpt lat="45.22419" lon="6.03176">
        <ele>2106</ele>
        <time>2014-01-12T13:50:05.000Z</time>
      </trkpt>
      <trkpt lat="45.22419" lon="6.03176">
        <ele>2106</ele>
        <time>2014-01-12T13:50:24.000Z</time>
      </trkpt>
      <trkpt lat="45.2242" lon="6.03175">
        <ele>2106</ele>
        <time>2014-01-12T13:50:48.000Z</time>
      </trkpt>
      <trkpt lat="45.22419" lon="6.03175">
        <ele>2106</ele>
        <time>2014-01-12T13:51:03.000Z</time>
      </trkpt>
      <trkpt lat="45.22419" lon="6.03175">
        <ele>2106</ele>
        <time>2014-01-12T13:51:17.000Z</time>
      </trkpt>
      <trkpt lat="45.22419" lon="6.03176">
        <ele>2106</ele>
        <time>2014-01-12T13:51:35.000Z</time>
      </trkpt>
      <trkpt lat="45.22419" lon="6.03174">
        <ele>2105</ele>
        <time>2014-01-12T13:51:48.000Z</time>
      </trkpt>
      <trkpt lat="45.22419" lon="6.03174">
        <ele>2105</ele>
        <time>2014-01-12T13:51:59.000Z</time>
      </trkpt>
      <trkpt lat="45.22418" lon="6.03174">
        <ele>2105</ele>
        <time>2014-01-12T13:52:15.000Z</time>
      </trkpt>
      <trkpt lat="45.22418" lon="6.03174">
        <ele>2105</ele>
        <time>2014-01-12T13:52:36.000Z</time>
      </trkpt>
      <trkpt lat="45.22417" lon="6.03175">
        <ele>2106</ele>
        <time>2014-01-12T13:53:05.000Z</time>
      </trkpt>
      <trkpt lat="45.22417" lon="6.03176">
        <ele>2106</ele>
        <time>2014-01-12T13:53:27.000Z</time>
      </trkpt>
      <trkpt lat="45.22417" lon="6.03176">
        <ele>2106</ele>
        <time>2014-01-12T13:54:03.000Z</time>
      </trkpt>
      <trkpt lat="45.22424" lon="6.03174">
        <ele>2106</ele>
        <time>2014-01-12T13:54:07.000Z</time>
      </trkpt>
      <trkpt lat="45.22429" lon="6.03165">
        <ele>2086</ele>
        <time>2014-01-12T13:54:11.000Z</time>
      </trkpt>
      <trkpt lat="45.2243" lon="6.03162">
        <ele>2084</ele>
        <time>2014-01-12T13:54:13.000Z</time>
      </trkpt>
      <trkpt lat="45.2243" lon="6.03163">
        <ele>2084</ele>
        <time>2014-01-12T13:54:16.000Z</time>
      </trkpt>
      <trkpt lat="45.22427" lon="6.03164">
        <ele>2087</ele>
        <time>2014-01-12T13:54:21.000Z</time>
      </trkpt>
      <trkpt lat="45.22428" lon="6.03163">
        <ele>2086</ele>
        <time>2014-01-12T13:54:25.000Z</time>
      </trkpt>
      <trkpt lat="45.22428" lon="6.03163">
        <ele>2086</ele>
        <time>2014-01-12T13:54:31.000Z</time>
      </trkpt>
      <trkpt lat="45.22429" lon="6.03163">
        <ele>2085</ele>
        <time>2014-01-12T13:54:39.000Z</time>
      </trkpt>
      <trkpt lat="45.22428" lon="6.03163">
        <ele>2086</ele>
        <time>2014-01-12T13:54:49.000Z</time>
      </trkpt>
      <trkpt lat="45.22428" lon="6.03163">
        <ele>2086</ele>
        <time>2014-01-12T13:55:03.000Z</time>
      </trkpt>
      <trkpt lat="45.22427" lon="6.03162">
        <ele>2087</ele>
        <time>2014-01-12T13:55:08.000Z</time>
      </trkpt>
      <trkpt lat="45.22435" lon="6.03156">
        <ele>2077</ele>
        <time>2014-01-12T13:55:13.000Z</time>
      </trkpt>
      <trkpt lat="45.22439" lon="6.03146">
        <ele>2071</ele>
        <time>2014-01-12T13:55:16.000Z</time>
      </trkpt>
      <trkpt lat="45.22444" lon="6.03146">
        <ele>2070</ele>
        <time>2014-01-12T13:55:17.000Z</time>
      </trkpt>
      <trkpt lat="45.22459" lon="6.03145">
        <ele>2065</ele>
        <time>2014-01-12T13:55:21.000Z</time>
      </trkpt>
      <trkpt lat="45.2246" lon="6.03143">
        <ele>2064</ele>
        <time>2014-01-12T13:55:22.000Z</time>
      </trkpt>
      <trkpt lat="45.2246" lon="6.03142">
        <ele>2064</ele>
        <time>2014-01-12T13:55:24.000Z</time>
      </trkpt>
      <trkpt lat="45.2246" lon="6.03135">
        <ele>2062</ele>
        <time>2014-01-12T13:55:26.000Z</time>
      </trkpt>
      <trkpt lat="45.22464" lon="6.03131">
        <ele>2060</ele>
        <time>2014-01-12T13:55:27.000Z</time>
      </trkpt>
      <trkpt lat="45.22483" lon="6.03121">
        <ele>2053</ele>
        <time>2014-01-12T13:55:31.000Z</time>
      </trkpt>
      <trkpt lat="45.22494" lon="6.03119">
        <ele>2051</ele>
        <time>2014-01-12T13:55:33.000Z</time>
      </trkpt>
      <trkpt lat="45.22503" lon="6.03116">
        <ele>2034</ele>
        <time>2014-01-12T13:55:35.000Z</time>
      </trkpt>
      <trkpt lat="45.22507" lon="6.03102">
        <ele>2029</ele>
        <time>2014-01-12T13:55:39.000Z</time>
      </trkpt>
      <trkpt lat="45.22509" lon="6.031">
        <ele>2028</ele>
        <time>2014-01-12T13:55:40.000Z</time>
      </trkpt>
      <trkpt lat="45.22508" lon="6.03086">
        <ele>2024</ele>
        <time>2014-01-12T13:55:42.000Z</time>
      </trkpt>
      <trkpt lat="45.22512" lon="6.03081">
        <ele>2012</ele>
        <time>2014-01-12T13:55:45.000Z</time>
      </trkpt>
      <trkpt lat="45.22512" lon="6.03083">
        <ele>2013</ele>
        <time>2014-01-12T13:55:46.000Z</time>
      </trkpt>
      <trkpt lat="45.22511" lon="6.03084">
        <ele>2025</ele>
        <time>2014-01-12T13:55:53.000Z</time>
      </trkpt>
      <trkpt lat="45.22511" lon="6.03083">
        <ele>2013</ele>
        <time>2014-01-12T13:56:02.000Z</time>
      </trkpt>
      <trkpt lat="45.22519" lon="6.03082">
        <ele>2010</ele>
        <time>2014-01-12T13:56:06.000Z</time>
      </trkpt>
      <trkpt lat="45.22525" lon="6.03073">
        <ele>2007</ele>
        <time>2014-01-12T13:56:08.000Z</time>
      </trkpt>
      <trkpt lat="45.22533" lon="6.03066">
        <ele>2005</ele>
        <time>2014-01-12T13:56:10.000Z</time>
      </trkpt>
      <trkpt lat="45.22541" lon="6.03058">
        <ele>2003</ele>
        <time>2014-01-12T13:56:12.000Z</time>
      </trkpt>
      <trkpt lat="45.22554" lon="6.03047">
        <ele>2000</ele>
        <time>2014-01-12T13:56:15.000Z</time>
      </trkpt>
      <trkpt lat="45.22575" lon="6.03031">
        <ele>1996</ele>
        <time>2014-01-12T13:56:19.000Z</time>
      </trkpt>
      <trkpt lat="45.22583" lon="6.03017">
        <ele>1992</ele>
        <time>2014-01-12T13:56:21.000Z</time>
      </trkpt>
      <trkpt lat="45.22586" lon="6.03006">
        <ele>1988</ele>
        <time>2014-01-12T13:56:22.000Z</time>
      </trkpt>
      <trkpt lat="45.22598" lon="6.03001">
        <ele>1992</ele>
        <time>2014-01-12T13:56:28.000Z</time>
      </trkpt>
      <trkpt lat="45.22598" lon="6.03002">
        <ele>1992</ele>
        <time>2014-01-12T13:56:39.000Z</time>
      </trkpt>
      <trkpt lat="45.22598" lon="6.03001">
        <ele>1992</ele>
        <time>2014-01-12T13:56:53.000Z</time>
      </trkpt>
      <trkpt lat="45.22598" lon="6.03001">
        <ele>1992</ele>
        <time>2014-01-12T13:56:55.000Z</time>
      </trkpt>
      <trkpt lat="45.22598" lon="6.03001">
        <ele>1992</ele>
        <time>2014-01-12T13:57:13.000Z</time>
      </trkpt>
      <trkpt lat="45.22598" lon="6.03001">
        <ele>1992</ele>
        <time>2014-01-12T13:57:46.000Z</time>
      </trkpt>
      <trkpt lat="45.22598" lon="6.03001">
        <ele>1992</ele>
        <time>2014-01-12T13:58:26.000Z</time>
      </trkpt>
      <trkpt lat="45.22598" lon="6.03002">
        <ele>1992</ele>
        <time>2014-01-12T13:58:40.000Z</time>
      </trkpt>
      <trkpt lat="45.22598" lon="6.03002">
        <ele>1992</ele>
        <time>2014-01-12T13:58:41.000Z</time>
      </trkpt>
      <trkpt lat="45.22598" lon="6.03003">
        <ele>1992</ele>
        <time>2014-01-12T14:00:41.000Z</time>
      </trkpt>
      <trkpt lat="45.22598" lon="6.03003">
        <ele>1992</ele>
        <time>2014-01-12T14:03:58.000Z</time>
      </trkpt>
      <trkpt lat="45.22598" lon="6.03003">
        <ele>1992</ele>
        <time>2014-01-12T14:03:59.000Z</time>
      </trkpt>
      <trkpt lat="45.22598" lon="6.03003">
        <ele>1992</ele>
        <time>2014-01-12T14:04:00.000Z</time>
      </trkpt>
      <trkpt lat="45.22598" lon="6.03003">
        <ele>1992</ele>
        <time>2014-01-12T14:04:05.000Z</time>
      </trkpt>
      <trkpt lat="45.22597" lon="6.03002">
        <ele>1992</ele>
        <time>2014-01-12T14:04:12.000Z</time>
      </trkpt>
      <trkpt lat="45.22598" lon="6.03002">
        <ele>1992</ele>
        <time>2014-01-12T14:04:23.000Z</time>
      </trkpt>
      <trkpt lat="45.22598" lon="6.03002">
        <ele>1992</ele>
        <time>2014-01-12T14:04:28.000Z</time>
      </trkpt>
      <trkpt lat="45.22598" lon="6.03002">
        <ele>1992</ele>
        <time>2014-01-12T14:04:29.000Z</time>
      </trkpt>
      <trkpt lat="45.22598" lon="6.03002">
        <ele>1992</ele>
        <time>2014-01-12T14:04:33.000Z</time>
      </trkpt>
      <trkpt lat="45.22598" lon="6.03002">
        <ele>1992</ele>
        <time>2014-01-12T14:04:34.000Z</time>
      </trkpt>
      <trkpt lat="45.22598" lon="6.03002">
        <ele>1992</ele>
        <time>2014-01-12T14:04:36.000Z</time>
      </trkpt>
      <trkpt lat="45.22597" lon="6.03001">
        <ele>1992</ele>
        <time>2014-01-12T14:04:58.000Z</time>
      </trkpt>
      <trkpt lat="45.22597" lon="6.03001">
        <ele>1992</ele>
        <time>2014-01-12T14:05:13.000Z</time>
      </trkpt>
      <trkpt lat="45.22597" lon="6.03001">
        <ele>1992</ele>
        <time>2014-01-12T14:05:21.000Z</time>
      </trkpt>
      <trkpt lat="45.22599" lon="6.03003">
        <ele>1993</ele>
        <time>2014-01-12T14:05:28.000Z</time>
      </trkpt>
      <trkpt lat="45.22605" lon="6.03007">
        <ele>1995</ele>
        <time>2014-01-12T14:05:35.000Z</time>
      </trkpt>
      <trkpt lat="45.22609" lon="6.03009">
        <ele>1996</ele>
        <time>2014-01-12T14:05:43.000Z</time>
      </trkpt>
      <trkpt lat="45.22612" lon="6.03011">
        <ele>1997</ele>
        <time>2014-01-12T14:05:49.000Z</time>
      </trkpt>
      <trkpt lat="45.22617" lon="6.03013">
        <ele>1998</ele>
        <time>2014-01-12T14:05:57.000Z</time>
      </trkpt>
      <trkpt lat="45.22621" lon="6.03015">
        <ele>1999</ele>
        <time>2014-01-12T14:06:05.000Z</time>
      </trkpt>
      <trkpt lat="45.22626" lon="6.03017">
        <ele>2000</ele>
        <time>2014-01-12T14:06:13.000Z</time>
      </trkpt>
      <trkpt lat="45.22628" lon="6.03019">
        <ele>2000</ele>
        <time>2014-01-12T14:06:20.000Z</time>
      </trkpt>
      <trkpt lat="45.22629" lon="6.0302">
        <ele>2000</ele>
        <time>2014-01-12T14:06:26.000Z</time>
      </trkpt>
      <trkpt lat="45.22633" lon="6.03024">
        <ele>2001</ele>
        <time>2014-01-12T14:06:34.000Z</time>
      </trkpt>
      <trkpt lat="45.22635" lon="6.03029">
        <ele>2002</ele>
        <time>2014-01-12T14:06:41.000Z</time>
      </trkpt>
      <trkpt lat="45.22636" lon="6.03031">
        <ele>2002</ele>
        <time>2014-01-12T14:06:47.000Z</time>
      </trkpt>
      <trkpt lat="45.22638" lon="6.03034">
        <ele>2003</ele>
        <time>2014-01-12T14:06:53.000Z</time>
      </trkpt>
      <trkpt lat="45.22643" lon="6.03041">
        <ele>2004</ele>
        <time>2014-01-12T14:07:02.000Z</time>
      </trkpt>
      <trkpt lat="45.22644" lon="6.03041">
        <ele>2004</ele>
        <time>2014-01-12T14:07:07.000Z</time>
      </trkpt>
      <trkpt lat="45.22647" lon="6.03045">
        <ele>2005</ele>
        <time>2014-01-12T14:07:13.000Z</time>
      </trkpt>
      <trkpt lat="45.22647" lon="6.03047">
        <ele>2005</ele>
        <time>2014-01-12T14:07:15.000Z</time>
      </trkpt>
      <trkpt lat="45.22648" lon="6.03052">
        <ele>2007</ele>
        <time>2014-01-12T14:07:21.000Z</time>
      </trkpt>
      <trkpt lat="45.22651" lon="6.03058">
        <ele>2008</ele>
        <time>2014-01-12T14:07:28.000Z</time>
      </trkpt>
      <trkpt lat="45.22652" lon="6.03063">
        <ele>2010</ele>
        <time>2014-01-12T14:07:35.000Z</time>
      </trkpt>
      <trkpt lat="45.22654" lon="6.03067">
        <ele>2011</ele>
        <time>2014-01-12T14:07:40.000Z</time>
      </trkpt>
      <trkpt lat="45.22656" lon="6.03066">
        <ele>2011</ele>
        <time>2014-01-12T14:07:46.000Z</time>
      </trkpt>
      <trkpt lat="45.22658" lon="6.03064">
        <ele>2011</ele>
        <time>2014-01-12T14:07:52.000Z</time>
      </trkpt>
      <trkpt lat="45.2266" lon="6.03062">
        <ele>2011</ele>
        <time>2014-01-12T14:07:59.000Z</time>
      </trkpt>
      <trkpt lat="45.22663" lon="6.03062">
        <ele>2011</ele>
        <time>2014-01-12T14:08:04.000Z</time>
      </trkpt>
      <trkpt lat="45.22667" lon="6.03062">
        <ele>2018</ele>
        <time>2014-01-12T14:08:10.000Z</time>
      </trkpt>
      <trkpt lat="45.22669" lon="6.03063">
        <ele>2018</ele>
        <time>2014-01-12T14:08:16.000Z</time>
      </trkpt>
      <trkpt lat="45.2267" lon="6.03065">
        <ele>2019</ele>
        <time>2014-01-12T14:08:22.000Z</time>
      </trkpt>
      <trkpt lat="45.2267" lon="6.03069">
        <ele>2019</ele>
        <time>2014-01-12T14:08:28.000Z</time>
      </trkpt>
      <trkpt lat="45.22669" lon="6.03073">
        <ele>2020</ele>
        <time>2014-01-12T14:08:35.000Z</time>
      </trkpt>
      <trkpt lat="45.22667" lon="6.03081">
        <ele>2020</ele>
        <time>2014-01-12T14:08:43.000Z</time>
      </trkpt>
      <trkpt lat="45.22665" lon="6.03087">
        <ele>2023</ele>
        <time>2014-01-12T14:08:51.000Z</time>
      </trkpt>
      <trkpt lat="45.22664" lon="6.03089">
        <ele>2024</ele>
        <time>2014-01-12T14:08:57.000Z</time>
      </trkpt>
      <trkpt lat="45.22667" lon="6.03089">
        <ele>2026</ele>
        <time>2014-01-12T14:09:02.000Z</time>
      </trkpt>
      <trkpt lat="45.22672" lon="6.03089">
        <ele>2028</ele>
        <time>2014-01-12T14:09:09.000Z</time>
      </trkpt>
      <trkpt lat="45.22676" lon="6.03092">
        <ele>2030</ele>
        <time>2014-01-12T14:09:17.000Z</time>
      </trkpt>
      <trkpt lat="45.2268" lon="6.03096">
        <ele>2033</ele>
        <time>2014-01-12T14:09:26.000Z</time>
      </trkpt>
      <trkpt lat="45.22682" lon="6.03098">
        <ele>2034</ele>
        <time>2014-01-12T14:09:33.000Z</time>
      </trkpt>
      <trkpt lat="45.22683" lon="6.031">
        <ele>2035</ele>
        <time>2014-01-12T14:09:49.000Z</time>
      </trkpt>
      <trkpt lat="45.22685" lon="6.03105">
        <ele>2036</ele>
        <time>2014-01-12T14:09:57.000Z</time>
      </trkpt>
      <trkpt lat="45.22686" lon="6.03112">
        <ele>2038</ele>
        <time>2014-01-12T14:10:05.000Z</time>
      </trkpt>
      <trkpt lat="45.22686" lon="6.03118">
        <ele>2039</ele>
        <time>2014-01-12T14:10:13.000Z</time>
      </trkpt>
      <trkpt lat="45.22688" lon="6.03126">
        <ele>2041</ele>
        <time>2014-01-12T14:10:19.000Z</time>
      </trkpt>
      <trkpt lat="45.22692" lon="6.03133">
        <ele>2043</ele>
        <time>2014-01-12T14:10:27.000Z</time>
      </trkpt>
      <trkpt lat="45.22694" lon="6.03138">
        <ele>2043</ele>
        <time>2014-01-12T14:10:35.000Z</time>
      </trkpt>
      <trkpt lat="45.22694" lon="6.03142">
        <ele>2044</ele>
        <time>2014-01-12T14:10:40.000Z</time>
      </trkpt>
      <trkpt lat="45.22694" lon="6.03146">
        <ele>2044</ele>
        <time>2014-01-12T14:10:45.000Z</time>
      </trkpt>
      <trkpt lat="45.22697" lon="6.03155">
        <ele>2045</ele>
        <time>2014-01-12T14:10:53.000Z</time>
      </trkpt>
      <trkpt lat="45.227" lon="6.03161">
        <ele>2046</ele>
        <time>2014-01-12T14:11:01.000Z</time>
      </trkpt>
      <trkpt lat="45.22702" lon="6.03165">
        <ele>2047</ele>
        <time>2014-01-12T14:11:08.000Z</time>
      </trkpt>
      <trkpt lat="45.22702" lon="6.03171">
        <ele>2064</ele>
        <time>2014-01-12T14:11:14.000Z</time>
      </trkpt>
      <trkpt lat="45.22705" lon="6.03178">
        <ele>2066</ele>
        <time>2014-01-12T14:11:21.000Z</time>
      </trkpt>
      <trkpt lat="45.22708" lon="6.03183">
        <ele>2067</ele>
        <time>2014-01-12T14:11:28.000Z</time>
      </trkpt>
      <trkpt lat="45.2271" lon="6.03184">
        <ele>2067</ele>
        <time>2014-01-12T14:11:34.000Z</time>
      </trkpt>
      <trkpt lat="45.22711" lon="6.03186">
        <ele>2067</ele>
        <time>2014-01-12T14:11:42.000Z</time>
      </trkpt>
      <trkpt lat="45.22712" lon="6.03189">
        <ele>2068</ele>
        <time>2014-01-12T14:11:49.000Z</time>
      </trkpt>
      <trkpt lat="45.22717" lon="6.03196">
        <ele>2070</ele>
        <time>2014-01-12T14:11:59.000Z</time>
      </trkpt>
      <trkpt lat="45.2272" lon="6.03202">
        <ele>2071</ele>
        <time>2014-01-12T14:12:07.000Z</time>
      </trkpt>
      <trkpt lat="45.22722" lon="6.03205">
        <ele>2071</ele>
        <time>2014-01-12T14:12:14.000Z</time>
      </trkpt>
      <trkpt lat="45.22726" lon="6.03206">
        <ele>2072</ele>
        <time>2014-01-12T14:12:21.000Z</time>
      </trkpt>
      <trkpt lat="45.22728" lon="6.03209">
        <ele>2073</ele>
        <time>2014-01-12T14:12:27.000Z</time>
      </trkpt>
      <trkpt lat="45.22731" lon="6.03211">
        <ele>2073</ele>
        <time>2014-01-12T14:12:35.000Z</time>
      </trkpt>
      <trkpt lat="45.22734" lon="6.03214">
        <ele>2074</ele>
        <time>2014-01-12T14:12:43.000Z</time>
      </trkpt>
      <trkpt lat="45.22736" lon="6.03218">
        <ele>2075</ele>
        <time>2014-01-12T14:12:50.000Z</time>
      </trkpt>
      <trkpt lat="45.22739" lon="6.0322">
        <ele>2076</ele>
        <time>2014-01-12T14:12:55.000Z</time>
      </trkpt>
      <trkpt lat="45.2274" lon="6.03225">
        <ele>2077</ele>
        <time>2014-01-12T14:13:01.000Z</time>
      </trkpt>
      <trkpt lat="45.22736" lon="6.03229">
        <ele>2078</ele>
        <time>2014-01-12T14:13:08.000Z</time>
      </trkpt>
      <trkpt lat="45.22733" lon="6.03233">
        <ele>2078</ele>
        <time>2014-01-12T14:13:15.000Z</time>
      </trkpt>
      <trkpt lat="45.22729" lon="6.03237">
        <ele>2078</ele>
        <time>2014-01-12T14:13:23.000Z</time>
      </trkpt>
      <trkpt lat="45.22727" lon="6.03241">
        <ele>2079</ele>
        <time>2014-01-12T14:13:30.000Z</time>
      </trkpt>
      <trkpt lat="45.22722" lon="6.03244">
        <ele>2078</ele>
        <time>2014-01-12T14:13:38.000Z</time>
      </trkpt>
      <trkpt lat="45.22725" lon="6.03246">
        <ele>2079</ele>
        <time>2014-01-12T14:13:44.000Z</time>
      </trkpt>
      <trkpt lat="45.22728" lon="6.03247">
        <ele>2079</ele>
        <time>2014-01-12T14:13:49.000Z</time>
      </trkpt>
      <trkpt lat="45.22731" lon="6.03248">
        <ele>2080</ele>
        <time>2014-01-12T14:13:55.000Z</time>
      </trkpt>
      <trkpt lat="45.22736" lon="6.0325">
        <ele>2100</ele>
        <time>2014-01-12T14:14:02.000Z</time>
      </trkpt>
      <trkpt lat="45.22738" lon="6.03253">
        <ele>2099</ele>
        <time>2014-01-12T14:14:08.000Z</time>
      </trkpt>
      <trkpt lat="45.22739" lon="6.03255">
        <ele>2099</ele>
        <time>2014-01-12T14:14:14.000Z</time>
      </trkpt>
      <trkpt lat="45.22744" lon="6.03256">
        <ele>2097</ele>
        <time>2014-01-12T14:14:23.000Z</time>
      </trkpt>
      <trkpt lat="45.22746" lon="6.03257">
        <ele>2096</ele>
        <time>2014-01-12T14:14:29.000Z</time>
      </trkpt>
      <trkpt lat="45.22749" lon="6.03258">
        <ele>2097</ele>
        <time>2014-01-12T14:14:35.000Z</time>
      </trkpt>
      <trkpt lat="45.22752" lon="6.03259">
        <ele>2100</ele>
        <time>2014-01-12T14:14:41.000Z</time>
      </trkpt>
      <trkpt lat="45.22756" lon="6.03261">
        <ele>2103</ele>
        <time>2014-01-12T14:14:48.000Z</time>
      </trkpt>
      <trkpt lat="45.22759" lon="6.03261">
        <ele>2104</ele>
        <time>2014-01-12T14:14:55.000Z</time>
      </trkpt>
      <trkpt lat="45.22764" lon="6.03262">
        <ele>2107</ele>
        <time>2014-01-12T14:15:02.000Z</time>
      </trkpt>
      <trkpt lat="45.22768" lon="6.03263">
        <ele>2110</ele>
        <time>2014-01-12T14:15:08.000Z</time>
      </trkpt>
      <trkpt lat="45.22771" lon="6.03264">
        <ele>2111</ele>
        <time>2014-01-12T14:15:14.000Z</time>
      </trkpt>
      <trkpt lat="45.22773" lon="6.03265">
        <ele>2112</ele>
        <time>2014-01-12T14:15:21.000Z</time>
      </trkpt>
      <trkpt lat="45.22776" lon="6.03266">
        <ele>2114</ele>
        <time>2014-01-12T14:15:29.000Z</time>
      </trkpt>
      <trkpt lat="45.22777" lon="6.03266">
        <ele>2114</ele>
        <time>2014-01-12T14:15:35.000Z</time>
      </trkpt>
      <trkpt lat="45.2278" lon="6.03267">
        <ele>2115</ele>
        <time>2014-01-12T14:15:42.000Z</time>
      </trkpt>
      <trkpt lat="45.2278" lon="6.03269">
        <ele>2116</ele>
        <time>2014-01-12T14:15:48.000Z</time>
      </trkpt>
      <trkpt lat="45.2278" lon="6.03271">
        <ele>2116</ele>
        <time>2014-01-12T14:15:55.000Z</time>
      </trkpt>
      <trkpt lat="45.2278" lon="6.0327">
        <ele>2116</ele>
        <time>2014-01-12T14:16:01.000Z</time>
      </trkpt>
      <trkpt lat="45.22785" lon="6.03271">
        <ele>2118</ele>
        <time>2014-01-12T14:16:08.000Z</time>
      </trkpt>
      <trkpt lat="45.22789" lon="6.03271">
        <ele>2119</ele>
        <time>2014-01-12T14:16:14.000Z</time>
      </trkpt>
      <trkpt lat="45.22791" lon="6.03269">
        <ele>2119</ele>
        <time>2014-01-12T14:16:20.000Z</time>
      </trkpt>
      <trkpt lat="45.22791" lon="6.03271">
        <ele>2119</ele>
        <time>2014-01-12T14:16:28.000Z</time>
      </trkpt>
      <trkpt lat="45.2279" lon="6.03275">
        <ele>2120</ele>
        <time>2014-01-12T14:16:34.000Z</time>
      </trkpt>
      <trkpt lat="45.22789" lon="6.0328">
        <ele>2121</ele>
        <time>2014-01-12T14:16:39.000Z</time>
      </trkpt>
      <trkpt lat="45.22788" lon="6.03284">
        <ele>2121</ele>
        <time>2014-01-12T14:16:45.000Z</time>
      </trkpt>
      <trkpt lat="45.22787" lon="6.03285">
        <ele>2121</ele>
        <time>2014-01-12T14:16:51.000Z</time>
      </trkpt>
      <trkpt lat="45.22785" lon="6.03289">
        <ele>2122</ele>
        <time>2014-01-12T14:16:58.000Z</time>
      </trkpt>
      <trkpt lat="45.22783" lon="6.03292">
        <ele>2122</ele>
        <time>2014-01-12T14:17:07.000Z</time>
      </trkpt>
      <trkpt lat="45.22779" lon="6.03296">
        <ele>2123</ele>
        <time>2014-01-12T14:17:12.000Z</time>
      </trkpt>
      <trkpt lat="45.22778" lon="6.03298">
        <ele>2123</ele>
        <time>2014-01-12T14:17:18.000Z</time>
      </trkpt>
      <trkpt lat="45.22775" lon="6.03301">
        <ele>2124</ele>
        <time>2014-01-12T14:17:27.000Z</time>
      </trkpt>
      <trkpt lat="45.22769" lon="6.03306">
        <ele>2125</ele>
        <time>2014-01-12T14:17:37.000Z</time>
      </trkpt>
      <trkpt lat="45.22765" lon="6.0331">
        <ele>2126</ele>
        <time>2014-01-12T14:17:44.000Z</time>
      </trkpt>
      <trkpt lat="45.22766" lon="6.03311">
        <ele>2126</ele>
        <time>2014-01-12T14:17:53.000Z</time>
      </trkpt>
      <trkpt lat="45.22769" lon="6.0331">
        <ele>2126</ele>
        <time>2014-01-12T14:17:59.000Z</time>
      </trkpt>
      <trkpt lat="45.22773" lon="6.0331">
        <ele>2126</ele>
        <time>2014-01-12T14:18:04.000Z</time>
      </trkpt>
      <trkpt lat="45.22775" lon="6.03311">
        <ele>2126</ele>
        <time>2014-01-12T14:18:09.000Z</time>
      </trkpt>
      <trkpt lat="45.22778" lon="6.03309">
        <ele>2126</ele>
        <time>2014-01-12T14:18:15.000Z</time>
      </trkpt>
      <trkpt lat="45.22779" lon="6.0331">
        <ele>2126</ele>
        <time>2014-01-12T14:18:20.000Z</time>
      </trkpt>
      <trkpt lat="45.22783" lon="6.03309">
        <ele>2126</ele>
        <time>2014-01-12T14:18:27.000Z</time>
      </trkpt>
      <trkpt lat="45.22789" lon="6.0331">
        <ele>2127</ele>
        <time>2014-01-12T14:18:35.000Z</time>
      </trkpt>
      <trkpt lat="45.22791" lon="6.0331">
        <ele>2127</ele>
        <time>2014-01-12T14:18:44.000Z</time>
      </trkpt>
      <trkpt lat="45.22794" lon="6.03311">
        <ele>2127</ele>
        <time>2014-01-12T14:18:49.000Z</time>
      </trkpt>
      <trkpt lat="45.22796" lon="6.03313">
        <ele>2128</ele>
        <time>2014-01-12T14:18:55.000Z</time>
      </trkpt>
      <trkpt lat="45.228" lon="6.03313">
        <ele>2128</ele>
        <time>2014-01-12T14:19:03.000Z</time>
      </trkpt>
      <trkpt lat="45.22805" lon="6.0331">
        <ele>2129</ele>
        <time>2014-01-12T14:19:10.000Z</time>
      </trkpt>
      <trkpt lat="45.22808" lon="6.03307">
        <ele>2129</ele>
        <time>2014-01-12T14:19:17.000Z</time>
      </trkpt>
      <trkpt lat="45.2281" lon="6.03306">
        <ele>2129</ele>
        <time>2014-01-12T14:19:24.000Z</time>
      </trkpt>
      <trkpt lat="45.22812" lon="6.03305">
        <ele>2129</ele>
        <time>2014-01-12T14:19:31.000Z</time>
      </trkpt>
      <trkpt lat="45.22815" lon="6.03304">
        <ele>2129</ele>
        <time>2014-01-12T14:19:37.000Z</time>
      </trkpt>
      <trkpt lat="45.22818" lon="6.03303">
        <ele>2129</ele>
        <time>2014-01-12T14:19:44.000Z</time>
      </trkpt>
      <trkpt lat="45.22824" lon="6.03301">
        <ele>2129</ele>
        <time>2014-01-12T14:19:52.000Z</time>
      </trkpt>
      <trkpt lat="45.22827" lon="6.03301">
        <ele>2129</ele>
        <time>2014-01-12T14:19:57.000Z</time>
      </trkpt>
      <trkpt lat="45.22831" lon="6.03301">
        <ele>2130</ele>
        <time>2014-01-12T14:20:04.000Z</time>
      </trkpt>
      <trkpt lat="45.22834" lon="6.033">
        <ele>2143</ele>
        <time>2014-01-12T14:20:11.000Z</time>
      </trkpt>
      <trkpt lat="45.22837" lon="6.033">
        <ele>2144</ele>
        <time>2014-01-12T14:20:17.000Z</time>
      </trkpt>
      <trkpt lat="45.22842" lon="6.03301">
        <ele>2144</ele>
        <time>2014-01-12T14:20:24.000Z</time>
      </trkpt>
      <trkpt lat="45.22845" lon="6.03301">
        <ele>2144</ele>
        <time>2014-01-12T14:20:29.000Z</time>
      </trkpt>
      <trkpt lat="45.22849" lon="6.03302">
        <ele>2145</ele>
        <time>2014-01-12T14:20:37.000Z</time>
      </trkpt>
      <trkpt lat="45.22851" lon="6.03302">
        <ele>2145</ele>
        <time>2014-01-12T14:20:41.000Z</time>
      </trkpt>
      <trkpt lat="45.22856" lon="6.03303">
        <ele>2145</ele>
        <time>2014-01-12T14:20:49.000Z</time>
      </trkpt>
      <trkpt lat="45.2286" lon="6.03305">
        <ele>2146</ele>
        <time>2014-01-12T14:20:56.000Z</time>
      </trkpt>
      <trkpt lat="45.22865" lon="6.03306">
        <ele>2147</ele>
        <time>2014-01-12T14:21:03.000Z</time>
      </trkpt>
      <trkpt lat="45.22868" lon="6.03308">
        <ele>2147</ele>
        <time>2014-01-12T14:21:09.000Z</time>
      </trkpt>
      <trkpt lat="45.2287" lon="6.03309">
        <ele>2147</ele>
        <time>2014-01-12T14:21:16.000Z</time>
      </trkpt>
      <trkpt lat="45.22874" lon="6.03312">
        <ele>2148</ele>
        <time>2014-01-12T14:21:24.000Z</time>
      </trkpt>
      <trkpt lat="45.22879" lon="6.03313">
        <ele>2149</ele>
        <time>2014-01-12T14:21:32.000Z</time>
      </trkpt>
      <trkpt lat="45.22884" lon="6.03313">
        <ele>2150</ele>
        <time>2014-01-12T14:21:39.000Z</time>
      </trkpt>
      <trkpt lat="45.22889" lon="6.03315">
        <ele>2151</ele>
        <time>2014-01-12T14:21:47.000Z</time>
      </trkpt>
      <trkpt lat="45.2289" lon="6.03316">
        <ele>2151</ele>
        <time>2014-01-12T14:21:53.000Z</time>
      </trkpt>
      <trkpt lat="45.22895" lon="6.03317">
        <ele>2152</ele>
        <time>2014-01-12T14:22:00.000Z</time>
      </trkpt>
      <trkpt lat="45.22897" lon="6.03317">
        <ele>2153</ele>
        <time>2014-01-12T14:22:06.000Z</time>
      </trkpt>
      <trkpt lat="45.22901" lon="6.03316">
        <ele>2153</ele>
        <time>2014-01-12T14:22:13.000Z</time>
      </trkpt>
      <trkpt lat="45.22905" lon="6.03315">
        <ele>2154</ele>
        <time>2014-01-12T14:22:19.000Z</time>
      </trkpt>
      <trkpt lat="45.22906" lon="6.03319">
        <ele>2155</ele>
        <time>2014-01-12T14:22:24.000Z</time>
      </trkpt>
      <trkpt lat="45.22907" lon="6.03324">
        <ele>2156</ele>
        <time>2014-01-12T14:22:31.000Z</time>
      </trkpt>
      <trkpt lat="45.22906" lon="6.03331">
        <ele>2157</ele>
        <time>2014-01-12T14:22:39.000Z</time>
      </trkpt>
      <trkpt lat="45.22906" lon="6.03333">
        <ele>2157</ele>
        <time>2014-01-12T14:22:46.000Z</time>
      </trkpt>
      <trkpt lat="45.22906" lon="6.03334">
        <ele>2165</ele>
        <time>2014-01-12T14:22:53.000Z</time>
      </trkpt>
      <trkpt lat="45.2291" lon="6.03336">
        <ele>2165</ele>
        <time>2014-01-12T14:23:01.000Z</time>
      </trkpt>
      <trkpt lat="45.22913" lon="6.03336">
        <ele>2164</ele>
        <time>2014-01-12T14:23:07.000Z</time>
      </trkpt>
      <trkpt lat="45.22915" lon="6.03336">
        <ele>2164</ele>
        <time>2014-01-12T14:23:14.000Z</time>
      </trkpt>
      <trkpt lat="45.22915" lon="6.03336">
        <ele>2164</ele>
        <time>2014-01-12T14:23:20.000Z</time>
      </trkpt>
      <trkpt lat="45.22918" lon="6.03337">
        <ele>2167</ele>
        <time>2014-01-12T14:23:26.000Z</time>
      </trkpt>
      <trkpt lat="45.22921" lon="6.0334">
        <ele>2171</ele>
        <time>2014-01-12T14:23:33.000Z</time>
      </trkpt>
      <trkpt lat="45.22924" lon="6.03344">
        <ele>2174</ele>
        <time>2014-01-12T14:23:41.000Z</time>
      </trkpt>
      <trkpt lat="45.22925" lon="6.03347">
        <ele>2176</ele>
        <time>2014-01-12T14:23:47.000Z</time>
      </trkpt>
      <trkpt lat="45.22927" lon="6.03351">
        <ele>2178</ele>
        <time>2014-01-12T14:23:54.000Z</time>
      </trkpt>
      <trkpt lat="45.22927" lon="6.03355">
        <ele>2179</ele>
        <time>2014-01-12T14:24:03.000Z</time>
      </trkpt>
      <trkpt lat="45.22925" lon="6.03364">
        <ele>2181</ele>
        <time>2014-01-12T14:24:12.000Z</time>
      </trkpt>
      <trkpt lat="45.22924" lon="6.03369">
        <ele>2182</ele>
        <time>2014-01-12T14:24:18.000Z</time>
      </trkpt>
      <trkpt lat="45.22924" lon="6.0337">
        <ele>2182</ele>
        <time>2014-01-12T14:24:25.000Z</time>
      </trkpt>
      <trkpt lat="45.22924" lon="6.03372">
        <ele>2183</ele>
        <time>2014-01-12T14:24:30.000Z</time>
      </trkpt>
      <trkpt lat="45.22923" lon="6.03376">
        <ele>2183</ele>
        <time>2014-01-12T14:24:36.000Z</time>
      </trkpt>
      <trkpt lat="45.22921" lon="6.03381">
        <ele>2183</ele>
        <time>2014-01-12T14:24:45.000Z</time>
      </trkpt>
      <trkpt lat="45.22924" lon="6.03387">
        <ele>2184</ele>
        <time>2014-01-12T14:24:53.000Z</time>
      </trkpt>
      <trkpt lat="45.22925" lon="6.0339">
        <ele>2184</ele>
        <time>2014-01-12T14:24:58.000Z</time>
      </trkpt>
      <trkpt lat="45.22926" lon="6.03391">
        <ele>2184</ele>
        <time>2014-01-12T14:25:05.000Z</time>
      </trkpt>
      <trkpt lat="45.22929" lon="6.03393">
        <ele>2185</ele>
        <time>2014-01-12T14:25:12.000Z</time>
      </trkpt>
      <trkpt lat="45.22933" lon="6.03398">
        <ele>2185</ele>
        <time>2014-01-12T14:25:21.000Z</time>
      </trkpt>
      <trkpt lat="45.22937" lon="6.03401">
        <ele>2185</ele>
        <time>2014-01-12T14:25:29.000Z</time>
      </trkpt>
      <trkpt lat="45.22939" lon="6.03403">
        <ele>2186</ele>
        <time>2014-01-12T14:25:36.000Z</time>
      </trkpt>
      <trkpt lat="45.2294" lon="6.03406">
        <ele>2186</ele>
        <time>2014-01-12T14:25:43.000Z</time>
      </trkpt>
      <trkpt lat="45.22941" lon="6.03411">
        <ele>2186</ele>
        <time>2014-01-12T14:25:50.000Z</time>
      </trkpt>
      <trkpt lat="45.22945" lon="6.03417">
        <ele>2193</ele>
        <time>2014-01-12T14:25:57.000Z</time>
      </trkpt>
      <trkpt lat="45.22947" lon="6.0342">
        <ele>2194</ele>
        <time>2014-01-12T14:26:04.000Z</time>
      </trkpt>
      <trkpt lat="45.22952" lon="6.03422">
        <ele>2195</ele>
        <time>2014-01-12T14:26:12.000Z</time>
      </trkpt>
      <trkpt lat="45.22956" lon="6.03424">
        <ele>2196</ele>
        <time>2014-01-12T14:26:18.000Z</time>
      </trkpt>
      <trkpt lat="45.22961" lon="6.03424">
        <ele>2197</ele>
        <time>2014-01-12T14:26:25.000Z</time>
      </trkpt>
      <trkpt lat="45.22964" lon="6.03426">
        <ele>2197</ele>
        <time>2014-01-12T14:26:32.000Z</time>
      </trkpt>
      <trkpt lat="45.22966" lon="6.03428">
        <ele>2198</ele>
        <time>2014-01-12T14:26:38.000Z</time>
      </trkpt>
      <trkpt lat="45.22969" lon="6.0343">
        <ele>2198</ele>
        <time>2014-01-12T14:26:45.000Z</time>
      </trkpt>
      <trkpt lat="45.22974" lon="6.03433">
        <ele>2199</ele>
        <time>2014-01-12T14:26:52.000Z</time>
      </trkpt>
      <trkpt lat="45.22976" lon="6.03436">
        <ele>2199</ele>
        <time>2014-01-12T14:26:59.000Z</time>
      </trkpt>
      <trkpt lat="45.22979" lon="6.0344">
        <ele>2199</ele>
        <time>2014-01-12T14:27:08.000Z</time>
      </trkpt>
      <trkpt lat="45.22981" lon="6.03446">
        <ele>2200</ele>
        <time>2014-01-12T14:27:15.000Z</time>
      </trkpt>
      <trkpt lat="45.22984" lon="6.03451">
        <ele>2200</ele>
        <time>2014-01-12T14:27:22.000Z</time>
      </trkpt>
      <trkpt lat="45.22984" lon="6.03453">
        <ele>2200</ele>
        <time>2014-01-12T14:27:30.000Z</time>
      </trkpt>
      <trkpt lat="45.22984" lon="6.03457">
        <ele>2200</ele>
        <time>2014-01-12T14:27:37.000Z</time>
      </trkpt>
      <trkpt lat="45.22985" lon="6.0346">
        <ele>2200</ele>
        <time>2014-01-12T14:27:39.000Z</time>
      </trkpt>
      <trkpt lat="45.22989" lon="6.03475">
        <ele>2202</ele>
        <time>2014-01-12T14:27:48.000Z</time>
      </trkpt>
      <trkpt lat="45.2299" lon="6.03479">
        <ele>2202</ele>
        <time>2014-01-12T14:27:51.000Z</time>
      </trkpt>
      <trkpt lat="45.22993" lon="6.03483">
        <ele>2203</ele>
        <time>2014-01-12T14:27:57.000Z</time>
      </trkpt>
      <trkpt lat="45.22996" lon="6.03488">
        <ele>2203</ele>
        <time>2014-01-12T14:28:04.000Z</time>
      </trkpt>
      <trkpt lat="45.22998" lon="6.03493">
        <ele>2204</ele>
        <time>2014-01-12T14:28:12.000Z</time>
      </trkpt>
      <trkpt lat="45.23001" lon="6.03496">
        <ele>2209</ele>
        <time>2014-01-12T14:28:19.000Z</time>
      </trkpt>
      <trkpt lat="45.23005" lon="6.03499">
        <ele>2210</ele>
        <time>2014-01-12T14:28:26.000Z</time>
      </trkpt>
      <trkpt lat="45.23008" lon="6.03501">
        <ele>2215</ele>
        <time>2014-01-12T14:28:33.000Z</time>
      </trkpt>
      <trkpt lat="45.23012" lon="6.03503">
        <ele>2220</ele>
        <time>2014-01-12T14:28:40.000Z</time>
      </trkpt>
      <trkpt lat="45.23017" lon="6.03507">
        <ele>2224</ele>
        <time>2014-01-12T14:28:49.000Z</time>
      </trkpt>
      <trkpt lat="45.23021" lon="6.03509">
        <ele>2228</ele>
        <time>2014-01-12T14:28:57.000Z</time>
      </trkpt>
      <trkpt lat="45.23022" lon="6.0351">
        <ele>2229</ele>
        <time>2014-01-12T14:29:03.000Z</time>
      </trkpt>
      <trkpt lat="45.23025" lon="6.03515">
        <ele>2231</ele>
        <time>2014-01-12T14:29:12.000Z</time>
      </trkpt>
      <trkpt lat="45.23026" lon="6.0352">
        <ele>2233</ele>
        <time>2014-01-12T14:29:19.000Z</time>
      </trkpt>
      <trkpt lat="45.23026" lon="6.03527">
        <ele>2235</ele>
        <time>2014-01-12T14:29:27.000Z</time>
      </trkpt>
      <trkpt lat="45.23024" lon="6.03534">
        <ele>2236</ele>
        <time>2014-01-12T14:29:35.000Z</time>
      </trkpt>
      <trkpt lat="45.23025" lon="6.03537">
        <ele>2237</ele>
        <time>2014-01-12T14:29:43.000Z</time>
      </trkpt>
      <trkpt lat="45.23026" lon="6.03543">
        <ele>2239</ele>
        <time>2014-01-12T14:29:51.000Z</time>
      </trkpt>
      <trkpt lat="45.23026" lon="6.03549">
        <ele>2240</ele>
        <time>2014-01-12T14:29:58.000Z</time>
      </trkpt>
      <trkpt lat="45.23026" lon="6.0355">
        <ele>2240</ele>
        <time>2014-01-12T14:30:03.000Z</time>
      </trkpt>
      <trkpt lat="45.23026" lon="6.03549">
        <ele>2240</ele>
        <time>2014-01-12T14:30:13.000Z</time>
      </trkpt>
      <trkpt lat="45.2303" lon="6.03547">
        <ele>2240</ele>
        <time>2014-01-12T14:30:48.000Z</time>
      </trkpt>
      <trkpt lat="45.23035" lon="6.03546">
        <ele>2241</ele>
        <time>2014-01-12T14:30:55.000Z</time>
      </trkpt>
      <trkpt lat="45.2304" lon="6.03546">
        <ele>2241</ele>
        <time>2014-01-12T14:31:02.000Z</time>
      </trkpt>
      <trkpt lat="45.23043" lon="6.03544">
        <ele>2242</ele>
        <time>2014-01-12T14:31:10.000Z</time>
      </trkpt>
      <trkpt lat="45.23045" lon="6.03544">
        <ele>2242</ele>
        <time>2014-01-12T14:31:14.000Z</time>
      </trkpt>
      <trkpt lat="45.23046" lon="6.03546">
        <ele>2243</ele>
        <time>2014-01-12T14:31:20.000Z</time>
      </trkpt>
      <trkpt lat="45.23046" lon="6.0355">
        <ele>2243</ele>
        <time>2014-01-12T14:31:27.000Z</time>
      </trkpt>
      <trkpt lat="45.23047" lon="6.03557">
        <ele>2244</ele>
        <time>2014-01-12T14:31:39.000Z</time>
      </trkpt>
      <trkpt lat="45.23047" lon="6.03564">
        <ele>2245</ele>
        <time>2014-01-12T14:31:48.000Z</time>
      </trkpt>
      <trkpt lat="45.23047" lon="6.03565">
        <ele>2245</ele>
        <time>2014-01-12T14:31:57.000Z</time>
      </trkpt>
      <trkpt lat="45.23046" lon="6.03568">
        <ele>2245</ele>
        <time>2014-01-12T14:32:03.000Z</time>
      </trkpt>
      <trkpt lat="45.23045" lon="6.03573">
        <ele>2246</ele>
        <time>2014-01-12T14:32:14.000Z</time>
      </trkpt>
      <trkpt lat="45.23043" lon="6.03577">
        <ele>2246</ele>
        <time>2014-01-12T14:32:20.000Z</time>
      </trkpt>
      <trkpt lat="45.23043" lon="6.0358">
        <ele>2246</ele>
        <time>2014-01-12T14:32:27.000Z</time>
      </trkpt>
      <trkpt lat="45.23043" lon="6.03583">
        <ele>2259</ele>
        <time>2014-01-12T14:32:32.000Z</time>
      </trkpt>
      <trkpt lat="45.23041" lon="6.03588">
        <ele>2258</ele>
        <time>2014-01-12T14:32:38.000Z</time>
      </trkpt>
      <trkpt lat="45.2304" lon="6.03589">
        <ele>2258</ele>
        <time>2014-01-12T14:32:48.000Z</time>
      </trkpt>
      <trkpt lat="45.2304" lon="6.03591">
        <ele>2259</ele>
        <time>2014-01-12T14:32:58.000Z</time>
      </trkpt>
      <trkpt lat="45.23043" lon="6.03592">
        <ele>2259</ele>
        <time>2014-01-12T14:33:05.000Z</time>
      </trkpt>
      <trkpt lat="45.23045" lon="6.03593">
        <ele>2259</ele>
        <time>2014-01-12T14:33:12.000Z</time>
      </trkpt>
      <trkpt lat="45.23047" lon="6.03593">
        <ele>2259</ele>
        <time>2014-01-12T14:33:18.000Z</time>
      </trkpt>
      <trkpt lat="45.23047" lon="6.03593">
        <ele>2259</ele>
        <time>2014-01-12T14:33:21.000Z</time>
      </trkpt>
      <trkpt lat="45.23048" lon="6.03594">
        <ele>2260</ele>
        <time>2014-01-12T14:33:26.000Z</time>
      </trkpt>
      <trkpt lat="45.2305" lon="6.03595">
        <ele>2260</ele>
        <time>2014-01-12T14:33:32.000Z</time>
      </trkpt>
      <trkpt lat="45.23053" lon="6.03595">
        <ele>2260</ele>
        <time>2014-01-12T14:33:39.000Z</time>
      </trkpt>
      <trkpt lat="45.23053" lon="6.03595">
        <ele>2260</ele>
        <time>2014-01-12T14:33:48.000Z</time>
      </trkpt>
      <trkpt lat="45.23056" lon="6.03595">
        <ele>2260</ele>
        <time>2014-01-12T14:33:54.000Z</time>
      </trkpt>
      <trkpt lat="45.23057" lon="6.03595">
        <ele>2260</ele>
        <time>2014-01-12T14:34:02.000Z</time>
      </trkpt>
      <trkpt lat="45.23057" lon="6.03597">
        <ele>2261</ele>
        <time>2014-01-12T14:34:08.000Z</time>
      </trkpt>
      <trkpt lat="45.23057" lon="6.03601">
        <ele>2261</ele>
        <time>2014-01-12T14:34:14.000Z</time>
      </trkpt>
      <trkpt lat="45.23056" lon="6.03604">
        <ele>2261</ele>
        <time>2014-01-12T14:34:20.000Z</time>
      </trkpt>
      <trkpt lat="45.23053" lon="6.03609">
        <ele>2261</ele>
        <time>2014-01-12T14:34:27.000Z</time>
      </trkpt>
      <trkpt lat="45.23052" lon="6.03611">
        <ele>2261</ele>
        <time>2014-01-12T14:34:35.000Z</time>
      </trkpt>
      <trkpt lat="45.2305" lon="6.03617">
        <ele>2261</ele>
        <time>2014-01-12T14:34:41.000Z</time>
      </trkpt>
      <trkpt lat="45.2305" lon="6.03619">
        <ele>2262</ele>
        <time>2014-01-12T14:34:47.000Z</time>
      </trkpt>
      <trkpt lat="45.23048" lon="6.03621">
        <ele>2262</ele>
        <time>2014-01-12T14:34:53.000Z</time>
      </trkpt>
      <trkpt lat="45.23049" lon="6.03622">
        <ele>2262</ele>
        <time>2014-01-12T14:35:00.000Z</time>
      </trkpt>
      <trkpt lat="45.23051" lon="6.03623">
        <ele>2262</ele>
        <time>2014-01-12T14:35:07.000Z</time>
      </trkpt>
      <trkpt lat="45.23054" lon="6.03625">
        <ele>2262</ele>
        <time>2014-01-12T14:35:13.000Z</time>
      </trkpt>
      <trkpt lat="45.23055" lon="6.03626">
        <ele>2263</ele>
        <time>2014-01-12T14:35:20.000Z</time>
      </trkpt>
      <trkpt lat="45.23059" lon="6.03626">
        <ele>2263</ele>
        <time>2014-01-12T14:35:26.000Z</time>
      </trkpt>
      <trkpt lat="45.23062" lon="6.03627">
        <ele>2263</ele>
        <time>2014-01-12T14:35:33.000Z</time>
      </trkpt>
      <trkpt lat="45.23064" lon="6.0363">
        <ele>2263</ele>
        <time>2014-01-12T14:35:40.000Z</time>
      </trkpt>
      <trkpt lat="45.23065" lon="6.03635">
        <ele>2264</ele>
        <time>2014-01-12T14:35:47.000Z</time>
      </trkpt>
      <trkpt lat="45.23066" lon="6.03641">
        <ele>2265</ele>
        <time>2014-01-12T14:35:53.000Z</time>
      </trkpt>
      <trkpt lat="45.23067" lon="6.03643">
        <ele>2265</ele>
        <time>2014-01-12T14:36:00.000Z</time>
      </trkpt>
      <trkpt lat="45.2307" lon="6.03644">
        <ele>2265</ele>
        <time>2014-01-12T14:36:08.000Z</time>
      </trkpt>
      <trkpt lat="45.23071" lon="6.03647">
        <ele>2266</ele>
        <time>2014-01-12T14:36:14.000Z</time>
      </trkpt>
      <trkpt lat="45.23074" lon="6.03652">
        <ele>2267</ele>
        <time>2014-01-12T14:36:21.000Z</time>
      </trkpt>
      <trkpt lat="45.23077" lon="6.03657">
        <ele>2268</ele>
        <time>2014-01-12T14:36:28.000Z</time>
      </trkpt>
      <trkpt lat="45.23079" lon="6.0366">
        <ele>2269</ele>
        <time>2014-01-12T14:36:35.000Z</time>
      </trkpt>
      <trkpt lat="45.23081" lon="6.03662">
        <ele>2269</ele>
        <time>2014-01-12T14:36:41.000Z</time>
      </trkpt>
      <trkpt lat="45.23083" lon="6.03667">
        <ele>2271</ele>
        <time>2014-01-12T14:36:48.000Z</time>
      </trkpt>
      <trkpt lat="45.23085" lon="6.03672">
        <ele>2269</ele>
        <time>2014-01-12T14:36:56.000Z</time>
      </trkpt>
      <trkpt lat="45.2309" lon="6.03672">
        <ele>2268</ele>
        <time>2014-01-12T14:37:05.000Z</time>
      </trkpt>
      <trkpt lat="45.23093" lon="6.03671">
        <ele>2268</ele>
        <time>2014-01-12T14:37:12.000Z</time>
      </trkpt>
      <trkpt lat="45.23096" lon="6.03667">
        <ele>2268</ele>
        <time>2014-01-12T14:37:19.000Z</time>
      </trkpt>
      <trkpt lat="45.23099" lon="6.03668">
        <ele>2267</ele>
        <time>2014-01-12T14:37:26.000Z</time>
      </trkpt>
      <trkpt lat="45.23103" lon="6.03667">
        <ele>2267</ele>
        <time>2014-01-12T14:37:34.000Z</time>
      </trkpt>
      <trkpt lat="45.23106" lon="6.03667">
        <ele>2266</ele>
        <time>2014-01-12T14:37:40.000Z</time>
      </trkpt>
      <trkpt lat="45.2311" lon="6.03664">
        <ele>2274</ele>
        <time>2014-01-12T14:37:48.000Z</time>
      </trkpt>
      <trkpt lat="45.23112" lon="6.03661">
        <ele>2274</ele>
        <time>2014-01-12T14:37:55.000Z</time>
      </trkpt>
      <trkpt lat="45.23112" lon="6.03653">
        <ele>2274</ele>
        <time>2014-01-12T14:38:01.000Z</time>
      </trkpt>
      <trkpt lat="45.23112" lon="6.03646">
        <ele>2274</ele>
        <time>2014-01-12T14:38:08.000Z</time>
      </trkpt>
      <trkpt lat="45.23113" lon="6.0364">
        <ele>2274</ele>
        <time>2014-01-12T14:38:14.000Z</time>
      </trkpt>
      <trkpt lat="45.23114" lon="6.03635">
        <ele>2275</ele>
        <time>2014-01-12T14:38:20.000Z</time>
      </trkpt>
      <trkpt lat="45.23114" lon="6.03633">
        <ele>2275</ele>
        <time>2014-01-12T14:38:26.000Z</time>
      </trkpt>
      <trkpt lat="45.23114" lon="6.0363">
        <ele>2275</ele>
        <time>2014-01-12T14:38:33.000Z</time>
      </trkpt>
      <trkpt lat="45.23113" lon="6.03626">
        <ele>2275</ele>
        <time>2014-01-12T14:38:38.000Z</time>
      </trkpt>
      <trkpt lat="45.2311" lon="6.0362">
        <ele>2274</ele>
        <time>2014-01-12T14:38:46.000Z</time>
      </trkpt>
      <trkpt lat="45.23109" lon="6.03618">
        <ele>2274</ele>
        <time>2014-01-12T14:38:53.000Z</time>
      </trkpt>
      <trkpt lat="45.23108" lon="6.03617">
        <ele>2274</ele>
        <time>2014-01-12T14:38:56.000Z</time>
      </trkpt>
      <trkpt lat="45.23104" lon="6.03615">
        <ele>2273</ele>
        <time>2014-01-12T14:39:03.000Z</time>
      </trkpt>
      <trkpt lat="45.23103" lon="6.03614">
        <ele>2273</ele>
        <time>2014-01-12T14:39:10.000Z</time>
      </trkpt>
      <trkpt lat="45.23103" lon="6.03613">
        <ele>2273</ele>
        <time>2014-01-12T14:39:46.000Z</time>
      </trkpt>
      <trkpt lat="45.23103" lon="6.03613">
        <ele>2273</ele>
        <time>2014-01-12T14:39:47.000Z</time>
      </trkpt>
      <trkpt lat="45.23102" lon="6.03611">
        <ele>2273</ele>
        <time>2014-01-12T14:39:54.000Z</time>
      </trkpt>
      <trkpt lat="45.23102" lon="6.03611">
        <ele>2273</ele>
        <time>2014-01-12T14:40:10.000Z</time>
      </trkpt>
      <trkpt lat="45.23102" lon="6.0361">
        <ele>2273</ele>
        <time>2014-01-12T14:40:38.000Z</time>
      </trkpt>
      <trkpt lat="45.23102" lon="6.03611">
        <ele>2273</ele>
        <time>2014-01-12T14:41:06.000Z</time>
      </trkpt>
      <trkpt lat="45.23102" lon="6.03609">
        <ele>2272</ele>
        <time>2014-01-12T14:42:32.000Z</time>
      </trkpt>
      <trkpt lat="45.23101" lon="6.0361">
        <ele>2272</ele>
        <time>2014-01-12T14:43:33.000Z</time>
      </trkpt>
      <trkpt lat="45.23101" lon="6.0361">
        <ele>2272</ele>
        <time>2014-01-12T14:43:47.000Z</time>
      </trkpt>
      <trkpt lat="45.23101" lon="6.0361">
        <ele>2272</ele>
        <time>2014-01-12T14:45:11.000Z</time>
      </trkpt>
      <trkpt lat="45.23103" lon="6.0361">
        <ele>2273</ele>
        <time>2014-01-12T14:47:30.000Z</time>
      </trkpt>
      <trkpt lat="45.23102" lon="6.03609">
        <ele>2273</ele>
        <time>2014-01-12T14:47:48.000Z</time>
      </trkpt>
      <trkpt lat="45.23102" lon="6.03609">
        <ele>2273</ele>
        <time>2014-01-12T14:47:50.000Z</time>
      </trkpt>
      <trkpt lat="45.23102" lon="6.03609">
        <ele>2273</ele>
        <time>2014-01-12T14:47:58.000Z</time>
      </trkpt>
      <trkpt lat="45.23103" lon="6.0361">
        <ele>2273</ele>
        <time>2014-01-12T14:48:18.000Z</time>
      </trkpt>
      <trkpt lat="45.23103" lon="6.03609">
        <ele>2273</ele>
        <time>2014-01-12T14:49:01.000Z</time>
      </trkpt>
      <trkpt lat="45.23103" lon="6.0361">
        <ele>2273</ele>
        <time>2014-01-12T14:49:07.000Z</time>
      </trkpt>
      <trkpt lat="45.23103" lon="6.03611">
        <ele>2273</ele>
        <time>2014-01-12T14:49:23.000Z</time>
      </trkpt>
      <trkpt lat="45.23103" lon="6.03611">
        <ele>2273</ele>
        <time>2014-01-12T14:49:33.000Z</time>
      </trkpt>
      <trkpt lat="45.23103" lon="6.03611">
        <ele>2273</ele>
        <time>2014-01-12T14:49:47.000Z</time>
      </trkpt>
      <trkpt lat="45.23103" lon="6.03611">
        <ele>2273</ele>
        <time>2014-01-12T14:50:35.000Z</time>
      </trkpt>
      <trkpt lat="45.23102" lon="6.03611">
        <ele>2273</ele>
        <time>2014-01-12T14:51:10.000Z</time>
      </trkpt>
      <trkpt lat="45.23102" lon="6.03612">
        <ele>2273</ele>
        <time>2014-01-12T14:51:25.000Z</time>
      </trkpt>
      <trkpt lat="45.23101" lon="6.03612">
        <ele>2273</ele>
        <time>2014-01-12T14:53:01.000Z</time>
      </trkpt>
      <trkpt lat="45.23101" lon="6.03612">
        <ele>2273</ele>
        <time>2014-01-12T14:53:10.000Z</time>
      </trkpt>
      <trkpt lat="45.23111" lon="6.03622">
        <ele>2274</ele>
        <time>2014-01-12T14:53:15.000Z</time>
      </trkpt>
      <trkpt lat="45.23114" lon="6.03635">
        <ele>2275</ele>
        <time>2014-01-12T14:53:19.000Z</time>
      </trkpt>
      <trkpt lat="45.23104" lon="6.03639">
        <ele>2274</ele>
        <time>2014-01-12T14:53:22.000Z</time>
      </trkpt>
      <trkpt lat="45.23098" lon="6.03643">
        <ele>2273</ele>
        <time>2014-01-12T14:53:25.000Z</time>
      </trkpt>
      <trkpt lat="45.23101" lon="6.03651">
        <ele>2273</ele>
        <time>2014-01-12T14:53:27.000Z</time>
      </trkpt>
      <trkpt lat="45.23102" lon="6.03654">
        <ele>2273</ele>
        <time>2014-01-12T14:53:31.000Z</time>
      </trkpt>
      <trkpt lat="45.23102" lon="6.03657">
        <ele>2273</ele>
        <time>2014-01-12T14:53:35.000Z</time>
      </trkpt>
      <trkpt lat="45.23104" lon="6.03668">
        <ele>2267</ele>
        <time>2014-01-12T14:53:37.000Z</time>
      </trkpt>
      <trkpt lat="45.23096" lon="6.03673">
        <ele>2267</ele>
        <time>2014-01-12T14:53:40.000Z</time>
      </trkpt>
      <trkpt lat="45.2308" lon="6.03662">
        <ele>2269</ele>
        <time>2014-01-12T14:53:44.000Z</time>
      </trkpt>
      <trkpt lat="45.23069" lon="6.03658">
        <ele>2267</ele>
        <time>2014-01-12T14:53:47.000Z</time>
      </trkpt>
      <trkpt lat="45.23069" lon="6.03652">
        <ele>2266</ele>
        <time>2014-01-12T14:53:48.000Z</time>
      </trkpt>
      <trkpt lat="45.23063" lon="6.03645">
        <ele>2265</ele>
        <time>2014-01-12T14:53:50.000Z</time>
      </trkpt>
      <trkpt lat="45.23059" lon="6.03633">
        <ele>2263</ele>
        <time>2014-01-12T14:53:53.000Z</time>
      </trkpt>
      <trkpt lat="45.23051" lon="6.03622">
        <ele>2262</ele>
        <time>2014-01-12T14:53:56.000Z</time>
      </trkpt>
      <trkpt lat="45.23046" lon="6.03616">
        <ele>2261</ele>
        <time>2014-01-12T14:53:58.000Z</time>
      </trkpt>
      <trkpt lat="45.23045" lon="6.03606">
        <ele>2260</ele>
        <time>2014-01-12T14:54:00.000Z</time>
      </trkpt>
      <trkpt lat="45.23042" lon="6.03604">
        <ele>2260</ele>
        <time>2014-01-12T14:54:01.000Z</time>
      </trkpt>
      <trkpt lat="45.23039" lon="6.03596">
        <ele>2259</ele>
        <time>2014-01-12T14:54:03.000Z</time>
      </trkpt>
      <trkpt lat="45.23038" lon="6.03587">
        <ele>2258</ele>
        <time>2014-01-12T14:54:05.000Z</time>
      </trkpt>
      <trkpt lat="45.23038" lon="6.03575">
        <ele>2245</ele>
        <time>2014-01-12T14:54:07.000Z</time>
      </trkpt>
      <trkpt lat="45.23049" lon="6.03554">
        <ele>2244</ele>
        <time>2014-01-12T14:54:11.000Z</time>
      </trkpt>
      <trkpt lat="45.2305" lon="6.03554">
        <ele>2244</ele>
        <time>2014-01-12T14:54:16.000Z</time>
      </trkpt>
      <trkpt lat="45.2305" lon="6.03554">
        <ele>2244</ele>
        <time>2014-01-12T14:54:24.000Z</time>
      </trkpt>
      <trkpt lat="45.23044" lon="6.03537">
        <ele>2241</ele>
        <time>2014-01-12T14:54:29.000Z</time>
      </trkpt>
      <trkpt lat="45.23034" lon="6.03542">
        <ele>2240</ele>
        <time>2014-01-12T14:54:31.000Z</time>
      </trkpt>
      <trkpt lat="45.23026" lon="6.03535">
        <ele>2237</ele>
        <time>2014-01-12T14:54:34.000Z</time>
      </trkpt>
      <trkpt lat="45.23029" lon="6.03517">
        <ele>2233</ele>
        <time>2014-01-12T14:54:36.000Z</time>
      </trkpt>
      <trkpt lat="45.2303" lon="6.03487">
        <ele>2226</ele>
        <time>2014-01-12T14:54:39.000Z</time>
      </trkpt>
      <trkpt lat="45.23031" lon="6.03481">
        <ele>2227</ele>
        <time>2014-01-12T14:54:40.000Z</time>
      </trkpt>
      <trkpt lat="45.23019" lon="6.03465">
        <ele>2224</ele>
        <time>2014-01-12T14:54:45.000Z</time>
      </trkpt>
      <trkpt lat="45.23016" lon="6.0346">
        <ele>2223</ele>
        <time>2014-01-12T14:54:46.000Z</time>
      </trkpt>
      <trkpt lat="45.23005" lon="6.03431">
        <ele>2214</ele>
        <time>2014-01-12T14:54:53.000Z</time>
      </trkpt>
      <trkpt lat="45.23002" lon="6.0342">
        <ele>2205</ele>
        <time>2014-01-12T14:54:56.000Z</time>
      </trkpt>
      <trkpt lat="45.22993" lon="6.03395">
        <ele>2195</ele>
        <time>2014-01-12T14:55:02.000Z</time>
      </trkpt>
      <trkpt lat="45.22986" lon="6.03379">
        <ele>2194</ele>
        <time>2014-01-12T14:55:05.000Z</time>
      </trkpt>
      <trkpt lat="45.22982" lon="6.03363">
        <ele>2195</ele>
        <time>2014-01-12T14:55:08.000Z</time>
      </trkpt>
      <trkpt lat="45.2298" lon="6.03342">
        <ele>2198</ele>
        <time>2014-01-12T14:55:13.000Z</time>
      </trkpt>
      <trkpt lat="45.2298" lon="6.03341">
        <ele>2198</ele>
        <time>2014-01-12T14:55:17.000Z</time>
      </trkpt>
      <trkpt lat="45.22979" lon="6.03338">
        <ele>2198</ele>
        <time>2014-01-12T14:55:19.000Z</time>
      </trkpt>
      <trkpt lat="45.22978" lon="6.03323">
        <ele>2194</ele>
        <time>2014-01-12T14:55:25.000Z</time>
      </trkpt>
      <trkpt lat="45.22978" lon="6.03323">
        <ele>2194</ele>
        <time>2014-01-12T14:55:35.000Z</time>
      </trkpt>
      <trkpt lat="45.2297" lon="6.03314">
        <ele>2189</ele>
        <time>2014-01-12T14:55:39.000Z</time>
      </trkpt>
      <trkpt lat="45.22961" lon="6.03306">
        <ele>2185</ele>
        <time>2014-01-12T14:55:42.000Z</time>
      </trkpt>
      <trkpt lat="45.22956" lon="6.03299">
        <ele>2183</ele>
        <time>2014-01-12T14:55:44.000Z</time>
      </trkpt>
      <trkpt lat="45.22948" lon="6.03287">
        <ele>2180</ele>
        <time>2014-01-12T14:55:47.000Z</time>
      </trkpt>
      <trkpt lat="45.22946" lon="6.03275">
        <ele>2178</ele>
        <time>2014-01-12T14:55:49.000Z</time>
      </trkpt>
      <trkpt lat="45.22942" lon="6.03265">
        <ele>2175</ele>
        <time>2014-01-12T14:55:51.000Z</time>
      </trkpt>
      <trkpt lat="45.22937" lon="6.03256">
        <ele>2171</ele>
        <time>2014-01-12T14:55:53.000Z</time>
      </trkpt>
      <trkpt lat="45.22935" lon="6.03249">
        <ele>2160</ele>
        <time>2014-01-12T14:55:54.000Z</time>
      </trkpt>
      <trkpt lat="45.22932" lon="6.03237">
        <ele>2159</ele>
        <time>2014-01-12T14:55:56.000Z</time>
      </trkpt>
      <trkpt lat="45.22935" lon="6.03226">
        <ele>2159</ele>
        <time>2014-01-12T14:56:01.000Z</time>
      </trkpt>
      <trkpt lat="45.22935" lon="6.03227">
        <ele>2159</ele>
        <time>2014-01-12T14:56:16.000Z</time>
      </trkpt>
      <trkpt lat="45.22939" lon="6.0322">
        <ele>2159</ele>
        <time>2014-01-12T14:56:25.000Z</time>
      </trkpt>
      <trkpt lat="45.2294" lon="6.03219">
        <ele>2160</ele>
        <time>2014-01-12T14:56:26.000Z</time>
      </trkpt>
      <trkpt lat="45.22942" lon="6.03215">
        <ele>2159</ele>
        <time>2014-01-12T14:56:30.000Z</time>
      </trkpt>
      <trkpt lat="45.2294" lon="6.03203">
        <ele>2157</ele>
        <time>2014-01-12T14:56:33.000Z</time>
      </trkpt>
      <trkpt lat="45.22941" lon="6.03195">
        <ele>2155</ele>
        <time>2014-01-12T14:56:35.000Z</time>
      </trkpt>
      <trkpt lat="45.22937" lon="6.03193">
        <ele>2154</ele>
        <time>2014-01-12T14:56:37.000Z</time>
      </trkpt>
      <trkpt lat="45.22937" lon="6.03193">
        <ele>2153</ele>
        <time>2014-01-12T14:56:38.000Z</time>
      </trkpt>
      <trkpt lat="45.22937" lon="6.03195">
        <ele>2154</ele>
        <time>2014-01-12T14:56:44.000Z</time>
      </trkpt>
      <trkpt lat="45.22937" lon="6.03187">
        <ele>2152</ele>
        <time>2014-01-12T14:56:48.000Z</time>
      </trkpt>
      <trkpt lat="45.22938" lon="6.03177">
        <ele>2150</ele>
        <time>2014-01-12T14:56:51.000Z</time>
      </trkpt>
      <trkpt lat="45.22942" lon="6.03172">
        <ele>2151</ele>
        <time>2014-01-12T14:56:53.000Z</time>
      </trkpt>
      <trkpt lat="45.22945" lon="6.03171">
        <ele>2151</ele>
        <time>2014-01-12T14:56:55.000Z</time>
      </trkpt>
      <trkpt lat="45.22945" lon="6.03171">
        <ele>2151</ele>
        <time>2014-01-12T14:57:13.000Z</time>
      </trkpt>
      <trkpt lat="45.22941" lon="6.03159">
        <ele>2126</ele>
        <time>2014-01-12T14:57:17.000Z</time>
      </trkpt>
      <trkpt lat="45.22941" lon="6.0315">
        <ele>2124</ele>
        <time>2014-01-12T14:57:19.000Z</time>
      </trkpt>
      <trkpt lat="45.22936" lon="6.03143">
        <ele>2122</ele>
        <time>2014-01-12T14:57:21.000Z</time>
      </trkpt>
      <trkpt lat="45.22938" lon="6.03135">
        <ele>2120</ele>
        <time>2014-01-12T14:57:23.000Z</time>
      </trkpt>
      <trkpt lat="45.22933" lon="6.03127">
        <ele>2117</ele>
        <time>2014-01-12T14:57:25.000Z</time>
      </trkpt>
      <trkpt lat="45.22937" lon="6.03115">
        <ele>2112</ele>
        <time>2014-01-12T14:57:28.000Z</time>
      </trkpt>
      <trkpt lat="45.22935" lon="6.03106">
        <ele>2108</ele>
        <time>2014-01-12T14:57:30.000Z</time>
      </trkpt>
      <trkpt lat="45.22933" lon="6.03105">
        <ele>2107</ele>
        <time>2014-01-12T14:57:31.000Z</time>
      </trkpt>
      <trkpt lat="45.22931" lon="6.03105">
        <ele>2107</ele>
        <time>2014-01-12T14:57:47.000Z</time>
      </trkpt>
      <trkpt lat="45.22917" lon="6.0311">
        <ele>2106</ele>
        <time>2014-01-12T14:57:51.000Z</time>
      </trkpt>
      <trkpt lat="45.22913" lon="6.03101">
        <ele>2086</ele>
        <time>2014-01-12T14:57:54.000Z</time>
      </trkpt>
      <trkpt lat="45.22908" lon="6.03093">
        <ele>2084</ele>
        <time>2014-01-12T14:57:56.000Z</time>
      </trkpt>
      <trkpt lat="45.22904" lon="6.03088">
        <ele>2084</ele>
        <time>2014-01-12T14:57:57.000Z</time>
      </trkpt>
      <trkpt lat="45.22897" lon="6.03077">
        <ele>2063</ele>
        <time>2014-01-12T14:57:59.000Z</time>
      </trkpt>
      <trkpt lat="45.22894" lon="6.0307">
        <ele>2060</ele>
        <time>2014-01-12T14:58:00.000Z</time>
      </trkpt>
      <trkpt lat="45.22887" lon="6.03059">
        <ele>2055</ele>
        <time>2014-01-12T14:58:02.000Z</time>
      </trkpt>
      <trkpt lat="45.22883" lon="6.03053">
        <ele>2053</ele>
        <time>2014-01-12T14:58:03.000Z</time>
      </trkpt>
      <trkpt lat="45.22876" lon="6.03035">
        <ele>2048</ele>
        <time>2014-01-12T14:58:05.000Z</time>
      </trkpt>
      <trkpt lat="45.22874" lon="6.03016">
        <ele>2044</ele>
        <time>2014-01-12T14:58:07.000Z</time>
      </trkpt>
      <trkpt lat="45.22872" lon="6.03007">
        <ele>2042</ele>
        <time>2014-01-12T14:58:08.000Z</time>
      </trkpt>
      <trkpt lat="45.22856" lon="6.02985">
        <ele>2022</ele>
        <time>2014-01-12T14:58:13.000Z</time>
      </trkpt>
      <trkpt lat="45.22852" lon="6.02989">
        <ele>2022</ele>
        <time>2014-01-12T14:58:17.000Z</time>
      </trkpt>
      <trkpt lat="45.22852" lon="6.02989">
        <ele>2022</ele>
        <time>2014-01-12T14:58:18.000Z</time>
      </trkpt>
      <trkpt lat="45.22857" lon="6.02975">
        <ele>2021</ele>
        <time>2014-01-12T14:58:21.000Z</time>
      </trkpt>
      <trkpt lat="45.22869" lon="6.02963">
        <ele>2021</ele>
        <time>2014-01-12T14:58:25.000Z</time>
      </trkpt>
      <trkpt lat="45.22865" lon="6.0296">
        <ele>2020</ele>
        <time>2014-01-12T14:58:27.000Z</time>
      </trkpt>
      <trkpt lat="45.22863" lon="6.0296">
        <ele>2020</ele>
        <time>2014-01-12T14:58:28.000Z</time>
      </trkpt>
      <trkpt lat="45.22863" lon="6.02961">
        <ele>2020</ele>
        <time>2014-01-12T14:58:36.000Z</time>
      </trkpt>
      <trkpt lat="45.22863" lon="6.02961">
        <ele>2020</ele>
        <time>2014-01-12T14:58:41.000Z</time>
      </trkpt>
      <trkpt lat="45.22864" lon="6.02943">
        <ele>2018</ele>
        <time>2014-01-12T14:58:45.000Z</time>
      </trkpt>
      <trkpt lat="45.22862" lon="6.02927">
        <ele>2015</ele>
        <time>2014-01-12T14:58:47.000Z</time>
      </trkpt>
      <trkpt lat="45.22862" lon="6.02911">
        <ele>2003</ele>
        <time>2014-01-12T14:58:49.000Z</time>
      </trkpt>
      <trkpt lat="45.22864" lon="6.02887">
        <ele>2002</ele>
        <time>2014-01-12T14:58:52.000Z</time>
      </trkpt>
      <trkpt lat="45.22871" lon="6.02865">
        <ele>2001</ele>
        <time>2014-01-12T14:58:56.000Z</time>
      </trkpt>
      <trkpt lat="45.22869" lon="6.02854">
        <ele>1999</ele>
        <time>2014-01-12T14:58:58.000Z</time>
      </trkpt>
      <trkpt lat="45.22865" lon="6.02844">
        <ele>1997</ele>
        <time>2014-01-12T14:59:00.000Z</time>
      </trkpt>
      <trkpt lat="45.22863" lon="6.02838">
        <ele>1995</ele>
        <time>2014-01-12T14:59:01.000Z</time>
      </trkpt>
      <trkpt lat="45.22858" lon="6.02834">
        <ele>1993</ele>
        <time>2014-01-12T14:59:02.000Z</time>
      </trkpt>
      <trkpt lat="45.22854" lon="6.02834">
        <ele>1991</ele>
        <time>2014-01-12T14:59:03.000Z</time>
      </trkpt>
      <trkpt lat="45.22852" lon="6.02836">
        <ele>1990</ele>
        <time>2014-01-12T14:59:04.000Z</time>
      </trkpt>
      <trkpt lat="45.2285" lon="6.02838">
        <ele>1990</ele>
        <time>2014-01-12T14:59:09.000Z</time>
      </trkpt>
      <trkpt lat="45.22849" lon="6.02837">
        <ele>1989</ele>
        <time>2014-01-12T14:59:11.000Z</time>
      </trkpt>
      <trkpt lat="45.22846" lon="6.02837">
        <ele>1987</ele>
        <time>2014-01-12T14:59:12.000Z</time>
      </trkpt>
      <trkpt lat="45.22842" lon="6.02838">
        <ele>1984</ele>
        <time>2014-01-12T14:59:13.000Z</time>
      </trkpt>
      <trkpt lat="45.22839" lon="6.0284">
        <ele>1983</ele>
        <time>2014-01-12T14:59:14.000Z</time>
      </trkpt>
      <trkpt lat="45.22829" lon="6.0283">
        <ele>1969</ele>
        <time>2014-01-12T14:59:17.000Z</time>
      </trkpt>
      <trkpt lat="45.22821" lon="6.02826">
        <ele>1962</ele>
        <time>2014-01-12T14:59:19.000Z</time>
      </trkpt>
      <trkpt lat="45.2282" lon="6.02819">
        <ele>1958</ele>
        <time>2014-01-12T14:59:20.000Z</time>
      </trkpt>
      <trkpt lat="45.22816" lon="6.02816">
        <ele>1956</ele>
        <time>2014-01-12T14:59:21.000Z</time>
      </trkpt>
      <trkpt lat="45.22806" lon="6.02814">
        <ele>1952</ele>
        <time>2014-01-12T14:59:23.000Z</time>
      </trkpt>
      <trkpt lat="45.22803" lon="6.02809">
        <ele>1950</ele>
        <time>2014-01-12T14:59:24.000Z</time>
      </trkpt>
      <trkpt lat="45.22803" lon="6.02802">
        <ele>1949</ele>
        <time>2014-01-12T14:59:25.000Z</time>
      </trkpt>
      <trkpt lat="45.22799" lon="6.02791">
        <ele>1946</ele>
        <time>2014-01-12T14:59:27.000Z</time>
      </trkpt>
      <trkpt lat="45.22793" lon="6.0279">
        <ele>1945</ele>
        <time>2014-01-12T14:59:28.000Z</time>
      </trkpt>
      <trkpt lat="45.22787" lon="6.02782">
        <ele>1942</ele>
        <time>2014-01-12T14:59:30.000Z</time>
      </trkpt>
      <trkpt lat="45.22785" lon="6.02769">
        <ele>1939</ele>
        <time>2014-01-12T14:59:32.000Z</time>
      </trkpt>
      <trkpt lat="45.22775" lon="6.02771">
        <ele>1936</ele>
        <time>2014-01-12T14:59:34.000Z</time>
      </trkpt>
      <trkpt lat="45.22764" lon="6.02779">
        <ele>1935</ele>
        <time>2014-01-12T14:59:36.000Z</time>
      </trkpt>
      <trkpt lat="45.22758" lon="6.02762">
        <ele>1926</ele>
        <time>2014-01-12T14:59:39.000Z</time>
      </trkpt>
      <trkpt lat="45.22757" lon="6.02757">
        <ele>1922</ele>
        <time>2014-01-12T14:59:40.000Z</time>
      </trkpt>
      <trkpt lat="45.22745" lon="6.02757">
        <ele>1913</ele>
        <time>2014-01-12T14:59:42.000Z</time>
      </trkpt>
      <trkpt lat="45.22739" lon="6.02757">
        <ele>1914</ele>
        <time>2014-01-12T14:59:43.000Z</time>
      </trkpt>
      <trkpt lat="45.22735" lon="6.02753">
        <ele>1913</ele>
        <time>2014-01-12T14:59:44.000Z</time>
      </trkpt>
      <trkpt lat="45.22734" lon="6.02711">
        <ele>1899</ele>
        <time>2014-01-12T14:59:48.000Z</time>
      </trkpt>
      <trkpt lat="45.22732" lon="6.02702">
        <ele>1898</ele>
        <time>2014-01-12T14:59:49.000Z</time>
      </trkpt>
      <trkpt lat="45.22729" lon="6.02679">
        <ele>1897</ele>
        <time>2014-01-12T14:59:52.000Z</time>
      </trkpt>
      <trkpt lat="45.22736" lon="6.02661">
        <ele>1894</ele>
        <time>2014-01-12T14:59:56.000Z</time>
      </trkpt>
      <trkpt lat="45.22737" lon="6.02644">
        <ele>1893</ele>
        <time>2014-01-12T14:59:58.000Z</time>
      </trkpt>
      <trkpt lat="45.22727" lon="6.02621">
        <ele>1891</ele>
        <time>2014-01-12T15:00:01.000Z</time>
      </trkpt>
      <trkpt lat="45.2271" lon="6.02608">
        <ele>1889</ele>
        <time>2014-01-12T15:00:05.000Z</time>
      </trkpt>
      <trkpt lat="45.22702" lon="6.026">
        <ele>1888</ele>
        <time>2014-01-12T15:00:07.000Z</time>
      </trkpt>
      <trkpt lat="45.22696" lon="6.02576">
        <ele>1888</ele>
        <time>2014-01-12T15:00:11.000Z</time>
      </trkpt>
      <trkpt lat="45.22688" lon="6.0256">
        <ele>1888</ele>
        <time>2014-01-12T15:00:15.000Z</time>
      </trkpt>
      <trkpt lat="45.22686" lon="6.02559">
        <ele>1888</ele>
        <time>2014-01-12T15:00:16.000Z</time>
      </trkpt>
      <trkpt lat="45.22669" lon="6.02543">
        <ele>1887</ele>
        <time>2014-01-12T15:00:23.000Z</time>
      </trkpt>
      <trkpt lat="45.22663" lon="6.02532">
        <ele>1873</ele>
        <time>2014-01-12T15:00:29.000Z</time>
      </trkpt>
      <trkpt lat="45.2266" lon="6.02528">
        <ele>1873</ele>
        <time>2014-01-12T15:00:31.000Z</time>
      </trkpt>
      <trkpt lat="45.2266" lon="6.02523">
        <ele>1874</ele>
        <time>2014-01-12T15:00:37.000Z</time>
      </trkpt>
      <trkpt lat="45.22661" lon="6.0252">
        <ele>1874</ele>
        <time>2014-01-12T15:00:40.000Z</time>
      </trkpt>
      <trkpt lat="45.22662" lon="6.02506">
        <ele>1876</ele>
        <time>2014-01-12T15:00:42.000Z</time>
      </trkpt>
      <trkpt lat="45.22661" lon="6.02499">
        <ele>1878</ele>
        <time>2014-01-12T15:00:43.000Z</time>
      </trkpt>
      <trkpt lat="45.22654" lon="6.02465">
        <ele>1876</ele>
        <time>2014-01-12T15:00:48.000Z</time>
      </trkpt>
      <trkpt lat="45.22652" lon="6.02459">
        <ele>1876</ele>
        <time>2014-01-12T15:00:49.000Z</time>
      </trkpt>
      <trkpt lat="45.2265" lon="6.02455">
        <ele>1876</ele>
        <time>2014-01-12T15:00:50.000Z</time>
      </trkpt>
      <trkpt lat="45.22646" lon="6.0245">
        <ele>1876</ele>
        <time>2014-01-12T15:00:51.000Z</time>
      </trkpt>
      <trkpt lat="45.22642" lon="6.02447">
        <ele>1876</ele>
        <time>2014-01-12T15:00:52.000Z</time>
      </trkpt>
      <trkpt lat="45.22639" lon="6.02446">
        <ele>1876</ele>
        <time>2014-01-12T15:00:53.000Z</time>
      </trkpt>
      <trkpt lat="45.22634" lon="6.02444">
        <ele>1875</ele>
        <time>2014-01-12T15:00:55.000Z</time>
      </trkpt>
      <trkpt lat="45.22615" lon="6.0243">
        <ele>1871</ele>
        <time>2014-01-12T15:01:02.000Z</time>
      </trkpt>
      <trkpt lat="45.22612" lon="6.02427">
        <ele>1871</ele>
        <time>2014-01-12T15:01:03.000Z</time>
      </trkpt>
      <trkpt lat="45.22609" lon="6.02422">
        <ele>1870</ele>
        <time>2014-01-12T15:01:04.000Z</time>
      </trkpt>
      <trkpt lat="45.22606" lon="6.02415">
        <ele>1874</ele>
        <time>2014-01-12T15:01:05.000Z</time>
      </trkpt>
      <trkpt lat="45.22602" lon="6.02409">
        <ele>1873</ele>
        <time>2014-01-12T15:01:06.000Z</time>
      </trkpt>
      <trkpt lat="45.22598" lon="6.02403">
        <ele>1873</ele>
        <time>2014-01-12T15:01:07.000Z</time>
      </trkpt>
      <trkpt lat="45.22595" lon="6.02397">
        <ele>1874</ele>
        <time>2014-01-12T15:01:08.000Z</time>
      </trkpt>
      <trkpt lat="45.22583" lon="6.02377">
        <ele>1876</ele>
        <time>2014-01-12T15:01:12.000Z</time>
      </trkpt>
      <trkpt lat="45.22569" lon="6.02344">
        <ele>1861</ele>
        <time>2014-01-12T15:01:18.000Z</time>
      </trkpt>
      <trkpt lat="45.22545" lon="6.02306">
        <ele>1854</ele>
        <time>2014-01-12T15:01:24.000Z</time>
      </trkpt>
      <trkpt lat="45.22536" lon="6.02284">
        <ele>1852</ele>
        <time>2014-01-12T15:01:29.000Z</time>
      </trkpt>
      <trkpt lat="45.22536" lon="6.02282">
        <ele>1852</ele>
        <time>2014-01-12T15:01:34.000Z</time>
      </trkpt>
      <trkpt lat="45.22536" lon="6.02282">
        <ele>1852</ele>
        <time>2014-01-12T15:01:35.000Z</time>
      </trkpt>
      <trkpt lat="45.22533" lon="6.02277">
        <ele>1851</ele>
        <time>2014-01-12T15:01:38.000Z</time>
      </trkpt>
      <trkpt lat="45.22523" lon="6.0227">
        <ele>1848</ele>
        <time>2014-01-12T15:01:41.000Z</time>
      </trkpt>
      <trkpt lat="45.22519" lon="6.02263">
        <ele>1846</ele>
        <time>2014-01-12T15:01:43.000Z</time>
      </trkpt>
      <trkpt lat="45.22516" lon="6.02258">
        <ele>1843</ele>
        <time>2014-01-12T15:01:45.000Z</time>
      </trkpt>
      <trkpt lat="45.22511" lon="6.02254">
        <ele>1840</ele>
        <time>2014-01-12T15:01:47.000Z</time>
      </trkpt>
      <trkpt lat="45.22498" lon="6.02267">
        <ele>1823</ele>
        <time>2014-01-12T15:01:51.000Z</time>
      </trkpt>
      <trkpt lat="45.22488" lon="6.0227">
        <ele>1820</ele>
        <time>2014-01-12T15:01:53.000Z</time>
      </trkpt>
      <trkpt lat="45.22479" lon="6.02268">
        <ele>1818</ele>
        <time>2014-01-12T15:01:55.000Z</time>
      </trkpt>
      <trkpt lat="45.22477" lon="6.02254">
        <ele>1818</ele>
        <time>2014-01-12T15:01:57.000Z</time>
      </trkpt>
      <trkpt lat="45.22472" lon="6.02232">
        <ele>1814</ele>
        <time>2014-01-12T15:02:00.000Z</time>
      </trkpt>
      <trkpt lat="45.22473" lon="6.02213">
        <ele>1812</ele>
        <time>2014-01-12T15:02:02.000Z</time>
      </trkpt>
      <trkpt lat="45.22474" lon="6.02198">
        <ele>1813</ele>
        <time>2014-01-12T15:02:04.000Z</time>
      </trkpt>
      <trkpt lat="45.22475" lon="6.02192">
        <ele>1814</ele>
        <time>2014-01-12T15:02:05.000Z</time>
      </trkpt>
      <trkpt lat="45.22473" lon="6.02174">
        <ele>1815</ele>
        <time>2014-01-12T15:02:08.000Z</time>
      </trkpt>
      <trkpt lat="45.22471" lon="6.02163">
        <ele>1814</ele>
        <time>2014-01-12T15:02:10.000Z</time>
      </trkpt>
      <trkpt lat="45.22463" lon="6.02159">
        <ele>1810</ele>
        <time>2014-01-12T15:02:14.000Z</time>
      </trkpt>
      <trkpt lat="45.22455" lon="6.02158">
        <ele>1806</ele>
        <time>2014-01-12T15:02:16.000Z</time>
      </trkpt>
      <trkpt lat="45.22453" lon="6.02153">
        <ele>1805</ele>
        <time>2014-01-12T15:02:17.000Z</time>
      </trkpt>
      <trkpt lat="45.2245" lon="6.02143">
        <ele>1805</ele>
        <time>2014-01-12T15:02:19.000Z</time>
      </trkpt>
      <trkpt lat="45.22439" lon="6.02144">
        <ele>1800</ele>
        <time>2014-01-12T15:02:22.000Z</time>
      </trkpt>
      <trkpt lat="45.22436" lon="6.02155">
        <ele>1797</ele>
        <time>2014-01-12T15:02:25.000Z</time>
      </trkpt>
      <trkpt lat="45.22432" lon="6.02144">
        <ele>1798</ele>
        <time>2014-01-12T15:02:29.000Z</time>
      </trkpt>
      <trkpt lat="45.22432" lon="6.02134">
        <ele>1800</ele>
        <time>2014-01-12T15:02:31.000Z</time>
      </trkpt>
      <trkpt lat="45.2243" lon="6.02125">
        <ele>1800</ele>
        <time>2014-01-12T15:02:38.000Z</time>
      </trkpt>
      <trkpt lat="45.22431" lon="6.02124">
        <ele>1800</ele>
        <time>2014-01-12T15:03:09.000Z</time>
      </trkpt>
      <trkpt lat="45.22431" lon="6.02124">
        <ele>1800</ele>
        <time>2014-01-12T15:03:13.000Z</time>
      </trkpt>
      <trkpt lat="45.22426" lon="6.0211">
        <ele>1798</ele>
        <time>2014-01-12T15:03:18.000Z</time>
      </trkpt>
      <trkpt lat="45.22423" lon="6.02105">
        <ele>1797</ele>
        <time>2014-01-12T15:03:20.000Z</time>
      </trkpt>
      <trkpt lat="45.22414" lon="6.02087">
        <ele>1780</ele>
        <time>2014-01-12T15:03:24.000Z</time>
      </trkpt>
      <trkpt lat="45.22408" lon="6.02074">
        <ele>1775</ele>
        <time>2014-01-12T15:03:27.000Z</time>
      </trkpt>
      <trkpt lat="45.22403" lon="6.02058">
        <ele>1769</ele>
        <time>2014-01-12T15:03:30.000Z</time>
      </trkpt>
      <trkpt lat="45.22402" lon="6.02052">
        <ele>1768</ele>
        <time>2014-01-12T15:03:31.000Z</time>
      </trkpt>
      <trkpt lat="45.224" lon="6.02032">
        <ele>1768</ele>
        <time>2014-01-12T15:03:35.000Z</time>
      </trkpt>
      <trkpt lat="45.224" lon="6.02016">
        <ele>1770</ele>
        <time>2014-01-12T15:03:38.000Z</time>
      </trkpt>
      <trkpt lat="45.224" lon="6.0201">
        <ele>1771</ele>
        <time>2014-01-12T15:03:39.000Z</time>
      </trkpt>
      <trkpt lat="45.224" lon="6.01998">
        <ele>1771</ele>
        <time>2014-01-12T15:03:41.000Z</time>
      </trkpt>
      <trkpt lat="45.22399" lon="6.01993">
        <ele>1770</ele>
        <time>2014-01-12T15:03:42.000Z</time>
      </trkpt>
      <trkpt lat="45.22395" lon="6.01974">
        <ele>1766</ele>
        <time>2014-01-12T15:03:46.000Z</time>
      </trkpt>
      <trkpt lat="45.22393" lon="6.01971">
        <ele>1765</ele>
        <time>2014-01-12T15:03:47.000Z</time>
      </trkpt>
      <trkpt lat="45.22391" lon="6.01951">
        <ele>1764</ele>
        <time>2014-01-12T15:03:53.000Z</time>
      </trkpt>
      <trkpt lat="45.22393" lon="6.01927">
        <ele>1766</ele>
        <time>2014-01-12T15:03:57.000Z</time>
      </trkpt>
      <trkpt lat="45.22393" lon="6.0192">
        <ele>1766</ele>
        <time>2014-01-12T15:03:58.000Z</time>
      </trkpt>
      <trkpt lat="45.22392" lon="6.01904">
        <ele>1761</ele>
        <time>2014-01-12T15:04:00.000Z</time>
      </trkpt>
      <trkpt lat="45.22389" lon="6.01886">
        <ele>1759</ele>
        <time>2014-01-12T15:04:03.000Z</time>
      </trkpt>
      <trkpt lat="45.22389" lon="6.01882">
        <ele>1758</ele>
        <time>2014-01-12T15:04:04.000Z</time>
      </trkpt>
      <trkpt lat="45.2239" lon="6.01859">
        <ele>1758</ele>
        <time>2014-01-12T15:04:09.000Z</time>
      </trkpt>
      <trkpt lat="45.2239" lon="6.01836">
        <ele>1759</ele>
        <time>2014-01-12T15:04:13.000Z</time>
      </trkpt>
      <trkpt lat="45.22388" lon="6.01832">
        <ele>1753</ele>
        <time>2014-01-12T15:04:14.000Z</time>
      </trkpt>
      <trkpt lat="45.22385" lon="6.01832">
        <ele>1752</ele>
        <time>2014-01-12T15:04:15.000Z</time>
      </trkpt>
      <trkpt lat="45.22378" lon="6.01836">
        <ele>1754</ele>
        <time>2014-01-12T15:04:17.000Z</time>
      </trkpt>
      <trkpt lat="45.22373" lon="6.01833">
        <ele>1747</ele>
        <time>2014-01-12T15:04:18.000Z</time>
      </trkpt>
      <trkpt lat="45.22369" lon="6.01828">
        <ele>1745</ele>
        <time>2014-01-12T15:04:19.000Z</time>
      </trkpt>
      <trkpt lat="45.22364" lon="6.01814">
        <ele>1743</ele>
        <time>2014-01-12T15:04:21.000Z</time>
      </trkpt>
      <trkpt lat="45.22355" lon="6.01794">
        <ele>1740</ele>
        <time>2014-01-12T15:04:24.000Z</time>
      </trkpt>
      <trkpt lat="45.22353" lon="6.01785">
        <ele>1739</ele>
        <time>2014-01-12T15:04:25.000Z</time>
      </trkpt>
      <trkpt lat="45.22348" lon="6.01764">
        <ele>1732</ele>
        <time>2014-01-12T15:04:27.000Z</time>
      </trkpt>
      <trkpt lat="45.22345" lon="6.01754">
        <ele>1728</ele>
        <time>2014-01-12T15:04:28.000Z</time>
      </trkpt>
      <trkpt lat="45.22343" lon="6.01744">
        <ele>1726</ele>
        <time>2014-01-12T15:04:29.000Z</time>
      </trkpt>
      <trkpt lat="45.22343" lon="6.01734">
        <ele>1729</ele>
        <time>2014-01-12T15:04:30.000Z</time>
      </trkpt>
      <trkpt lat="45.22343" lon="6.01726">
        <ele>1731</ele>
        <time>2014-01-12T15:04:31.000Z</time>
      </trkpt>
      <trkpt lat="45.22341" lon="6.01704">
        <ele>1733</ele>
        <time>2014-01-12T15:04:34.000Z</time>
      </trkpt>
      <trkpt lat="45.2234" lon="6.01699">
        <ele>1732</ele>
        <time>2014-01-12T15:04:35.000Z</time>
      </trkpt>
      <trkpt lat="45.22338" lon="6.01694">
        <ele>1731</ele>
        <time>2014-01-12T15:04:36.000Z</time>
      </trkpt>
      <trkpt lat="45.22335" lon="6.01691">
        <ele>1730</ele>
        <time>2014-01-12T15:04:37.000Z</time>
      </trkpt>
      <trkpt lat="45.22333" lon="6.01687">
        <ele>1707</ele>
        <time>2014-01-12T15:04:38.000Z</time>
      </trkpt>
      <trkpt lat="45.22332" lon="6.01684">
        <ele>1708</ele>
        <time>2014-01-12T15:04:39.000Z</time>
      </trkpt>
      <trkpt lat="45.22331" lon="6.01679">
        <ele>1709</ele>
        <time>2014-01-12T15:04:40.000Z</time>
      </trkpt>
      <trkpt lat="45.2233" lon="6.01675">
        <ele>1711</ele>
        <time>2014-01-12T15:04:41.000Z</time>
      </trkpt>
      <trkpt lat="45.2233" lon="6.0167">
        <ele>1714</ele>
        <time>2014-01-12T15:04:42.000Z</time>
      </trkpt>
      <trkpt lat="45.22329" lon="6.01648">
        <ele>1709</ele>
        <time>2014-01-12T15:04:48.000Z</time>
      </trkpt>
      <trkpt lat="45.22325" lon="6.01632">
        <ele>1708</ele>
        <time>2014-01-12T15:04:55.000Z</time>
      </trkpt>
      <trkpt lat="45.22325" lon="6.01629">
        <ele>1708</ele>
        <time>2014-01-12T15:05:02.000Z</time>
      </trkpt>
      <trkpt lat="45.22326" lon="6.01628">
        <ele>1708</ele>
        <time>2014-01-12T15:05:03.000Z</time>
      </trkpt>
      <trkpt lat="45.22329" lon="6.01617">
        <ele>1710</ele>
        <time>2014-01-12T15:05:09.000Z</time>
      </trkpt>
      <trkpt lat="45.22326" lon="6.01608">
        <ele>1711</ele>
        <time>2014-01-12T15:05:13.000Z</time>
      </trkpt>
      <trkpt lat="45.22326" lon="6.01606">
        <ele>1712</ele>
        <time>2014-01-12T15:05:21.000Z</time>
      </trkpt>
      <trkpt lat="45.22325" lon="6.01602">
        <ele>1713</ele>
        <time>2014-01-12T15:05:23.000Z</time>
      </trkpt>
      <trkpt lat="45.22322" lon="6.01594">
        <ele>1715</ele>
        <time>2014-01-12T15:05:27.000Z</time>
      </trkpt>
      <trkpt lat="45.22322" lon="6.01578">
        <ele>1719</ele>
        <time>2014-01-12T15:05:32.000Z</time>
      </trkpt>
      <trkpt lat="45.22323" lon="6.01572">
        <ele>1718</ele>
        <time>2014-01-12T15:05:37.000Z</time>
      </trkpt>
      <trkpt lat="45.22322" lon="6.01571">
        <ele>1717</ele>
        <time>2014-01-12T15:05:41.000Z</time>
      </trkpt>
      <trkpt lat="45.22313" lon="6.01567">
        <ele>1713</ele>
        <time>2014-01-12T15:05:45.000Z</time>
      </trkpt>
      <trkpt lat="45.22308" lon="6.01552">
        <ele>1710</ele>
        <time>2014-01-12T15:05:50.000Z</time>
      </trkpt>
      <trkpt lat="45.22304" lon="6.01547">
        <ele>1709</ele>
        <time>2014-01-12T15:05:52.000Z</time>
      </trkpt>
      <trkpt lat="45.22303" lon="6.01542">
        <ele>1708</ele>
        <time>2014-01-12T15:05:56.000Z</time>
      </trkpt>
      <trkpt lat="45.22303" lon="6.01534">
        <ele>1708</ele>
        <time>2014-01-12T15:06:00.000Z</time>
      </trkpt>
      <trkpt lat="45.22292" lon="6.01528">
        <ele>1706</ele>
        <time>2014-01-12T15:06:07.000Z</time>
      </trkpt>
      <trkpt lat="45.22289" lon="6.01528">
        <ele>1705</ele>
        <time>2014-01-12T15:06:09.000Z</time>
      </trkpt>
      <trkpt lat="45.22287" lon="6.01523">
        <ele>1704</ele>
        <time>2014-01-12T15:06:12.000Z</time>
      </trkpt>
      <trkpt lat="45.22287" lon="6.0152">
        <ele>1704</ele>
        <time>2014-01-12T15:06:14.000Z</time>
      </trkpt>
      <trkpt lat="45.22287" lon="6.01519">
        <ele>1704</ele>
        <time>2014-01-12T15:06:21.000Z</time>
      </trkpt>
      <trkpt lat="45.22288" lon="6.01516">
        <ele>1704</ele>
        <time>2014-01-12T15:06:26.000Z</time>
      </trkpt>
      <trkpt lat="45.22298" lon="6.01505">
        <ele>1708</ele>
        <time>2014-01-12T15:06:32.000Z</time>
      </trkpt>
      <trkpt lat="45.22298" lon="6.01505">
        <ele>1708</ele>
        <time>2014-01-12T15:06:37.000Z</time>
      </trkpt>
      <trkpt lat="45.22297" lon="6.01505">
        <ele>1707</ele>
        <time>2014-01-12T15:06:52.000Z</time>
      </trkpt>
      <trkpt lat="45.22297" lon="6.01505">
        <ele>1707</ele>
        <time>2014-01-12T15:06:55.000Z</time>
      </trkpt>
      <trkpt lat="45.22292" lon="6.01503">
        <ele>1706</ele>
        <time>2014-01-12T15:06:59.000Z</time>
      </trkpt>
      <trkpt lat="45.22287" lon="6.01496">
        <ele>1700</ele>
        <time>2014-01-12T15:07:02.000Z</time>
      </trkpt>
      <trkpt lat="45.22285" lon="6.01493">
        <ele>1700</ele>
        <time>2014-01-12T15:07:07.000Z</time>
      </trkpt>
      <trkpt lat="45.22285" lon="6.01491">
        <ele>1700</ele>
        <time>2014-01-12T15:07:14.000Z</time>
      </trkpt>
      <trkpt lat="45.2229" lon="6.01484">
        <ele>1701</ele>
        <time>2014-01-12T15:07:19.000Z</time>
      </trkpt>
      <trkpt lat="45.22291" lon="6.01482">
        <ele>1701</ele>
        <time>2014-01-12T15:07:27.000Z</time>
      </trkpt>
      <trkpt lat="45.22293" lon="6.01478">
        <ele>1701</ele>
        <time>2014-01-12T15:07:33.000Z</time>
      </trkpt>
      <trkpt lat="45.22293" lon="6.01477">
        <ele>1701</ele>
        <time>2014-01-12T15:07:45.000Z</time>
      </trkpt>
      <trkpt lat="45.22293" lon="6.01478">
        <ele>1701</ele>
        <time>2014-01-12T15:07:54.000Z</time>
      </trkpt>
      <trkpt lat="45.22292" lon="6.01481">
        <ele>1701</ele>
        <time>2014-01-12T15:08:00.000Z</time>
      </trkpt>
      <trkpt lat="45.22291" lon="6.01483">
        <ele>1701</ele>
        <time>2014-01-12T15:08:10.000Z</time>
      </trkpt>
      <trkpt lat="45.22291" lon="6.01484">
        <ele>1701</ele>
        <time>2014-01-12T15:08:17.000Z</time>
      </trkpt>
      <trkpt lat="45.2229" lon="6.01486">
        <ele>1701</ele>
        <time>2014-01-12T15:08:25.000Z</time>
      </trkpt>
      <trkpt lat="45.22289" lon="6.01487">
        <ele>1701</ele>
        <time>2014-01-12T15:08:31.000Z</time>
      </trkpt>
      <trkpt lat="45.22288" lon="6.01487">
        <ele>1700</ele>
        <time>2014-01-12T15:08:36.000Z</time>
      </trkpt>
      <trkpt lat="45.22286" lon="6.01488">
        <ele>1700</ele>
        <time>2014-01-12T15:08:38.000Z</time>
      </trkpt>
      <trkpt lat="45.22282" lon="6.01488">
        <ele>1699</ele>
        <time>2014-01-12T15:08:41.000Z</time>
      </trkpt>
      <trkpt lat="45.22276" lon="6.0149">
        <ele>1697</ele>
        <time>2014-01-12T15:08:46.000Z</time>
      </trkpt>
      <trkpt lat="45.22275" lon="6.0149">
        <ele>1697</ele>
        <time>2014-01-12T15:08:55.000Z</time>
      </trkpt>
      <trkpt lat="45.22272" lon="6.01492">
        <ele>1696</ele>
        <time>2014-01-12T15:09:07.000Z</time>
      </trkpt>
      <trkpt lat="45.22271" lon="6.01494">
        <ele>1695</ele>
        <time>2014-01-12T15:09:10.000Z</time>
      </trkpt>
      <trkpt lat="45.22269" lon="6.015">
        <ele>1695</ele>
        <time>2014-01-12T15:09:14.000Z</time>
      </trkpt>
      <trkpt lat="45.22266" lon="6.01504">
        <ele>1696</ele>
        <time>2014-01-12T15:09:16.000Z</time>
      </trkpt>
      <trkpt lat="45.22263" lon="6.01508">
        <ele>1695</ele>
        <time>2014-01-12T15:09:23.000Z</time>
      </trkpt>
      <trkpt lat="45.22263" lon="6.01509">
        <ele>1695</ele>
        <time>2014-01-12T15:09:32.000Z</time>
      </trkpt>
      <trkpt lat="45.22263" lon="6.01509">
        <ele>1695</ele>
        <time>2014-01-12T15:09:49.000Z</time>
      </trkpt>
      <trkpt lat="45.22261" lon="6.01507">
        <ele>1694</ele>
        <time>2014-01-12T15:09:53.000Z</time>
      </trkpt>
      <trkpt lat="45.22256" lon="6.01502">
        <ele>1691</ele>
        <time>2014-01-12T15:09:57.000Z</time>
      </trkpt>
      <trkpt lat="45.22255" lon="6.01502">
        <ele>1691</ele>
        <time>2014-01-12T15:09:58.000Z</time>
      </trkpt>
      <trkpt lat="45.22254" lon="6.01501">
        <ele>1690</ele>
        <time>2014-01-12T15:10:10.000Z</time>
      </trkpt>
      <trkpt lat="45.22252" lon="6.015">
        <ele>1688</ele>
        <time>2014-01-12T15:10:18.000Z</time>
      </trkpt>
      <trkpt lat="45.22249" lon="6.01499">
        <ele>1686</ele>
        <time>2014-01-12T15:10:25.000Z</time>
      </trkpt>
      <trkpt lat="45.22248" lon="6.01496">
        <ele>1685</ele>
        <time>2014-01-12T15:10:35.000Z</time>
      </trkpt>
      <trkpt lat="45.22246" lon="6.01494">
        <ele>1684</ele>
        <time>2014-01-12T15:10:41.000Z</time>
      </trkpt>
      <trkpt lat="45.22246" lon="6.01493">
        <ele>1683</ele>
        <time>2014-01-12T15:10:48.000Z</time>
      </trkpt>
      <trkpt lat="45.2224" lon="6.01488">
        <ele>1681</ele>
        <time>2014-01-12T15:10:54.000Z</time>
      </trkpt>
      <trkpt lat="45.22235" lon="6.0147">
        <ele>1678</ele>
        <time>2014-01-12T15:10:58.000Z</time>
      </trkpt>
      <trkpt lat="45.22228" lon="6.01443">
        <ele>1676</ele>
        <time>2014-01-12T15:11:05.000Z</time>
      </trkpt>
      <trkpt lat="45.22229" lon="6.01424">
        <ele>1676</ele>
        <time>2014-01-12T15:11:12.000Z</time>
      </trkpt>
      <trkpt lat="45.22231" lon="6.01417">
        <ele>1676</ele>
        <time>2014-01-12T15:11:15.000Z</time>
      </trkpt>
      <trkpt lat="45.22239" lon="6.01396">
        <ele>1669</ele>
        <time>2014-01-12T15:11:20.000Z</time>
      </trkpt>
      <trkpt lat="45.2225" lon="6.01385">
        <ele>1680</ele>
        <time>2014-01-12T15:11:26.000Z</time>
      </trkpt>
      <trkpt lat="45.22263" lon="6.01373">
        <ele>1680</ele>
        <time>2014-01-12T15:11:31.000Z</time>
      </trkpt>
      <trkpt lat="45.22268" lon="6.01373">
        <ele>1681</ele>
        <time>2014-01-12T15:11:33.000Z</time>
      </trkpt>
      <trkpt lat="45.22269" lon="6.01359">
        <ele>1678</ele>
        <time>2014-01-12T15:11:38.000Z</time>
      </trkpt>
      <trkpt lat="45.22274" lon="6.01332">
        <ele>1666</ele>
        <time>2014-01-12T15:11:45.000Z</time>
      </trkpt>
      <trkpt lat="45.22281" lon="6.01318">
        <ele>1667</ele>
        <time>2014-01-12T15:11:49.000Z</time>
      </trkpt>
      <trkpt lat="45.22284" lon="6.01311">
        <ele>1667</ele>
        <time>2014-01-12T15:11:53.000Z</time>
      </trkpt>
      <trkpt lat="45.22288" lon="6.01298">
        <ele>1666</ele>
        <time>2014-01-12T15:12:01.000Z</time>
      </trkpt>
      <trkpt lat="45.22292" lon="6.01286">
        <ele>1665</ele>
        <time>2014-01-12T15:12:10.000Z</time>
      </trkpt>
      <trkpt lat="45.22293" lon="6.01284">
        <ele>1665</ele>
        <time>2014-01-12T15:12:19.000Z</time>
      </trkpt>
      <trkpt lat="45.22294" lon="6.01284">
        <ele>1665</ele>
        <time>2014-01-12T15:12:32.000Z</time>
      </trkpt>
      <trkpt lat="45.22294" lon="6.01291">
        <ele>1666</ele>
        <time>2014-01-12T15:12:39.000Z</time>
      </trkpt>
      <trkpt lat="45.2229" lon="6.01301">
        <ele>1667</ele>
        <time>2014-01-12T15:12:44.000Z</time>
      </trkpt>
      <trkpt lat="45.22288" lon="6.01304">
        <ele>1667</ele>
        <time>2014-01-12T15:12:45.000Z</time>
      </trkpt>
      <trkpt lat="45.22271" lon="6.01304">
        <ele>1664</ele>
        <time>2014-01-12T15:12:50.000Z</time>
      </trkpt>
      <trkpt lat="45.22266" lon="6.01305">
        <ele>1664</ele>
        <time>2014-01-12T15:12:51.000Z</time>
      </trkpt>
      <trkpt lat="45.22262" lon="6.01306">
        <ele>1663</ele>
        <time>2014-01-12T15:12:52.000Z</time>
      </trkpt>
      <trkpt lat="45.22258" lon="6.01307">
        <ele>1663</ele>
        <time>2014-01-12T15:12:53.000Z</time>
      </trkpt>
      <trkpt lat="45.22255" lon="6.01308">
        <ele>1663</ele>
        <time>2014-01-12T15:12:54.000Z</time>
      </trkpt>
      <trkpt lat="45.22244" lon="6.01311">
        <ele>1653</ele>
        <time>2014-01-12T15:12:57.000Z</time>
      </trkpt>
      <trkpt lat="45.22242" lon="6.01309">
        <ele>1653</ele>
        <time>2014-01-12T15:12:58.000Z</time>
      </trkpt>
      <trkpt lat="45.22242" lon="6.01305">
        <ele>1652</ele>
        <time>2014-01-12T15:12:59.000Z</time>
      </trkpt>
      <trkpt lat="45.2224" lon="6.01302">
        <ele>1651</ele>
        <time>2014-01-12T15:13:00.000Z</time>
      </trkpt>
      <trkpt lat="45.22239" lon="6.01299">
        <ele>1650</ele>
        <time>2014-01-12T15:13:01.000Z</time>
      </trkpt>
      <trkpt lat="45.22237" lon="6.01297">
        <ele>1650</ele>
        <time>2014-01-12T15:13:02.000Z</time>
      </trkpt>
      <trkpt lat="45.22235" lon="6.01294">
        <ele>1649</ele>
        <time>2014-01-12T15:13:03.000Z</time>
      </trkpt>
      <trkpt lat="45.22233" lon="6.01286">
        <ele>1648</ele>
        <time>2014-01-12T15:13:05.000Z</time>
      </trkpt>
      <trkpt lat="45.22233" lon="6.01282">
        <ele>1648</ele>
        <time>2014-01-12T15:13:06.000Z</time>
      </trkpt>
      <trkpt lat="45.22232" lon="6.01278">
        <ele>1647</ele>
        <time>2014-01-12T15:13:07.000Z</time>
      </trkpt>
      <trkpt lat="45.22232" lon="6.01275">
        <ele>1647</ele>
        <time>2014-01-12T15:13:09.000Z</time>
      </trkpt>
      <trkpt lat="45.22238" lon="6.0126">
        <ele>1645</ele>
        <time>2014-01-12T15:13:14.000Z</time>
      </trkpt>
      <trkpt lat="45.2224" lon="6.01258">
        <ele>1644</ele>
        <time>2014-01-12T15:13:15.000Z</time>
      </trkpt>
      <trkpt lat="45.2224" lon="6.01256">
        <ele>1644</ele>
        <time>2014-01-12T15:13:16.000Z</time>
      </trkpt>
      <trkpt lat="45.2224" lon="6.01252">
        <ele>1644</ele>
        <time>2014-01-12T15:13:17.000Z</time>
      </trkpt>
      <trkpt lat="45.2224" lon="6.01247">
        <ele>1638</ele>
        <time>2014-01-12T15:13:18.000Z</time>
      </trkpt>
      <trkpt lat="45.22241" lon="6.01243">
        <ele>1638</ele>
        <time>2014-01-12T15:13:19.000Z</time>
      </trkpt>
      <trkpt lat="45.22242" lon="6.0124">
        <ele>1637</ele>
        <time>2014-01-12T15:13:21.000Z</time>
      </trkpt>
      <trkpt lat="45.22244" lon="6.01232">
        <ele>1636</ele>
        <time>2014-01-12T15:13:26.000Z</time>
      </trkpt>
      <trkpt lat="45.22244" lon="6.01229">
        <ele>1635</ele>
        <time>2014-01-12T15:13:27.000Z</time>
      </trkpt>
      <trkpt lat="45.22244" lon="6.01226">
        <ele>1635</ele>
        <time>2014-01-12T15:13:29.000Z</time>
      </trkpt>
      <trkpt lat="45.22244" lon="6.01222">
        <ele>1634</ele>
        <time>2014-01-12T15:13:31.000Z</time>
      </trkpt>
      <trkpt lat="45.22244" lon="6.01212">
        <ele>1633</ele>
        <time>2014-01-12T15:13:37.000Z</time>
      </trkpt>
      <trkpt lat="45.22244" lon="6.01209">
        <ele>1632</ele>
        <time>2014-01-12T15:13:38.000Z</time>
      </trkpt>
      <trkpt lat="45.22245" lon="6.01194">
        <ele>1630</ele>
        <time>2014-01-12T15:13:42.000Z</time>
      </trkpt>
      <trkpt lat="45.22245" lon="6.01187">
        <ele>1629</ele>
        <time>2014-01-12T15:13:43.000Z</time>
      </trkpt>
      <trkpt lat="45.22245" lon="6.01178">
        <ele>1628</ele>
        <time>2014-01-12T15:13:45.000Z</time>
      </trkpt>
      <trkpt lat="45.22243" lon="6.01175">
        <ele>1628</ele>
        <time>2014-01-12T15:13:46.000Z</time>
      </trkpt>
      <trkpt lat="45.22241" lon="6.01172">
        <ele>1628</ele>
        <time>2014-01-12T15:13:47.000Z</time>
      </trkpt>
      <trkpt lat="45.22238" lon="6.01167">
        <ele>1628</ele>
        <time>2014-01-12T15:13:48.000Z</time>
      </trkpt>
      <trkpt lat="45.22236" lon="6.01163">
        <ele>1623</ele>
        <time>2014-01-12T15:13:49.000Z</time>
      </trkpt>
      <trkpt lat="45.22234" lon="6.01159">
        <ele>1622</ele>
        <time>2014-01-12T15:13:50.000Z</time>
      </trkpt>
      <trkpt lat="45.22233" lon="6.01155">
        <ele>1621</ele>
        <time>2014-01-12T15:13:51.000Z</time>
      </trkpt>
      <trkpt lat="45.22233" lon="6.01149">
        <ele>1621</ele>
        <time>2014-01-12T15:13:52.000Z</time>
      </trkpt>
      <trkpt lat="45.22234" lon="6.01144">
        <ele>1621</ele>
        <time>2014-01-12T15:13:53.000Z</time>
      </trkpt>
      <trkpt lat="45.22236" lon="6.01137">
        <ele>1620</ele>
        <time>2014-01-12T15:13:54.000Z</time>
      </trkpt>
      <trkpt lat="45.22237" lon="6.01132">
        <ele>1619</ele>
        <time>2014-01-12T15:13:55.000Z</time>
      </trkpt>
      <trkpt lat="45.22237" lon="6.01127">
        <ele>1619</ele>
        <time>2014-01-12T15:13:56.000Z</time>
      </trkpt>
      <trkpt lat="45.22237" lon="6.01121">
        <ele>1618</ele>
        <time>2014-01-12T15:13:57.000Z</time>
      </trkpt>
      <trkpt lat="45.22237" lon="6.01116">
        <ele>1618</ele>
        <time>2014-01-12T15:13:58.000Z</time>
      </trkpt>
      <trkpt lat="45.22237" lon="6.0111">
        <ele>1618</ele>
        <time>2014-01-12T15:13:59.000Z</time>
      </trkpt>
      <trkpt lat="45.22238" lon="6.01104">
        <ele>1617</ele>
        <time>2014-01-12T15:14:00.000Z</time>
      </trkpt>
      <trkpt lat="45.2224" lon="6.01099">
        <ele>1617</ele>
        <time>2014-01-12T15:14:01.000Z</time>
      </trkpt>
      <trkpt lat="45.22242" lon="6.01096">
        <ele>1616</ele>
        <time>2014-01-12T15:14:02.000Z</time>
      </trkpt>
      <trkpt lat="45.22244" lon="6.01092">
        <ele>1616</ele>
        <time>2014-01-12T15:14:04.000Z</time>
      </trkpt>
      <trkpt lat="45.22242" lon="6.01089">
        <ele>1616</ele>
        <time>2014-01-12T15:14:05.000Z</time>
      </trkpt>
      <trkpt lat="45.22237" lon="6.01081">
        <ele>1612</ele>
        <time>2014-01-12T15:14:09.000Z</time>
      </trkpt>
      <trkpt lat="45.22236" lon="6.01081">
        <ele>1612</ele>
        <time>2014-01-12T15:14:10.000Z</time>
      </trkpt>
      <trkpt lat="45.22236" lon="6.01081">
        <ele>1612</ele>
        <time>2014-01-12T15:14:27.000Z</time>
      </trkpt>
      <trkpt lat="45.22237" lon="6.01073">
        <ele>1611</ele>
        <time>2014-01-12T15:14:32.000Z</time>
      </trkpt>
      <trkpt lat="45.22235" lon="6.01058">
        <ele>1609</ele>
        <time>2014-01-12T15:14:35.000Z</time>
      </trkpt>
      <trkpt lat="45.22235" lon="6.01052">
        <ele>1608</ele>
        <time>2014-01-12T15:14:36.000Z</time>
      </trkpt>
      <trkpt lat="45.22236" lon="6.01046">
        <ele>1608</ele>
        <time>2014-01-12T15:14:37.000Z</time>
      </trkpt>
      <trkpt lat="45.22236" lon="6.0104">
        <ele>1607</ele>
        <time>2014-01-12T15:14:38.000Z</time>
      </trkpt>
      <trkpt lat="45.22236" lon="6.01035">
        <ele>1606</ele>
        <time>2014-01-12T15:14:39.000Z</time>
      </trkpt>
      <trkpt lat="45.22236" lon="6.01029">
        <ele>1606</ele>
        <time>2014-01-12T15:14:40.000Z</time>
      </trkpt>
      <trkpt lat="45.22238" lon="6.01023">
        <ele>1605</ele>
        <time>2014-01-12T15:14:41.000Z</time>
      </trkpt>
      <trkpt lat="45.22237" lon="6.01018">
        <ele>1604</ele>
        <time>2014-01-12T15:14:42.000Z</time>
      </trkpt>
      <trkpt lat="45.22236" lon="6.01014">
        <ele>1604</ele>
        <time>2014-01-12T15:14:43.000Z</time>
      </trkpt>
      <trkpt lat="45.22235" lon="6.01009">
        <ele>1604</ele>
        <time>2014-01-12T15:14:44.000Z</time>
      </trkpt>
      <trkpt lat="45.22235" lon="6.01005">
        <ele>1603</ele>
        <time>2014-01-12T15:14:45.000Z</time>
      </trkpt>
      <trkpt lat="45.22237" lon="6.01002">
        <ele>1603</ele>
        <time>2014-01-12T15:14:46.000Z</time>
      </trkpt>
      <trkpt lat="45.22247" lon="6.00992">
        <ele>1598</ele>
        <time>2014-01-12T15:14:50.000Z</time>
      </trkpt>
      <trkpt lat="45.22248" lon="6.00981">
        <ele>1597</ele>
        <time>2014-01-12T15:14:54.000Z</time>
      </trkpt>
      <trkpt lat="45.22247" lon="6.00983">
        <ele>1597</ele>
        <time>2014-01-12T15:15:03.000Z</time>
      </trkpt>
      <trkpt lat="45.22248" lon="6.00986">
        <ele>1597</ele>
        <time>2014-01-12T15:15:09.000Z</time>
      </trkpt>
      <trkpt lat="45.22247" lon="6.00988">
        <ele>1598</ele>
        <time>2014-01-12T15:15:14.000Z</time>
      </trkpt>
      <trkpt lat="45.22247" lon="6.00989">
        <ele>1598</ele>
        <time>2014-01-12T15:15:19.000Z</time>
      </trkpt>
      <trkpt lat="45.22245" lon="6.00991">
        <ele>1598</ele>
        <time>2014-01-12T15:15:21.000Z</time>
      </trkpt>
      <trkpt lat="45.2224" lon="6.0099">
        <ele>1598</ele>
        <time>2014-01-12T15:15:26.000Z</time>
      </trkpt>
      <trkpt lat="45.22235" lon="6.00982">
        <ele>1597</ele>
        <time>2014-01-12T15:15:30.000Z</time>
      </trkpt>
      <trkpt lat="45.22233" lon="6.00961">
        <ele>1594</ele>
        <time>2014-01-12T15:15:35.000Z</time>
      </trkpt>
      <trkpt lat="45.22232" lon="6.00954">
        <ele>1593</ele>
        <time>2014-01-12T15:15:37.000Z</time>
      </trkpt>
      <trkpt lat="45.22232" lon="6.00945">
        <ele>1592</ele>
        <time>2014-01-12T15:15:41.000Z</time>
      </trkpt>
      <trkpt lat="45.22232" lon="6.00931">
        <ele>1590</ele>
        <time>2014-01-12T15:15:46.000Z</time>
      </trkpt>
      <trkpt lat="45.22235" lon="6.00932">
        <ele>1590</ele>
        <time>2014-01-12T15:15:48.000Z</time>
      </trkpt>
      <trkpt lat="45.22236" lon="6.00932">
        <ele>1590</ele>
        <time>2014-01-12T15:15:50.000Z</time>
      </trkpt>
      <trkpt lat="45.22244" lon="6.00931">
        <ele>1588</ele>
        <time>2014-01-12T15:15:55.000Z</time>
      </trkpt>
      <trkpt lat="45.22245" lon="6.00926">
        <ele>1587</ele>
        <time>2014-01-12T15:15:58.000Z</time>
      </trkpt>
      <trkpt lat="45.22249" lon="6.00921">
        <ele>1585</ele>
        <time>2014-01-12T15:16:01.000Z</time>
      </trkpt>
      <trkpt lat="45.22246" lon="6.00914">
        <ele>1582</ele>
        <time>2014-01-12T15:16:05.000Z</time>
      </trkpt>
      <trkpt lat="45.22243" lon="6.00911">
        <ele>1582</ele>
        <time>2014-01-12T15:16:09.000Z</time>
      </trkpt>
      <trkpt lat="45.22243" lon="6.00903">
        <ele>1581</ele>
        <time>2014-01-12T15:16:12.000Z</time>
      </trkpt>
      <trkpt lat="45.22246" lon="6.00888">
        <ele>1579</ele>
        <time>2014-01-12T15:16:15.000Z</time>
      </trkpt>
      <trkpt lat="45.22245" lon="6.00878">
        <ele>1577</ele>
        <time>2014-01-12T15:16:17.000Z</time>
      </trkpt>
      <trkpt lat="45.22242" lon="6.00872">
        <ele>1576</ele>
        <time>2014-01-12T15:16:18.000Z</time>
      </trkpt>
      <trkpt lat="45.22236" lon="6.00863">
        <ele>1575</ele>
        <time>2014-01-12T15:16:20.000Z</time>
      </trkpt>
      <trkpt lat="45.22235" lon="6.00858">
        <ele>1574</ele>
        <time>2014-01-12T15:16:21.000Z</time>
      </trkpt>
      <trkpt lat="45.22234" lon="6.00854">
        <ele>1574</ele>
        <time>2014-01-12T15:16:22.000Z</time>
      </trkpt>
      <trkpt lat="45.22232" lon="6.0085">
        <ele>1573</ele>
        <time>2014-01-12T15:16:23.000Z</time>
      </trkpt>
      <trkpt lat="45.22231" lon="6.00845">
        <ele>1573</ele>
        <time>2014-01-12T15:16:24.000Z</time>
      </trkpt>
      <trkpt lat="45.22229" lon="6.0084">
        <ele>1572</ele>
        <time>2014-01-12T15:16:25.000Z</time>
      </trkpt>
      <trkpt lat="45.22227" lon="6.00835">
        <ele>1572</ele>
        <time>2014-01-12T15:16:26.000Z</time>
      </trkpt>
      <trkpt lat="45.22225" lon="6.00831">
        <ele>1563</ele>
        <time>2014-01-12T15:16:27.000Z</time>
      </trkpt>
      <trkpt lat="45.22223" lon="6.00827">
        <ele>1562</ele>
        <time>2014-01-12T15:16:28.000Z</time>
      </trkpt>
      <trkpt lat="45.22221" lon="6.00825">
        <ele>1562</ele>
        <time>2014-01-12T15:16:29.000Z</time>
      </trkpt>
      <trkpt lat="45.22219" lon="6.00821">
        <ele>1562</ele>
        <time>2014-01-12T15:16:30.000Z</time>
      </trkpt>
      <trkpt lat="45.22216" lon="6.00817">
        <ele>1562</ele>
        <time>2014-01-12T15:16:31.000Z</time>
      </trkpt>
      <trkpt lat="45.2221" lon="6.00809">
        <ele>1562</ele>
        <time>2014-01-12T15:16:34.000Z</time>
      </trkpt>
      <trkpt lat="45.22208" lon="6.00805">
        <ele>1561</ele>
        <time>2014-01-12T15:16:35.000Z</time>
      </trkpt>
      <trkpt lat="45.22204" lon="6.00793">
        <ele>1560</ele>
        <time>2014-01-12T15:16:37.000Z</time>
      </trkpt>
      <trkpt lat="45.22202" lon="6.00787">
        <ele>1560</ele>
        <time>2014-01-12T15:16:38.000Z</time>
      </trkpt>
      <trkpt lat="45.22198" lon="6.00775">
        <ele>1559</ele>
        <time>2014-01-12T15:16:40.000Z</time>
      </trkpt>
      <trkpt lat="45.22198" lon="6.00771">
        <ele>1559</ele>
        <time>2014-01-12T15:16:41.000Z</time>
      </trkpt>
      <trkpt lat="45.22197" lon="6.00767">
        <ele>1558</ele>
        <time>2014-01-12T15:16:43.000Z</time>
      </trkpt>
      <trkpt lat="45.22195" lon="6.00752">
        <ele>1558</ele>
        <time>2014-01-12T15:16:48.000Z</time>
      </trkpt>
      <trkpt lat="45.22194" lon="6.00734">
        <ele>1547</ele>
        <time>2014-01-12T15:16:53.000Z</time>
      </trkpt>
      <trkpt lat="45.22194" lon="6.0073">
        <ele>1547</ele>
        <time>2014-01-12T15:16:55.000Z</time>
      </trkpt>
      <trkpt lat="45.22192" lon="6.00728">
        <ele>1547</ele>
        <time>2014-01-12T15:17:02.000Z</time>
      </trkpt>
      <trkpt lat="45.22191" lon="6.00727">
        <ele>1547</ele>
        <time>2014-01-12T15:17:08.000Z</time>
      </trkpt>
      <trkpt lat="45.22191" lon="6.00728">
        <ele>1547</ele>
        <time>2014-01-12T15:17:23.000Z</time>
      </trkpt>
      <trkpt lat="45.22193" lon="6.0073">
        <ele>1547</ele>
        <time>2014-01-12T15:17:24.000Z</time>
      </trkpt>
      <trkpt lat="45.22195" lon="6.00733">
        <ele>1547</ele>
        <time>2014-01-12T15:17:25.000Z</time>
      </trkpt>
      <trkpt lat="45.22198" lon="6.00736">
        <ele>1547</ele>
        <time>2014-01-12T15:17:26.000Z</time>
      </trkpt>
      <trkpt lat="45.222" lon="6.00738">
        <ele>1547</ele>
        <time>2014-01-12T15:17:28.000Z</time>
      </trkpt>
      <trkpt lat="45.22209" lon="6.00735">
        <ele>1546</ele>
        <time>2014-01-12T15:17:31.000Z</time>
      </trkpt>
      <trkpt lat="45.22208" lon="6.00731">
        <ele>1546</ele>
        <time>2014-01-12T15:17:34.000Z</time>
      </trkpt>
      <trkpt lat="45.22208" lon="6.00724">
        <ele>1545</ele>
        <time>2014-01-12T15:17:40.000Z</time>
      </trkpt>
      <trkpt lat="45.22213" lon="6.00718">
        <ele>1544</ele>
        <time>2014-01-12T15:17:47.000Z</time>
      </trkpt>
      <trkpt lat="45.22214" lon="6.0071">
        <ele>1543</ele>
        <time>2014-01-12T15:17:53.000Z</time>
      </trkpt>
      <trkpt lat="45.22214" lon="6.00707">
        <ele>1543</ele>
        <time>2014-01-12T15:17:54.000Z</time>
      </trkpt>
      <trkpt lat="45.22209" lon="6.007">
        <ele>1543</ele>
        <time>2014-01-12T15:17:59.000Z</time>
      </trkpt>
      <trkpt lat="45.2221" lon="6.00689">
        <ele>1542</ele>
        <time>2014-01-12T15:18:04.000Z</time>
      </trkpt>
      <trkpt lat="45.2221" lon="6.00687">
        <ele>1541</ele>
        <time>2014-01-12T15:18:11.000Z</time>
      </trkpt>
      <trkpt lat="45.22211" lon="6.00688">
        <ele>1541</ele>
        <time>2014-01-12T15:18:18.000Z</time>
      </trkpt>
      <trkpt lat="45.22213" lon="6.00689">
        <ele>1541</ele>
        <time>2014-01-12T15:18:24.000Z</time>
      </trkpt>
      <trkpt lat="45.22213" lon="6.0069">
        <ele>1541</ele>
        <time>2014-01-12T15:18:32.000Z</time>
      </trkpt>
      <trkpt lat="45.22214" lon="6.00693">
        <ele>1541</ele>
        <time>2014-01-12T15:18:38.000Z</time>
      </trkpt>
      <trkpt lat="45.22215" lon="6.00693">
        <ele>1541</ele>
        <time>2014-01-12T15:18:44.000Z</time>
      </trkpt>
      <trkpt lat="45.22219" lon="6.00691">
        <ele>1541</ele>
        <time>2014-01-12T15:18:58.000Z</time>
      </trkpt>
      <trkpt lat="45.22221" lon="6.00688">
        <ele>1540</ele>
        <time>2014-01-12T15:19:04.000Z</time>
      </trkpt>
      <trkpt lat="45.22221" lon="6.00688">
        <ele>1540</ele>
        <time>2014-01-12T15:19:29.000Z</time>
      </trkpt>
      <trkpt lat="45.2222" lon="6.00685">
        <ele>1540</ele>
        <time>2014-01-12T15:19:35.000Z</time>
      </trkpt>
      <trkpt lat="45.22218" lon="6.00679">
        <ele>1540</ele>
        <time>2014-01-12T15:19:43.000Z</time>
      </trkpt>
      <trkpt lat="45.22217" lon="6.00676">
        <ele>1540</ele>
        <time>2014-01-12T15:19:49.000Z</time>
      </trkpt>
      <trkpt lat="45.22215" lon="6.00668">
        <ele>1539</ele>
        <time>2014-01-12T15:19:58.000Z</time>
      </trkpt>
      <trkpt lat="45.22216" lon="6.00667">
        <ele>1539</ele>
        <time>2014-01-12T15:20:09.000Z</time>
      </trkpt>
      <trkpt lat="45.22213" lon="6.00665">
        <ele>1529</ele>
        <time>2014-01-12T15:20:19.000Z</time>
      </trkpt>
      <trkpt lat="45.22212" lon="6.00659">
        <ele>1529</ele>
        <time>2014-01-12T15:20:26.000Z</time>
      </trkpt>
      <trkpt lat="45.22214" lon="6.00649">
        <ele>1528</ele>
        <time>2014-01-12T15:20:34.000Z</time>
      </trkpt>
      <trkpt lat="45.22217" lon="6.00638">
        <ele>1527</ele>
        <time>2014-01-12T15:20:41.000Z</time>
      </trkpt>
      <trkpt lat="45.22222" lon="6.00625">
        <ele>1525</ele>
        <time>2014-01-12T15:20:49.000Z</time>
      </trkpt>
      <trkpt lat="45.22222" lon="6.00624">
        <ele>1525</ele>
        <time>2014-01-12T15:21:00.000Z</time>
      </trkpt>
      <trkpt lat="45.22223" lon="6.00623">
        <ele>1525</ele>
        <time>2014-01-12T15:21:12.000Z</time>
      </trkpt>
      <trkpt lat="45.22223" lon="6.00622">
        <ele>1525</ele>
        <time>2014-01-12T15:21:24.000Z</time>
      </trkpt>
      <trkpt lat="45.22224" lon="6.00622">
        <ele>1524</ele>
        <time>2014-01-12T15:21:38.000Z</time>
      </trkpt>
      <trkpt lat="45.22227" lon="6.00619">
        <ele>1524</ele>
        <time>2014-01-12T15:21:52.000Z</time>
      </trkpt>
      <trkpt lat="45.22229" lon="6.00617">
        <ele>1523</ele>
        <time>2014-01-12T15:21:53.000Z</time>
      </trkpt>
      <trkpt lat="45.22232" lon="6.00611">
        <ele>1522</ele>
        <time>2014-01-12T15:21:57.000Z</time>
      </trkpt>
      <trkpt lat="45.22225" lon="6.00599">
        <ele>1521</ele>
        <time>2014-01-12T15:22:02.000Z</time>
      </trkpt>
      <trkpt lat="45.2222" lon="6.00588">
        <ele>1521</ele>
        <time>2014-01-12T15:22:05.000Z</time>
      </trkpt>
      <trkpt lat="45.22227" lon="6.00579">
        <ele>1509</ele>
        <time>2014-01-12T15:22:09.000Z</time>
      </trkpt>
      <trkpt lat="45.22228" lon="6.00568">
        <ele>1508</ele>
        <time>2014-01-12T15:22:13.000Z</time>
      </trkpt>
      <trkpt lat="45.22226" lon="6.00554">
        <ele>1507</ele>
        <time>2014-01-12T15:22:17.000Z</time>
      </trkpt>
      <trkpt lat="45.22226" lon="6.00551">
        <ele>1507</ele>
        <time>2014-01-12T15:22:21.000Z</time>
      </trkpt>
      <trkpt lat="45.22229" lon="6.00545">
        <ele>1505</ele>
        <time>2014-01-12T15:22:26.000Z</time>
      </trkpt>
      <trkpt lat="45.22225" lon="6.00536">
        <ele>1505</ele>
        <time>2014-01-12T15:22:30.000Z</time>
      </trkpt>
      <trkpt lat="45.22225" lon="6.00535">
        <ele>1504</ele>
        <time>2014-01-12T15:22:31.000Z</time>
      </trkpt>
      <trkpt lat="45.2222" lon="6.00519">
        <ele>1503</ele>
        <time>2014-01-12T15:22:35.000Z</time>
      </trkpt>
      <trkpt lat="45.22218" lon="6.00514">
        <ele>1502</ele>
        <time>2014-01-12T15:22:36.000Z</time>
      </trkpt>
      <trkpt lat="45.22217" lon="6.00511">
        <ele>1502</ele>
        <time>2014-01-12T15:22:37.000Z</time>
      </trkpt>
      <trkpt lat="45.22217" lon="6.0051">
        <ele>1502</ele>
        <time>2014-01-12T15:22:38.000Z</time>
      </trkpt>
      <trkpt lat="45.22218" lon="6.0051">
        <ele>1502</ele>
        <time>2014-01-12T15:22:39.000Z</time>
      </trkpt>
      <trkpt lat="45.2222" lon="6.00511">
        <ele>1502</ele>
        <time>2014-01-12T15:22:43.000Z</time>
      </trkpt>
      <trkpt lat="45.22222" lon="6.00511">
        <ele>1501</ele>
        <time>2014-01-12T15:22:44.000Z</time>
      </trkpt>
      <trkpt lat="45.22223" lon="6.00511">
        <ele>1501</ele>
        <time>2014-01-12T15:22:45.000Z</time>
      </trkpt>
      <trkpt lat="45.22225" lon="6.00512">
        <ele>1500</ele>
        <time>2014-01-12T15:22:46.000Z</time>
      </trkpt>
      <trkpt lat="45.22227" lon="6.00512">
        <ele>1499</ele>
        <time>2014-01-12T15:22:47.000Z</time>
      </trkpt>
      <trkpt lat="45.22231" lon="6.00512">
        <ele>1498</ele>
        <time>2014-01-12T15:22:48.000Z</time>
      </trkpt>
      <trkpt lat="45.22234" lon="6.00513">
        <ele>1497</ele>
        <time>2014-01-12T15:22:49.000Z</time>
      </trkpt>
      <trkpt lat="45.22239" lon="6.00514">
        <ele>1496</ele>
        <time>2014-01-12T15:22:50.000Z</time>
      </trkpt>
      <trkpt lat="45.22242" lon="6.00513">
        <ele>1494</ele>
        <time>2014-01-12T15:22:51.000Z</time>
      </trkpt>
      <trkpt lat="45.22244" lon="6.0051">
        <ele>1492</ele>
        <time>2014-01-12T15:22:52.000Z</time>
      </trkpt>
      <trkpt lat="45.22244" lon="6.00506">
        <ele>1491</ele>
        <time>2014-01-12T15:22:53.000Z</time>
      </trkpt>
      <trkpt lat="45.22241" lon="6.00502">
        <ele>1491</ele>
        <time>2014-01-12T15:22:54.000Z</time>
      </trkpt>
      <trkpt lat="45.22239" lon="6.00499">
        <ele>1486</ele>
        <time>2014-01-12T15:22:55.000Z</time>
      </trkpt>
      <trkpt lat="45.22237" lon="6.00496">
        <ele>1486</ele>
        <time>2014-01-12T15:22:56.000Z</time>
      </trkpt>
      <trkpt lat="45.22236" lon="6.00492">
        <ele>1487</ele>
        <time>2014-01-12T15:22:57.000Z</time>
      </trkpt>
      <trkpt lat="45.22235" lon="6.00489">
        <ele>1487</ele>
        <time>2014-01-12T15:22:58.000Z</time>
      </trkpt>
      <trkpt lat="45.22234" lon="6.00486">
        <ele>1487</ele>
        <time>2014-01-12T15:22:59.000Z</time>
      </trkpt>
      <trkpt lat="45.22233" lon="6.00483">
        <ele>1487</ele>
        <time>2014-01-12T15:23:00.000Z</time>
      </trkpt>
      <trkpt lat="45.22233" lon="6.0048">
        <ele>1487</ele>
        <time>2014-01-12T15:23:01.000Z</time>
      </trkpt>
      <trkpt lat="45.22233" lon="6.00477">
        <ele>1487</ele>
        <time>2014-01-12T15:23:02.000Z</time>
      </trkpt>
      <trkpt lat="45.22234" lon="6.00474">
        <ele>1487</ele>
        <time>2014-01-12T15:23:03.000Z</time>
      </trkpt>
      <trkpt lat="45.22234" lon="6.00471">
        <ele>1487</ele>
        <time>2014-01-12T15:23:04.000Z</time>
      </trkpt>
      <trkpt lat="45.22236" lon="6.00468">
        <ele>1486</ele>
        <time>2014-01-12T15:23:05.000Z</time>
      </trkpt>
      <trkpt lat="45.22239" lon="6.00465">
        <ele>1486</ele>
        <time>2014-01-12T15:23:06.000Z</time>
      </trkpt>
      <trkpt lat="45.2224" lon="6.0046">
        <ele>1485</ele>
        <time>2014-01-12T15:23:07.000Z</time>
      </trkpt>
      <trkpt lat="45.2224" lon="6.00455">
        <ele>1484</ele>
        <time>2014-01-12T15:23:08.000Z</time>
      </trkpt>
      <trkpt lat="45.22239" lon="6.00451">
        <ele>1483</ele>
        <time>2014-01-12T15:23:09.000Z</time>
      </trkpt>
      <trkpt lat="45.2224" lon="6.00446">
        <ele>1482</ele>
        <time>2014-01-12T15:23:11.000Z</time>
      </trkpt>
      <trkpt lat="45.22243" lon="6.00442">
        <ele>1480</ele>
        <time>2014-01-12T15:23:12.000Z</time>
      </trkpt>
      <trkpt lat="45.22245" lon="6.00437">
        <ele>1478</ele>
        <time>2014-01-12T15:23:13.000Z</time>
      </trkpt>
      <trkpt lat="45.22247" lon="6.00434">
        <ele>1477</ele>
        <time>2014-01-12T15:23:14.000Z</time>
      </trkpt>
      <trkpt lat="45.22248" lon="6.00434">
        <ele>1477</ele>
        <time>2014-01-12T15:23:15.000Z</time>
      </trkpt>
      <trkpt lat="45.22251" lon="6.00435">
        <ele>1468</ele>
        <time>2014-01-12T15:23:16.000Z</time>
      </trkpt>
      <trkpt lat="45.22253" lon="6.00434">
        <ele>1467</ele>
        <time>2014-01-12T15:23:17.000Z</time>
      </trkpt>
      <trkpt lat="45.22255" lon="6.00434">
        <ele>1467</ele>
        <time>2014-01-12T15:23:18.000Z</time>
      </trkpt>
      <trkpt lat="45.22258" lon="6.00436">
        <ele>1468</ele>
        <time>2014-01-12T15:23:19.000Z</time>
      </trkpt>
      <trkpt lat="45.22261" lon="6.00439">
        <ele>1468</ele>
        <time>2014-01-12T15:23:20.000Z</time>
      </trkpt>
      <trkpt lat="45.22263" lon="6.00438">
        <ele>1468</ele>
        <time>2014-01-12T15:23:21.000Z</time>
      </trkpt>
      <trkpt lat="45.22265" lon="6.00434">
        <ele>1468</ele>
        <time>2014-01-12T15:23:22.000Z</time>
      </trkpt>
      <trkpt lat="45.22264" lon="6.00422">
        <ele>1466</ele>
        <time>2014-01-12T15:23:26.000Z</time>
      </trkpt>
      <trkpt lat="45.22264" lon="6.00421">
        <ele>1466</ele>
        <time>2014-01-12T15:23:27.000Z</time>
      </trkpt>
      <trkpt lat="45.22278" lon="6.00411">
        <ele>1454</ele>
        <time>2014-01-12T15:23:32.000Z</time>
      </trkpt>
      <trkpt lat="45.22281" lon="6.00406">
        <ele>1454</ele>
        <time>2014-01-12T15:23:33.000Z</time>
      </trkpt>
      <trkpt lat="45.22282" lon="6.00399">
        <ele>1453</ele>
        <time>2014-01-12T15:23:34.000Z</time>
      </trkpt>
      <trkpt lat="45.22282" lon="6.00392">
        <ele>1452</ele>
        <time>2014-01-12T15:23:35.000Z</time>
      </trkpt>
      <trkpt lat="45.22283" lon="6.00385">
        <ele>1451</ele>
        <time>2014-01-12T15:23:36.000Z</time>
      </trkpt>
      <trkpt lat="45.22285" lon="6.00381">
        <ele>1451</ele>
        <time>2014-01-12T15:23:37.000Z</time>
      </trkpt>
      <trkpt lat="45.22289" lon="6.00379">
        <ele>1450</ele>
        <time>2014-01-12T15:23:38.000Z</time>
      </trkpt>
      <trkpt lat="45.22293" lon="6.0038">
        <ele>1450</ele>
        <time>2014-01-12T15:23:39.000Z</time>
      </trkpt>
      <trkpt lat="45.22296" lon="6.00381">
        <ele>1450</ele>
        <time>2014-01-12T15:23:40.000Z</time>
      </trkpt>
      <trkpt lat="45.223" lon="6.00381">
        <ele>1450</ele>
        <time>2014-01-12T15:23:41.000Z</time>
      </trkpt>
      <trkpt lat="45.2231" lon="6.0038">
        <ele>1449</ele>
        <time>2014-01-12T15:23:43.000Z</time>
      </trkpt>
      <trkpt lat="45.22314" lon="6.00377">
        <ele>1448</ele>
        <time>2014-01-12T15:23:44.000Z</time>
      </trkpt>
      <trkpt lat="45.22318" lon="6.00371">
        <ele>1447</ele>
        <time>2014-01-12T15:23:45.000Z</time>
      </trkpt>
      <trkpt lat="45.22321" lon="6.00366">
        <ele>1446</ele>
        <time>2014-01-12T15:23:46.000Z</time>
      </trkpt>
      <trkpt lat="45.22325" lon="6.00362">
        <ele>1446</ele>
        <time>2014-01-12T15:23:47.000Z</time>
      </trkpt>
      <trkpt lat="45.22327" lon="6.00358">
        <ele>1444</ele>
        <time>2014-01-12T15:23:48.000Z</time>
      </trkpt>
      <trkpt lat="45.22328" lon="6.00351">
        <ele>1443</ele>
        <time>2014-01-12T15:23:49.000Z</time>
      </trkpt>
      <trkpt lat="45.22329" lon="6.00344">
        <ele>1441</ele>
        <time>2014-01-12T15:23:50.000Z</time>
      </trkpt>
      <trkpt lat="45.2233" lon="6.00338">
        <ele>1438</ele>
        <time>2014-01-12T15:23:51.000Z</time>
      </trkpt>
      <trkpt lat="45.2233" lon="6.00332">
        <ele>1435</ele>
        <time>2014-01-12T15:23:52.000Z</time>
      </trkpt>
      <trkpt lat="45.22329" lon="6.00326">
        <ele>1436</ele>
        <time>2014-01-12T15:23:53.000Z</time>
      </trkpt>
      <trkpt lat="45.22326" lon="6.0032">
        <ele>1436</ele>
        <time>2014-01-12T15:23:54.000Z</time>
      </trkpt>
      <trkpt lat="45.22323" lon="6.00316">
        <ele>1436</ele>
        <time>2014-01-12T15:23:55.000Z</time>
      </trkpt>
      <trkpt lat="45.22319" lon="6.00314">
        <ele>1436</ele>
        <time>2014-01-12T15:23:56.000Z</time>
      </trkpt>
      <trkpt lat="45.22316" lon="6.00312">
        <ele>1436</ele>
        <time>2014-01-12T15:23:57.000Z</time>
      </trkpt>
      <trkpt lat="45.22313" lon="6.0031">
        <ele>1436</ele>
        <time>2014-01-12T15:23:58.000Z</time>
      </trkpt>
      <trkpt lat="45.22313" lon="6.00306">
        <ele>1436</ele>
        <time>2014-01-12T15:23:59.000Z</time>
      </trkpt>
      <trkpt lat="45.22313" lon="6.00301">
        <ele>1436</ele>
        <time>2014-01-12T15:24:00.000Z</time>
      </trkpt>
      <trkpt lat="45.22314" lon="6.00297">
        <ele>1436</ele>
        <time>2014-01-12T15:24:01.000Z</time>
      </trkpt>
      <trkpt lat="45.22314" lon="6.0029">
        <ele>1435</ele>
        <time>2014-01-12T15:24:03.000Z</time>
      </trkpt>
      <trkpt lat="45.22314" lon="6.00283">
        <ele>1435</ele>
        <time>2014-01-12T15:24:05.000Z</time>
      </trkpt>
      <trkpt lat="45.22313" lon="6.0028">
        <ele>1435</ele>
        <time>2014-01-12T15:24:06.000Z</time>
      </trkpt>
      <trkpt lat="45.22313" lon="6.00277">
        <ele>1434</ele>
        <time>2014-01-12T15:24:08.000Z</time>
      </trkpt>
      <trkpt lat="45.22313" lon="6.00274">
        <ele>1434</ele>
        <time>2014-01-12T15:24:09.000Z</time>
      </trkpt>
      <trkpt lat="45.22313" lon="6.00271">
        <ele>1434</ele>
        <time>2014-01-12T15:24:10.000Z</time>
      </trkpt>
      <trkpt lat="45.22312" lon="6.00268">
        <ele>1433</ele>
        <time>2014-01-12T15:24:11.000Z</time>
      </trkpt>
      <trkpt lat="45.22311" lon="6.00267">
        <ele>1433</ele>
        <time>2014-01-12T15:24:12.000Z</time>
      </trkpt>
      <trkpt lat="45.2231" lon="6.00265">
        <ele>1433</ele>
        <time>2014-01-12T15:24:19.000Z</time>
      </trkpt>
      <trkpt lat="45.22309" lon="6.00258">
        <ele>1433</ele>
        <time>2014-01-12T15:24:21.000Z</time>
      </trkpt>
      <trkpt lat="45.22308" lon="6.00256">
        <ele>1433</ele>
        <time>2014-01-12T15:24:22.000Z</time>
      </trkpt>
      <trkpt lat="45.22307" lon="6.00256">
        <ele>1433</ele>
        <time>2014-01-12T15:24:23.000Z</time>
      </trkpt>
      <trkpt lat="45.22306" lon="6.00254">
        <ele>1433</ele>
        <time>2014-01-12T15:24:24.000Z</time>
      </trkpt>
      <trkpt lat="45.22305" lon="6.00251">
        <ele>1434</ele>
        <time>2014-01-12T15:24:25.000Z</time>
      </trkpt>
      <trkpt lat="45.22304" lon="6.00248">
        <ele>1429</ele>
        <time>2014-01-12T15:24:26.000Z</time>
      </trkpt>
      <trkpt lat="45.22303" lon="6.00245">
        <ele>1429</ele>
        <time>2014-01-12T15:24:28.000Z</time>
      </trkpt>
      <trkpt lat="45.22301" lon="6.00245">
        <ele>1429</ele>
        <time>2014-01-12T15:24:29.000Z</time>
      </trkpt>
      <trkpt lat="45.22301" lon="6.00243">
        <ele>1429</ele>
        <time>2014-01-12T15:24:30.000Z</time>
      </trkpt>
      <trkpt lat="45.22302" lon="6.00241">
        <ele>1429</ele>
        <time>2014-01-12T15:24:31.000Z</time>
      </trkpt>
      <trkpt lat="45.22302" lon="6.00238">
        <ele>1429</ele>
        <time>2014-01-12T15:24:32.000Z</time>
      </trkpt>
      <trkpt lat="45.22302" lon="6.00234">
        <ele>1429</ele>
        <time>2014-01-12T15:24:33.000Z</time>
      </trkpt>
      <trkpt lat="45.22302" lon="6.00231">
        <ele>1429</ele>
        <time>2014-01-12T15:24:34.000Z</time>
      </trkpt>
      <trkpt lat="45.22302" lon="6.00227">
        <ele>1429</ele>
        <time>2014-01-12T15:24:35.000Z</time>
      </trkpt>
      <trkpt lat="45.22303" lon="6.00223">
        <ele>1429</ele>
        <time>2014-01-12T15:24:36.000Z</time>
      </trkpt>
      <trkpt lat="45.22304" lon="6.00219">
        <ele>1429</ele>
        <time>2014-01-12T15:24:37.000Z</time>
      </trkpt>
      <trkpt lat="45.22306" lon="6.00216">
        <ele>1428</ele>
        <time>2014-01-12T15:24:38.000Z</time>
      </trkpt>
      <trkpt lat="45.22309" lon="6.00213">
        <ele>1428</ele>
        <time>2014-01-12T15:24:39.000Z</time>
      </trkpt>
      <trkpt lat="45.22313" lon="6.00211">
        <ele>1427</ele>
        <time>2014-01-12T15:24:40.000Z</time>
      </trkpt>
      <trkpt lat="45.22316" lon="6.00209">
        <ele>1426</ele>
        <time>2014-01-12T15:24:41.000Z</time>
      </trkpt>
      <trkpt lat="45.22318" lon="6.00206">
        <ele>1426</ele>
        <time>2014-01-12T15:24:42.000Z</time>
      </trkpt>
      <trkpt lat="45.22321" lon="6.00204">
        <ele>1425</ele>
        <time>2014-01-12T15:24:43.000Z</time>
      </trkpt>
      <trkpt lat="45.22324" lon="6.00202">
        <ele>1425</ele>
        <time>2014-01-12T15:24:44.000Z</time>
      </trkpt>
      <trkpt lat="45.22328" lon="6.00199">
        <ele>1424</ele>
        <time>2014-01-12T15:24:45.000Z</time>
      </trkpt>
      <trkpt lat="45.22332" lon="6.00196">
        <ele>1423</ele>
        <time>2014-01-12T15:24:46.000Z</time>
      </trkpt>
      <trkpt lat="45.22335" lon="6.00191">
        <ele>1417</ele>
        <time>2014-01-12T15:24:47.000Z</time>
      </trkpt>
      <trkpt lat="45.22339" lon="6.00186">
        <ele>1416</ele>
        <time>2014-01-12T15:24:48.000Z</time>
      </trkpt>
      <trkpt lat="45.22342" lon="6.00181">
        <ele>1416</ele>
        <time>2014-01-12T15:24:49.000Z</time>
      </trkpt>
      <trkpt lat="45.22353" lon="6.0017">
        <ele>1416</ele>
        <time>2014-01-12T15:24:52.000Z</time>
      </trkpt>
      <trkpt lat="45.22364" lon="6.00157">
        <ele>1408</ele>
        <time>2014-01-12T15:24:56.000Z</time>
      </trkpt>
      <trkpt lat="45.22378" lon="6.00149">
        <ele>1408</ele>
        <time>2014-01-12T15:25:00.000Z</time>
      </trkpt>
      <trkpt lat="45.22392" lon="6.00142">
        <ele>1408</ele>
        <time>2014-01-12T15:25:07.000Z</time>
      </trkpt>
      <trkpt lat="45.22413" lon="6.00124">
        <ele>1405</ele>
        <time>2014-01-12T15:25:14.000Z</time>
      </trkpt>
      <trkpt lat="45.22425" lon="6.00109">
        <ele>1408</ele>
        <time>2014-01-12T15:25:18.000Z</time>
      </trkpt>
      <trkpt lat="45.22434" lon="6.001">
        <ele>1407</ele>
        <time>2014-01-12T15:25:21.000Z</time>
      </trkpt>
      <trkpt lat="45.22439" lon="6.00092">
        <ele>1407</ele>
        <time>2014-01-12T15:25:23.000Z</time>
      </trkpt>
      <trkpt lat="45.22451" lon="6.00078">
        <ele>1397</ele>
        <time>2014-01-12T15:25:27.000Z</time>
      </trkpt>
      <trkpt lat="45.22464" lon="6.0006">
        <ele>1398</ele>
        <time>2014-01-12T15:25:32.000Z</time>
      </trkpt>
      <trkpt lat="45.22478" lon="6.00035">
        <ele>1396</ele>
        <time>2014-01-12T15:25:38.000Z</time>
      </trkpt>
      <trkpt lat="45.22483" lon="6.00027">
        <ele>1396</ele>
        <time>2014-01-12T15:25:40.000Z</time>
      </trkpt>
      <trkpt lat="45.22492" lon="6.0001">
        <ele>1394</ele>
        <time>2014-01-12T15:25:44.000Z</time>
      </trkpt>
      <trkpt lat="45.22501" lon="5.99988">
        <ele>1397</ele>
        <time>2014-01-12T15:25:49.000Z</time>
      </trkpt>
      <trkpt lat="45.22503" lon="5.99985">
        <ele>1398</ele>
        <time>2014-01-12T15:25:50.000Z</time>
      </trkpt>
      <trkpt lat="45.22507" lon="5.99968">
        <ele>1400</ele>
        <time>2014-01-12T15:25:55.000Z</time>
      </trkpt>
      <trkpt lat="45.22509" lon="5.99962">
        <ele>1400</ele>
        <time>2014-01-12T15:25:57.000Z</time>
      </trkpt>
      <trkpt lat="45.22509" lon="5.9996">
        <ele>1400</ele>
        <time>2014-01-12T15:25:58.000Z</time>
      </trkpt>
      <trkpt lat="45.2251" lon="5.99956">
        <ele>1400</ele>
        <time>2014-01-12T15:26:05.000Z</time>
      </trkpt>
      <trkpt lat="45.2251" lon="5.99956">
        <ele>1400</ele>
        <time>2014-01-12T15:26:16.000Z</time>
      </trkpt>
      <trkpt lat="45.2251" lon="5.99956">
        <ele>1400</ele>
        <time>2014-01-12T15:26:33.000Z</time>
      </trkpt>
      <trkpt lat="45.22509" lon="5.99953">
        <ele>1399</ele>
        <time>2014-01-12T15:26:44.000Z</time>
      </trkpt>
      <trkpt lat="45.22506" lon="5.99948">
        <ele>1397</ele>
        <time>2014-01-12T15:26:52.000Z</time>
      </trkpt>
      <trkpt lat="45.22504" lon="5.99942">
        <ele>1395</ele>
        <time>2014-01-12T15:26:59.000Z</time>
      </trkpt>
      <trkpt lat="45.22504" lon="5.9993">
        <ele>1389</ele>
        <time>2014-01-12T15:27:06.000Z</time>
      </trkpt>
      <trkpt lat="45.22508" lon="5.99918">
        <ele>1385</ele>
        <time>2014-01-12T15:27:13.000Z</time>
      </trkpt>
      <trkpt lat="45.22508" lon="5.99917">
        <ele>1385</ele>
        <time>2014-01-12T15:27:26.000Z</time>
      </trkpt>
      <trkpt lat="45.22511" lon="5.99907">
        <ele>1383</ele>
        <time>2014-01-12T15:27:33.000Z</time>
      </trkpt>
      <trkpt lat="45.22513" lon="5.99897">
        <ele>1385</ele>
        <time>2014-01-12T15:27:39.000Z</time>
      </trkpt>
      <trkpt lat="45.22515" lon="5.99885">
        <ele>1385</ele>
        <time>2014-01-12T15:27:44.000Z</time>
      </trkpt>
      <trkpt lat="45.2252" lon="5.99872">
        <ele>1385</ele>
        <time>2014-01-12T15:27:50.000Z</time>
      </trkpt>
      <trkpt lat="45.22523" lon="5.99867">
        <ele>1385</ele>
        <time>2014-01-12T15:27:56.000Z</time>
      </trkpt>
      <trkpt lat="45.22523" lon="5.99867">
        <ele>1385</ele>
        <time>2014-01-12T15:28:11.000Z</time>
      </trkpt>
      <trkpt lat="45.22524" lon="5.99866">
        <ele>1385</ele>
        <time>2014-01-12T15:28:19.000Z</time>
      </trkpt>
      <trkpt lat="45.22526" lon="5.99855">
        <ele>1384</ele>
        <time>2014-01-12T15:28:26.000Z</time>
      </trkpt>
      <trkpt lat="45.22532" lon="5.99838">
        <ele>1383</ele>
        <time>2014-01-12T15:28:33.000Z</time>
      </trkpt>
      <trkpt lat="45.22532" lon="5.99821">
        <ele>1375</ele>
        <time>2014-01-12T15:28:41.000Z</time>
      </trkpt>
      <trkpt lat="45.22533" lon="5.99797">
        <ele>1375</ele>
        <time>2014-01-12T15:28:48.000Z</time>
      </trkpt>
      <trkpt lat="45.22532" lon="5.9978">
        <ele>1373</ele>
        <time>2014-01-12T15:28:52.000Z</time>
      </trkpt>
      <trkpt lat="45.22528" lon="5.99769">
        <ele>1370</ele>
        <time>2014-01-12T15:28:59.000Z</time>
      </trkpt>
      <trkpt lat="45.22527" lon="5.9977">
        <ele>1370</ele>
        <time>2014-01-12T15:29:10.000Z</time>
      </trkpt>
      <trkpt lat="45.22526" lon="5.99772">
        <ele>1370</ele>
        <time>2014-01-12T15:29:12.000Z</time>
      </trkpt>
      <trkpt lat="45.22525" lon="5.99791">
        <ele>1372</ele>
        <time>2014-01-12T15:29:20.000Z</time>
      </trkpt>
      <trkpt lat="45.22524" lon="5.99806">
        <ele>1372</ele>
        <time>2014-01-12T15:29:26.000Z</time>
      </trkpt>
      <trkpt lat="45.22517" lon="5.99819">
        <ele>1370</ele>
        <time>2014-01-12T15:29:32.000Z</time>
      </trkpt>
      <trkpt lat="45.22511" lon="5.99833">
        <ele>1366</ele>
        <time>2014-01-12T15:29:38.000Z</time>
      </trkpt>
      <trkpt lat="45.22491" lon="5.99851">
        <ele>1363</ele>
        <time>2014-01-12T15:29:48.000Z</time>
      </trkpt>
      <trkpt lat="45.22487" lon="5.99857">
        <ele>1364</ele>
        <time>2014-01-12T15:29:55.000Z</time>
      </trkpt>
      <trkpt lat="45.22489" lon="5.99856">
        <ele>1364</ele>
        <time>2014-01-12T15:30:07.000Z</time>
      </trkpt>
      <trkpt lat="45.22486" lon="5.99862">
        <ele>1364</ele>
        <time>2014-01-12T15:30:14.000Z</time>
      </trkpt>
      <trkpt lat="45.22481" lon="5.99873">
        <ele>1366</ele>
        <time>2014-01-12T15:30:21.000Z</time>
      </trkpt>
      <trkpt lat="45.22472" lon="5.99882">
        <ele>1366</ele>
        <time>2014-01-12T15:30:30.000Z</time>
      </trkpt>
      <trkpt lat="45.22467" lon="5.99889">
        <ele>1367</ele>
        <time>2014-01-12T15:30:35.000Z</time>
      </trkpt>
      <trkpt lat="45.22458" lon="5.99891">
        <ele>1367</ele>
        <time>2014-01-12T15:30:41.000Z</time>
      </trkpt>
      <trkpt lat="45.22449" lon="5.9988">
        <ele>1365</ele>
        <time>2014-01-12T15:30:49.000Z</time>
      </trkpt>
      <trkpt lat="45.22446" lon="5.99866">
        <ele>1363</ele>
        <time>2014-01-12T15:30:58.000Z</time>
      </trkpt>
      <trkpt lat="45.22448" lon="5.99856">
        <ele>1362</ele>
        <time>2014-01-12T15:31:06.000Z</time>
      </trkpt>
      <trkpt lat="45.22452" lon="5.99853">
        <ele>1362</ele>
        <time>2014-01-12T15:31:11.000Z</time>
      </trkpt>
      <trkpt lat="45.22461" lon="5.99841">
        <ele>1362</ele>
        <time>2014-01-12T15:31:21.000Z</time>
      </trkpt>
      <trkpt lat="45.22465" lon="5.99837">
        <ele>1362</ele>
        <time>2014-01-12T15:31:26.000Z</time>
      </trkpt>
      <trkpt lat="45.22471" lon="5.9983">
        <ele>1352</ele>
        <time>2014-01-12T15:31:35.000Z</time>
      </trkpt>
      <trkpt lat="45.22476" lon="5.99827">
        <ele>1353</ele>
        <time>2014-01-12T15:31:39.000Z</time>
      </trkpt>
      <trkpt lat="45.22484" lon="5.99816">
        <ele>1353</ele>
        <time>2014-01-12T15:31:47.000Z</time>
      </trkpt>
      <trkpt lat="45.22488" lon="5.99809">
        <ele>1352</ele>
        <time>2014-01-12T15:31:55.000Z</time>
      </trkpt>
      <trkpt lat="45.22491" lon="5.99797">
        <ele>1351</ele>
        <time>2014-01-12T15:32:03.000Z</time>
      </trkpt>
      <trkpt lat="45.22489" lon="5.99793">
        <ele>1350</ele>
        <time>2014-01-12T15:32:08.000Z</time>
      </trkpt>
      <trkpt lat="45.22488" lon="5.99789">
        <ele>1350</ele>
        <time>2014-01-12T15:32:12.000Z</time>
      </trkpt>
      <trkpt lat="45.22488" lon="5.99786">
        <ele>1349</ele>
        <time>2014-01-12T15:32:15.000Z</time>
      </trkpt>
      <trkpt lat="45.22488" lon="5.99785">
        <ele>1349</ele>
        <time>2014-01-12T15:32:16.000Z</time>
      </trkpt>
      <trkpt lat="45.2249" lon="5.99768">
        <ele>1348</ele>
        <time>2014-01-12T15:32:24.000Z</time>
      </trkpt>
      <trkpt lat="45.22496" lon="5.99744">
        <ele>1343</ele>
        <time>2014-01-12T15:32:32.000Z</time>
      </trkpt>
      <trkpt lat="45.22496" lon="5.99737">
        <ele>1341</ele>
        <time>2014-01-12T15:32:38.000Z</time>
      </trkpt>
      <trkpt lat="45.22496" lon="5.99737">
        <ele>1341</ele>
        <time>2014-01-12T15:32:46.000Z</time>
      </trkpt>
      <trkpt lat="45.225" lon="5.99731">
        <ele>1339</ele>
        <time>2014-01-12T15:32:49.000Z</time>
      </trkpt>
      <trkpt lat="45.22504" lon="5.99717">
        <ele>1354</ele>
        <time>2014-01-12T15:32:56.000Z</time>
      </trkpt>
      <trkpt lat="45.22506" lon="5.99704">
        <ele>1353</ele>
        <time>2014-01-12T15:33:04.000Z</time>
      </trkpt>
      <trkpt lat="45.22507" lon="5.99696">
        <ele>1351</ele>
        <time>2014-01-12T15:33:10.000Z</time>
      </trkpt>
      <trkpt lat="45.2251" lon="5.99681">
        <ele>1347</ele>
        <time>2014-01-12T15:33:19.000Z</time>
      </trkpt>
      <trkpt lat="45.22511" lon="5.99665">
        <ele>1337</ele>
        <time>2014-01-12T15:33:28.000Z</time>
      </trkpt>
      <trkpt lat="45.22507" lon="5.9965">
        <ele>1338</ele>
        <time>2014-01-12T15:33:37.000Z</time>
      </trkpt>
      <trkpt lat="45.22508" lon="5.99639">
        <ele>1338</ele>
        <time>2014-01-12T15:33:43.000Z</time>
      </trkpt>
      <trkpt lat="45.22506" lon="5.99628">
        <ele>1338</ele>
        <time>2014-01-12T15:33:52.000Z</time>
      </trkpt>
      <trkpt lat="45.22507" lon="5.99616">
        <ele>1336</ele>
        <time>2014-01-12T15:34:01.000Z</time>
      </trkpt>
      <trkpt lat="45.22508" lon="5.99614">
        <ele>1335</ele>
        <time>2014-01-12T15:34:03.000Z</time>
      </trkpt>
      <trkpt lat="45.22515" lon="5.99599">
        <ele>1333</ele>
        <time>2014-01-12T15:34:12.000Z</time>
      </trkpt>
      <trkpt lat="45.22518" lon="5.99593">
        <ele>1333</ele>
        <time>2014-01-12T15:34:15.000Z</time>
      </trkpt>
      <trkpt lat="45.22525" lon="5.99579">
        <ele>1325</ele>
        <time>2014-01-12T15:34:24.000Z</time>
      </trkpt>
      <trkpt lat="45.22531" lon="5.9957">
        <ele>1326</ele>
        <time>2014-01-12T15:34:32.000Z</time>
      </trkpt>
      <trkpt lat="45.22538" lon="5.99561">
        <ele>1327</ele>
        <time>2014-01-12T15:34:41.000Z</time>
      </trkpt>
      <trkpt lat="45.2254" lon="5.99558">
        <ele>1328</ele>
        <time>2014-01-12T15:34:44.000Z</time>
      </trkpt>
      <trkpt lat="45.22547" lon="5.99547">
        <ele>1328</ele>
        <time>2014-01-12T15:34:53.000Z</time>
      </trkpt>
      <trkpt lat="45.22552" lon="5.99541">
        <ele>1328</ele>
        <time>2014-01-12T15:35:01.000Z</time>
      </trkpt>
      <trkpt lat="45.2256" lon="5.99534">
        <ele>1328</ele>
        <time>2014-01-12T15:35:09.000Z</time>
      </trkpt>
      <trkpt lat="45.22565" lon="5.99526">
        <ele>1328</ele>
        <time>2014-01-12T15:35:17.000Z</time>
      </trkpt>
      <trkpt lat="45.22569" lon="5.99521">
        <ele>1327</ele>
        <time>2014-01-12T15:35:23.000Z</time>
      </trkpt>
      <trkpt lat="45.22577" lon="5.99511">
        <ele>1327</ele>
        <time>2014-01-12T15:35:31.000Z</time>
      </trkpt>
      <trkpt lat="45.22583" lon="5.99503">
        <ele>1327</ele>
        <time>2014-01-12T15:35:39.000Z</time>
      </trkpt>
      <trkpt lat="45.22588" lon="5.99494">
        <ele>1326</ele>
        <time>2014-01-12T15:35:46.000Z</time>
      </trkpt>
      <trkpt lat="45.22594" lon="5.99484">
        <ele>1325</ele>
        <time>2014-01-12T15:35:54.000Z</time>
      </trkpt>
      <trkpt lat="45.22601" lon="5.99477">
        <ele>1325</ele>
        <time>2014-01-12T15:36:01.000Z</time>
      </trkpt>
      <trkpt lat="45.22608" lon="5.99468">
        <ele>1324</ele>
        <time>2014-01-12T15:36:09.000Z</time>
      </trkpt>
      <trkpt lat="45.22619" lon="5.99455">
        <ele>1323</ele>
        <time>2014-01-12T15:36:18.000Z</time>
      </trkpt>
      <trkpt lat="45.22625" lon="5.99448">
        <ele>1323</ele>
        <time>2014-01-12T15:36:27.000Z</time>
      </trkpt>
      <trkpt lat="45.22632" lon="5.99443">
        <ele>1322</ele>
        <time>2014-01-12T15:36:45.000Z</time>
      </trkpt>
      <trkpt lat="45.22637" lon="5.9944">
        <ele>1322</ele>
        <time>2014-01-12T15:36:47.000Z</time>
      </trkpt>
      <trkpt lat="45.22647" lon="5.99434">
        <ele>1321</ele>
        <time>2014-01-12T15:36:51.000Z</time>
      </trkpt>
      <trkpt lat="45.22659" lon="5.99426">
        <ele>1318</ele>
        <time>2014-01-12T15:36:54.000Z</time>
      </trkpt>
      <trkpt lat="45.22686" lon="5.99408">
        <ele>1313</ele>
        <time>2014-01-12T15:37:02.000Z</time>
      </trkpt>
      <trkpt lat="45.22698" lon="5.99396">
        <ele>1313</ele>
        <time>2014-01-12T15:37:06.000Z</time>
      </trkpt>
      <trkpt lat="45.22725" lon="5.99371">
        <ele>1311</ele>
        <time>2014-01-12T15:37:15.000Z</time>
      </trkpt>
      <trkpt lat="45.22728" lon="5.99369">
        <ele>1310</ele>
        <time>2014-01-12T15:37:16.000Z</time>
      </trkpt>
      <trkpt lat="45.22742" lon="5.99356">
        <ele>1307</ele>
        <time>2014-01-12T15:37:22.000Z</time>
      </trkpt>
      <trkpt lat="45.22749" lon="5.99352">
        <ele>1305</ele>
        <time>2014-01-12T15:37:28.000Z</time>
      </trkpt>
      <trkpt lat="45.2275" lon="5.99351">
        <ele>1305</ele>
        <time>2014-01-12T15:37:37.000Z</time>
      </trkpt>
      <trkpt lat="45.22756" lon="5.9934">
        <ele>1310</ele>
        <time>2014-01-12T15:37:45.000Z</time>
      </trkpt>
      <trkpt lat="45.22758" lon="5.99338">
        <ele>1310</ele>
        <time>2014-01-12T15:37:47.000Z</time>
      </trkpt>
      <trkpt lat="45.22766" lon="5.99331">
        <ele>1295</ele>
        <time>2014-01-12T15:37:56.000Z</time>
      </trkpt>
      <trkpt lat="45.2277" lon="5.99326">
        <ele>1295</ele>
        <time>2014-01-12T15:38:00.000Z</time>
      </trkpt>
      <trkpt lat="45.22781" lon="5.99313">
        <ele>1293</ele>
        <time>2014-01-12T15:38:10.000Z</time>
      </trkpt>
      <trkpt lat="45.22789" lon="5.99302">
        <ele>1292</ele>
        <time>2014-01-12T15:38:19.000Z</time>
      </trkpt>
      <trkpt lat="45.22801" lon="5.99295">
        <ele>1292</ele>
        <time>2014-01-12T15:38:29.000Z</time>
      </trkpt>
      <trkpt lat="45.2281" lon="5.99289">
        <ele>1292</ele>
        <time>2014-01-12T15:38:37.000Z</time>
      </trkpt>
      <trkpt lat="45.22818" lon="5.99284">
        <ele>1290</ele>
        <time>2014-01-12T15:38:44.000Z</time>
      </trkpt>
      <trkpt lat="45.22819" lon="5.99283">
        <ele>1290</ele>
        <time>2014-01-12T15:38:45.000Z</time>
      </trkpt>
      <trkpt lat="45.22829" lon="5.99274">
        <ele>1287</ele>
        <time>2014-01-12T15:38:55.000Z</time>
      </trkpt>
      <trkpt lat="45.22841" lon="5.99271">
        <ele>1302</ele>
        <time>2014-01-12T15:39:04.000Z</time>
      </trkpt>
      <trkpt lat="45.22842" lon="5.99271">
        <ele>1303</ele>
        <time>2014-01-12T15:39:10.000Z</time>
      </trkpt>
      <trkpt lat="45.22845" lon="5.99267">
        <ele>1300</ele>
        <time>2014-01-12T15:39:20.000Z</time>
      </trkpt>
      <trkpt lat="45.22847" lon="5.99263">
        <ele>1299</ele>
        <time>2014-01-12T15:39:26.000Z</time>
      </trkpt>
      <trkpt lat="45.22847" lon="5.99262">
        <ele>1299</ele>
        <time>2014-01-12T15:39:33.000Z</time>
      </trkpt>
      <trkpt lat="45.22849" lon="5.99261">
        <ele>1299</ele>
        <time>2014-01-12T15:39:37.000Z</time>
      </trkpt>
      <trkpt lat="45.22865" lon="5.99239">
        <ele>1280</ele>
        <time>2014-01-12T15:39:44.000Z</time>
      </trkpt>
      <trkpt lat="45.22868" lon="5.99234">
        <ele>1280</ele>
        <time>2014-01-12T15:39:45.000Z</time>
      </trkpt>
      <trkpt lat="45.22877" lon="5.9922">
        <ele>1279</ele>
        <time>2014-01-12T15:39:49.000Z</time>
      </trkpt>
      <trkpt lat="45.22893" lon="5.99194">
        <ele>1277</ele>
        <time>2014-01-12T15:39:55.000Z</time>
      </trkpt>
      <trkpt lat="45.22898" lon="5.99186">
        <ele>1276</ele>
        <time>2014-01-12T15:39:57.000Z</time>
      </trkpt>
      <trkpt lat="45.22916" lon="5.99167">
        <ele>1273</ele>
        <time>2014-01-12T15:40:04.000Z</time>
      </trkpt>
      <trkpt lat="45.22934" lon="5.99164">
        <ele>1268</ele>
        <time>2014-01-12T15:40:11.000Z</time>
      </trkpt>
      <trkpt lat="45.22939" lon="5.99164">
        <ele>1267</ele>
        <time>2014-01-12T15:40:17.000Z</time>
      </trkpt>
      <trkpt lat="45.22945" lon="5.99166">
        <ele>1267</ele>
        <time>2014-01-12T15:40:26.000Z</time>
      </trkpt>
      <trkpt lat="45.22952" lon="5.99166">
        <ele>1267</ele>
        <time>2014-01-12T15:40:33.000Z</time>
      </trkpt>
      <trkpt lat="45.22952" lon="5.99167">
        <ele>1289</ele>
        <time>2014-01-12T15:40:46.000Z</time>
      </trkpt>
      <trkpt lat="45.22958" lon="5.99167">
        <ele>1290</ele>
        <time>2014-01-12T15:40:54.000Z</time>
      </trkpt>
      <trkpt lat="45.2297" lon="5.99162">
        <ele>1268</ele>
        <time>2014-01-12T15:41:03.000Z</time>
      </trkpt>
      <trkpt lat="45.22971" lon="5.99161">
        <ele>1268</ele>
        <time>2014-01-12T15:41:04.000Z</time>
      </trkpt>
      <trkpt lat="45.22972" lon="5.9916">
        <ele>1268</ele>
        <time>2014-01-12T15:41:05.000Z</time>
      </trkpt>
      <trkpt lat="45.22974" lon="5.99159">
        <ele>1269</ele>
        <time>2014-01-12T15:41:06.000Z</time>
      </trkpt>
      <trkpt lat="45.22985" lon="5.99154">
        <ele>1270</ele>
        <time>2014-01-12T15:41:15.000Z</time>
      </trkpt>
      <trkpt lat="45.22998" lon="5.9915">
        <ele>1271</ele>
        <time>2014-01-12T15:41:24.000Z</time>
      </trkpt>
      <trkpt lat="45.23007" lon="5.99144">
        <ele>1273</ele>
        <time>2014-01-12T15:41:33.000Z</time>
      </trkpt>
      <trkpt lat="45.23008" lon="5.99143">
        <ele>1273</ele>
        <time>2014-01-12T15:41:34.000Z</time>
      </trkpt>
      <trkpt lat="45.23009" lon="5.99143">
        <ele>1273</ele>
        <time>2014-01-12T15:41:35.000Z</time>
      </trkpt>
      <trkpt lat="45.2302" lon="5.99139">
        <ele>1272</ele>
        <time>2014-01-12T15:41:43.000Z</time>
      </trkpt>
      <trkpt lat="45.2303" lon="5.99135">
        <ele>1271</ele>
        <time>2014-01-12T15:41:51.000Z</time>
      </trkpt>
      <trkpt lat="45.23041" lon="5.99132">
        <ele>1271</ele>
        <time>2014-01-12T15:41:59.000Z</time>
      </trkpt>
      <trkpt lat="45.23043" lon="5.99131">
        <ele>1271</ele>
        <time>2014-01-12T15:42:02.000Z</time>
      </trkpt>
      <trkpt lat="45.23045" lon="5.99129">
        <ele>1270</ele>
        <time>2014-01-12T15:42:03.000Z</time>
      </trkpt>
      <trkpt lat="45.23046" lon="5.99129">
        <ele>1270</ele>
        <time>2014-01-12T15:42:04.000Z</time>
      </trkpt>
      <trkpt lat="45.23047" lon="5.99129">
        <ele>1270</ele>
        <time>2014-01-12T15:42:05.000Z</time>
      </trkpt>
      <trkpt lat="45.23048" lon="5.99128">
        <ele>1270</ele>
        <time>2014-01-12T15:42:06.000Z</time>
      </trkpt>
      <trkpt lat="45.2305" lon="5.99128">
        <ele>1270</ele>
        <time>2014-01-12T15:42:07.000Z</time>
      </trkpt>
      <trkpt lat="45.23053" lon="5.99127">
        <ele>1270</ele>
        <time>2014-01-12T15:42:10.000Z</time>
      </trkpt>
      <trkpt lat="45.23055" lon="5.99126">
        <ele>1270</ele>
        <time>2014-01-12T15:42:11.000Z</time>
      </trkpt>
      <trkpt lat="45.23066" lon="5.99122">
        <ele>1270</ele>
        <time>2014-01-12T15:42:21.000Z</time>
      </trkpt>
      <trkpt lat="45.23077" lon="5.99119">
        <ele>1269</ele>
        <time>2014-01-12T15:42:30.000Z</time>
      </trkpt>
      <trkpt lat="45.23088" lon="5.99112">
        <ele>1275</ele>
        <time>2014-01-12T15:42:40.000Z</time>
      </trkpt>
      <trkpt lat="45.23099" lon="5.99107">
        <ele>1274</ele>
        <time>2014-01-12T15:42:49.000Z</time>
      </trkpt>
      <trkpt lat="45.23107" lon="5.99105">
        <ele>1275</ele>
        <time>2014-01-12T15:42:55.000Z</time>
      </trkpt>
      <trkpt lat="45.23117" lon="5.99099">
        <ele>1276</ele>
        <time>2014-01-12T15:43:03.000Z</time>
      </trkpt>
      <trkpt lat="45.2312" lon="5.99098">
        <ele>1277</ele>
        <time>2014-01-12T15:43:05.000Z</time>
      </trkpt>
      <trkpt lat="45.23122" lon="5.99097">
        <ele>1277</ele>
        <time>2014-01-12T15:43:06.000Z</time>
      </trkpt>
      <trkpt lat="45.23123" lon="5.99095">
        <ele>1277</ele>
        <time>2014-01-12T15:43:07.000Z</time>
      </trkpt>
      <trkpt lat="45.23124" lon="5.99094">
        <ele>1277</ele>
        <time>2014-01-12T15:43:08.000Z</time>
      </trkpt>
      <trkpt lat="45.23125" lon="5.99092">
        <ele>1277</ele>
        <time>2014-01-12T15:43:09.000Z</time>
      </trkpt>
      <trkpt lat="45.23126" lon="5.9909">
        <ele>1277</ele>
        <time>2014-01-12T15:43:10.000Z</time>
      </trkpt>
      <trkpt lat="45.2313" lon="5.99082">
        <ele>1261</ele>
        <time>2014-01-12T15:43:17.000Z</time>
      </trkpt>
      <trkpt lat="45.23131" lon="5.9908">
        <ele>1261</ele>
        <time>2014-01-12T15:43:19.000Z</time>
      </trkpt>
      <trkpt lat="45.23132" lon="5.99079">
        <ele>1261</ele>
        <time>2014-01-12T15:43:20.000Z</time>
      </trkpt>
      <trkpt lat="45.23136" lon="5.99065">
        <ele>1260</ele>
        <time>2014-01-12T15:43:29.000Z</time>
      </trkpt>
      <trkpt lat="45.2314" lon="5.99052">
        <ele>1259</ele>
        <time>2014-01-12T15:43:37.000Z</time>
      </trkpt>
      <trkpt lat="45.23141" lon="5.99044">
        <ele>1258</ele>
        <time>2014-01-12T15:43:40.000Z</time>
      </trkpt>
      <trkpt lat="45.23141" lon="5.99042">
        <ele>1258</ele>
        <time>2014-01-12T15:43:41.000Z</time>
      </trkpt>
      <trkpt lat="45.23142" lon="5.9904">
        <ele>1258</ele>
        <time>2014-01-12T15:43:42.000Z</time>
      </trkpt>
      <trkpt lat="45.23143" lon="5.99038">
        <ele>1257</ele>
        <time>2014-01-12T15:43:43.000Z</time>
      </trkpt>
      <trkpt lat="45.23143" lon="5.99036">
        <ele>1257</ele>
        <time>2014-01-12T15:43:44.000Z</time>
      </trkpt>
      <trkpt lat="45.23146" lon="5.99026">
        <ele>1256</ele>
        <time>2014-01-12T15:43:51.000Z</time>
      </trkpt>
      <trkpt lat="45.23147" lon="5.9902">
        <ele>1256</ele>
        <time>2014-01-12T15:43:55.000Z</time>
      </trkpt>
      <trkpt lat="45.23151" lon="5.99008">
        <ele>1256</ele>
        <time>2014-01-12T15:44:03.000Z</time>
      </trkpt>
      <trkpt lat="45.23152" lon="5.99006">
        <ele>1256</ele>
        <time>2014-01-12T15:44:04.000Z</time>
      </trkpt>
      <trkpt lat="45.23156" lon="5.99">
        <ele>1251</ele>
        <time>2014-01-12T15:44:08.000Z</time>
      </trkpt>
      <trkpt lat="45.23162" lon="5.98988">
        <ele>1250</ele>
        <time>2014-01-12T15:44:16.000Z</time>
      </trkpt>
      <trkpt lat="45.2317" lon="5.98977">
        <ele>1254</ele>
        <time>2014-01-12T15:44:24.000Z</time>
      </trkpt>
      <trkpt lat="45.23177" lon="5.98966">
        <ele>1253</ele>
        <time>2014-01-12T15:44:32.000Z</time>
      </trkpt>
      <trkpt lat="45.23178" lon="5.98963">
        <ele>1253</ele>
        <time>2014-01-12T15:44:34.000Z</time>
      </trkpt>
      <trkpt lat="45.23179" lon="5.98962">
        <ele>1253</ele>
        <time>2014-01-12T15:44:35.000Z</time>
      </trkpt>
      <trkpt lat="45.2318" lon="5.9896">
        <ele>1252</ele>
        <time>2014-01-12T15:44:36.000Z</time>
      </trkpt>
      <trkpt lat="45.2318" lon="5.98958">
        <ele>1252</ele>
        <time>2014-01-12T15:44:37.000Z</time>
      </trkpt>
      <trkpt lat="45.23182" lon="5.98954">
        <ele>1252</ele>
        <time>2014-01-12T15:44:40.000Z</time>
      </trkpt>
      <trkpt lat="45.23183" lon="5.98953">
        <ele>1252</ele>
        <time>2014-01-12T15:44:41.000Z</time>
      </trkpt>
      <trkpt lat="45.23184" lon="5.98951">
        <ele>1251</ele>
        <time>2014-01-12T15:44:42.000Z</time>
      </trkpt>
      <trkpt lat="45.23184" lon="5.9895">
        <ele>1251</ele>
        <time>2014-01-12T15:44:43.000Z</time>
      </trkpt>
      <trkpt lat="45.23186" lon="5.98946">
        <ele>1251</ele>
        <time>2014-01-12T15:44:46.000Z</time>
      </trkpt>
      <trkpt lat="45.23194" lon="5.9893">
        <ele>1249</ele>
        <time>2014-01-12T15:44:57.000Z</time>
      </trkpt>
      <trkpt lat="45.23197" lon="5.98919">
        <ele>1249</ele>
        <time>2014-01-12T15:45:05.000Z</time>
      </trkpt>
      <trkpt lat="45.23201" lon="5.98912">
        <ele>1238</ele>
        <time>2014-01-12T15:45:10.000Z</time>
      </trkpt>
      <trkpt lat="45.2321" lon="5.98904">
        <ele>1238</ele>
        <time>2014-01-12T15:45:19.000Z</time>
      </trkpt>
      <trkpt lat="45.23217" lon="5.98896">
        <ele>1238</ele>
        <time>2014-01-12T15:45:28.000Z</time>
      </trkpt>
      <trkpt lat="45.2323" lon="5.9889">
        <ele>1238</ele>
        <time>2014-01-12T15:45:36.000Z</time>
      </trkpt>
      <trkpt lat="45.2324" lon="5.98885">
        <ele>1237</ele>
        <time>2014-01-12T15:45:45.000Z</time>
      </trkpt>
      <trkpt lat="45.23242" lon="5.98884">
        <ele>1237</ele>
        <time>2014-01-12T15:45:46.000Z</time>
      </trkpt>
      <trkpt lat="45.23243" lon="5.98883">
        <ele>1237</ele>
        <time>2014-01-12T15:45:47.000Z</time>
      </trkpt>
      <trkpt lat="45.23254" lon="5.98882">
        <ele>1238</ele>
        <time>2014-01-12T15:45:55.000Z</time>
      </trkpt>
      <trkpt lat="45.23268" lon="5.9888">
        <ele>1238</ele>
        <time>2014-01-12T15:46:04.000Z</time>
      </trkpt>
      <trkpt lat="45.23275" lon="5.98876">
        <ele>1237</ele>
        <time>2014-01-12T15:46:11.000Z</time>
      </trkpt>
      <trkpt lat="45.23283" lon="5.98873">
        <ele>1237</ele>
        <time>2014-01-12T15:46:18.000Z</time>
      </trkpt>
      <trkpt lat="45.2329" lon="5.98866">
        <ele>1236</ele>
        <time>2014-01-12T15:46:25.000Z</time>
      </trkpt>
      <trkpt lat="45.23298" lon="5.98857">
        <ele>1235</ele>
        <time>2014-01-12T15:46:34.000Z</time>
      </trkpt>
      <trkpt lat="45.233" lon="5.98857">
        <ele>1235</ele>
        <time>2014-01-12T15:46:35.000Z</time>
      </trkpt>
      <trkpt lat="45.23301" lon="5.98856">
        <ele>1235</ele>
        <time>2014-01-12T15:46:36.000Z</time>
      </trkpt>
      <trkpt lat="45.23303" lon="5.98855">
        <ele>1235</ele>
        <time>2014-01-12T15:46:37.000Z</time>
      </trkpt>
      <trkpt lat="45.23304" lon="5.98854">
        <ele>1235</ele>
        <time>2014-01-12T15:46:38.000Z</time>
      </trkpt>
      <trkpt lat="45.23306" lon="5.98854">
        <ele>1234</ele>
        <time>2014-01-12T15:46:39.000Z</time>
      </trkpt>
      <trkpt lat="45.23308" lon="5.9885">
        <ele>1234</ele>
        <time>2014-01-12T15:46:42.000Z</time>
      </trkpt>
      <trkpt lat="45.23309" lon="5.98848">
        <ele>1234</ele>
        <time>2014-01-12T15:46:43.000Z</time>
      </trkpt>
      <trkpt lat="45.2331" lon="5.98846">
        <ele>1233</ele>
        <time>2014-01-12T15:46:44.000Z</time>
      </trkpt>
      <trkpt lat="45.23313" lon="5.98844">
        <ele>1233</ele>
        <time>2014-01-12T15:46:47.000Z</time>
      </trkpt>
      <trkpt lat="45.23325" lon="5.98834">
        <ele>1229</ele>
        <time>2014-01-12T15:46:57.000Z</time>
      </trkpt>
      <trkpt lat="45.23336" lon="5.98827">
        <ele>1224</ele>
        <time>2014-01-12T15:47:06.000Z</time>
      </trkpt>
      <trkpt lat="45.23346" lon="5.98818">
        <ele>1221</ele>
        <time>2014-01-12T15:47:15.000Z</time>
      </trkpt>
      <trkpt lat="45.23351" lon="5.98815">
        <ele>1221</ele>
        <time>2014-01-12T15:47:21.000Z</time>
      </trkpt>
      <trkpt lat="45.23352" lon="5.98814">
        <ele>1220</ele>
        <time>2014-01-12T15:47:22.000Z</time>
      </trkpt>
      <trkpt lat="45.23353" lon="5.98812">
        <ele>1220</ele>
        <time>2014-01-12T15:47:23.000Z</time>
      </trkpt>
      <trkpt lat="45.23355" lon="5.9881">
        <ele>1220</ele>
        <time>2014-01-12T15:47:27.000Z</time>
      </trkpt>
      <trkpt lat="45.23355" lon="5.9881">
        <ele>1220</ele>
        <time>2014-01-12T15:47:32.000Z</time>
      </trkpt>
      <trkpt lat="45.23355" lon="5.9881">
        <ele>1220</ele>
        <time>2014-01-12T15:47:41.000Z</time>
      </trkpt>
      <trkpt lat="45.23364" lon="5.98804">
        <ele>1219</ele>
        <time>2014-01-12T15:47:47.000Z</time>
      </trkpt>
      <trkpt lat="45.23383" lon="5.98789">
        <ele>1218</ele>
        <time>2014-01-12T15:47:54.000Z</time>
      </trkpt>
      <trkpt lat="45.23398" lon="5.98774">
        <ele>1217</ele>
        <time>2014-01-12T15:48:00.000Z</time>
      </trkpt>
      <trkpt lat="45.23414" lon="5.98761">
        <ele>1215</ele>
        <time>2014-01-12T15:48:07.000Z</time>
      </trkpt>
      <trkpt lat="45.23429" lon="5.98742">
        <ele>1214</ele>
        <time>2014-01-12T15:48:13.000Z</time>
      </trkpt>
      <trkpt lat="45.23432" lon="5.98735">
        <ele>1214</ele>
        <time>2014-01-12T15:48:15.000Z</time>
      </trkpt>
      <trkpt lat="45.23439" lon="5.98725">
        <ele>1213</ele>
        <time>2014-01-12T15:48:22.000Z</time>
      </trkpt>
      <trkpt lat="45.23444" lon="5.98719">
        <ele>1213</ele>
        <time>2014-01-12T15:48:36.000Z</time>
      </trkpt>
      <trkpt lat="45.23446" lon="5.98717">
        <ele>1213</ele>
        <time>2014-01-12T15:48:39.000Z</time>
      </trkpt>
      <trkpt lat="45.23447" lon="5.98714">
        <ele>1213</ele>
        <time>2014-01-12T15:48:42.000Z</time>
      </trkpt>
      <trkpt lat="45.23453" lon="5.98703">
        <ele>1213</ele>
        <time>2014-01-12T15:48:50.000Z</time>
      </trkpt>
      <trkpt lat="45.23459" lon="5.98694">
        <ele>1212</ele>
        <time>2014-01-12T15:48:57.000Z</time>
      </trkpt>
      <trkpt lat="45.23462" lon="5.98692">
        <ele>1212</ele>
        <time>2014-01-12T15:49:03.000Z</time>
      </trkpt>
      <trkpt lat="45.23465" lon="5.98685">
        <ele>1212</ele>
        <time>2014-01-12T15:49:09.000Z</time>
      </trkpt>
      <trkpt lat="45.23469" lon="5.9868">
        <ele>1212</ele>
        <time>2014-01-12T15:49:14.000Z</time>
      </trkpt>
      <trkpt lat="45.2347" lon="5.98679">
        <ele>1212</ele>
        <time>2014-01-12T15:49:15.000Z</time>
      </trkpt>
      <trkpt lat="45.23476" lon="5.98671">
        <ele>1213</ele>
        <time>2014-01-12T15:49:21.000Z</time>
      </trkpt>
      <trkpt lat="45.23483" lon="5.98661">
        <ele>1205</ele>
        <time>2014-01-12T15:49:28.000Z</time>
      </trkpt>
      <trkpt lat="45.23489" lon="5.98652">
        <ele>1205</ele>
        <time>2014-01-12T15:49:34.000Z</time>
      </trkpt>
      <trkpt lat="45.23495" lon="5.98643">
        <ele>1203</ele>
        <time>2014-01-12T15:49:42.000Z</time>
      </trkpt>
      <trkpt lat="45.23501" lon="5.98634">
        <ele>1211</ele>
        <time>2014-01-12T15:49:52.000Z</time>
      </trkpt>
      <trkpt lat="45.23512" lon="5.98621">
        <ele>1210</ele>
        <time>2014-01-12T15:50:01.000Z</time>
      </trkpt>
      <trkpt lat="45.23513" lon="5.98621">
        <ele>1210</ele>
        <time>2014-01-12T15:50:16.000Z</time>
      </trkpt>
      <trkpt lat="45.23513" lon="5.98621">
        <ele>1210</ele>
        <time>2014-01-12T15:50:35.000Z</time>
      </trkpt>
      <trkpt lat="45.23515" lon="5.98618">
        <ele>1209</ele>
        <time>2014-01-12T15:50:46.000Z</time>
      </trkpt>
      <trkpt lat="45.23514" lon="5.98618">
        <ele>1209</ele>
        <time>2014-01-12T15:50:56.000Z</time>
      </trkpt>
      <trkpt lat="45.23514" lon="5.98618">
        <ele>1209</ele>
        <time>2014-01-12T15:51:19.000Z</time>
      </trkpt>
      <trkpt lat="45.23516" lon="5.98618">
        <ele>1210</ele>
        <time>2014-01-12T15:51:37.000Z</time>
      </trkpt>
      <trkpt lat="45.23518" lon="5.98615">
        <ele>1209</ele>
        <time>2014-01-12T15:51:49.000Z</time>
      </trkpt>
      <trkpt lat="45.23518" lon="5.98615">
        <ele>1209</ele>
        <time>2014-01-12T15:52:00.000Z</time>
      </trkpt>
      <trkpt lat="45.23519" lon="5.98613">
        <ele>1209</ele>
        <time>2014-01-12T15:52:13.000Z</time>
      </trkpt>
      <trkpt lat="45.23519" lon="5.98614">
        <ele>1209</ele>
        <time>2014-01-12T15:52:30.000Z</time>
      </trkpt>
      <trkpt lat="45.2352" lon="5.98614">
        <ele>1209</ele>
        <time>2014-01-12T15:52:58.000Z</time>
      </trkpt>
      <trkpt lat="45.2352" lon="5.98614">
        <ele>1209</ele>
        <time>2014-01-12T15:53:27.000Z</time>
      </trkpt>
      <trkpt lat="45.23519" lon="5.98614">
        <ele>1209</ele>
        <time>2014-01-12T15:53:53.000Z</time>
      </trkpt>
      <trkpt lat="45.2352" lon="5.98614">
        <ele>1209</ele>
        <time>2014-01-12T15:54:10.000Z</time>
      </trkpt>
      <trkpt lat="45.23521" lon="5.98614">
        <ele>1209</ele>
        <time>2014-01-12T15:54:29.000Z</time>
      </trkpt>
      <trkpt lat="45.23521" lon="5.98612">
        <ele>1209</ele>
        <time>2014-01-12T15:54:30.000Z</time>
      </trkpt>
      <trkpt lat="45.23521" lon="5.98611">
        <ele>1209</ele>
        <time>2014-01-12T15:54:31.000Z</time>
      </trkpt>
      <trkpt lat="45.23522" lon="5.9861">
        <ele>1209</ele>
        <time>2014-01-12T15:55:25.000Z</time>
      </trkpt>
      <trkpt lat="45.23522" lon="5.98609">
        <ele>1209</ele>
        <time>2014-01-12T15:57:08.000Z</time>
      </trkpt>
      <trkpt lat="45.23522" lon="5.98609">
        <ele>1209</ele>
        <time>2014-01-12T15:58:08.000Z</time>
      </trkpt>
      <trkpt lat="45.23523" lon="5.98608">
        <ele>1209</ele>
        <time>2014-01-12T15:58:30.000Z</time>
      </trkpt>
      <trkpt lat="45.23523" lon="5.9861">
        <ele>1209</ele>
        <time>2014-01-12T16:00:35.000Z</time>
      </trkpt>
      <trkpt lat="45.23523" lon="5.9861">
        <ele>1209</ele>
        <time>2014-01-12T16:01:04.000Z</time>
      </trkpt>
      <trkpt lat="45.23524" lon="5.98611">
        <ele>1209</ele>
        <time>2014-01-12T16:01:25.000Z</time>
      </trkpt>
      <trkpt lat="45.23524" lon="5.98611">
        <ele>1209</ele>
        <time>2014-01-12T16:02:14.000Z</time>
      </trkpt>
      <trkpt lat="45.23524" lon="5.98611">
        <ele>1209</ele>
        <time>2014-01-12T16:02:25.000Z</time>
      </trkpt>
      <trkpt lat="45.23524" lon="5.98611">
        <ele>1209</ele>
        <time>2014-01-12T16:02:26.000Z</time>
      </trkpt>
      <trkpt lat="45.23524" lon="5.98611">
        <ele>1209</ele>
        <time>2014-01-12T16:02:28.000Z</time>
      </trkpt>
      <trkpt lat="45.23522" lon="5.9861">
        <ele>1209</ele>
        <time>2014-01-12T16:02:41.000Z</time>
      </trkpt>
      <trkpt lat="45.23523" lon="5.98609">
        <ele>1209</ele>
        <time>2014-01-12T16:02:47.000Z</time>
      </trkpt>
      <trkpt lat="45.23523" lon="5.98607">
        <ele>1208</ele>
        <time>2014-01-12T16:02:57.000Z</time>
      </trkpt>
      <trkpt lat="45.23523" lon="5.98607">
        <ele>1208</ele>
        <time>2014-01-12T16:03:14.000Z</time>
      </trkpt>
    </trkseg>
  </trk>
</gpx>